<?xml version="1.0" encoding="UTF-8" standalone="no" ?>
<gpx xmlns="http://www.topografix.com/GPX/1/1" xmlns:xsi="http://www.w3.org/2001/XMLSchema-instance" xsi:schemaLocation="http://www.topografix.com/GPX/1/1 http://www.topografix.com/GPX/1/1/gpx.xsd" version="1.1" creator="VisuGPX - https://www.visugpx.com">
  <metadata>
    <name>sortie vtt avec Escapade</name>
    <desc><![CDATA[sortie vtt avec nos amis du club Escapade ]]></desc>
  </metadata>
  <trk>
    <name><![CDATA[16-JAN-16 16:39:56]]></name>
    <trkseg>
      <trkpt lat="44.47207" lon="0.93424">
        <ele>75.12</ele>
        <time>2016-01-16T08:13:46Z</time>
      </trkpt>
      <trkpt lat="44.47207" lon="0.93424">
        <ele>74.64</ele>
        <time>2016-01-16T08:14:16Z</time>
      </trkpt>
      <trkpt lat="44.47207" lon="0.93424">
        <ele>74.16</ele>
        <time>2016-01-16T08:14:50Z</time>
      </trkpt>
      <trkpt lat="44.47207" lon="0.93425">
        <ele>74.16</ele>
        <time>2016-01-16T08:15:25Z</time>
      </trkpt>
      <trkpt lat="44.47207" lon="0.93423">
        <ele>75.6</ele>
        <time>2016-01-16T08:15:59Z</time>
      </trkpt>
      <trkpt lat="44.47207" lon="0.93422">
        <ele>75.12</ele>
        <time>2016-01-16T08:16:38Z</time>
      </trkpt>
      <trkpt lat="44.47206" lon="0.93423">
        <ele>74.16</ele>
        <time>2016-01-16T08:17:13Z</time>
      </trkpt>
      <trkpt lat="44.47206" lon="0.93422">
        <ele>73.68</ele>
        <time>2016-01-16T08:17:41Z</time>
      </trkpt>
      <trkpt lat="44.47206" lon="0.93423">
        <ele>73.2</ele>
        <time>2016-01-16T08:17:55Z</time>
      </trkpt>
      <trkpt lat="44.47207" lon="0.93423">
        <ele>72.72</ele>
        <time>2016-01-16T08:18:12Z</time>
      </trkpt>
      <trkpt lat="44.47207" lon="0.93423">
        <ele>73.2</ele>
        <time>2016-01-16T08:18:33Z</time>
      </trkpt>
      <trkpt lat="44.47208" lon="0.93423">
        <ele>74.16</ele>
        <time>2016-01-16T08:18:52Z</time>
      </trkpt>
      <trkpt lat="44.47209" lon="0.93423">
        <ele>74.64</ele>
        <time>2016-01-16T08:19:10Z</time>
      </trkpt>
      <trkpt lat="44.47208" lon="0.93423">
        <ele>75.12</ele>
        <time>2016-01-16T08:19:27Z</time>
      </trkpt>
      <trkpt lat="44.47208" lon="0.93424">
        <ele>74.64</ele>
        <time>2016-01-16T08:19:54Z</time>
      </trkpt>
      <trkpt lat="44.47208" lon="0.93424">
        <ele>74.16</ele>
        <time>2016-01-16T08:20:24Z</time>
      </trkpt>
      <trkpt lat="44.47207" lon="0.93425">
        <ele>73.68</ele>
        <time>2016-01-16T08:20:54Z</time>
      </trkpt>
      <trkpt lat="44.47207" lon="0.93425">
        <ele>72.72</ele>
        <time>2016-01-16T08:21:26Z</time>
      </trkpt>
      <trkpt lat="44.47207" lon="0.93425">
        <ele>72.72</ele>
        <time>2016-01-16T08:21:44Z</time>
      </trkpt>
      <trkpt lat="44.47207" lon="0.93426">
        <ele>72.24</ele>
        <time>2016-01-16T08:22:12Z</time>
      </trkpt>
      <trkpt lat="44.47207" lon="0.93426">
        <ele>72.24</ele>
        <time>2016-01-16T08:22:23Z</time>
      </trkpt>
      <trkpt lat="44.47208" lon="0.93427">
        <ele>72.24</ele>
        <time>2016-01-16T08:22:25Z</time>
      </trkpt>
      <trkpt lat="44.47213" lon="0.93447">
        <ele>73.68</ele>
        <time>2016-01-16T08:22:39Z</time>
      </trkpt>
      <trkpt lat="44.47213" lon="0.93448">
        <ele>74.16</ele>
        <time>2016-01-16T08:22:48Z</time>
      </trkpt>
      <trkpt lat="44.47211" lon="0.93438">
        <ele>73.2</ele>
        <time>2016-01-16T08:22:57Z</time>
      </trkpt>
      <trkpt lat="44.47204" lon="0.9343">
        <ele>73.2</ele>
        <time>2016-01-16T08:23:03Z</time>
      </trkpt>
      <trkpt lat="44.47199" lon="0.93432">
        <ele>73.2</ele>
        <time>2016-01-16T08:23:06Z</time>
      </trkpt>
      <trkpt lat="44.47195" lon="0.93435">
        <ele>72.24</ele>
        <time>2016-01-16T08:23:20Z</time>
      </trkpt>
      <trkpt lat="44.47195" lon="0.93435">
        <ele>72.24</ele>
        <time>2016-01-16T08:23:35Z</time>
      </trkpt>
      <trkpt lat="44.47195" lon="0.93435">
        <ele>72.72</ele>
        <time>2016-01-16T08:23:52Z</time>
      </trkpt>
      <trkpt lat="44.47194" lon="0.93435">
        <ele>72.24</ele>
        <time>2016-01-16T08:24:15Z</time>
      </trkpt>
      <trkpt lat="44.47194" lon="0.93435">
        <ele>71.27</ele>
        <time>2016-01-16T08:24:38Z</time>
      </trkpt>
      <trkpt lat="44.47194" lon="0.93435">
        <ele>70.31</ele>
        <time>2016-01-16T08:24:51Z</time>
      </trkpt>
      <trkpt lat="44.47194" lon="0.93436">
        <ele>69.83</ele>
        <time>2016-01-16T08:25:12Z</time>
      </trkpt>
      <trkpt lat="44.47194" lon="0.93435">
        <ele>70.31</ele>
        <time>2016-01-16T08:25:33Z</time>
      </trkpt>
      <trkpt lat="44.47194" lon="0.93435">
        <ele>70.79</ele>
        <time>2016-01-16T08:25:45Z</time>
      </trkpt>
      <trkpt lat="44.47195" lon="0.93434">
        <ele>71.27</ele>
        <time>2016-01-16T08:26:05Z</time>
      </trkpt>
      <trkpt lat="44.47195" lon="0.93435">
        <ele>72.72</ele>
        <time>2016-01-16T08:26:28Z</time>
      </trkpt>
      <trkpt lat="44.47195" lon="0.93435">
        <ele>72.72</ele>
        <time>2016-01-16T08:26:58Z</time>
      </trkpt>
      <trkpt lat="44.47195" lon="0.93435">
        <ele>71.27</ele>
        <time>2016-01-16T08:27:19Z</time>
      </trkpt>
      <trkpt lat="44.47196" lon="0.93435">
        <ele>71.76</ele>
        <time>2016-01-16T08:27:46Z</time>
      </trkpt>
      <trkpt lat="44.47196" lon="0.93435">
        <ele>71.76</ele>
        <time>2016-01-16T08:28:00Z</time>
      </trkpt>
      <trkpt lat="44.47195" lon="0.93435">
        <ele>71.76</ele>
        <time>2016-01-16T08:28:17Z</time>
      </trkpt>
      <trkpt lat="44.47195" lon="0.93436">
        <ele>72.72</ele>
        <time>2016-01-16T08:28:33Z</time>
      </trkpt>
      <trkpt lat="44.47195" lon="0.93436">
        <ele>71.76</ele>
        <time>2016-01-16T08:28:53Z</time>
      </trkpt>
      <trkpt lat="44.47196" lon="0.93436">
        <ele>70.31</ele>
        <time>2016-01-16T08:29:16Z</time>
      </trkpt>
      <trkpt lat="44.47196" lon="0.93436">
        <ele>70.31</ele>
        <time>2016-01-16T08:29:33Z</time>
      </trkpt>
      <trkpt lat="44.47195" lon="0.93436">
        <ele>70.31</ele>
        <time>2016-01-16T08:29:51Z</time>
      </trkpt>
      <trkpt lat="44.47196" lon="0.93436">
        <ele>70.31</ele>
        <time>2016-01-16T08:30:08Z</time>
      </trkpt>
      <trkpt lat="44.47196" lon="0.93437">
        <ele>69.35</ele>
        <time>2016-01-16T08:30:29Z</time>
      </trkpt>
      <trkpt lat="44.47195" lon="0.93437">
        <ele>68.87</ele>
        <time>2016-01-16T08:30:47Z</time>
      </trkpt>
      <trkpt lat="44.47195" lon="0.93437">
        <ele>68.39</ele>
        <time>2016-01-16T08:31:06Z</time>
      </trkpt>
      <trkpt lat="44.47196" lon="0.93437">
        <ele>67.43</ele>
        <time>2016-01-16T08:31:28Z</time>
      </trkpt>
      <trkpt lat="44.47196" lon="0.93437">
        <ele>67.43</ele>
        <time>2016-01-16T08:31:44Z</time>
      </trkpt>
      <trkpt lat="44.47201" lon="0.9344">
        <ele>69.35</ele>
        <time>2016-01-16T08:31:56Z</time>
      </trkpt>
      <trkpt lat="44.47201" lon="0.9344">
        <ele>70.31</ele>
        <time>2016-01-16T08:32:15Z</time>
      </trkpt>
      <trkpt lat="44.47201" lon="0.9344">
        <ele>70.79</ele>
        <time>2016-01-16T08:32:40Z</time>
      </trkpt>
      <trkpt lat="44.47201" lon="0.9344">
        <ele>71.76</ele>
        <time>2016-01-16T08:32:59Z</time>
      </trkpt>
      <trkpt lat="44.47202" lon="0.9344">
        <ele>71.27</ele>
        <time>2016-01-16T08:33:21Z</time>
      </trkpt>
      <trkpt lat="44.47202" lon="0.93441">
        <ele>71.27</ele>
        <time>2016-01-16T08:33:27Z</time>
      </trkpt>
      <trkpt lat="44.47198" lon="0.93444">
        <ele>70.31</ele>
        <time>2016-01-16T08:33:33Z</time>
      </trkpt>
      <trkpt lat="44.47197" lon="0.93438">
        <ele>71.27</ele>
        <time>2016-01-16T08:33:47Z</time>
      </trkpt>
      <trkpt lat="44.47196" lon="0.93438">
        <ele>71.76</ele>
        <time>2016-01-16T08:34:00Z</time>
      </trkpt>
      <trkpt lat="44.47197" lon="0.93439">
        <ele>71.76</ele>
        <time>2016-01-16T08:34:22Z</time>
      </trkpt>
      <trkpt lat="44.47196" lon="0.93438">
        <ele>71.76</ele>
        <time>2016-01-16T08:34:50Z</time>
      </trkpt>
      <trkpt lat="44.47197" lon="0.93438">
        <ele>72.24</ele>
        <time>2016-01-16T08:35:03Z</time>
      </trkpt>
      <trkpt lat="44.472" lon="0.93444">
        <ele>73.2</ele>
        <time>2016-01-16T08:35:07Z</time>
      </trkpt>
      <trkpt lat="44.47202" lon="0.93446">
        <ele>73.68</ele>
        <time>2016-01-16T08:35:08Z</time>
      </trkpt>
      <trkpt lat="44.47204" lon="0.93447">
        <ele>73.68</ele>
        <time>2016-01-16T08:35:09Z</time>
      </trkpt>
      <trkpt lat="44.47206" lon="0.93448">
        <ele>73.68</ele>
        <time>2016-01-16T08:35:10Z</time>
      </trkpt>
      <trkpt lat="44.47208" lon="0.93449">
        <ele>73.68</ele>
        <time>2016-01-16T08:35:11Z</time>
      </trkpt>
      <trkpt lat="44.47211" lon="0.9345">
        <ele>73.2</ele>
        <time>2016-01-16T08:35:12Z</time>
      </trkpt>
      <trkpt lat="44.47223" lon="0.93451">
        <ele>73.68</ele>
        <time>2016-01-16T08:35:17Z</time>
      </trkpt>
      <trkpt lat="44.47227" lon="0.9345">
        <ele>73.68</ele>
        <time>2016-01-16T08:35:18Z</time>
      </trkpt>
      <trkpt lat="44.47231" lon="0.93448">
        <ele>73.68</ele>
        <time>2016-01-16T08:35:19Z</time>
      </trkpt>
      <trkpt lat="44.47235" lon="0.93447">
        <ele>74.16</ele>
        <time>2016-01-16T08:35:20Z</time>
      </trkpt>
      <trkpt lat="44.47258" lon="0.93436">
        <ele>74.16</ele>
        <time>2016-01-16T08:35:28Z</time>
      </trkpt>
      <trkpt lat="44.47266" lon="0.9344">
        <ele>73.68</ele>
        <time>2016-01-16T08:35:33Z</time>
      </trkpt>
      <trkpt lat="44.47283" lon="0.93485">
        <ele>73.2</ele>
        <time>2016-01-16T08:35:44Z</time>
      </trkpt>
      <trkpt lat="44.47296" lon="0.93547">
        <ele>73.68</ele>
        <time>2016-01-16T08:35:56Z</time>
      </trkpt>
      <trkpt lat="44.473" lon="0.93577">
        <ele>74.16</ele>
        <time>2016-01-16T08:36:02Z</time>
      </trkpt>
      <trkpt lat="44.473" lon="0.93582">
        <ele>74.16</ele>
        <time>2016-01-16T08:36:03Z</time>
      </trkpt>
      <trkpt lat="44.47299" lon="0.93588">
        <ele>73.68</ele>
        <time>2016-01-16T08:36:04Z</time>
      </trkpt>
      <trkpt lat="44.47299" lon="0.93593">
        <ele>73.68</ele>
        <time>2016-01-16T08:36:05Z</time>
      </trkpt>
      <trkpt lat="44.47299" lon="0.93598">
        <ele>73.68</ele>
        <time>2016-01-16T08:36:06Z</time>
      </trkpt>
      <trkpt lat="44.473" lon="0.93604">
        <ele>73.68</ele>
        <time>2016-01-16T08:36:07Z</time>
      </trkpt>
      <trkpt lat="44.47301" lon="0.93616">
        <ele>73.68</ele>
        <time>2016-01-16T08:36:09Z</time>
      </trkpt>
      <trkpt lat="44.47302" lon="0.9364">
        <ele>73.2</ele>
        <time>2016-01-16T08:36:13Z</time>
      </trkpt>
      <trkpt lat="44.47304" lon="0.93657">
        <ele>72.24</ele>
        <time>2016-01-16T08:36:16Z</time>
      </trkpt>
      <trkpt lat="44.47306" lon="0.9366">
        <ele>72.24</ele>
        <time>2016-01-16T08:36:17Z</time>
      </trkpt>
      <trkpt lat="44.47308" lon="0.93663">
        <ele>71.76</ele>
        <time>2016-01-16T08:36:18Z</time>
      </trkpt>
      <trkpt lat="44.4731" lon="0.93667">
        <ele>71.27</ele>
        <time>2016-01-16T08:36:19Z</time>
      </trkpt>
      <trkpt lat="44.47311" lon="0.93671">
        <ele>71.27</ele>
        <time>2016-01-16T08:36:20Z</time>
      </trkpt>
      <trkpt lat="44.47313" lon="0.93675">
        <ele>71.27</ele>
        <time>2016-01-16T08:36:21Z</time>
      </trkpt>
      <trkpt lat="44.47315" lon="0.93678">
        <ele>71.27</ele>
        <time>2016-01-16T08:36:22Z</time>
      </trkpt>
      <trkpt lat="44.47331" lon="0.93714">
        <ele>70.79</ele>
        <time>2016-01-16T08:36:31Z</time>
      </trkpt>
      <trkpt lat="44.47363" lon="0.93764">
        <ele>68.39</ele>
        <time>2016-01-16T08:36:42Z</time>
      </trkpt>
      <trkpt lat="44.47394" lon="0.93795">
        <ele>65.99</ele>
        <time>2016-01-16T08:36:51Z</time>
      </trkpt>
      <trkpt lat="44.47405" lon="0.93805">
        <ele>65.51</ele>
        <time>2016-01-16T08:36:54Z</time>
      </trkpt>
      <trkpt lat="44.47426" lon="0.93823">
        <ele>65.03</ele>
        <time>2016-01-16T08:37:00Z</time>
      </trkpt>
      <trkpt lat="44.47466" lon="0.93863">
        <ele>66.47</ele>
        <time>2016-01-16T08:37:13Z</time>
      </trkpt>
      <trkpt lat="44.47485" lon="0.93889">
        <ele>67.91</ele>
        <time>2016-01-16T08:37:22Z</time>
      </trkpt>
      <trkpt lat="44.47487" lon="0.93892">
        <ele>67.91</ele>
        <time>2016-01-16T08:37:24Z</time>
      </trkpt>
      <trkpt lat="44.47488" lon="0.93893">
        <ele>67.91</ele>
        <time>2016-01-16T08:37:25Z</time>
      </trkpt>
      <trkpt lat="44.47489" lon="0.93894">
        <ele>67.91</ele>
        <time>2016-01-16T08:37:26Z</time>
      </trkpt>
      <trkpt lat="44.47489" lon="0.93897">
        <ele>67.91</ele>
        <time>2016-01-16T08:37:27Z</time>
      </trkpt>
      <trkpt lat="44.4749" lon="0.93899">
        <ele>67.91</ele>
        <time>2016-01-16T08:37:28Z</time>
      </trkpt>
      <trkpt lat="44.47492" lon="0.939">
        <ele>67.91</ele>
        <time>2016-01-16T08:37:29Z</time>
      </trkpt>
      <trkpt lat="44.47493" lon="0.93902">
        <ele>68.39</ele>
        <time>2016-01-16T08:37:45Z</time>
      </trkpt>
      <trkpt lat="44.47493" lon="0.93902">
        <ele>68.39</ele>
        <time>2016-01-16T08:37:51Z</time>
      </trkpt>
      <trkpt lat="44.47494" lon="0.93903">
        <ele>68.39</ele>
        <time>2016-01-16T08:37:52Z</time>
      </trkpt>
      <trkpt lat="44.47495" lon="0.93905">
        <ele>68.39</ele>
        <time>2016-01-16T08:37:53Z</time>
      </trkpt>
      <trkpt lat="44.47496" lon="0.93907">
        <ele>68.39</ele>
        <time>2016-01-16T08:37:54Z</time>
      </trkpt>
      <trkpt lat="44.47497" lon="0.93909">
        <ele>68.39</ele>
        <time>2016-01-16T08:37:55Z</time>
      </trkpt>
      <trkpt lat="44.4751" lon="0.93937">
        <ele>66.95</ele>
        <time>2016-01-16T08:38:06Z</time>
      </trkpt>
      <trkpt lat="44.47522" lon="0.93955">
        <ele>65.51</ele>
        <time>2016-01-16T08:38:14Z</time>
      </trkpt>
      <trkpt lat="44.47524" lon="0.93956">
        <ele>65.51</ele>
        <time>2016-01-16T08:38:15Z</time>
      </trkpt>
      <trkpt lat="44.47527" lon="0.93957">
        <ele>65.51</ele>
        <time>2016-01-16T08:38:17Z</time>
      </trkpt>
      <trkpt lat="44.4753" lon="0.93958">
        <ele>65.51</ele>
        <time>2016-01-16T08:38:18Z</time>
      </trkpt>
      <trkpt lat="44.47569" lon="0.93982">
        <ele>64.55</ele>
        <time>2016-01-16T08:38:30Z</time>
      </trkpt>
      <trkpt lat="44.47607" lon="0.94014">
        <ele>64.55</ele>
        <time>2016-01-16T08:38:42Z</time>
      </trkpt>
      <trkpt lat="44.47641" lon="0.94039">
        <ele>66.47</ele>
        <time>2016-01-16T08:38:54Z</time>
      </trkpt>
      <trkpt lat="44.47697" lon="0.94079">
        <ele>67.43</ele>
        <time>2016-01-16T08:39:12Z</time>
      </trkpt>
      <trkpt lat="44.47731" lon="0.94109">
        <ele>67.43</ele>
        <time>2016-01-16T08:39:24Z</time>
      </trkpt>
      <trkpt lat="44.47763" lon="0.94139">
        <ele>67.91</ele>
        <time>2016-01-16T08:39:36Z</time>
      </trkpt>
      <trkpt lat="44.47794" lon="0.94186">
        <ele>68.87</ele>
        <time>2016-01-16T08:39:50Z</time>
      </trkpt>
      <trkpt lat="44.47797" lon="0.94195">
        <ele>68.87</ele>
        <time>2016-01-16T08:39:52Z</time>
      </trkpt>
      <trkpt lat="44.47818" lon="0.94226">
        <ele>68.87</ele>
        <time>2016-01-16T08:40:02Z</time>
      </trkpt>
      <trkpt lat="44.47841" lon="0.9428">
        <ele>69.35</ele>
        <time>2016-01-16T08:40:15Z</time>
      </trkpt>
      <trkpt lat="44.47872" lon="0.94353">
        <ele>68.87</ele>
        <time>2016-01-16T08:40:32Z</time>
      </trkpt>
      <trkpt lat="44.47893" lon="0.94412">
        <ele>69.83</ele>
        <time>2016-01-16T08:40:46Z</time>
      </trkpt>
      <trkpt lat="44.47913" lon="0.94478">
        <ele>68.39</ele>
        <time>2016-01-16T08:41:00Z</time>
      </trkpt>
      <trkpt lat="44.47938" lon="0.94561">
        <ele>67.43</ele>
        <time>2016-01-16T08:41:18Z</time>
      </trkpt>
      <trkpt lat="44.47958" lon="0.94632">
        <ele>65.03</ele>
        <time>2016-01-16T08:41:32Z</time>
      </trkpt>
      <trkpt lat="44.47985" lon="0.947">
        <ele>65.03</ele>
        <time>2016-01-16T08:41:47Z</time>
      </trkpt>
      <trkpt lat="44.48003" lon="0.94748">
        <ele>65.03</ele>
        <time>2016-01-16T08:41:57Z</time>
      </trkpt>
      <trkpt lat="44.48014" lon="0.94762">
        <ele>65.99</ele>
        <time>2016-01-16T08:42:06Z</time>
      </trkpt>
      <trkpt lat="44.48013" lon="0.94761">
        <ele>66.47</ele>
        <time>2016-01-16T08:42:30Z</time>
      </trkpt>
      <trkpt lat="44.48017" lon="0.94764">
        <ele>65.99</ele>
        <time>2016-01-16T08:42:39Z</time>
      </trkpt>
      <trkpt lat="44.48018" lon="0.94765">
        <ele>65.99</ele>
        <time>2016-01-16T08:42:40Z</time>
      </trkpt>
      <trkpt lat="44.48019" lon="0.94767">
        <ele>65.99</ele>
        <time>2016-01-16T08:42:41Z</time>
      </trkpt>
      <trkpt lat="44.4802" lon="0.9477">
        <ele>65.99</ele>
        <time>2016-01-16T08:42:42Z</time>
      </trkpt>
      <trkpt lat="44.48022" lon="0.94772">
        <ele>65.51</ele>
        <time>2016-01-16T08:42:43Z</time>
      </trkpt>
      <trkpt lat="44.48027" lon="0.9481">
        <ele>65.51</ele>
        <time>2016-01-16T08:42:52Z</time>
      </trkpt>
      <trkpt lat="44.48035" lon="0.94844">
        <ele>65.03</ele>
        <time>2016-01-16T08:43:01Z</time>
      </trkpt>
      <trkpt lat="44.48054" lon="0.94884">
        <ele>65.99</ele>
        <time>2016-01-16T08:43:13Z</time>
      </trkpt>
      <trkpt lat="44.48073" lon="0.94925">
        <ele>67.43</ele>
        <time>2016-01-16T08:43:25Z</time>
      </trkpt>
      <trkpt lat="44.48087" lon="0.94962">
        <ele>68.39</ele>
        <time>2016-01-16T08:43:35Z</time>
      </trkpt>
      <trkpt lat="44.48102" lon="0.94998">
        <ele>68.39</ele>
        <time>2016-01-16T08:43:45Z</time>
      </trkpt>
      <trkpt lat="44.48125" lon="0.95053">
        <ele>69.83</ele>
        <time>2016-01-16T08:44:00Z</time>
      </trkpt>
      <trkpt lat="44.48135" lon="0.9507">
        <ele>70.31</ele>
        <time>2016-01-16T08:44:08Z</time>
      </trkpt>
      <trkpt lat="44.48149" lon="0.95094">
        <ele>70.31</ele>
        <time>2016-01-16T08:44:20Z</time>
      </trkpt>
      <trkpt lat="44.48152" lon="0.95099">
        <ele>72.24</ele>
        <time>2016-01-16T08:44:25Z</time>
      </trkpt>
      <trkpt lat="44.48154" lon="0.95104">
        <ele>73.2</ele>
        <time>2016-01-16T08:44:37Z</time>
      </trkpt>
      <trkpt lat="44.48158" lon="0.95112">
        <ele>72.72</ele>
        <time>2016-01-16T08:44:41Z</time>
      </trkpt>
      <trkpt lat="44.48176" lon="0.95147">
        <ele>73.68</ele>
        <time>2016-01-16T08:44:53Z</time>
      </trkpt>
      <trkpt lat="44.48189" lon="0.95177">
        <ele>76.56</ele>
        <time>2016-01-16T08:45:01Z</time>
      </trkpt>
      <trkpt lat="44.48204" lon="0.95195">
        <ele>75.6</ele>
        <time>2016-01-16T08:45:07Z</time>
      </trkpt>
      <trkpt lat="44.48232" lon="0.95237">
        <ele>76.56</ele>
        <time>2016-01-16T08:45:19Z</time>
      </trkpt>
      <trkpt lat="44.48258" lon="0.95275">
        <ele>78</ele>
        <time>2016-01-16T08:45:31Z</time>
      </trkpt>
      <trkpt lat="44.48284" lon="0.95315">
        <ele>79.45</ele>
        <time>2016-01-16T08:45:43Z</time>
      </trkpt>
      <trkpt lat="44.48298" lon="0.95326">
        <ele>76.56</ele>
        <time>2016-01-16T08:45:48Z</time>
      </trkpt>
      <trkpt lat="44.48313" lon="0.95346">
        <ele>72.72</ele>
        <time>2016-01-16T08:46:00Z</time>
      </trkpt>
      <trkpt lat="44.48319" lon="0.95353">
        <ele>73.68</ele>
        <time>2016-01-16T08:46:05Z</time>
      </trkpt>
      <trkpt lat="44.48322" lon="0.95356">
        <ele>73.68</ele>
        <time>2016-01-16T08:46:07Z</time>
      </trkpt>
      <trkpt lat="44.48335" lon="0.95369">
        <ele>74.64</ele>
        <time>2016-01-16T08:46:21Z</time>
      </trkpt>
      <trkpt lat="44.48339" lon="0.95378">
        <ele>75.12</ele>
        <time>2016-01-16T08:46:35Z</time>
      </trkpt>
      <trkpt lat="44.48353" lon="0.95413">
        <ele>79.45</ele>
        <time>2016-01-16T08:46:47Z</time>
      </trkpt>
      <trkpt lat="44.48365" lon="0.95451">
        <ele>80.89</ele>
        <time>2016-01-16T08:46:57Z</time>
      </trkpt>
      <trkpt lat="44.48382" lon="0.95498">
        <ele>81.85</ele>
        <time>2016-01-16T08:47:07Z</time>
      </trkpt>
      <trkpt lat="44.48383" lon="0.95503">
        <ele>81.85</ele>
        <time>2016-01-16T08:47:08Z</time>
      </trkpt>
      <trkpt lat="44.48389" lon="0.95521">
        <ele>81.37</ele>
        <time>2016-01-16T08:47:12Z</time>
      </trkpt>
      <trkpt lat="44.48402" lon="0.95566">
        <ele>79.45</ele>
        <time>2016-01-16T08:47:21Z</time>
      </trkpt>
      <trkpt lat="44.4842" lon="0.95622">
        <ele>78</ele>
        <time>2016-01-16T08:47:33Z</time>
      </trkpt>
      <trkpt lat="44.48438" lon="0.95666">
        <ele>77.52</ele>
        <time>2016-01-16T08:47:43Z</time>
      </trkpt>
      <trkpt lat="44.48463" lon="0.95711">
        <ele>78.48</ele>
        <time>2016-01-16T08:47:55Z</time>
      </trkpt>
      <trkpt lat="44.4848" lon="0.95746">
        <ele>82.81</ele>
        <time>2016-01-16T08:48:05Z</time>
      </trkpt>
      <trkpt lat="44.48491" lon="0.95764">
        <ele>84.73</ele>
        <time>2016-01-16T08:48:10Z</time>
      </trkpt>
      <trkpt lat="44.48507" lon="0.95781">
        <ele>85.69</ele>
        <time>2016-01-16T08:48:15Z</time>
      </trkpt>
      <trkpt lat="44.48546" lon="0.95834">
        <ele>86.18</ele>
        <time>2016-01-16T08:48:27Z</time>
      </trkpt>
      <trkpt lat="44.48586" lon="0.95881">
        <ele>84.25</ele>
        <time>2016-01-16T08:48:38Z</time>
      </trkpt>
      <trkpt lat="44.4861" lon="0.95916">
        <ele>80.41</ele>
        <time>2016-01-16T08:48:46Z</time>
      </trkpt>
      <trkpt lat="44.48668" lon="0.95978">
        <ele>78.48</ele>
        <time>2016-01-16T08:49:02Z</time>
      </trkpt>
      <trkpt lat="44.48705" lon="0.9603">
        <ele>81.85</ele>
        <time>2016-01-16T08:49:15Z</time>
      </trkpt>
      <trkpt lat="44.48712" lon="0.96042">
        <ele>82.81</ele>
        <time>2016-01-16T08:49:18Z</time>
      </trkpt>
      <trkpt lat="44.4871" lon="0.96063">
        <ele>84.25</ele>
        <time>2016-01-16T08:49:24Z</time>
      </trkpt>
      <trkpt lat="44.48735" lon="0.96097">
        <ele>87.62</ele>
        <time>2016-01-16T08:49:35Z</time>
      </trkpt>
      <trkpt lat="44.48738" lon="0.96101">
        <ele>87.62</ele>
        <time>2016-01-16T08:49:36Z</time>
      </trkpt>
      <trkpt lat="44.48756" lon="0.96105">
        <ele>86.66</ele>
        <time>2016-01-16T08:49:42Z</time>
      </trkpt>
      <trkpt lat="44.48766" lon="0.96112">
        <ele>86.66</ele>
        <time>2016-01-16T08:49:45Z</time>
      </trkpt>
      <trkpt lat="44.48798" lon="0.96145">
        <ele>82.33</ele>
        <time>2016-01-16T08:49:55Z</time>
      </trkpt>
      <trkpt lat="44.48806" lon="0.96159">
        <ele>80.41</ele>
        <time>2016-01-16T08:49:59Z</time>
      </trkpt>
      <trkpt lat="44.48842" lon="0.96206">
        <ele>75.6</ele>
        <time>2016-01-16T08:50:13Z</time>
      </trkpt>
      <trkpt lat="44.48863" lon="0.96215">
        <ele>73.68</ele>
        <time>2016-01-16T08:50:20Z</time>
      </trkpt>
      <trkpt lat="44.48893" lon="0.96233">
        <ele>71.27</ele>
        <time>2016-01-16T08:50:29Z</time>
      </trkpt>
      <trkpt lat="44.48922" lon="0.96261">
        <ele>70.79</ele>
        <time>2016-01-16T08:50:38Z</time>
      </trkpt>
      <trkpt lat="44.48941" lon="0.96291">
        <ele>70.31</ele>
        <time>2016-01-16T08:50:47Z</time>
      </trkpt>
      <trkpt lat="44.48948" lon="0.96291">
        <ele>69.35</ele>
        <time>2016-01-16T08:50:50Z</time>
      </trkpt>
      <trkpt lat="44.48972" lon="0.9631">
        <ele>68.87</ele>
        <time>2016-01-16T08:50:59Z</time>
      </trkpt>
      <trkpt lat="44.48979" lon="0.96321">
        <ele>69.83</ele>
        <time>2016-01-16T08:51:03Z</time>
      </trkpt>
      <trkpt lat="44.48956" lon="0.96361">
        <ele>72.72</ele>
        <time>2016-01-16T08:51:15Z</time>
      </trkpt>
      <trkpt lat="44.48947" lon="0.9637">
        <ele>73.2</ele>
        <time>2016-01-16T08:51:18Z</time>
      </trkpt>
      <trkpt lat="44.48898" lon="0.9643">
        <ele>74.16</ele>
        <time>2016-01-16T08:51:34Z</time>
      </trkpt>
      <trkpt lat="44.48894" lon="0.96442">
        <ele>75.6</ele>
        <time>2016-01-16T08:51:43Z</time>
      </trkpt>
      <trkpt lat="44.48894" lon="0.96443">
        <ele>76.08</ele>
        <time>2016-01-16T08:51:59Z</time>
      </trkpt>
      <trkpt lat="44.48894" lon="0.96443">
        <ele>75.12</ele>
        <time>2016-01-16T08:52:22Z</time>
      </trkpt>
      <trkpt lat="44.48893" lon="0.96443">
        <ele>75.6</ele>
        <time>2016-01-16T08:52:46Z</time>
      </trkpt>
      <trkpt lat="44.48894" lon="0.96443">
        <ele>75.12</ele>
        <time>2016-01-16T08:53:06Z</time>
      </trkpt>
      <trkpt lat="44.48896" lon="0.96451">
        <ele>75.6</ele>
        <time>2016-01-16T08:53:22Z</time>
      </trkpt>
      <trkpt lat="44.48913" lon="0.96487">
        <ele>75.6</ele>
        <time>2016-01-16T08:53:33Z</time>
      </trkpt>
      <trkpt lat="44.48953" lon="0.9655">
        <ele>77.04</ele>
        <time>2016-01-16T08:53:49Z</time>
      </trkpt>
      <trkpt lat="44.48971" lon="0.9658">
        <ele>77.52</ele>
        <time>2016-01-16T08:53:56Z</time>
      </trkpt>
      <trkpt lat="44.49006" lon="0.96651">
        <ele>74.64</ele>
        <time>2016-01-16T08:54:10Z</time>
      </trkpt>
      <trkpt lat="44.49029" lon="0.96723">
        <ele>71.76</ele>
        <time>2016-01-16T08:54:25Z</time>
      </trkpt>
      <trkpt lat="44.49035" lon="0.96751">
        <ele>72.72</ele>
        <time>2016-01-16T08:54:36Z</time>
      </trkpt>
      <trkpt lat="44.49035" lon="0.96763">
        <ele>73.2</ele>
        <time>2016-01-16T08:54:53Z</time>
      </trkpt>
      <trkpt lat="44.49043" lon="0.96779">
        <ele>74.16</ele>
        <time>2016-01-16T08:54:57Z</time>
      </trkpt>
      <trkpt lat="44.49047" lon="0.96779">
        <ele>74.16</ele>
        <time>2016-01-16T08:54:58Z</time>
      </trkpt>
      <trkpt lat="44.49051" lon="0.96779">
        <ele>74.64</ele>
        <time>2016-01-16T08:54:59Z</time>
      </trkpt>
      <trkpt lat="44.49054" lon="0.96776">
        <ele>74.64</ele>
        <time>2016-01-16T08:55:00Z</time>
      </trkpt>
      <trkpt lat="44.49056" lon="0.96772">
        <ele>74.64</ele>
        <time>2016-01-16T08:55:01Z</time>
      </trkpt>
      <trkpt lat="44.49058" lon="0.96767">
        <ele>75.12</ele>
        <time>2016-01-16T08:55:02Z</time>
      </trkpt>
      <trkpt lat="44.49058" lon="0.96761">
        <ele>75.12</ele>
        <time>2016-01-16T08:55:03Z</time>
      </trkpt>
      <trkpt lat="44.49058" lon="0.96756">
        <ele>75.12</ele>
        <time>2016-01-16T08:55:04Z</time>
      </trkpt>
      <trkpt lat="44.49057" lon="0.9675">
        <ele>74.64</ele>
        <time>2016-01-16T08:55:05Z</time>
      </trkpt>
      <trkpt lat="44.49057" lon="0.96744">
        <ele>74.64</ele>
        <time>2016-01-16T08:55:06Z</time>
      </trkpt>
      <trkpt lat="44.49057" lon="0.96737">
        <ele>74.64</ele>
        <time>2016-01-16T08:55:07Z</time>
      </trkpt>
      <trkpt lat="44.49061" lon="0.96725">
        <ele>74.64</ele>
        <time>2016-01-16T08:55:09Z</time>
      </trkpt>
      <trkpt lat="44.49116" lon="0.9664">
        <ele>72.72</ele>
        <time>2016-01-16T08:55:25Z</time>
      </trkpt>
      <trkpt lat="44.4912" lon="0.96636">
        <ele>72.72</ele>
        <time>2016-01-16T08:55:26Z</time>
      </trkpt>
      <trkpt lat="44.49208" lon="0.96529">
        <ele>72.24</ele>
        <time>2016-01-16T08:55:47Z</time>
      </trkpt>
      <trkpt lat="44.49215" lon="0.96521">
        <ele>72.72</ele>
        <time>2016-01-16T08:55:49Z</time>
      </trkpt>
      <trkpt lat="44.49278" lon="0.96447">
        <ele>76.08</ele>
        <time>2016-01-16T08:56:08Z</time>
      </trkpt>
      <trkpt lat="44.49334" lon="0.96379">
        <ele>78.97</ele>
        <time>2016-01-16T08:56:26Z</time>
      </trkpt>
      <trkpt lat="44.4936" lon="0.96367">
        <ele>79.45</ele>
        <time>2016-01-16T08:56:34Z</time>
      </trkpt>
      <trkpt lat="44.49364" lon="0.9637">
        <ele>78.97</ele>
        <time>2016-01-16T08:56:35Z</time>
      </trkpt>
      <trkpt lat="44.49369" lon="0.96374">
        <ele>78.97</ele>
        <time>2016-01-16T08:56:36Z</time>
      </trkpt>
      <trkpt lat="44.49373" lon="0.96379">
        <ele>78.48</ele>
        <time>2016-01-16T08:56:37Z</time>
      </trkpt>
      <trkpt lat="44.49377" lon="0.96385">
        <ele>78</ele>
        <time>2016-01-16T08:56:38Z</time>
      </trkpt>
      <trkpt lat="44.49381" lon="0.96391">
        <ele>77.52</ele>
        <time>2016-01-16T08:56:39Z</time>
      </trkpt>
      <trkpt lat="44.49408" lon="0.96434">
        <ele>74.16</ele>
        <time>2016-01-16T08:56:46Z</time>
      </trkpt>
      <trkpt lat="44.4941" lon="0.96441">
        <ele>74.16</ele>
        <time>2016-01-16T08:56:47Z</time>
      </trkpt>
      <trkpt lat="44.4941" lon="0.96448">
        <ele>73.68</ele>
        <time>2016-01-16T08:56:48Z</time>
      </trkpt>
      <trkpt lat="44.49408" lon="0.96454">
        <ele>73.68</ele>
        <time>2016-01-16T08:56:49Z</time>
      </trkpt>
      <trkpt lat="44.49405" lon="0.96458">
        <ele>73.68</ele>
        <time>2016-01-16T08:56:50Z</time>
      </trkpt>
      <trkpt lat="44.49402" lon="0.96462">
        <ele>73.68</ele>
        <time>2016-01-16T08:56:51Z</time>
      </trkpt>
      <trkpt lat="44.49398" lon="0.96471">
        <ele>73.2</ele>
        <time>2016-01-16T08:56:53Z</time>
      </trkpt>
      <trkpt lat="44.49398" lon="0.96476">
        <ele>72.72</ele>
        <time>2016-01-16T08:56:54Z</time>
      </trkpt>
      <trkpt lat="44.49399" lon="0.9648">
        <ele>72.72</ele>
        <time>2016-01-16T08:56:55Z</time>
      </trkpt>
      <trkpt lat="44.494" lon="0.96484">
        <ele>72.24</ele>
        <time>2016-01-16T08:56:56Z</time>
      </trkpt>
      <trkpt lat="44.49401" lon="0.96486">
        <ele>72.24</ele>
        <time>2016-01-16T08:56:57Z</time>
      </trkpt>
      <trkpt lat="44.49405" lon="0.96491">
        <ele>72.72</ele>
        <time>2016-01-16T08:57:07Z</time>
      </trkpt>
      <trkpt lat="44.49422" lon="0.96528">
        <ele>72.72</ele>
        <time>2016-01-16T08:57:18Z</time>
      </trkpt>
      <trkpt lat="44.49452" lon="0.96594">
        <ele>71.76</ele>
        <time>2016-01-16T08:57:32Z</time>
      </trkpt>
      <trkpt lat="44.49464" lon="0.96624">
        <ele>72.24</ele>
        <time>2016-01-16T08:57:38Z</time>
      </trkpt>
      <trkpt lat="44.49495" lon="0.96699">
        <ele>71.76</ele>
        <time>2016-01-16T08:57:53Z</time>
      </trkpt>
      <trkpt lat="44.49503" lon="0.9672">
        <ele>71.27</ele>
        <time>2016-01-16T08:57:57Z</time>
      </trkpt>
      <trkpt lat="44.49508" lon="0.96731">
        <ele>71.27</ele>
        <time>2016-01-16T08:57:59Z</time>
      </trkpt>
      <trkpt lat="44.4951" lon="0.96736">
        <ele>71.27</ele>
        <time>2016-01-16T08:58:00Z</time>
      </trkpt>
      <trkpt lat="44.49512" lon="0.96742">
        <ele>71.27</ele>
        <time>2016-01-16T08:58:01Z</time>
      </trkpt>
      <trkpt lat="44.49514" lon="0.96747">
        <ele>71.27</ele>
        <time>2016-01-16T08:58:02Z</time>
      </trkpt>
      <trkpt lat="44.49517" lon="0.96752">
        <ele>71.76</ele>
        <time>2016-01-16T08:58:03Z</time>
      </trkpt>
      <trkpt lat="44.49534" lon="0.96802">
        <ele>71.27</ele>
        <time>2016-01-16T08:58:13Z</time>
      </trkpt>
      <trkpt lat="44.49535" lon="0.96807">
        <ele>71.27</ele>
        <time>2016-01-16T08:58:14Z</time>
      </trkpt>
      <trkpt lat="44.49536" lon="0.96813">
        <ele>71.76</ele>
        <time>2016-01-16T08:58:15Z</time>
      </trkpt>
      <trkpt lat="44.49537" lon="0.96819">
        <ele>71.76</ele>
        <time>2016-01-16T08:58:16Z</time>
      </trkpt>
      <trkpt lat="44.49538" lon="0.96824">
        <ele>71.76</ele>
        <time>2016-01-16T08:58:17Z</time>
      </trkpt>
      <trkpt lat="44.4954" lon="0.96829">
        <ele>71.76</ele>
        <time>2016-01-16T08:58:18Z</time>
      </trkpt>
      <trkpt lat="44.49542" lon="0.96834">
        <ele>71.76</ele>
        <time>2016-01-16T08:58:19Z</time>
      </trkpt>
      <trkpt lat="44.49585" lon="0.96937">
        <ele>71.76</ele>
        <time>2016-01-16T08:58:37Z</time>
      </trkpt>
      <trkpt lat="44.49623" lon="0.9704">
        <ele>71.76</ele>
        <time>2016-01-16T08:58:53Z</time>
      </trkpt>
      <trkpt lat="44.49667" lon="0.97156">
        <ele>69.83</ele>
        <time>2016-01-16T08:59:10Z</time>
      </trkpt>
      <trkpt lat="44.49708" lon="0.9728">
        <ele>68.39</ele>
        <time>2016-01-16T08:59:27Z</time>
      </trkpt>
      <trkpt lat="44.49748" lon="0.97415">
        <ele>68.39</ele>
        <time>2016-01-16T08:59:45Z</time>
      </trkpt>
      <trkpt lat="44.49782" lon="0.97544">
        <ele>68.39</ele>
        <time>2016-01-16T09:00:02Z</time>
      </trkpt>
      <trkpt lat="44.49821" lon="0.97699">
        <ele>69.35</ele>
        <time>2016-01-16T09:00:22Z</time>
      </trkpt>
      <trkpt lat="44.49832" lon="0.97762">
        <ele>69.35</ele>
        <time>2016-01-16T09:00:30Z</time>
      </trkpt>
      <trkpt lat="44.49846" lon="0.97884">
        <ele>68.87</ele>
        <time>2016-01-16T09:00:45Z</time>
      </trkpt>
      <trkpt lat="44.4985" lon="0.97976">
        <ele>68.87</ele>
        <time>2016-01-16T09:00:56Z</time>
      </trkpt>
      <trkpt lat="44.4985" lon="0.97985">
        <ele>68.87</ele>
        <time>2016-01-16T09:00:57Z</time>
      </trkpt>
      <trkpt lat="44.49844" lon="0.98109">
        <ele>71.27</ele>
        <time>2016-01-16T09:01:12Z</time>
      </trkpt>
      <trkpt lat="44.49814" lon="0.98222">
        <ele>74.64</ele>
        <time>2016-01-16T09:01:26Z</time>
      </trkpt>
      <trkpt lat="44.49779" lon="0.98339">
        <ele>77.52</ele>
        <time>2016-01-16T09:01:43Z</time>
      </trkpt>
      <trkpt lat="44.49775" lon="0.98363">
        <ele>77.52</ele>
        <time>2016-01-16T09:01:50Z</time>
      </trkpt>
      <trkpt lat="44.49774" lon="0.98364">
        <ele>77.52</ele>
        <time>2016-01-16T09:01:51Z</time>
      </trkpt>
      <trkpt lat="44.49773" lon="0.98366">
        <ele>78</ele>
        <time>2016-01-16T09:01:52Z</time>
      </trkpt>
      <trkpt lat="44.49772" lon="0.98368">
        <ele>78</ele>
        <time>2016-01-16T09:01:53Z</time>
      </trkpt>
      <trkpt lat="44.49772" lon="0.98371">
        <ele>78</ele>
        <time>2016-01-16T09:01:54Z</time>
      </trkpt>
      <trkpt lat="44.49772" lon="0.98373">
        <ele>78.48</ele>
        <time>2016-01-16T09:01:55Z</time>
      </trkpt>
      <trkpt lat="44.49772" lon="0.98375">
        <ele>78.48</ele>
        <time>2016-01-16T09:01:56Z</time>
      </trkpt>
      <trkpt lat="44.49772" lon="0.98377">
        <ele>78.97</ele>
        <time>2016-01-16T09:01:57Z</time>
      </trkpt>
      <trkpt lat="44.49772" lon="0.9838">
        <ele>78.97</ele>
        <time>2016-01-16T09:01:58Z</time>
      </trkpt>
      <trkpt lat="44.49771" lon="0.98381">
        <ele>78.97</ele>
        <time>2016-01-16T09:01:59Z</time>
      </trkpt>
      <trkpt lat="44.49771" lon="0.98386">
        <ele>79.45</ele>
        <time>2016-01-16T09:02:12Z</time>
      </trkpt>
      <trkpt lat="44.49771" lon="0.98387">
        <ele>82.33</ele>
        <time>2016-01-16T09:02:37Z</time>
      </trkpt>
      <trkpt lat="44.49771" lon="0.98389">
        <ele>82.81</ele>
        <time>2016-01-16T09:03:06Z</time>
      </trkpt>
      <trkpt lat="44.49771" lon="0.98388">
        <ele>84.25</ele>
        <time>2016-01-16T09:03:30Z</time>
      </trkpt>
      <trkpt lat="44.49771" lon="0.98388">
        <ele>83.77</ele>
        <time>2016-01-16T09:03:46Z</time>
      </trkpt>
      <trkpt lat="44.4977" lon="0.9839">
        <ele>82.33</ele>
        <time>2016-01-16T09:04:00Z</time>
      </trkpt>
      <trkpt lat="44.49769" lon="0.98392">
        <ele>82.33</ele>
        <time>2016-01-16T09:04:01Z</time>
      </trkpt>
      <trkpt lat="44.49767" lon="0.98393">
        <ele>82.33</ele>
        <time>2016-01-16T09:04:02Z</time>
      </trkpt>
      <trkpt lat="44.49766" lon="0.98396">
        <ele>82.33</ele>
        <time>2016-01-16T09:04:03Z</time>
      </trkpt>
      <trkpt lat="44.49764" lon="0.98399">
        <ele>82.33</ele>
        <time>2016-01-16T09:04:04Z</time>
      </trkpt>
      <trkpt lat="44.49764" lon="0.98401">
        <ele>82.33</ele>
        <time>2016-01-16T09:04:05Z</time>
      </trkpt>
      <trkpt lat="44.49763" lon="0.98404">
        <ele>82.33</ele>
        <time>2016-01-16T09:04:06Z</time>
      </trkpt>
      <trkpt lat="44.49762" lon="0.98407">
        <ele>82.33</ele>
        <time>2016-01-16T09:04:07Z</time>
      </trkpt>
      <trkpt lat="44.49748" lon="0.98457">
        <ele>82.81</ele>
        <time>2016-01-16T09:04:19Z</time>
      </trkpt>
      <trkpt lat="44.49735" lon="0.98521">
        <ele>81.37</ele>
        <time>2016-01-16T09:04:31Z</time>
      </trkpt>
      <trkpt lat="44.49731" lon="0.98544">
        <ele>80.41</ele>
        <time>2016-01-16T09:04:35Z</time>
      </trkpt>
      <trkpt lat="44.4973" lon="0.9855">
        <ele>80.41</ele>
        <time>2016-01-16T09:04:36Z</time>
      </trkpt>
      <trkpt lat="44.49715" lon="0.98653">
        <ele>77.52</ele>
        <time>2016-01-16T09:04:52Z</time>
      </trkpt>
      <trkpt lat="44.49709" lon="0.98691">
        <ele>77.04</ele>
        <time>2016-01-16T09:04:58Z</time>
      </trkpt>
      <trkpt lat="44.49708" lon="0.98697">
        <ele>77.04</ele>
        <time>2016-01-16T09:04:59Z</time>
      </trkpt>
      <trkpt lat="44.49704" lon="0.98732">
        <ele>75.12</ele>
        <time>2016-01-16T09:05:04Z</time>
      </trkpt>
      <trkpt lat="44.49696" lon="0.98772">
        <ele>72.24</ele>
        <time>2016-01-16T09:05:09Z</time>
      </trkpt>
      <trkpt lat="44.49694" lon="0.98777">
        <ele>71.76</ele>
        <time>2016-01-16T09:05:10Z</time>
      </trkpt>
      <trkpt lat="44.49692" lon="0.98781">
        <ele>71.76</ele>
        <time>2016-01-16T09:05:11Z</time>
      </trkpt>
      <trkpt lat="44.4969" lon="0.98784">
        <ele>71.76</ele>
        <time>2016-01-16T09:05:12Z</time>
      </trkpt>
      <trkpt lat="44.49688" lon="0.98786">
        <ele>71.27</ele>
        <time>2016-01-16T09:05:13Z</time>
      </trkpt>
      <trkpt lat="44.49673" lon="0.98806">
        <ele>70.79</ele>
        <time>2016-01-16T09:05:19Z</time>
      </trkpt>
      <trkpt lat="44.49669" lon="0.98817">
        <ele>71.27</ele>
        <time>2016-01-16T09:05:21Z</time>
      </trkpt>
      <trkpt lat="44.49666" lon="0.98843">
        <ele>71.27</ele>
        <time>2016-01-16T09:05:25Z</time>
      </trkpt>
      <trkpt lat="44.49675" lon="0.98862">
        <ele>71.76</ele>
        <time>2016-01-16T09:05:31Z</time>
      </trkpt>
      <trkpt lat="44.49713" lon="0.98866">
        <ele>73.68</ele>
        <time>2016-01-16T09:05:41Z</time>
      </trkpt>
      <trkpt lat="44.49739" lon="0.98872">
        <ele>75.12</ele>
        <time>2016-01-16T09:05:51Z</time>
      </trkpt>
      <trkpt lat="44.49739" lon="0.98874">
        <ele>76.56</ele>
        <time>2016-01-16T09:06:08Z</time>
      </trkpt>
      <trkpt lat="44.49739" lon="0.98874">
        <ele>76.56</ele>
        <time>2016-01-16T09:06:19Z</time>
      </trkpt>
      <trkpt lat="44.49741" lon="0.98873">
        <ele>76.56</ele>
        <time>2016-01-16T09:06:21Z</time>
      </trkpt>
      <trkpt lat="44.49743" lon="0.9887">
        <ele>77.04</ele>
        <time>2016-01-16T09:06:22Z</time>
      </trkpt>
      <trkpt lat="44.49756" lon="0.98846">
        <ele>77.52</ele>
        <time>2016-01-16T09:06:28Z</time>
      </trkpt>
      <trkpt lat="44.4976" lon="0.98844">
        <ele>77.52</ele>
        <time>2016-01-16T09:06:29Z</time>
      </trkpt>
      <trkpt lat="44.49764" lon="0.98845">
        <ele>78</ele>
        <time>2016-01-16T09:06:30Z</time>
      </trkpt>
      <trkpt lat="44.49767" lon="0.98848">
        <ele>78.48</ele>
        <time>2016-01-16T09:06:31Z</time>
      </trkpt>
      <trkpt lat="44.4977" lon="0.98852">
        <ele>78.48</ele>
        <time>2016-01-16T09:06:32Z</time>
      </trkpt>
      <trkpt lat="44.49772" lon="0.98857">
        <ele>78.97</ele>
        <time>2016-01-16T09:06:33Z</time>
      </trkpt>
      <trkpt lat="44.49775" lon="0.98862">
        <ele>78.97</ele>
        <time>2016-01-16T09:06:34Z</time>
      </trkpt>
      <trkpt lat="44.49778" lon="0.98866">
        <ele>78.97</ele>
        <time>2016-01-16T09:06:35Z</time>
      </trkpt>
      <trkpt lat="44.49782" lon="0.98869">
        <ele>79.45</ele>
        <time>2016-01-16T09:06:36Z</time>
      </trkpt>
      <trkpt lat="44.49789" lon="0.98875">
        <ele>79.45</ele>
        <time>2016-01-16T09:06:38Z</time>
      </trkpt>
      <trkpt lat="44.49793" lon="0.98878">
        <ele>79.45</ele>
        <time>2016-01-16T09:06:39Z</time>
      </trkpt>
      <trkpt lat="44.49797" lon="0.9888">
        <ele>79.45</ele>
        <time>2016-01-16T09:06:40Z</time>
      </trkpt>
      <trkpt lat="44.49801" lon="0.98881">
        <ele>79.45</ele>
        <time>2016-01-16T09:06:41Z</time>
      </trkpt>
      <trkpt lat="44.49805" lon="0.98882">
        <ele>79.45</ele>
        <time>2016-01-16T09:06:42Z</time>
      </trkpt>
      <trkpt lat="44.49809" lon="0.98883">
        <ele>79.45</ele>
        <time>2016-01-16T09:06:43Z</time>
      </trkpt>
      <trkpt lat="44.49813" lon="0.98884">
        <ele>79.93</ele>
        <time>2016-01-16T09:06:44Z</time>
      </trkpt>
      <trkpt lat="44.49825" lon="0.98889">
        <ele>80.41</ele>
        <time>2016-01-16T09:06:47Z</time>
      </trkpt>
      <trkpt lat="44.4983" lon="0.98892">
        <ele>79.93</ele>
        <time>2016-01-16T09:06:48Z</time>
      </trkpt>
      <trkpt lat="44.49906" lon="0.98935">
        <ele>78.97</ele>
        <time>2016-01-16T09:07:05Z</time>
      </trkpt>
      <trkpt lat="44.49919" lon="0.98945">
        <ele>78.48</ele>
        <time>2016-01-16T09:07:08Z</time>
      </trkpt>
      <trkpt lat="44.49922" lon="0.98951">
        <ele>78.48</ele>
        <time>2016-01-16T09:07:09Z</time>
      </trkpt>
      <trkpt lat="44.49922" lon="0.98958">
        <ele>78.48</ele>
        <time>2016-01-16T09:07:10Z</time>
      </trkpt>
      <trkpt lat="44.49925" lon="0.99062">
        <ele>79.93</ele>
        <time>2016-01-16T09:07:25Z</time>
      </trkpt>
      <trkpt lat="44.49934" lon="0.99163">
        <ele>79.45</ele>
        <time>2016-01-16T09:07:41Z</time>
      </trkpt>
      <trkpt lat="44.49945" lon="0.99263">
        <ele>81.85</ele>
        <time>2016-01-16T09:07:59Z</time>
      </trkpt>
      <trkpt lat="44.49951" lon="0.99299">
        <ele>83.29</ele>
        <time>2016-01-16T09:08:07Z</time>
      </trkpt>
      <trkpt lat="44.49954" lon="0.99301">
        <ele>83.29</ele>
        <time>2016-01-16T09:08:08Z</time>
      </trkpt>
      <trkpt lat="44.49957" lon="0.99303">
        <ele>83.77</ele>
        <time>2016-01-16T09:08:09Z</time>
      </trkpt>
      <trkpt lat="44.4996" lon="0.99305">
        <ele>83.77</ele>
        <time>2016-01-16T09:08:10Z</time>
      </trkpt>
      <trkpt lat="44.49963" lon="0.99307">
        <ele>84.25</ele>
        <time>2016-01-16T09:08:11Z</time>
      </trkpt>
      <trkpt lat="44.50018" lon="0.99345">
        <ele>84.73</ele>
        <time>2016-01-16T09:08:27Z</time>
      </trkpt>
      <trkpt lat="44.50041" lon="0.99379">
        <ele>84.25</ele>
        <time>2016-01-16T09:08:36Z</time>
      </trkpt>
      <trkpt lat="44.50043" lon="0.99386">
        <ele>84.25</ele>
        <time>2016-01-16T09:08:37Z</time>
      </trkpt>
      <trkpt lat="44.50069" lon="0.99493">
        <ele>82.81</ele>
        <time>2016-01-16T09:08:51Z</time>
      </trkpt>
      <trkpt lat="44.50072" lon="0.99507">
        <ele>82.81</ele>
        <time>2016-01-16T09:08:53Z</time>
      </trkpt>
      <trkpt lat="44.50074" lon="0.99513">
        <ele>82.33</ele>
        <time>2016-01-16T09:08:54Z</time>
      </trkpt>
      <trkpt lat="44.50083" lon="0.99536">
        <ele>81.85</ele>
        <time>2016-01-16T09:08:58Z</time>
      </trkpt>
      <trkpt lat="44.50086" lon="0.99542">
        <ele>81.85</ele>
        <time>2016-01-16T09:08:59Z</time>
      </trkpt>
      <trkpt lat="44.50088" lon="0.99547">
        <ele>81.37</ele>
        <time>2016-01-16T09:09:00Z</time>
      </trkpt>
      <trkpt lat="44.5009" lon="0.99553">
        <ele>81.37</ele>
        <time>2016-01-16T09:09:01Z</time>
      </trkpt>
      <trkpt lat="44.50093" lon="0.99559">
        <ele>81.37</ele>
        <time>2016-01-16T09:09:02Z</time>
      </trkpt>
      <trkpt lat="44.50122" lon="0.99621">
        <ele>82.33</ele>
        <time>2016-01-16T09:09:12Z</time>
      </trkpt>
      <trkpt lat="44.50124" lon="0.99626">
        <ele>82.33</ele>
        <time>2016-01-16T09:09:13Z</time>
      </trkpt>
      <trkpt lat="44.5016" lon="0.99699">
        <ele>88.1</ele>
        <time>2016-01-16T09:09:28Z</time>
      </trkpt>
      <trkpt lat="44.50189" lon="0.99736">
        <ele>95.31</ele>
        <time>2016-01-16T09:09:41Z</time>
      </trkpt>
      <trkpt lat="44.50201" lon="0.9975">
        <ele>95.79</ele>
        <time>2016-01-16T09:09:45Z</time>
      </trkpt>
      <trkpt lat="44.50205" lon="0.99755">
        <ele>95.79</ele>
        <time>2016-01-16T09:09:46Z</time>
      </trkpt>
      <trkpt lat="44.50239" lon="0.99788">
        <ele>93.39</ele>
        <time>2016-01-16T09:09:53Z</time>
      </trkpt>
      <trkpt lat="44.50284" lon="0.99817">
        <ele>92.42</ele>
        <time>2016-01-16T09:10:04Z</time>
      </trkpt>
      <trkpt lat="44.50324" lon="0.99843">
        <ele>94.83</ele>
        <time>2016-01-16T09:10:15Z</time>
      </trkpt>
      <trkpt lat="44.50354" lon="0.99851">
        <ele>95.31</ele>
        <time>2016-01-16T09:10:21Z</time>
      </trkpt>
      <trkpt lat="44.50369" lon="0.99852">
        <ele>94.83</ele>
        <time>2016-01-16T09:10:24Z</time>
      </trkpt>
      <trkpt lat="44.50385" lon="0.99852">
        <ele>94.35</ele>
        <time>2016-01-16T09:10:27Z</time>
      </trkpt>
      <trkpt lat="44.50432" lon="0.99845">
        <ele>95.31</ele>
        <time>2016-01-16T09:10:37Z</time>
      </trkpt>
      <trkpt lat="44.50437" lon="0.99845">
        <ele>95.31</ele>
        <time>2016-01-16T09:10:38Z</time>
      </trkpt>
      <trkpt lat="44.50441" lon="0.99845">
        <ele>94.83</ele>
        <time>2016-01-16T09:10:39Z</time>
      </trkpt>
      <trkpt lat="44.50445" lon="0.99847">
        <ele>94.83</ele>
        <time>2016-01-16T09:10:40Z</time>
      </trkpt>
      <trkpt lat="44.5045" lon="0.99848">
        <ele>94.83</ele>
        <time>2016-01-16T09:10:41Z</time>
      </trkpt>
      <trkpt lat="44.50454" lon="0.99849">
        <ele>94.35</ele>
        <time>2016-01-16T09:10:42Z</time>
      </trkpt>
      <trkpt lat="44.50457" lon="0.9985">
        <ele>94.35</ele>
        <time>2016-01-16T09:10:43Z</time>
      </trkpt>
      <trkpt lat="44.5046" lon="0.9985">
        <ele>94.35</ele>
        <time>2016-01-16T09:10:44Z</time>
      </trkpt>
      <trkpt lat="44.50462" lon="0.99851">
        <ele>94.35</ele>
        <time>2016-01-16T09:10:45Z</time>
      </trkpt>
      <trkpt lat="44.50491" lon="0.9987">
        <ele>99.15</ele>
        <time>2016-01-16T09:10:58Z</time>
      </trkpt>
      <trkpt lat="44.5052" lon="0.99916">
        <ele>96.27</ele>
        <time>2016-01-16T09:11:14Z</time>
      </trkpt>
      <trkpt lat="44.50551" lon="0.99965">
        <ele>99.15</ele>
        <time>2016-01-16T09:11:30Z</time>
      </trkpt>
      <trkpt lat="44.50583" lon="0.99988">
        <ele>100.11</ele>
        <time>2016-01-16T09:11:44Z</time>
      </trkpt>
      <trkpt lat="44.50608" lon="1.00001">
        <ele>98.67</ele>
        <time>2016-01-16T09:11:57Z</time>
      </trkpt>
      <trkpt lat="44.50613" lon="1.00004">
        <ele>98.67</ele>
        <time>2016-01-16T09:12:09Z</time>
      </trkpt>
      <trkpt lat="44.50615" lon="1.00005">
        <ele>98.19</ele>
        <time>2016-01-16T09:12:24Z</time>
      </trkpt>
      <trkpt lat="44.50615" lon="1.00005">
        <ele>97.71</ele>
        <time>2016-01-16T09:12:45Z</time>
      </trkpt>
      <trkpt lat="44.50616" lon="1.00004">
        <ele>97.71</ele>
        <time>2016-01-16T09:13:16Z</time>
      </trkpt>
      <trkpt lat="44.50616" lon="1.00005">
        <ele>97.71</ele>
        <time>2016-01-16T09:13:44Z</time>
      </trkpt>
      <trkpt lat="44.50617" lon="1.00005">
        <ele>97.71</ele>
        <time>2016-01-16T09:14:13Z</time>
      </trkpt>
      <trkpt lat="44.50616" lon="1.00006">
        <ele>97.71</ele>
        <time>2016-01-16T09:14:43Z</time>
      </trkpt>
      <trkpt lat="44.50618" lon="1.00005">
        <ele>97.71</ele>
        <time>2016-01-16T09:14:53Z</time>
      </trkpt>
      <trkpt lat="44.5062" lon="1.00006">
        <ele>97.71</ele>
        <time>2016-01-16T09:14:54Z</time>
      </trkpt>
      <trkpt lat="44.50622" lon="1.00007">
        <ele>97.71</ele>
        <time>2016-01-16T09:14:55Z</time>
      </trkpt>
      <trkpt lat="44.50658" lon="1.00033">
        <ele>96.75</ele>
        <time>2016-01-16T09:15:07Z</time>
      </trkpt>
      <trkpt lat="44.50664" lon="1.0004">
        <ele>96.27</ele>
        <time>2016-01-16T09:15:09Z</time>
      </trkpt>
      <trkpt lat="44.50667" lon="1.00045">
        <ele>96.27</ele>
        <time>2016-01-16T09:15:10Z</time>
      </trkpt>
      <trkpt lat="44.5067" lon="1.00051">
        <ele>96.27</ele>
        <time>2016-01-16T09:15:11Z</time>
      </trkpt>
      <trkpt lat="44.50672" lon="1.00058">
        <ele>95.79</ele>
        <time>2016-01-16T09:15:12Z</time>
      </trkpt>
      <trkpt lat="44.50674" lon="1.00066">
        <ele>95.79</ele>
        <time>2016-01-16T09:15:13Z</time>
      </trkpt>
      <trkpt lat="44.50675" lon="1.00075">
        <ele>95.31</ele>
        <time>2016-01-16T09:15:14Z</time>
      </trkpt>
      <trkpt lat="44.50678" lon="1.00085">
        <ele>95.31</ele>
        <time>2016-01-16T09:15:15Z</time>
      </trkpt>
      <trkpt lat="44.50687" lon="1.00116">
        <ele>94.35</ele>
        <time>2016-01-16T09:15:18Z</time>
      </trkpt>
      <trkpt lat="44.50706" lon="1.00198">
        <ele>91.94</ele>
        <time>2016-01-16T09:15:26Z</time>
      </trkpt>
      <trkpt lat="44.50736" lon="1.00268">
        <ele>93.39</ele>
        <time>2016-01-16T09:15:36Z</time>
      </trkpt>
      <trkpt lat="44.50782" lon="1.00335">
        <ele>95.31</ele>
        <time>2016-01-16T09:15:46Z</time>
      </trkpt>
      <trkpt lat="44.50786" lon="1.0034">
        <ele>95.31</ele>
        <time>2016-01-16T09:15:47Z</time>
      </trkpt>
      <trkpt lat="44.5079" lon="1.00345">
        <ele>95.31</ele>
        <time>2016-01-16T09:15:48Z</time>
      </trkpt>
      <trkpt lat="44.50794" lon="1.00351">
        <ele>95.31</ele>
        <time>2016-01-16T09:15:49Z</time>
      </trkpt>
      <trkpt lat="44.50799" lon="1.00356">
        <ele>95.31</ele>
        <time>2016-01-16T09:15:50Z</time>
      </trkpt>
      <trkpt lat="44.50848" lon="1.00426">
        <ele>97.23</ele>
        <time>2016-01-16T09:16:04Z</time>
      </trkpt>
      <trkpt lat="44.50854" lon="1.00435">
        <ele>97.71</ele>
        <time>2016-01-16T09:16:06Z</time>
      </trkpt>
      <trkpt lat="44.50857" lon="1.0044">
        <ele>97.71</ele>
        <time>2016-01-16T09:16:07Z</time>
      </trkpt>
      <trkpt lat="44.50859" lon="1.00444">
        <ele>98.19</ele>
        <time>2016-01-16T09:16:08Z</time>
      </trkpt>
      <trkpt lat="44.50861" lon="1.00448">
        <ele>98.19</ele>
        <time>2016-01-16T09:16:09Z</time>
      </trkpt>
      <trkpt lat="44.50863" lon="1.00451">
        <ele>98.67</ele>
        <time>2016-01-16T09:16:10Z</time>
      </trkpt>
      <trkpt lat="44.50865" lon="1.00454">
        <ele>98.67</ele>
        <time>2016-01-16T09:16:11Z</time>
      </trkpt>
      <trkpt lat="44.50867" lon="1.00456">
        <ele>98.19</ele>
        <time>2016-01-16T09:16:12Z</time>
      </trkpt>
      <trkpt lat="44.50887" lon="1.00497">
        <ele>95.79</ele>
        <time>2016-01-16T09:16:24Z</time>
      </trkpt>
      <trkpt lat="44.50902" lon="1.00536">
        <ele>96.27</ele>
        <time>2016-01-16T09:16:36Z</time>
      </trkpt>
      <trkpt lat="44.50906" lon="1.00543">
        <ele>96.27</ele>
        <time>2016-01-16T09:16:39Z</time>
      </trkpt>
      <trkpt lat="44.50908" lon="1.00546">
        <ele>96.27</ele>
        <time>2016-01-16T09:16:40Z</time>
      </trkpt>
      <trkpt lat="44.50909" lon="1.00548">
        <ele>95.79</ele>
        <time>2016-01-16T09:16:41Z</time>
      </trkpt>
      <trkpt lat="44.50925" lon="1.00584">
        <ele>93.87</ele>
        <time>2016-01-16T09:16:53Z</time>
      </trkpt>
      <trkpt lat="44.50952" lon="1.00627">
        <ele>92.9</ele>
        <time>2016-01-16T09:17:06Z</time>
      </trkpt>
      <trkpt lat="44.51006" lon="1.00683">
        <ele>90.02</ele>
        <time>2016-01-16T09:17:22Z</time>
      </trkpt>
      <trkpt lat="44.51016" lon="1.00694">
        <ele>89.54</ele>
        <time>2016-01-16T09:17:25Z</time>
      </trkpt>
      <trkpt lat="44.51054" lon="1.00738">
        <ele>89.54</ele>
        <time>2016-01-16T09:17:37Z</time>
      </trkpt>
      <trkpt lat="44.51071" lon="1.00758">
        <ele>90.5</ele>
        <time>2016-01-16T09:17:42Z</time>
      </trkpt>
      <trkpt lat="44.51085" lon="1.00773">
        <ele>90.98</ele>
        <time>2016-01-16T09:17:46Z</time>
      </trkpt>
      <trkpt lat="44.51116" lon="1.00813">
        <ele>94.83</ele>
        <time>2016-01-16T09:17:57Z</time>
      </trkpt>
      <trkpt lat="44.5115" lon="1.00854">
        <ele>97.23</ele>
        <time>2016-01-16T09:18:11Z</time>
      </trkpt>
      <trkpt lat="44.51174" lon="1.00891">
        <ele>96.27</ele>
        <time>2016-01-16T09:18:21Z</time>
      </trkpt>
      <trkpt lat="44.51188" lon="1.00914">
        <ele>96.27</ele>
        <time>2016-01-16T09:18:27Z</time>
      </trkpt>
      <trkpt lat="44.51218" lon="1.00953">
        <ele>96.75</ele>
        <time>2016-01-16T09:18:39Z</time>
      </trkpt>
      <trkpt lat="44.51248" lon="1.00976">
        <ele>96.75</ele>
        <time>2016-01-16T09:18:50Z</time>
      </trkpt>
      <trkpt lat="44.51249" lon="1.00977">
        <ele>96.75</ele>
        <time>2016-01-16T09:18:51Z</time>
      </trkpt>
      <trkpt lat="44.51286" lon="1.01011">
        <ele>98.67</ele>
        <time>2016-01-16T09:19:05Z</time>
      </trkpt>
      <trkpt lat="44.51289" lon="1.01016">
        <ele>98.67</ele>
        <time>2016-01-16T09:19:06Z</time>
      </trkpt>
      <trkpt lat="44.51294" lon="1.01027">
        <ele>99.15</ele>
        <time>2016-01-16T09:19:08Z</time>
      </trkpt>
      <trkpt lat="44.51302" lon="1.01054">
        <ele>99.15</ele>
        <time>2016-01-16T09:19:13Z</time>
      </trkpt>
      <trkpt lat="44.51304" lon="1.01068">
        <ele>100.11</ele>
        <time>2016-01-16T09:19:15Z</time>
      </trkpt>
      <trkpt lat="44.51306" lon="1.01082">
        <ele>100.11</ele>
        <time>2016-01-16T09:19:17Z</time>
      </trkpt>
      <trkpt lat="44.51308" lon="1.01148">
        <ele>101.08</ele>
        <time>2016-01-16T09:19:29Z</time>
      </trkpt>
      <trkpt lat="44.51312" lon="1.01201">
        <ele>100.11</ele>
        <time>2016-01-16T09:19:38Z</time>
      </trkpt>
      <trkpt lat="44.51311" lon="1.01208">
        <ele>99.63</ele>
        <time>2016-01-16T09:19:39Z</time>
      </trkpt>
      <trkpt lat="44.51309" lon="1.01214">
        <ele>99.63</ele>
        <time>2016-01-16T09:19:40Z</time>
      </trkpt>
      <trkpt lat="44.51307" lon="1.01219">
        <ele>99.63</ele>
        <time>2016-01-16T09:19:41Z</time>
      </trkpt>
      <trkpt lat="44.51304" lon="1.01224">
        <ele>99.63</ele>
        <time>2016-01-16T09:19:42Z</time>
      </trkpt>
      <trkpt lat="44.51302" lon="1.01228">
        <ele>99.63</ele>
        <time>2016-01-16T09:19:43Z</time>
      </trkpt>
      <trkpt lat="44.51301" lon="1.01232">
        <ele>99.63</ele>
        <time>2016-01-16T09:19:44Z</time>
      </trkpt>
      <trkpt lat="44.51283" lon="1.01274">
        <ele>99.15</ele>
        <time>2016-01-16T09:19:56Z</time>
      </trkpt>
      <trkpt lat="44.51276" lon="1.0132">
        <ele>100.11</ele>
        <time>2016-01-16T09:20:12Z</time>
      </trkpt>
      <trkpt lat="44.51293" lon="1.01377">
        <ele>98.19</ele>
        <time>2016-01-16T09:20:24Z</time>
      </trkpt>
      <trkpt lat="44.51316" lon="1.01431">
        <ele>97.23</ele>
        <time>2016-01-16T09:20:35Z</time>
      </trkpt>
      <trkpt lat="44.51345" lon="1.01466">
        <ele>99.15</ele>
        <time>2016-01-16T09:20:45Z</time>
      </trkpt>
      <trkpt lat="44.51361" lon="1.01483">
        <ele>100.11</ele>
        <time>2016-01-16T09:20:50Z</time>
      </trkpt>
      <trkpt lat="44.51365" lon="1.01485">
        <ele>100.11</ele>
        <time>2016-01-16T09:20:51Z</time>
      </trkpt>
      <trkpt lat="44.51389" lon="1.01502">
        <ele>101.08</ele>
        <time>2016-01-16T09:20:57Z</time>
      </trkpt>
      <trkpt lat="44.51393" lon="1.01505">
        <ele>101.56</ele>
        <time>2016-01-16T09:20:58Z</time>
      </trkpt>
      <trkpt lat="44.51436" lon="1.01522">
        <ele>103</ele>
        <time>2016-01-16T09:21:08Z</time>
      </trkpt>
      <trkpt lat="44.51479" lon="1.01535">
        <ele>104.44</ele>
        <time>2016-01-16T09:21:18Z</time>
      </trkpt>
      <trkpt lat="44.51488" lon="1.01536">
        <ele>104.92</ele>
        <time>2016-01-16T09:21:20Z</time>
      </trkpt>
      <trkpt lat="44.51548" lon="1.01549">
        <ele>106.36</ele>
        <time>2016-01-16T09:21:35Z</time>
      </trkpt>
      <trkpt lat="44.51585" lon="1.0155">
        <ele>108.29</ele>
        <time>2016-01-16T09:21:47Z</time>
      </trkpt>
      <trkpt lat="44.51608" lon="1.01557">
        <ele>106.84</ele>
        <time>2016-01-16T09:21:52Z</time>
      </trkpt>
      <trkpt lat="44.51612" lon="1.01559">
        <ele>106.84</ele>
        <time>2016-01-16T09:21:53Z</time>
      </trkpt>
      <trkpt lat="44.51622" lon="1.01564">
        <ele>105.88</ele>
        <time>2016-01-16T09:21:55Z</time>
      </trkpt>
      <trkpt lat="44.51627" lon="1.01565">
        <ele>105.88</ele>
        <time>2016-01-16T09:21:56Z</time>
      </trkpt>
      <trkpt lat="44.51632" lon="1.01565">
        <ele>105.88</ele>
        <time>2016-01-16T09:21:57Z</time>
      </trkpt>
      <trkpt lat="44.51638" lon="1.01564">
        <ele>104.92</ele>
        <time>2016-01-16T09:21:58Z</time>
      </trkpt>
      <trkpt lat="44.51643" lon="1.01559">
        <ele>104.44</ele>
        <time>2016-01-16T09:21:59Z</time>
      </trkpt>
      <trkpt lat="44.51648" lon="1.01552">
        <ele>103.48</ele>
        <time>2016-01-16T09:22:00Z</time>
      </trkpt>
      <trkpt lat="44.51652" lon="1.01545">
        <ele>102.52</ele>
        <time>2016-01-16T09:22:01Z</time>
      </trkpt>
      <trkpt lat="44.51656" lon="1.01537">
        <ele>101.56</ele>
        <time>2016-01-16T09:22:02Z</time>
      </trkpt>
      <trkpt lat="44.51686" lon="1.01481">
        <ele>95.79</ele>
        <time>2016-01-16T09:22:09Z</time>
      </trkpt>
      <trkpt lat="44.51691" lon="1.01476">
        <ele>94.83</ele>
        <time>2016-01-16T09:22:10Z</time>
      </trkpt>
      <trkpt lat="44.51697" lon="1.01473">
        <ele>94.35</ele>
        <time>2016-01-16T09:22:11Z</time>
      </trkpt>
      <trkpt lat="44.51703" lon="1.01473">
        <ele>93.87</ele>
        <time>2016-01-16T09:22:12Z</time>
      </trkpt>
      <trkpt lat="44.51709" lon="1.01475">
        <ele>93.39</ele>
        <time>2016-01-16T09:22:13Z</time>
      </trkpt>
      <trkpt lat="44.51714" lon="1.01478">
        <ele>92.9</ele>
        <time>2016-01-16T09:22:14Z</time>
      </trkpt>
      <trkpt lat="44.51718" lon="1.01483">
        <ele>92.42</ele>
        <time>2016-01-16T09:22:15Z</time>
      </trkpt>
      <trkpt lat="44.51721" lon="1.01487">
        <ele>92.42</ele>
        <time>2016-01-16T09:22:16Z</time>
      </trkpt>
      <trkpt lat="44.51725" lon="1.01492">
        <ele>91.94</ele>
        <time>2016-01-16T09:22:17Z</time>
      </trkpt>
      <trkpt lat="44.51728" lon="1.01497">
        <ele>91.94</ele>
        <time>2016-01-16T09:22:18Z</time>
      </trkpt>
      <trkpt lat="44.51764" lon="1.01547">
        <ele>93.87</ele>
        <time>2016-01-16T09:22:31Z</time>
      </trkpt>
      <trkpt lat="44.51783" lon="1.0159">
        <ele>93.87</ele>
        <time>2016-01-16T09:22:42Z</time>
      </trkpt>
      <trkpt lat="44.51813" lon="1.01659">
        <ele>90.98</ele>
        <time>2016-01-16T09:22:53Z</time>
      </trkpt>
      <trkpt lat="44.51817" lon="1.0167">
        <ele>90.5</ele>
        <time>2016-01-16T09:22:55Z</time>
      </trkpt>
      <trkpt lat="44.51821" lon="1.01682">
        <ele>90.98</ele>
        <time>2016-01-16T09:22:58Z</time>
      </trkpt>
      <trkpt lat="44.51821" lon="1.01684">
        <ele>91.46</ele>
        <time>2016-01-16T09:22:59Z</time>
      </trkpt>
      <trkpt lat="44.5182" lon="1.01688">
        <ele>91.94</ele>
        <time>2016-01-16T09:23:10Z</time>
      </trkpt>
      <trkpt lat="44.51818" lon="1.01689">
        <ele>91.46</ele>
        <time>2016-01-16T09:23:30Z</time>
      </trkpt>
      <trkpt lat="44.51819" lon="1.01689">
        <ele>91.94</ele>
        <time>2016-01-16T09:23:53Z</time>
      </trkpt>
      <trkpt lat="44.51819" lon="1.01689">
        <ele>91.46</ele>
        <time>2016-01-16T09:24:25Z</time>
      </trkpt>
      <trkpt lat="44.51818" lon="1.01689">
        <ele>91.46</ele>
        <time>2016-01-16T09:24:29Z</time>
      </trkpt>
      <trkpt lat="44.51817" lon="1.0169">
        <ele>91.94</ele>
        <time>2016-01-16T09:24:30Z</time>
      </trkpt>
      <trkpt lat="44.51815" lon="1.01691">
        <ele>91.94</ele>
        <time>2016-01-16T09:24:31Z</time>
      </trkpt>
      <trkpt lat="44.51813" lon="1.01692">
        <ele>91.94</ele>
        <time>2016-01-16T09:24:32Z</time>
      </trkpt>
      <trkpt lat="44.51811" lon="1.01693">
        <ele>92.42</ele>
        <time>2016-01-16T09:24:33Z</time>
      </trkpt>
      <trkpt lat="44.51809" lon="1.01694">
        <ele>92.42</ele>
        <time>2016-01-16T09:24:34Z</time>
      </trkpt>
      <trkpt lat="44.51774" lon="1.0172">
        <ele>94.35</ele>
        <time>2016-01-16T09:24:45Z</time>
      </trkpt>
      <trkpt lat="44.51771" lon="1.01724">
        <ele>94.35</ele>
        <time>2016-01-16T09:24:46Z</time>
      </trkpt>
      <trkpt lat="44.51744" lon="1.01796">
        <ele>98.19</ele>
        <time>2016-01-16T09:25:01Z</time>
      </trkpt>
      <trkpt lat="44.51744" lon="1.01864">
        <ele>99.63</ele>
        <time>2016-01-16T09:25:15Z</time>
      </trkpt>
      <trkpt lat="44.51754" lon="1.01929">
        <ele>103.96</ele>
        <time>2016-01-16T09:25:30Z</time>
      </trkpt>
      <trkpt lat="44.51767" lon="1.01972">
        <ele>106.36</ele>
        <time>2016-01-16T09:25:38Z</time>
      </trkpt>
      <trkpt lat="44.51769" lon="1.01978">
        <ele>106.36</ele>
        <time>2016-01-16T09:25:39Z</time>
      </trkpt>
      <trkpt lat="44.51786" lon="1.02033">
        <ele>105.4</ele>
        <time>2016-01-16T09:25:48Z</time>
      </trkpt>
      <trkpt lat="44.51795" lon="1.02064">
        <ele>106.36</ele>
        <time>2016-01-16T09:25:53Z</time>
      </trkpt>
      <trkpt lat="44.518" lon="1.02075">
        <ele>106.84</ele>
        <time>2016-01-16T09:25:55Z</time>
      </trkpt>
      <trkpt lat="44.51813" lon="1.02115">
        <ele>108.77</ele>
        <time>2016-01-16T09:26:02Z</time>
      </trkpt>
      <trkpt lat="44.51827" lon="1.02136">
        <ele>109.73</ele>
        <time>2016-01-16T09:26:06Z</time>
      </trkpt>
      <trkpt lat="44.5184" lon="1.02158">
        <ele>110.69</ele>
        <time>2016-01-16T09:26:11Z</time>
      </trkpt>
      <trkpt lat="44.51836" lon="1.02179">
        <ele>107.32</ele>
        <time>2016-01-16T09:26:17Z</time>
      </trkpt>
      <trkpt lat="44.51834" lon="1.02187">
        <ele>104.44</ele>
        <time>2016-01-16T09:26:20Z</time>
      </trkpt>
      <trkpt lat="44.51809" lon="1.02211">
        <ele>100.11</ele>
        <time>2016-01-16T09:26:36Z</time>
      </trkpt>
      <trkpt lat="44.51777" lon="1.02235">
        <ele>99.63</ele>
        <time>2016-01-16T09:26:52Z</time>
      </trkpt>
      <trkpt lat="44.51746" lon="1.02243">
        <ele>101.56</ele>
        <time>2016-01-16T09:27:07Z</time>
      </trkpt>
      <trkpt lat="44.51716" lon="1.02241">
        <ele>101.08</ele>
        <time>2016-01-16T09:27:21Z</time>
      </trkpt>
      <trkpt lat="44.51682" lon="1.02233">
        <ele>101.08</ele>
        <time>2016-01-16T09:27:37Z</time>
      </trkpt>
      <trkpt lat="44.51678" lon="1.02233">
        <ele>101.56</ele>
        <time>2016-01-16T09:27:39Z</time>
      </trkpt>
      <trkpt lat="44.51666" lon="1.02245">
        <ele>103</ele>
        <time>2016-01-16T09:27:48Z</time>
      </trkpt>
      <trkpt lat="44.51647" lon="1.02279">
        <ele>106.84</ele>
        <time>2016-01-16T09:28:04Z</time>
      </trkpt>
      <trkpt lat="44.51627" lon="1.02309">
        <ele>111.65</ele>
        <time>2016-01-16T09:28:19Z</time>
      </trkpt>
      <trkpt lat="44.51605" lon="1.0234">
        <ele>117.9</ele>
        <time>2016-01-16T09:28:34Z</time>
      </trkpt>
      <trkpt lat="44.51587" lon="1.02373">
        <ele>123.67</ele>
        <time>2016-01-16T09:28:49Z</time>
      </trkpt>
      <trkpt lat="44.51558" lon="1.02408">
        <ele>129.43</ele>
        <time>2016-01-16T09:29:07Z</time>
      </trkpt>
      <trkpt lat="44.51533" lon="1.02429">
        <ele>133.28</ele>
        <time>2016-01-16T09:29:22Z</time>
      </trkpt>
      <trkpt lat="44.51509" lon="1.02435">
        <ele>132.32</ele>
        <time>2016-01-16T09:29:35Z</time>
      </trkpt>
      <trkpt lat="44.51486" lon="1.02443">
        <ele>132.32</ele>
        <time>2016-01-16T09:29:47Z</time>
      </trkpt>
      <trkpt lat="44.51456" lon="1.02461">
        <ele>134.24</ele>
        <time>2016-01-16T09:30:04Z</time>
      </trkpt>
      <trkpt lat="44.51432" lon="1.02458">
        <ele>137.61</ele>
        <time>2016-01-16T09:30:17Z</time>
      </trkpt>
      <trkpt lat="44.514" lon="1.0247">
        <ele>138.57</ele>
        <time>2016-01-16T09:30:34Z</time>
      </trkpt>
      <trkpt lat="44.51375" lon="1.02491">
        <ele>139.53</ele>
        <time>2016-01-16T09:30:49Z</time>
      </trkpt>
      <trkpt lat="44.51355" lon="1.02516">
        <ele>143.37</ele>
        <time>2016-01-16T09:31:04Z</time>
      </trkpt>
      <trkpt lat="44.51336" lon="1.02542">
        <ele>147.7</ele>
        <time>2016-01-16T09:31:22Z</time>
      </trkpt>
      <trkpt lat="44.51334" lon="1.02545">
        <ele>148.18</ele>
        <time>2016-01-16T09:31:24Z</time>
      </trkpt>
      <trkpt lat="44.51318" lon="1.02568">
        <ele>152.03</ele>
        <time>2016-01-16T09:31:39Z</time>
      </trkpt>
      <trkpt lat="44.51301" lon="1.02596">
        <ele>157.79</ele>
        <time>2016-01-16T09:31:56Z</time>
      </trkpt>
      <trkpt lat="44.51283" lon="1.02622">
        <ele>161.16</ele>
        <time>2016-01-16T09:32:12Z</time>
      </trkpt>
      <trkpt lat="44.51265" lon="1.0265">
        <ele>165</ele>
        <time>2016-01-16T09:32:28Z</time>
      </trkpt>
      <trkpt lat="44.51246" lon="1.02682">
        <ele>168.85</ele>
        <time>2016-01-16T09:32:47Z</time>
      </trkpt>
      <trkpt lat="44.51227" lon="1.02715">
        <ele>172.69</ele>
        <time>2016-01-16T09:33:06Z</time>
      </trkpt>
      <trkpt lat="44.51211" lon="1.02739">
        <ele>175.1</ele>
        <time>2016-01-16T09:33:22Z</time>
      </trkpt>
      <trkpt lat="44.51208" lon="1.02744">
        <ele>175.58</ele>
        <time>2016-01-16T09:33:36Z</time>
      </trkpt>
      <trkpt lat="44.51207" lon="1.02752">
        <ele>175.1</ele>
        <time>2016-01-16T09:33:50Z</time>
      </trkpt>
      <trkpt lat="44.51207" lon="1.02754">
        <ele>175.58</ele>
        <time>2016-01-16T09:33:52Z</time>
      </trkpt>
      <trkpt lat="44.51207" lon="1.02767">
        <ele>178.94</ele>
        <time>2016-01-16T09:34:06Z</time>
      </trkpt>
      <trkpt lat="44.51207" lon="1.02773">
        <ele>180.38</ele>
        <time>2016-01-16T09:34:18Z</time>
      </trkpt>
      <trkpt lat="44.51206" lon="1.02785">
        <ele>180.87</ele>
        <time>2016-01-16T09:34:34Z</time>
      </trkpt>
      <trkpt lat="44.51204" lon="1.02801">
        <ele>184.23</ele>
        <time>2016-01-16T09:34:49Z</time>
      </trkpt>
      <trkpt lat="44.51202" lon="1.02817">
        <ele>186.15</ele>
        <time>2016-01-16T09:35:04Z</time>
      </trkpt>
      <trkpt lat="44.51199" lon="1.02829">
        <ele>188.56</ele>
        <time>2016-01-16T09:35:19Z</time>
      </trkpt>
      <trkpt lat="44.51196" lon="1.02843">
        <ele>191.92</ele>
        <time>2016-01-16T09:35:34Z</time>
      </trkpt>
      <trkpt lat="44.51195" lon="1.02852">
        <ele>193.36</ele>
        <time>2016-01-16T09:35:41Z</time>
      </trkpt>
      <trkpt lat="44.51192" lon="1.0287">
        <ele>197.69</ele>
        <time>2016-01-16T09:35:57Z</time>
      </trkpt>
      <trkpt lat="44.51192" lon="1.02876">
        <ele>197.69</ele>
        <time>2016-01-16T09:36:12Z</time>
      </trkpt>
      <trkpt lat="44.51194" lon="1.02876">
        <ele>197.21</ele>
        <time>2016-01-16T09:36:44Z</time>
      </trkpt>
      <trkpt lat="44.51193" lon="1.02876">
        <ele>195.77</ele>
        <time>2016-01-16T09:37:20Z</time>
      </trkpt>
      <trkpt lat="44.51193" lon="1.02874">
        <ele>195.28</ele>
        <time>2016-01-16T09:37:54Z</time>
      </trkpt>
      <trkpt lat="44.51193" lon="1.02876">
        <ele>195.28</ele>
        <time>2016-01-16T09:38:32Z</time>
      </trkpt>
      <trkpt lat="44.51193" lon="1.02874">
        <ele>194.32</ele>
        <time>2016-01-16T09:39:05Z</time>
      </trkpt>
      <trkpt lat="44.51193" lon="1.02875">
        <ele>193.36</ele>
        <time>2016-01-16T09:39:42Z</time>
      </trkpt>
      <trkpt lat="44.51192" lon="1.02875">
        <ele>194.32</ele>
        <time>2016-01-16T09:40:09Z</time>
      </trkpt>
      <trkpt lat="44.51192" lon="1.02876">
        <ele>194.8</ele>
        <time>2016-01-16T09:40:45Z</time>
      </trkpt>
      <trkpt lat="44.51192" lon="1.02876">
        <ele>195.28</ele>
        <time>2016-01-16T09:41:22Z</time>
      </trkpt>
      <trkpt lat="44.51191" lon="1.02876">
        <ele>195.77</ele>
        <time>2016-01-16T09:42:03Z</time>
      </trkpt>
      <trkpt lat="44.51192" lon="1.02875">
        <ele>196.73</ele>
        <time>2016-01-16T09:42:36Z</time>
      </trkpt>
      <trkpt lat="44.51192" lon="1.02875">
        <ele>196.73</ele>
        <time>2016-01-16T09:43:12Z</time>
      </trkpt>
      <trkpt lat="44.51193" lon="1.02876">
        <ele>197.21</ele>
        <time>2016-01-16T09:43:38Z</time>
      </trkpt>
      <trkpt lat="44.51194" lon="1.02876">
        <ele>197.21</ele>
        <time>2016-01-16T09:44:09Z</time>
      </trkpt>
      <trkpt lat="44.51193" lon="1.02875">
        <ele>198.65</ele>
        <time>2016-01-16T09:44:40Z</time>
      </trkpt>
      <trkpt lat="44.51193" lon="1.02876">
        <ele>199.61</ele>
        <time>2016-01-16T09:45:18Z</time>
      </trkpt>
      <trkpt lat="44.51194" lon="1.02876">
        <ele>199.13</ele>
        <time>2016-01-16T09:45:50Z</time>
      </trkpt>
      <trkpt lat="44.51194" lon="1.02876">
        <ele>199.13</ele>
        <time>2016-01-16T09:46:23Z</time>
      </trkpt>
      <trkpt lat="44.51194" lon="1.02875">
        <ele>198.65</ele>
        <time>2016-01-16T09:46:41Z</time>
      </trkpt>
      <trkpt lat="44.51195" lon="1.02874">
        <ele>199.13</ele>
        <time>2016-01-16T09:47:10Z</time>
      </trkpt>
      <trkpt lat="44.51194" lon="1.02875">
        <ele>199.13</ele>
        <time>2016-01-16T09:47:44Z</time>
      </trkpt>
      <trkpt lat="44.51194" lon="1.02875">
        <ele>198.65</ele>
        <time>2016-01-16T09:48:11Z</time>
      </trkpt>
      <trkpt lat="44.51194" lon="1.02875">
        <ele>198.65</ele>
        <time>2016-01-16T09:48:13Z</time>
      </trkpt>
      <trkpt lat="44.51184" lon="1.02878">
        <ele>201.05</ele>
        <time>2016-01-16T09:48:21Z</time>
      </trkpt>
      <trkpt lat="44.51165" lon="1.02894">
        <ele>203.94</ele>
        <time>2016-01-16T09:48:36Z</time>
      </trkpt>
      <trkpt lat="44.51149" lon="1.02912">
        <ele>207.78</ele>
        <time>2016-01-16T09:48:50Z</time>
      </trkpt>
      <trkpt lat="44.51145" lon="1.02918">
        <ele>208.26</ele>
        <time>2016-01-16T09:48:54Z</time>
      </trkpt>
      <trkpt lat="44.5114" lon="1.02923">
        <ele>209.22</ele>
        <time>2016-01-16T09:48:58Z</time>
      </trkpt>
      <trkpt lat="44.51119" lon="1.02939">
        <ele>213.07</ele>
        <time>2016-01-16T09:49:15Z</time>
      </trkpt>
      <trkpt lat="44.511" lon="1.02957">
        <ele>215.95</ele>
        <time>2016-01-16T09:49:31Z</time>
      </trkpt>
      <trkpt lat="44.51079" lon="1.02978">
        <ele>218.36</ele>
        <time>2016-01-16T09:49:49Z</time>
      </trkpt>
      <trkpt lat="44.51062" lon="1.03004">
        <ele>220.76</ele>
        <time>2016-01-16T09:50:05Z</time>
      </trkpt>
      <trkpt lat="44.51049" lon="1.03044">
        <ele>226.05</ele>
        <time>2016-01-16T09:50:23Z</time>
      </trkpt>
      <trkpt lat="44.51045" lon="1.0309">
        <ele>226.53</ele>
        <time>2016-01-16T09:50:39Z</time>
      </trkpt>
      <trkpt lat="44.51023" lon="1.03116">
        <ele>227.01</ele>
        <time>2016-01-16T09:50:53Z</time>
      </trkpt>
      <trkpt lat="44.50992" lon="1.03135">
        <ele>226.53</ele>
        <time>2016-01-16T09:51:07Z</time>
      </trkpt>
      <trkpt lat="44.50958" lon="1.03158">
        <ele>223.16</ele>
        <time>2016-01-16T09:51:21Z</time>
      </trkpt>
      <trkpt lat="44.50958" lon="1.03159">
        <ele>223.64</ele>
        <time>2016-01-16T09:51:36Z</time>
      </trkpt>
      <trkpt lat="44.50958" lon="1.0316">
        <ele>224.61</ele>
        <time>2016-01-16T09:52:04Z</time>
      </trkpt>
      <trkpt lat="44.50959" lon="1.03159">
        <ele>224.12</ele>
        <time>2016-01-16T09:52:25Z</time>
      </trkpt>
      <trkpt lat="44.50957" lon="1.03161">
        <ele>224.12</ele>
        <time>2016-01-16T09:52:28Z</time>
      </trkpt>
      <trkpt lat="44.50956" lon="1.03163">
        <ele>224.12</ele>
        <time>2016-01-16T09:52:29Z</time>
      </trkpt>
      <trkpt lat="44.50956" lon="1.03164">
        <ele>224.12</ele>
        <time>2016-01-16T09:52:30Z</time>
      </trkpt>
      <trkpt lat="44.50956" lon="1.03167">
        <ele>223.64</ele>
        <time>2016-01-16T09:52:31Z</time>
      </trkpt>
      <trkpt lat="44.50956" lon="1.03169">
        <ele>223.64</ele>
        <time>2016-01-16T09:52:32Z</time>
      </trkpt>
      <trkpt lat="44.50956" lon="1.03171">
        <ele>223.64</ele>
        <time>2016-01-16T09:52:33Z</time>
      </trkpt>
      <trkpt lat="44.50957" lon="1.03175">
        <ele>223.64</ele>
        <time>2016-01-16T09:52:48Z</time>
      </trkpt>
      <trkpt lat="44.50956" lon="1.03175">
        <ele>223.64</ele>
        <time>2016-01-16T09:53:14Z</time>
      </trkpt>
      <trkpt lat="44.50957" lon="1.03176">
        <ele>222.2</ele>
        <time>2016-01-16T09:53:33Z</time>
      </trkpt>
      <trkpt lat="44.50958" lon="1.03177">
        <ele>222.2</ele>
        <time>2016-01-16T09:53:34Z</time>
      </trkpt>
      <trkpt lat="44.5096" lon="1.03178">
        <ele>221.72</ele>
        <time>2016-01-16T09:53:35Z</time>
      </trkpt>
      <trkpt lat="44.50961" lon="1.03181">
        <ele>221.72</ele>
        <time>2016-01-16T09:53:36Z</time>
      </trkpt>
      <trkpt lat="44.50979" lon="1.03235">
        <ele>220.76</ele>
        <time>2016-01-16T09:53:44Z</time>
      </trkpt>
      <trkpt lat="44.5098" lon="1.03244">
        <ele>220.28</ele>
        <time>2016-01-16T09:53:45Z</time>
      </trkpt>
      <trkpt lat="44.50982" lon="1.03253">
        <ele>219.8</ele>
        <time>2016-01-16T09:53:46Z</time>
      </trkpt>
      <trkpt lat="44.50984" lon="1.03263">
        <ele>219.32</ele>
        <time>2016-01-16T09:53:47Z</time>
      </trkpt>
      <trkpt lat="44.50987" lon="1.03272">
        <ele>218.84</ele>
        <time>2016-01-16T09:53:48Z</time>
      </trkpt>
      <trkpt lat="44.50991" lon="1.03281">
        <ele>218.36</ele>
        <time>2016-01-16T09:53:49Z</time>
      </trkpt>
      <trkpt lat="44.50995" lon="1.03289">
        <ele>217.88</ele>
        <time>2016-01-16T09:53:50Z</time>
      </trkpt>
      <trkpt lat="44.5101" lon="1.03326">
        <ele>215.95</ele>
        <time>2016-01-16T09:53:54Z</time>
      </trkpt>
      <trkpt lat="44.51026" lon="1.0338">
        <ele>211.63</ele>
        <time>2016-01-16T09:54:00Z</time>
      </trkpt>
      <trkpt lat="44.5103" lon="1.03389">
        <ele>210.67</ele>
        <time>2016-01-16T09:54:01Z</time>
      </trkpt>
      <trkpt lat="44.51036" lon="1.03398">
        <ele>209.7</ele>
        <time>2016-01-16T09:54:02Z</time>
      </trkpt>
      <trkpt lat="44.51043" lon="1.03405">
        <ele>208.74</ele>
        <time>2016-01-16T09:54:03Z</time>
      </trkpt>
      <trkpt lat="44.5105" lon="1.03412">
        <ele>207.78</ele>
        <time>2016-01-16T09:54:04Z</time>
      </trkpt>
      <trkpt lat="44.51084" lon="1.03448">
        <ele>204.42</ele>
        <time>2016-01-16T09:54:10Z</time>
      </trkpt>
      <trkpt lat="44.51087" lon="1.03453">
        <ele>203.94</ele>
        <time>2016-01-16T09:54:11Z</time>
      </trkpt>
      <trkpt lat="44.51087" lon="1.03458">
        <ele>203.94</ele>
        <time>2016-01-16T09:54:12Z</time>
      </trkpt>
      <trkpt lat="44.51085" lon="1.03462">
        <ele>203.94</ele>
        <time>2016-01-16T09:54:13Z</time>
      </trkpt>
      <trkpt lat="44.51082" lon="1.03466">
        <ele>203.94</ele>
        <time>2016-01-16T09:54:14Z</time>
      </trkpt>
      <trkpt lat="44.51077" lon="1.03469">
        <ele>203.94</ele>
        <time>2016-01-16T09:54:15Z</time>
      </trkpt>
      <trkpt lat="44.51073" lon="1.03472">
        <ele>204.42</ele>
        <time>2016-01-16T09:54:16Z</time>
      </trkpt>
      <trkpt lat="44.51068" lon="1.03474">
        <ele>204.42</ele>
        <time>2016-01-16T09:54:17Z</time>
      </trkpt>
      <trkpt lat="44.51062" lon="1.03476">
        <ele>204.42</ele>
        <time>2016-01-16T09:54:18Z</time>
      </trkpt>
      <trkpt lat="44.51056" lon="1.03477">
        <ele>204.9</ele>
        <time>2016-01-16T09:54:19Z</time>
      </trkpt>
      <trkpt lat="44.51043" lon="1.03481">
        <ele>204.9</ele>
        <time>2016-01-16T09:54:21Z</time>
      </trkpt>
      <trkpt lat="44.51037" lon="1.03483">
        <ele>204.9</ele>
        <time>2016-01-16T09:54:22Z</time>
      </trkpt>
      <trkpt lat="44.5103" lon="1.03485">
        <ele>203.94</ele>
        <time>2016-01-16T09:54:23Z</time>
      </trkpt>
      <trkpt lat="44.51023" lon="1.03489">
        <ele>203.46</ele>
        <time>2016-01-16T09:54:24Z</time>
      </trkpt>
      <trkpt lat="44.51016" lon="1.03493">
        <ele>202.49</ele>
        <time>2016-01-16T09:54:25Z</time>
      </trkpt>
      <trkpt lat="44.50996" lon="1.03506">
        <ele>200.09</ele>
        <time>2016-01-16T09:54:29Z</time>
      </trkpt>
      <trkpt lat="44.50994" lon="1.03512">
        <ele>199.13</ele>
        <time>2016-01-16T09:54:30Z</time>
      </trkpt>
      <trkpt lat="44.50994" lon="1.03518">
        <ele>199.13</ele>
        <time>2016-01-16T09:54:31Z</time>
      </trkpt>
      <trkpt lat="44.50996" lon="1.03525">
        <ele>198.65</ele>
        <time>2016-01-16T09:54:32Z</time>
      </trkpt>
      <trkpt lat="44.50999" lon="1.03531">
        <ele>198.17</ele>
        <time>2016-01-16T09:54:33Z</time>
      </trkpt>
      <trkpt lat="44.51003" lon="1.03537">
        <ele>197.69</ele>
        <time>2016-01-16T09:54:34Z</time>
      </trkpt>
      <trkpt lat="44.51007" lon="1.03542">
        <ele>197.21</ele>
        <time>2016-01-16T09:54:35Z</time>
      </trkpt>
      <trkpt lat="44.5101" lon="1.03548">
        <ele>196.73</ele>
        <time>2016-01-16T09:54:36Z</time>
      </trkpt>
      <trkpt lat="44.51014" lon="1.03554">
        <ele>196.25</ele>
        <time>2016-01-16T09:54:37Z</time>
      </trkpt>
      <trkpt lat="44.51023" lon="1.03571">
        <ele>194.32</ele>
        <time>2016-01-16T09:54:40Z</time>
      </trkpt>
      <trkpt lat="44.51027" lon="1.03574">
        <ele>193.84</ele>
        <time>2016-01-16T09:54:41Z</time>
      </trkpt>
      <trkpt lat="44.51031" lon="1.03575">
        <ele>193.36</ele>
        <time>2016-01-16T09:54:42Z</time>
      </trkpt>
      <trkpt lat="44.51057" lon="1.03581">
        <ele>192.88</ele>
        <time>2016-01-16T09:54:55Z</time>
      </trkpt>
      <trkpt lat="44.51067" lon="1.03583">
        <ele>194.8</ele>
        <time>2016-01-16T09:55:01Z</time>
      </trkpt>
      <trkpt lat="44.51069" lon="1.03583">
        <ele>195.28</ele>
        <time>2016-01-16T09:55:02Z</time>
      </trkpt>
      <trkpt lat="44.51071" lon="1.03582">
        <ele>195.77</ele>
        <time>2016-01-16T09:55:03Z</time>
      </trkpt>
      <trkpt lat="44.5109" lon="1.03569">
        <ele>202.49</ele>
        <time>2016-01-16T09:55:17Z</time>
      </trkpt>
      <trkpt lat="44.51092" lon="1.03568">
        <ele>202.49</ele>
        <time>2016-01-16T09:55:18Z</time>
      </trkpt>
      <trkpt lat="44.51093" lon="1.03566">
        <ele>202.98</ele>
        <time>2016-01-16T09:55:19Z</time>
      </trkpt>
      <trkpt lat="44.51094" lon="1.03565">
        <ele>202.98</ele>
        <time>2016-01-16T09:55:20Z</time>
      </trkpt>
      <trkpt lat="44.51096" lon="1.03564">
        <ele>202.98</ele>
        <time>2016-01-16T09:55:21Z</time>
      </trkpt>
      <trkpt lat="44.51098" lon="1.03562">
        <ele>203.46</ele>
        <time>2016-01-16T09:55:22Z</time>
      </trkpt>
      <trkpt lat="44.51123" lon="1.03553">
        <ele>204.9</ele>
        <time>2016-01-16T09:55:35Z</time>
      </trkpt>
      <trkpt lat="44.5113" lon="1.03557">
        <ele>206.34</ele>
        <time>2016-01-16T09:55:46Z</time>
      </trkpt>
      <trkpt lat="44.5113" lon="1.03557">
        <ele>205.38</ele>
        <time>2016-01-16T09:56:23Z</time>
      </trkpt>
      <trkpt lat="44.51131" lon="1.03556">
        <ele>204.42</ele>
        <time>2016-01-16T09:57:00Z</time>
      </trkpt>
      <trkpt lat="44.51131" lon="1.03557">
        <ele>202.98</ele>
        <time>2016-01-16T09:57:37Z</time>
      </trkpt>
      <trkpt lat="44.51131" lon="1.03556">
        <ele>203.46</ele>
        <time>2016-01-16T09:58:19Z</time>
      </trkpt>
      <trkpt lat="44.51131" lon="1.03557">
        <ele>203.94</ele>
        <time>2016-01-16T09:58:56Z</time>
      </trkpt>
      <trkpt lat="44.51131" lon="1.03556">
        <ele>205.86</ele>
        <time>2016-01-16T09:59:35Z</time>
      </trkpt>
      <trkpt lat="44.51131" lon="1.03555">
        <ele>206.34</ele>
        <time>2016-01-16T10:00:11Z</time>
      </trkpt>
      <trkpt lat="44.51131" lon="1.03555">
        <ele>207.3</ele>
        <time>2016-01-16T10:00:47Z</time>
      </trkpt>
      <trkpt lat="44.51131" lon="1.03554">
        <ele>206.82</ele>
        <time>2016-01-16T10:01:18Z</time>
      </trkpt>
      <trkpt lat="44.51131" lon="1.03556">
        <ele>205.86</ele>
        <time>2016-01-16T10:01:52Z</time>
      </trkpt>
      <trkpt lat="44.51131" lon="1.03556">
        <ele>206.34</ele>
        <time>2016-01-16T10:02:30Z</time>
      </trkpt>
      <trkpt lat="44.5113" lon="1.03558">
        <ele>207.3</ele>
        <time>2016-01-16T10:02:44Z</time>
      </trkpt>
      <trkpt lat="44.5113" lon="1.03561">
        <ele>208.26</ele>
        <time>2016-01-16T10:02:58Z</time>
      </trkpt>
      <trkpt lat="44.5113" lon="1.03562">
        <ele>208.26</ele>
        <time>2016-01-16T10:03:17Z</time>
      </trkpt>
      <trkpt lat="44.5113" lon="1.03562">
        <ele>207.78</ele>
        <time>2016-01-16T10:03:47Z</time>
      </trkpt>
      <trkpt lat="44.5113" lon="1.03563">
        <ele>208.26</ele>
        <time>2016-01-16T10:04:13Z</time>
      </trkpt>
      <trkpt lat="44.5113" lon="1.03565">
        <ele>208.26</ele>
        <time>2016-01-16T10:04:14Z</time>
      </trkpt>
      <trkpt lat="44.51131" lon="1.03566">
        <ele>208.26</ele>
        <time>2016-01-16T10:04:15Z</time>
      </trkpt>
      <trkpt lat="44.51132" lon="1.03568">
        <ele>208.74</ele>
        <time>2016-01-16T10:04:16Z</time>
      </trkpt>
      <trkpt lat="44.51133" lon="1.03569">
        <ele>208.74</ele>
        <time>2016-01-16T10:04:17Z</time>
      </trkpt>
      <trkpt lat="44.51139" lon="1.03577">
        <ele>210.19</ele>
        <time>2016-01-16T10:04:24Z</time>
      </trkpt>
      <trkpt lat="44.5114" lon="1.03577">
        <ele>210.19</ele>
        <time>2016-01-16T10:04:25Z</time>
      </trkpt>
      <trkpt lat="44.51151" lon="1.03579">
        <ele>210.67</ele>
        <time>2016-01-16T10:04:33Z</time>
      </trkpt>
      <trkpt lat="44.51153" lon="1.0358">
        <ele>210.67</ele>
        <time>2016-01-16T10:04:34Z</time>
      </trkpt>
      <trkpt lat="44.51155" lon="1.03581">
        <ele>211.15</ele>
        <time>2016-01-16T10:04:35Z</time>
      </trkpt>
      <trkpt lat="44.51156" lon="1.03582">
        <ele>211.63</ele>
        <time>2016-01-16T10:04:36Z</time>
      </trkpt>
      <trkpt lat="44.51157" lon="1.03584">
        <ele>211.63</ele>
        <time>2016-01-16T10:04:37Z</time>
      </trkpt>
      <trkpt lat="44.51157" lon="1.03587">
        <ele>211.15</ele>
        <time>2016-01-16T10:04:38Z</time>
      </trkpt>
      <trkpt lat="44.51158" lon="1.03589">
        <ele>210.67</ele>
        <time>2016-01-16T10:04:39Z</time>
      </trkpt>
      <trkpt lat="44.51158" lon="1.03591">
        <ele>210.67</ele>
        <time>2016-01-16T10:04:40Z</time>
      </trkpt>
      <trkpt lat="44.51158" lon="1.03594">
        <ele>210.67</ele>
        <time>2016-01-16T10:04:41Z</time>
      </trkpt>
      <trkpt lat="44.51159" lon="1.03596">
        <ele>210.67</ele>
        <time>2016-01-16T10:04:42Z</time>
      </trkpt>
      <trkpt lat="44.5116" lon="1.03597">
        <ele>211.15</ele>
        <time>2016-01-16T10:04:43Z</time>
      </trkpt>
      <trkpt lat="44.51161" lon="1.03599">
        <ele>211.15</ele>
        <time>2016-01-16T10:04:44Z</time>
      </trkpt>
      <trkpt lat="44.51162" lon="1.036">
        <ele>211.15</ele>
        <time>2016-01-16T10:04:45Z</time>
      </trkpt>
      <trkpt lat="44.51162" lon="1.03602">
        <ele>211.15</ele>
        <time>2016-01-16T10:04:46Z</time>
      </trkpt>
      <trkpt lat="44.51163" lon="1.03603">
        <ele>211.15</ele>
        <time>2016-01-16T10:04:47Z</time>
      </trkpt>
      <trkpt lat="44.51164" lon="1.03604">
        <ele>211.15</ele>
        <time>2016-01-16T10:04:48Z</time>
      </trkpt>
      <trkpt lat="44.51165" lon="1.03604">
        <ele>210.67</ele>
        <time>2016-01-16T10:04:49Z</time>
      </trkpt>
      <trkpt lat="44.51167" lon="1.03603">
        <ele>210.19</ele>
        <time>2016-01-16T10:05:04Z</time>
      </trkpt>
      <trkpt lat="44.51178" lon="1.036">
        <ele>210.19</ele>
        <time>2016-01-16T10:05:17Z</time>
      </trkpt>
      <trkpt lat="44.5118" lon="1.03602">
        <ele>210.19</ele>
        <time>2016-01-16T10:05:18Z</time>
      </trkpt>
      <trkpt lat="44.51181" lon="1.03604">
        <ele>210.19</ele>
        <time>2016-01-16T10:05:19Z</time>
      </trkpt>
      <trkpt lat="44.51183" lon="1.03653">
        <ele>210.19</ele>
        <time>2016-01-16T10:05:33Z</time>
      </trkpt>
      <trkpt lat="44.51186" lon="1.03715">
        <ele>211.63</ele>
        <time>2016-01-16T10:05:48Z</time>
      </trkpt>
      <trkpt lat="44.51167" lon="1.03772">
        <ele>213.55</ele>
        <time>2016-01-16T10:06:03Z</time>
      </trkpt>
      <trkpt lat="44.51141" lon="1.03837">
        <ele>214.99</ele>
        <time>2016-01-16T10:06:19Z</time>
      </trkpt>
      <trkpt lat="44.51113" lon="1.03921">
        <ele>211.63</ele>
        <time>2016-01-16T10:06:30Z</time>
      </trkpt>
      <trkpt lat="44.5111" lon="1.0393">
        <ele>211.63</ele>
        <time>2016-01-16T10:06:31Z</time>
      </trkpt>
      <trkpt lat="44.51109" lon="1.03938">
        <ele>211.15</ele>
        <time>2016-01-16T10:06:32Z</time>
      </trkpt>
      <trkpt lat="44.51107" lon="1.03946">
        <ele>211.15</ele>
        <time>2016-01-16T10:06:33Z</time>
      </trkpt>
      <trkpt lat="44.51107" lon="1.03954">
        <ele>211.15</ele>
        <time>2016-01-16T10:06:34Z</time>
      </trkpt>
      <trkpt lat="44.51112" lon="1.04073">
        <ele>210.19</ele>
        <time>2016-01-16T10:06:50Z</time>
      </trkpt>
      <trkpt lat="44.51118" lon="1.04127">
        <ele>211.15</ele>
        <time>2016-01-16T10:06:58Z</time>
      </trkpt>
      <trkpt lat="44.51117" lon="1.04132">
        <ele>211.15</ele>
        <time>2016-01-16T10:06:59Z</time>
      </trkpt>
      <trkpt lat="44.51115" lon="1.04138">
        <ele>211.63</ele>
        <time>2016-01-16T10:07:00Z</time>
      </trkpt>
      <trkpt lat="44.51113" lon="1.04143">
        <ele>211.63</ele>
        <time>2016-01-16T10:07:01Z</time>
      </trkpt>
      <trkpt lat="44.5111" lon="1.04147">
        <ele>212.11</ele>
        <time>2016-01-16T10:07:02Z</time>
      </trkpt>
      <trkpt lat="44.51106" lon="1.0415">
        <ele>212.11</ele>
        <time>2016-01-16T10:07:03Z</time>
      </trkpt>
      <trkpt lat="44.51103" lon="1.04153">
        <ele>212.59</ele>
        <time>2016-01-16T10:07:04Z</time>
      </trkpt>
      <trkpt lat="44.51092" lon="1.04162">
        <ele>212.59</ele>
        <time>2016-01-16T10:07:07Z</time>
      </trkpt>
      <trkpt lat="44.51089" lon="1.04166">
        <ele>212.59</ele>
        <time>2016-01-16T10:07:08Z</time>
      </trkpt>
      <trkpt lat="44.51083" lon="1.04176">
        <ele>212.59</ele>
        <time>2016-01-16T10:07:10Z</time>
      </trkpt>
      <trkpt lat="44.51081" lon="1.04181">
        <ele>212.59</ele>
        <time>2016-01-16T10:07:11Z</time>
      </trkpt>
      <trkpt lat="44.51079" lon="1.04187">
        <ele>212.59</ele>
        <time>2016-01-16T10:07:12Z</time>
      </trkpt>
      <trkpt lat="44.51077" lon="1.04192">
        <ele>213.07</ele>
        <time>2016-01-16T10:07:13Z</time>
      </trkpt>
      <trkpt lat="44.51076" lon="1.04198">
        <ele>213.07</ele>
        <time>2016-01-16T10:07:14Z</time>
      </trkpt>
      <trkpt lat="44.51066" lon="1.04279">
        <ele>218.36</ele>
        <time>2016-01-16T10:07:28Z</time>
      </trkpt>
      <trkpt lat="44.51044" lon="1.04325">
        <ele>218.84</ele>
        <time>2016-01-16T10:07:40Z</time>
      </trkpt>
      <trkpt lat="44.51032" lon="1.04342">
        <ele>217.88</ele>
        <time>2016-01-16T10:07:44Z</time>
      </trkpt>
      <trkpt lat="44.51" lon="1.04382">
        <ele>217.4</ele>
        <time>2016-01-16T10:07:53Z</time>
      </trkpt>
      <trkpt lat="44.50978" lon="1.04411">
        <ele>216.43</ele>
        <time>2016-01-16T10:07:59Z</time>
      </trkpt>
      <trkpt lat="44.50975" lon="1.04415">
        <ele>216.43</ele>
        <time>2016-01-16T10:08:00Z</time>
      </trkpt>
      <trkpt lat="44.50972" lon="1.04419">
        <ele>215.95</ele>
        <time>2016-01-16T10:08:01Z</time>
      </trkpt>
      <trkpt lat="44.50941" lon="1.04436">
        <ele>214.99</ele>
        <time>2016-01-16T10:08:10Z</time>
      </trkpt>
      <trkpt lat="44.50908" lon="1.04448">
        <ele>217.88</ele>
        <time>2016-01-16T10:08:19Z</time>
      </trkpt>
      <trkpt lat="44.50891" lon="1.04458">
        <ele>218.84</ele>
        <time>2016-01-16T10:08:23Z</time>
      </trkpt>
      <trkpt lat="44.50867" lon="1.04479">
        <ele>220.28</ele>
        <time>2016-01-16T10:08:29Z</time>
      </trkpt>
      <trkpt lat="44.50864" lon="1.04483">
        <ele>220.28</ele>
        <time>2016-01-16T10:08:30Z</time>
      </trkpt>
      <trkpt lat="44.50834" lon="1.0451">
        <ele>224.12</ele>
        <time>2016-01-16T10:08:42Z</time>
      </trkpt>
      <trkpt lat="44.50795" lon="1.04531">
        <ele>226.05</ele>
        <time>2016-01-16T10:08:56Z</time>
      </trkpt>
      <trkpt lat="44.50766" lon="1.04553">
        <ele>227.49</ele>
        <time>2016-01-16T10:09:07Z</time>
      </trkpt>
      <trkpt lat="44.50723" lon="1.04585">
        <ele>227.97</ele>
        <time>2016-01-16T10:09:22Z</time>
      </trkpt>
      <trkpt lat="44.5072" lon="1.04587">
        <ele>227.01</ele>
        <time>2016-01-16T10:09:33Z</time>
      </trkpt>
      <trkpt lat="44.50719" lon="1.04591">
        <ele>224.61</ele>
        <time>2016-01-16T10:09:53Z</time>
      </trkpt>
      <trkpt lat="44.50698" lon="1.04628">
        <ele>224.61</ele>
        <time>2016-01-16T10:10:05Z</time>
      </trkpt>
      <trkpt lat="44.50678" lon="1.04678">
        <ele>228.45</ele>
        <time>2016-01-16T10:10:18Z</time>
      </trkpt>
      <trkpt lat="44.50662" lon="1.04712">
        <ele>230.37</ele>
        <time>2016-01-16T10:10:27Z</time>
      </trkpt>
      <trkpt lat="44.50635" lon="1.0475">
        <ele>229.41</ele>
        <time>2016-01-16T10:10:37Z</time>
      </trkpt>
      <trkpt lat="44.5061" lon="1.04765">
        <ele>227.49</ele>
        <time>2016-01-16T10:10:48Z</time>
      </trkpt>
      <trkpt lat="44.5059" lon="1.04766">
        <ele>225.09</ele>
        <time>2016-01-16T10:10:56Z</time>
      </trkpt>
      <trkpt lat="44.50556" lon="1.04758">
        <ele>222.2</ele>
        <time>2016-01-16T10:11:06Z</time>
      </trkpt>
      <trkpt lat="44.50535" lon="1.04755">
        <ele>218.84</ele>
        <time>2016-01-16T10:11:15Z</time>
      </trkpt>
      <trkpt lat="44.50532" lon="1.04758">
        <ele>217.4</ele>
        <time>2016-01-16T10:11:18Z</time>
      </trkpt>
      <trkpt lat="44.50525" lon="1.0476">
        <ele>213.55</ele>
        <time>2016-01-16T10:11:32Z</time>
      </trkpt>
      <trkpt lat="44.50524" lon="1.0476">
        <ele>213.07</ele>
        <time>2016-01-16T10:11:51Z</time>
      </trkpt>
      <trkpt lat="44.50515" lon="1.04774">
        <ele>206.82</ele>
        <time>2016-01-16T10:12:06Z</time>
      </trkpt>
      <trkpt lat="44.50514" lon="1.04775">
        <ele>205.38</ele>
        <time>2016-01-16T10:12:10Z</time>
      </trkpt>
      <trkpt lat="44.50512" lon="1.04775">
        <ele>202.01</ele>
        <time>2016-01-16T10:12:24Z</time>
      </trkpt>
      <trkpt lat="44.50512" lon="1.04775">
        <ele>201.53</ele>
        <time>2016-01-16T10:12:46Z</time>
      </trkpt>
      <trkpt lat="44.50511" lon="1.04774">
        <ele>201.53</ele>
        <time>2016-01-16T10:13:07Z</time>
      </trkpt>
      <trkpt lat="44.50512" lon="1.04773">
        <ele>202.49</ele>
        <time>2016-01-16T10:13:38Z</time>
      </trkpt>
      <trkpt lat="44.50511" lon="1.04773">
        <ele>202.49</ele>
        <time>2016-01-16T10:14:06Z</time>
      </trkpt>
      <trkpt lat="44.50511" lon="1.04773">
        <ele>202.01</ele>
        <time>2016-01-16T10:14:29Z</time>
      </trkpt>
      <trkpt lat="44.50511" lon="1.04773">
        <ele>200.57</ele>
        <time>2016-01-16T10:14:58Z</time>
      </trkpt>
      <trkpt lat="44.50511" lon="1.04773">
        <ele>200.09</ele>
        <time>2016-01-16T10:15:27Z</time>
      </trkpt>
      <trkpt lat="44.5051" lon="1.04773">
        <ele>200.09</ele>
        <time>2016-01-16T10:15:57Z</time>
      </trkpt>
      <trkpt lat="44.50509" lon="1.04772">
        <ele>200.09</ele>
        <time>2016-01-16T10:16:13Z</time>
      </trkpt>
      <trkpt lat="44.50506" lon="1.04774">
        <ele>198.65</ele>
        <time>2016-01-16T10:16:31Z</time>
      </trkpt>
      <trkpt lat="44.50501" lon="1.04776">
        <ele>195.77</ele>
        <time>2016-01-16T10:16:47Z</time>
      </trkpt>
      <trkpt lat="44.50482" lon="1.0477">
        <ele>186.63</ele>
        <time>2016-01-16T10:16:57Z</time>
      </trkpt>
      <trkpt lat="44.50472" lon="1.04751">
        <ele>181.83</ele>
        <time>2016-01-16T10:17:02Z</time>
      </trkpt>
      <trkpt lat="44.50473" lon="1.0472">
        <ele>180.38</ele>
        <time>2016-01-16T10:17:07Z</time>
      </trkpt>
      <trkpt lat="44.50477" lon="1.04692">
        <ele>181.35</ele>
        <time>2016-01-16T10:17:15Z</time>
      </trkpt>
      <trkpt lat="44.50485" lon="1.04677">
        <ele>183.27</ele>
        <time>2016-01-16T10:17:21Z</time>
      </trkpt>
      <trkpt lat="44.50499" lon="1.04651">
        <ele>187.11</ele>
        <time>2016-01-16T10:17:33Z</time>
      </trkpt>
      <trkpt lat="44.50523" lon="1.04613">
        <ele>188.56</ele>
        <time>2016-01-16T10:17:46Z</time>
      </trkpt>
      <trkpt lat="44.50556" lon="1.04583">
        <ele>187.11</ele>
        <time>2016-01-16T10:17:58Z</time>
      </trkpt>
      <trkpt lat="44.50565" lon="1.04535">
        <ele>177.02</ele>
        <time>2016-01-16T10:18:08Z</time>
      </trkpt>
      <trkpt lat="44.50578" lon="1.04513">
        <ele>171.25</ele>
        <time>2016-01-16T10:18:13Z</time>
      </trkpt>
      <trkpt lat="44.50604" lon="1.04491">
        <ele>170.29</ele>
        <time>2016-01-16T10:18:22Z</time>
      </trkpt>
      <trkpt lat="44.50613" lon="1.04483">
        <ele>170.77</ele>
        <time>2016-01-16T10:18:26Z</time>
      </trkpt>
      <trkpt lat="44.50632" lon="1.04451">
        <ele>168.85</ele>
        <time>2016-01-16T10:18:35Z</time>
      </trkpt>
      <trkpt lat="44.50645" lon="1.04423">
        <ele>166.93</ele>
        <time>2016-01-16T10:18:42Z</time>
      </trkpt>
      <trkpt lat="44.50671" lon="1.04395">
        <ele>165.48</ele>
        <time>2016-01-16T10:18:51Z</time>
      </trkpt>
      <trkpt lat="44.50654" lon="1.04375">
        <ele>162.12</ele>
        <time>2016-01-16T10:19:01Z</time>
      </trkpt>
      <trkpt lat="44.5065" lon="1.04375">
        <ele>161.64</ele>
        <time>2016-01-16T10:19:11Z</time>
      </trkpt>
      <trkpt lat="44.5065" lon="1.04374">
        <ele>162.6</ele>
        <time>2016-01-16T10:19:31Z</time>
      </trkpt>
      <trkpt lat="44.5065" lon="1.04374">
        <ele>163.56</ele>
        <time>2016-01-16T10:19:51Z</time>
      </trkpt>
      <trkpt lat="44.5065" lon="1.04375">
        <ele>163.56</ele>
        <time>2016-01-16T10:20:18Z</time>
      </trkpt>
      <trkpt lat="44.5065" lon="1.04375">
        <ele>164.52</ele>
        <time>2016-01-16T10:20:37Z</time>
      </trkpt>
      <trkpt lat="44.5065" lon="1.04375">
        <ele>165</ele>
        <time>2016-01-16T10:20:53Z</time>
      </trkpt>
      <trkpt lat="44.5065" lon="1.04374">
        <ele>165.48</ele>
        <time>2016-01-16T10:21:07Z</time>
      </trkpt>
      <trkpt lat="44.5065" lon="1.04375">
        <ele>165.96</ele>
        <time>2016-01-16T10:21:34Z</time>
      </trkpt>
      <trkpt lat="44.50649" lon="1.04375">
        <ele>165.96</ele>
        <time>2016-01-16T10:22:00Z</time>
      </trkpt>
      <trkpt lat="44.50649" lon="1.04375">
        <ele>165.96</ele>
        <time>2016-01-16T10:22:23Z</time>
      </trkpt>
      <trkpt lat="44.50649" lon="1.04375">
        <ele>165.96</ele>
        <time>2016-01-16T10:22:42Z</time>
      </trkpt>
      <trkpt lat="44.50649" lon="1.04375">
        <ele>165.96</ele>
        <time>2016-01-16T10:23:01Z</time>
      </trkpt>
      <trkpt lat="44.50629" lon="1.04384">
        <ele>164.52</ele>
        <time>2016-01-16T10:23:09Z</time>
      </trkpt>
      <trkpt lat="44.50611" lon="1.04395">
        <ele>162.6</ele>
        <time>2016-01-16T10:23:13Z</time>
      </trkpt>
      <trkpt lat="44.50594" lon="1.04399">
        <ele>159.72</ele>
        <time>2016-01-16T10:23:17Z</time>
      </trkpt>
      <trkpt lat="44.50557" lon="1.04441">
        <ele>155.39</ele>
        <time>2016-01-16T10:23:29Z</time>
      </trkpt>
      <trkpt lat="44.50532" lon="1.04439">
        <ele>152.99</ele>
        <time>2016-01-16T10:23:34Z</time>
      </trkpt>
      <trkpt lat="44.50497" lon="1.04424">
        <ele>150.58</ele>
        <time>2016-01-16T10:23:40Z</time>
      </trkpt>
      <trkpt lat="44.50485" lon="1.04412">
        <ele>148.66</ele>
        <time>2016-01-16T10:23:44Z</time>
      </trkpt>
      <trkpt lat="44.50476" lon="1.04387">
        <ele>142.89</ele>
        <time>2016-01-16T10:23:53Z</time>
      </trkpt>
      <trkpt lat="44.50467" lon="1.04374">
        <ele>141.45</ele>
        <time>2016-01-16T10:23:59Z</time>
      </trkpt>
      <trkpt lat="44.50435" lon="1.04355">
        <ele>145.3</ele>
        <time>2016-01-16T10:24:13Z</time>
      </trkpt>
      <trkpt lat="44.50414" lon="1.04344">
        <ele>146.74</ele>
        <time>2016-01-16T10:24:24Z</time>
      </trkpt>
      <trkpt lat="44.50396" lon="1.04336">
        <ele>144.34</ele>
        <time>2016-01-16T10:24:30Z</time>
      </trkpt>
      <trkpt lat="44.50393" lon="1.04327">
        <ele>143.37</ele>
        <time>2016-01-16T10:24:33Z</time>
      </trkpt>
      <trkpt lat="44.50384" lon="1.0432">
        <ele>141.93</ele>
        <time>2016-01-16T10:24:37Z</time>
      </trkpt>
      <trkpt lat="44.50349" lon="1.04309">
        <ele>141.45</ele>
        <time>2016-01-16T10:24:48Z</time>
      </trkpt>
      <trkpt lat="44.50343" lon="1.04293">
        <ele>140.49</ele>
        <time>2016-01-16T10:24:52Z</time>
      </trkpt>
      <trkpt lat="44.50323" lon="1.043">
        <ele>141.93</ele>
        <time>2016-01-16T10:25:01Z</time>
      </trkpt>
      <trkpt lat="44.50311" lon="1.04303">
        <ele>143.37</ele>
        <time>2016-01-16T10:25:06Z</time>
      </trkpt>
      <trkpt lat="44.50275" lon="1.04286">
        <ele>145.3</ele>
        <time>2016-01-16T10:25:19Z</time>
      </trkpt>
      <trkpt lat="44.50244" lon="1.0427">
        <ele>144.34</ele>
        <time>2016-01-16T10:25:31Z</time>
      </trkpt>
      <trkpt lat="44.50239" lon="1.04273">
        <ele>144.34</ele>
        <time>2016-01-16T10:25:33Z</time>
      </trkpt>
      <trkpt lat="44.50228" lon="1.04268">
        <ele>143.37</ele>
        <time>2016-01-16T10:25:38Z</time>
      </trkpt>
      <trkpt lat="44.50199" lon="1.04263">
        <ele>142.41</ele>
        <time>2016-01-16T10:25:48Z</time>
      </trkpt>
      <trkpt lat="44.50189" lon="1.04262">
        <ele>141.93</ele>
        <time>2016-01-16T10:25:51Z</time>
      </trkpt>
      <trkpt lat="44.50175" lon="1.04261">
        <ele>140.97</ele>
        <time>2016-01-16T10:25:55Z</time>
      </trkpt>
      <trkpt lat="44.50172" lon="1.04277">
        <ele>139.53</ele>
        <time>2016-01-16T10:26:00Z</time>
      </trkpt>
      <trkpt lat="44.50158" lon="1.04287">
        <ele>136.64</ele>
        <time>2016-01-16T10:26:05Z</time>
      </trkpt>
      <trkpt lat="44.50139" lon="1.04304">
        <ele>133.28</ele>
        <time>2016-01-16T10:26:10Z</time>
      </trkpt>
      <trkpt lat="44.50128" lon="1.04317">
        <ele>130.88</ele>
        <time>2016-01-16T10:26:13Z</time>
      </trkpt>
      <trkpt lat="44.50101" lon="1.04356">
        <ele>124.15</ele>
        <time>2016-01-16T10:26:20Z</time>
      </trkpt>
      <trkpt lat="44.50089" lon="1.04378">
        <ele>120.78</ele>
        <time>2016-01-16T10:26:24Z</time>
      </trkpt>
      <trkpt lat="44.50081" lon="1.04386">
        <ele>119.34</ele>
        <time>2016-01-16T10:26:26Z</time>
      </trkpt>
      <trkpt lat="44.50065" lon="1.04413">
        <ele>115.01</ele>
        <time>2016-01-16T10:26:31Z</time>
      </trkpt>
      <trkpt lat="44.50053" lon="1.04445">
        <ele>111.17</ele>
        <time>2016-01-16T10:26:36Z</time>
      </trkpt>
      <trkpt lat="44.50037" lon="1.04468">
        <ele>106.84</ele>
        <time>2016-01-16T10:26:41Z</time>
      </trkpt>
      <trkpt lat="44.50024" lon="1.0448">
        <ele>103.96</ele>
        <time>2016-01-16T10:26:44Z</time>
      </trkpt>
      <trkpt lat="44.49997" lon="1.04523">
        <ele>98.19</ele>
        <time>2016-01-16T10:26:50Z</time>
      </trkpt>
      <trkpt lat="44.49981" lon="1.04539">
        <ele>94.83</ele>
        <time>2016-01-16T10:26:53Z</time>
      </trkpt>
      <trkpt lat="44.49972" lon="1.04562">
        <ele>92.9</ele>
        <time>2016-01-16T10:26:57Z</time>
      </trkpt>
      <trkpt lat="44.49963" lon="1.04629">
        <ele>90.98</ele>
        <time>2016-01-16T10:27:10Z</time>
      </trkpt>
      <trkpt lat="44.49956" lon="1.04639">
        <ele>90.5</ele>
        <time>2016-01-16T10:27:22Z</time>
      </trkpt>
      <trkpt lat="44.49955" lon="1.0464">
        <ele>91.46</ele>
        <time>2016-01-16T10:27:34Z</time>
      </trkpt>
      <trkpt lat="44.49954" lon="1.04642">
        <ele>91.46</ele>
        <time>2016-01-16T10:27:56Z</time>
      </trkpt>
      <trkpt lat="44.49951" lon="1.04643">
        <ele>93.39</ele>
        <time>2016-01-16T10:28:16Z</time>
      </trkpt>
      <trkpt lat="44.49948" lon="1.04649">
        <ele>93.39</ele>
        <time>2016-01-16T10:28:34Z</time>
      </trkpt>
      <trkpt lat="44.49921" lon="1.04695">
        <ele>92.9</ele>
        <time>2016-01-16T10:28:45Z</time>
      </trkpt>
      <trkpt lat="44.49893" lon="1.04738">
        <ele>90.98</ele>
        <time>2016-01-16T10:28:52Z</time>
      </trkpt>
      <trkpt lat="44.49884" lon="1.0477">
        <ele>90.02</ele>
        <time>2016-01-16T10:28:56Z</time>
      </trkpt>
      <trkpt lat="44.49877" lon="1.04805">
        <ele>88.1</ele>
        <time>2016-01-16T10:29:03Z</time>
      </trkpt>
      <trkpt lat="44.49875" lon="1.04805">
        <ele>88.58</ele>
        <time>2016-01-16T10:29:16Z</time>
      </trkpt>
      <trkpt lat="44.49874" lon="1.04806">
        <ele>87.14</ele>
        <time>2016-01-16T10:29:37Z</time>
      </trkpt>
      <trkpt lat="44.49874" lon="1.04805">
        <ele>87.14</ele>
        <time>2016-01-16T10:29:46Z</time>
      </trkpt>
      <trkpt lat="44.49873" lon="1.04808">
        <ele>87.62</ele>
        <time>2016-01-16T10:29:47Z</time>
      </trkpt>
      <trkpt lat="44.49858" lon="1.04823">
        <ele>88.1</ele>
        <time>2016-01-16T10:29:53Z</time>
      </trkpt>
      <trkpt lat="44.49854" lon="1.04825">
        <ele>88.1</ele>
        <time>2016-01-16T10:29:54Z</time>
      </trkpt>
      <trkpt lat="44.49831" lon="1.04832">
        <ele>85.69</ele>
        <time>2016-01-16T10:30:03Z</time>
      </trkpt>
      <trkpt lat="44.49809" lon="1.04835">
        <ele>83.77</ele>
        <time>2016-01-16T10:30:10Z</time>
      </trkpt>
      <trkpt lat="44.49796" lon="1.04839">
        <ele>82.81</ele>
        <time>2016-01-16T10:30:13Z</time>
      </trkpt>
      <trkpt lat="44.49792" lon="1.04841">
        <ele>82.33</ele>
        <time>2016-01-16T10:30:14Z</time>
      </trkpt>
      <trkpt lat="44.49789" lon="1.04843">
        <ele>82.33</ele>
        <time>2016-01-16T10:30:15Z</time>
      </trkpt>
      <trkpt lat="44.49787" lon="1.04846">
        <ele>82.33</ele>
        <time>2016-01-16T10:30:16Z</time>
      </trkpt>
      <trkpt lat="44.49784" lon="1.04848">
        <ele>82.33</ele>
        <time>2016-01-16T10:30:17Z</time>
      </trkpt>
      <trkpt lat="44.49782" lon="1.04849">
        <ele>82.33</ele>
        <time>2016-01-16T10:30:18Z</time>
      </trkpt>
      <trkpt lat="44.49779" lon="1.0485">
        <ele>81.85</ele>
        <time>2016-01-16T10:30:19Z</time>
      </trkpt>
      <trkpt lat="44.49777" lon="1.04852">
        <ele>81.85</ele>
        <time>2016-01-16T10:30:20Z</time>
      </trkpt>
      <trkpt lat="44.49773" lon="1.04853">
        <ele>81.85</ele>
        <time>2016-01-16T10:30:21Z</time>
      </trkpt>
      <trkpt lat="44.4977" lon="1.04854">
        <ele>81.85</ele>
        <time>2016-01-16T10:30:22Z</time>
      </trkpt>
      <trkpt lat="44.49767" lon="1.04855">
        <ele>81.37</ele>
        <time>2016-01-16T10:30:23Z</time>
      </trkpt>
      <trkpt lat="44.49763" lon="1.04855">
        <ele>81.37</ele>
        <time>2016-01-16T10:30:24Z</time>
      </trkpt>
      <trkpt lat="44.49759" lon="1.04856">
        <ele>81.37</ele>
        <time>2016-01-16T10:30:25Z</time>
      </trkpt>
      <trkpt lat="44.49755" lon="1.04856">
        <ele>81.37</ele>
        <time>2016-01-16T10:30:26Z</time>
      </trkpt>
      <trkpt lat="44.49752" lon="1.04855">
        <ele>81.37</ele>
        <time>2016-01-16T10:30:27Z</time>
      </trkpt>
      <trkpt lat="44.49748" lon="1.04856">
        <ele>80.89</ele>
        <time>2016-01-16T10:30:28Z</time>
      </trkpt>
      <trkpt lat="44.49687" lon="1.04862">
        <ele>78</ele>
        <time>2016-01-16T10:30:42Z</time>
      </trkpt>
      <trkpt lat="44.49658" lon="1.04867">
        <ele>78.48</ele>
        <time>2016-01-16T10:30:48Z</time>
      </trkpt>
      <trkpt lat="44.49614" lon="1.04883">
        <ele>78.48</ele>
        <time>2016-01-16T10:30:59Z</time>
      </trkpt>
      <trkpt lat="44.49612" lon="1.04885">
        <ele>78.48</ele>
        <time>2016-01-16T10:31:00Z</time>
      </trkpt>
      <trkpt lat="44.49609" lon="1.04931">
        <ele>80.41</ele>
        <time>2016-01-16T10:31:11Z</time>
      </trkpt>
      <trkpt lat="44.49617" lon="1.05031">
        <ele>79.93</ele>
        <time>2016-01-16T10:31:28Z</time>
      </trkpt>
      <trkpt lat="44.49617" lon="1.05042">
        <ele>79.93</ele>
        <time>2016-01-16T10:31:30Z</time>
      </trkpt>
      <trkpt lat="44.49617" lon="1.05048">
        <ele>79.93</ele>
        <time>2016-01-16T10:31:31Z</time>
      </trkpt>
      <trkpt lat="44.4962" lon="1.05074">
        <ele>79.45</ele>
        <time>2016-01-16T10:31:35Z</time>
      </trkpt>
      <trkpt lat="44.4962" lon="1.0508">
        <ele>79.45</ele>
        <time>2016-01-16T10:31:36Z</time>
      </trkpt>
      <trkpt lat="44.49629" lon="1.05197">
        <ele>77.04</ele>
        <time>2016-01-16T10:31:54Z</time>
      </trkpt>
      <trkpt lat="44.49635" lon="1.05269">
        <ele>77.04</ele>
        <time>2016-01-16T10:32:08Z</time>
      </trkpt>
      <trkpt lat="44.49645" lon="1.05331">
        <ele>78.48</ele>
        <time>2016-01-16T10:32:21Z</time>
      </trkpt>
      <trkpt lat="44.49674" lon="1.05407">
        <ele>79.45</ele>
        <time>2016-01-16T10:32:37Z</time>
      </trkpt>
      <trkpt lat="44.49687" lon="1.05442">
        <ele>79.45</ele>
        <time>2016-01-16T10:32:46Z</time>
      </trkpt>
      <trkpt lat="44.49685" lon="1.05446">
        <ele>79.45</ele>
        <time>2016-01-16T10:32:47Z</time>
      </trkpt>
      <trkpt lat="44.49682" lon="1.05448">
        <ele>79.45</ele>
        <time>2016-01-16T10:32:48Z</time>
      </trkpt>
      <trkpt lat="44.49678" lon="1.05449">
        <ele>79.45</ele>
        <time>2016-01-16T10:32:49Z</time>
      </trkpt>
      <trkpt lat="44.49674" lon="1.0545">
        <ele>79.45</ele>
        <time>2016-01-16T10:32:50Z</time>
      </trkpt>
      <trkpt lat="44.49669" lon="1.05451">
        <ele>79.45</ele>
        <time>2016-01-16T10:32:51Z</time>
      </trkpt>
      <trkpt lat="44.49629" lon="1.05458">
        <ele>78.97</ele>
        <time>2016-01-16T10:33:00Z</time>
      </trkpt>
      <trkpt lat="44.49585" lon="1.05454">
        <ele>80.41</ele>
        <time>2016-01-16T10:33:12Z</time>
      </trkpt>
      <trkpt lat="44.49583" lon="1.05457">
        <ele>80.89</ele>
        <time>2016-01-16T10:33:13Z</time>
      </trkpt>
      <trkpt lat="44.49582" lon="1.05461">
        <ele>80.89</ele>
        <time>2016-01-16T10:33:14Z</time>
      </trkpt>
      <trkpt lat="44.49576" lon="1.05538">
        <ele>81.85</ele>
        <time>2016-01-16T10:33:29Z</time>
      </trkpt>
      <trkpt lat="44.49573" lon="1.05609">
        <ele>82.81</ele>
        <time>2016-01-16T10:33:43Z</time>
      </trkpt>
      <trkpt lat="44.49569" lon="1.0562">
        <ele>82.81</ele>
        <time>2016-01-16T10:33:47Z</time>
      </trkpt>
      <trkpt lat="44.49556" lon="1.05624">
        <ele>80.89</ele>
        <time>2016-01-16T10:33:53Z</time>
      </trkpt>
      <trkpt lat="44.49498" lon="1.05638">
        <ele>79.45</ele>
        <time>2016-01-16T10:34:08Z</time>
      </trkpt>
      <trkpt lat="44.49431" lon="1.05654">
        <ele>78.48</ele>
        <time>2016-01-16T10:34:24Z</time>
      </trkpt>
      <trkpt lat="44.49385" lon="1.05662">
        <ele>79.45</ele>
        <time>2016-01-16T10:34:35Z</time>
      </trkpt>
      <trkpt lat="44.49373" lon="1.05666">
        <ele>79.93</ele>
        <time>2016-01-16T10:34:38Z</time>
      </trkpt>
      <trkpt lat="44.49365" lon="1.05669">
        <ele>80.41</ele>
        <time>2016-01-16T10:34:40Z</time>
      </trkpt>
      <trkpt lat="44.49349" lon="1.05677">
        <ele>81.37</ele>
        <time>2016-01-16T10:34:44Z</time>
      </trkpt>
      <trkpt lat="44.49332" lon="1.05683">
        <ele>80.89</ele>
        <time>2016-01-16T10:34:48Z</time>
      </trkpt>
      <trkpt lat="44.49271" lon="1.05694">
        <ele>78.97</ele>
        <time>2016-01-16T10:34:59Z</time>
      </trkpt>
      <trkpt lat="44.49251" lon="1.05697">
        <ele>78.48</ele>
        <time>2016-01-16T10:35:03Z</time>
      </trkpt>
      <trkpt lat="44.49241" lon="1.05698">
        <ele>78</ele>
        <time>2016-01-16T10:35:05Z</time>
      </trkpt>
      <trkpt lat="44.49216" lon="1.05702">
        <ele>78.48</ele>
        <time>2016-01-16T10:35:10Z</time>
      </trkpt>
      <trkpt lat="44.49202" lon="1.05707">
        <ele>78.48</ele>
        <time>2016-01-16T10:35:13Z</time>
      </trkpt>
      <trkpt lat="44.49192" lon="1.05711">
        <ele>78.48</ele>
        <time>2016-01-16T10:35:15Z</time>
      </trkpt>
      <trkpt lat="44.49159" lon="1.05738">
        <ele>78</ele>
        <time>2016-01-16T10:35:23Z</time>
      </trkpt>
      <trkpt lat="44.49135" lon="1.05755">
        <ele>78</ele>
        <time>2016-01-16T10:35:29Z</time>
      </trkpt>
      <trkpt lat="44.49122" lon="1.05761">
        <ele>78</ele>
        <time>2016-01-16T10:35:32Z</time>
      </trkpt>
      <trkpt lat="44.49108" lon="1.05762">
        <ele>77.52</ele>
        <time>2016-01-16T10:35:35Z</time>
      </trkpt>
      <trkpt lat="44.49073" lon="1.05762">
        <ele>77.52</ele>
        <time>2016-01-16T10:35:43Z</time>
      </trkpt>
      <trkpt lat="44.49056" lon="1.05762">
        <ele>78</ele>
        <time>2016-01-16T10:35:47Z</time>
      </trkpt>
      <trkpt lat="44.49012" lon="1.05756">
        <ele>79.93</ele>
        <time>2016-01-16T10:35:59Z</time>
      </trkpt>
      <trkpt lat="44.48959" lon="1.0574">
        <ele>80.89</ele>
        <time>2016-01-16T10:36:13Z</time>
      </trkpt>
      <trkpt lat="44.48913" lon="1.05742">
        <ele>82.33</ele>
        <time>2016-01-16T10:36:26Z</time>
      </trkpt>
      <trkpt lat="44.489" lon="1.05742">
        <ele>82.33</ele>
        <time>2016-01-16T10:36:29Z</time>
      </trkpt>
      <trkpt lat="44.48846" lon="1.05725">
        <ele>81.37</ele>
        <time>2016-01-16T10:36:43Z</time>
      </trkpt>
      <trkpt lat="44.48822" lon="1.05714">
        <ele>79.45</ele>
        <time>2016-01-16T10:36:53Z</time>
      </trkpt>
      <trkpt lat="44.48781" lon="1.05704">
        <ele>77.52</ele>
        <time>2016-01-16T10:37:03Z</time>
      </trkpt>
      <trkpt lat="44.48762" lon="1.05698">
        <ele>77.04</ele>
        <time>2016-01-16T10:37:08Z</time>
      </trkpt>
      <trkpt lat="44.48733" lon="1.0569">
        <ele>76.56</ele>
        <time>2016-01-16T10:37:15Z</time>
      </trkpt>
      <trkpt lat="44.48673" lon="1.0567">
        <ele>78</ele>
        <time>2016-01-16T10:37:31Z</time>
      </trkpt>
      <trkpt lat="44.4862" lon="1.05651">
        <ele>78</ele>
        <time>2016-01-16T10:37:45Z</time>
      </trkpt>
      <trkpt lat="44.48551" lon="1.05621">
        <ele>79.45</ele>
        <time>2016-01-16T10:38:04Z</time>
      </trkpt>
      <trkpt lat="44.48522" lon="1.05603">
        <ele>80.41</ele>
        <time>2016-01-16T10:38:13Z</time>
      </trkpt>
      <trkpt lat="44.48465" lon="1.05575">
        <ele>77.52</ele>
        <time>2016-01-16T10:38:26Z</time>
      </trkpt>
      <trkpt lat="44.48417" lon="1.0555">
        <ele>76.56</ele>
        <time>2016-01-16T10:38:38Z</time>
      </trkpt>
      <trkpt lat="44.48361" lon="1.05521">
        <ele>78.48</ele>
        <time>2016-01-16T10:38:54Z</time>
      </trkpt>
      <trkpt lat="44.48322" lon="1.05503">
        <ele>79.45</ele>
        <time>2016-01-16T10:39:05Z</time>
      </trkpt>
      <trkpt lat="44.48267" lon="1.05478">
        <ele>78.48</ele>
        <time>2016-01-16T10:39:20Z</time>
      </trkpt>
      <trkpt lat="44.48219" lon="1.05444">
        <ele>78.97</ele>
        <time>2016-01-16T10:39:34Z</time>
      </trkpt>
      <trkpt lat="44.48173" lon="1.05415">
        <ele>81.85</ele>
        <time>2016-01-16T10:39:48Z</time>
      </trkpt>
      <trkpt lat="44.4814" lon="1.05394">
        <ele>83.29</ele>
        <time>2016-01-16T10:39:59Z</time>
      </trkpt>
      <trkpt lat="44.48104" lon="1.05371">
        <ele>85.69</ele>
        <time>2016-01-16T10:40:12Z</time>
      </trkpt>
      <trkpt lat="44.48078" lon="1.05347">
        <ele>86.18</ele>
        <time>2016-01-16T10:40:22Z</time>
      </trkpt>
      <trkpt lat="44.48039" lon="1.05305">
        <ele>85.21</ele>
        <time>2016-01-16T10:40:35Z</time>
      </trkpt>
      <trkpt lat="44.48029" lon="1.05299">
        <ele>82.81</ele>
        <time>2016-01-16T10:40:39Z</time>
      </trkpt>
      <trkpt lat="44.48028" lon="1.053">
        <ele>82.33</ele>
        <time>2016-01-16T10:40:40Z</time>
      </trkpt>
      <trkpt lat="44.48026" lon="1.053">
        <ele>81.85</ele>
        <time>2016-01-16T10:40:41Z</time>
      </trkpt>
      <trkpt lat="44.48025" lon="1.05301">
        <ele>81.37</ele>
        <time>2016-01-16T10:40:42Z</time>
      </trkpt>
      <trkpt lat="44.48024" lon="1.05302">
        <ele>81.37</ele>
        <time>2016-01-16T10:40:43Z</time>
      </trkpt>
      <trkpt lat="44.48023" lon="1.05303">
        <ele>81.85</ele>
        <time>2016-01-16T10:40:44Z</time>
      </trkpt>
      <trkpt lat="44.48022" lon="1.05304">
        <ele>81.85</ele>
        <time>2016-01-16T10:40:45Z</time>
      </trkpt>
      <trkpt lat="44.48021" lon="1.05305">
        <ele>81.85</ele>
        <time>2016-01-16T10:40:46Z</time>
      </trkpt>
      <trkpt lat="44.4802" lon="1.05306">
        <ele>81.85</ele>
        <time>2016-01-16T10:40:47Z</time>
      </trkpt>
      <trkpt lat="44.48017" lon="1.05307">
        <ele>82.81</ele>
        <time>2016-01-16T10:40:59Z</time>
      </trkpt>
      <trkpt lat="44.48017" lon="1.05308">
        <ele>82.81</ele>
        <time>2016-01-16T10:41:23Z</time>
      </trkpt>
      <trkpt lat="44.48017" lon="1.05308">
        <ele>81.85</ele>
        <time>2016-01-16T10:41:45Z</time>
      </trkpt>
      <trkpt lat="44.48015" lon="1.05307">
        <ele>82.81</ele>
        <time>2016-01-16T10:42:06Z</time>
      </trkpt>
      <trkpt lat="44.48016" lon="1.05308">
        <ele>82.81</ele>
        <time>2016-01-16T10:42:21Z</time>
      </trkpt>
      <trkpt lat="44.48011" lon="1.05315">
        <ele>83.29</ele>
        <time>2016-01-16T10:42:36Z</time>
      </trkpt>
      <trkpt lat="44.48008" lon="1.05317">
        <ele>82.81</ele>
        <time>2016-01-16T10:42:39Z</time>
      </trkpt>
      <trkpt lat="44.48007" lon="1.05318">
        <ele>82.81</ele>
        <time>2016-01-16T10:42:40Z</time>
      </trkpt>
      <trkpt lat="44.48006" lon="1.0532">
        <ele>82.81</ele>
        <time>2016-01-16T10:42:41Z</time>
      </trkpt>
      <trkpt lat="44.47998" lon="1.05328">
        <ele>82.33</ele>
        <time>2016-01-16T10:42:49Z</time>
      </trkpt>
      <trkpt lat="44.47996" lon="1.0533">
        <ele>82.81</ele>
        <time>2016-01-16T10:42:51Z</time>
      </trkpt>
      <trkpt lat="44.47995" lon="1.05332">
        <ele>82.81</ele>
        <time>2016-01-16T10:42:52Z</time>
      </trkpt>
      <trkpt lat="44.47992" lon="1.05337">
        <ele>83.29</ele>
        <time>2016-01-16T10:42:56Z</time>
      </trkpt>
      <trkpt lat="44.47991" lon="1.05338">
        <ele>83.77</ele>
        <time>2016-01-16T10:42:57Z</time>
      </trkpt>
      <trkpt lat="44.47989" lon="1.0534">
        <ele>83.77</ele>
        <time>2016-01-16T10:42:58Z</time>
      </trkpt>
      <trkpt lat="44.47966" lon="1.0536">
        <ele>85.69</ele>
        <time>2016-01-16T10:43:11Z</time>
      </trkpt>
      <trkpt lat="44.47937" lon="1.05374">
        <ele>90.02</ele>
        <time>2016-01-16T10:43:24Z</time>
      </trkpt>
      <trkpt lat="44.47908" lon="1.05387">
        <ele>89.54</ele>
        <time>2016-01-16T10:43:36Z</time>
      </trkpt>
      <trkpt lat="44.47883" lon="1.054">
        <ele>90.5</ele>
        <time>2016-01-16T10:43:48Z</time>
      </trkpt>
      <trkpt lat="44.47865" lon="1.05411">
        <ele>90.02</ele>
        <time>2016-01-16T10:44:01Z</time>
      </trkpt>
      <trkpt lat="44.47862" lon="1.05412">
        <ele>89.54</ele>
        <time>2016-01-16T10:44:03Z</time>
      </trkpt>
      <trkpt lat="44.47857" lon="1.05415">
        <ele>90.02</ele>
        <time>2016-01-16T10:44:06Z</time>
      </trkpt>
      <trkpt lat="44.47855" lon="1.05416">
        <ele>90.02</ele>
        <time>2016-01-16T10:44:07Z</time>
      </trkpt>
      <trkpt lat="44.47854" lon="1.05417">
        <ele>90.02</ele>
        <time>2016-01-16T10:44:08Z</time>
      </trkpt>
      <trkpt lat="44.47852" lon="1.05418">
        <ele>90.02</ele>
        <time>2016-01-16T10:44:09Z</time>
      </trkpt>
      <trkpt lat="44.4785" lon="1.05419">
        <ele>90.02</ele>
        <time>2016-01-16T10:44:10Z</time>
      </trkpt>
      <trkpt lat="44.47848" lon="1.0542">
        <ele>90.02</ele>
        <time>2016-01-16T10:44:11Z</time>
      </trkpt>
      <trkpt lat="44.4783" lon="1.05431">
        <ele>92.9</ele>
        <time>2016-01-16T10:44:22Z</time>
      </trkpt>
      <trkpt lat="44.47829" lon="1.05432">
        <ele>93.39</ele>
        <time>2016-01-16T10:44:23Z</time>
      </trkpt>
      <trkpt lat="44.47828" lon="1.05432">
        <ele>93.87</ele>
        <time>2016-01-16T10:44:24Z</time>
      </trkpt>
      <trkpt lat="44.47826" lon="1.05434">
        <ele>93.87</ele>
        <time>2016-01-16T10:44:25Z</time>
      </trkpt>
      <trkpt lat="44.47825" lon="1.05435">
        <ele>93.87</ele>
        <time>2016-01-16T10:44:26Z</time>
      </trkpt>
      <trkpt lat="44.47815" lon="1.05441">
        <ele>95.31</ele>
        <time>2016-01-16T10:44:32Z</time>
      </trkpt>
      <trkpt lat="44.47814" lon="1.05442">
        <ele>95.31</ele>
        <time>2016-01-16T10:44:33Z</time>
      </trkpt>
      <trkpt lat="44.47788" lon="1.05457">
        <ele>99.15</ele>
        <time>2016-01-16T10:44:49Z</time>
      </trkpt>
      <trkpt lat="44.47776" lon="1.05463">
        <ele>100.6</ele>
        <time>2016-01-16T10:44:56Z</time>
      </trkpt>
      <trkpt lat="44.47775" lon="1.05464">
        <ele>100.6</ele>
        <time>2016-01-16T10:44:57Z</time>
      </trkpt>
      <trkpt lat="44.47773" lon="1.05465">
        <ele>101.08</ele>
        <time>2016-01-16T10:44:58Z</time>
      </trkpt>
      <trkpt lat="44.47772" lon="1.05465">
        <ele>101.08</ele>
        <time>2016-01-16T10:44:59Z</time>
      </trkpt>
      <trkpt lat="44.4777" lon="1.05466">
        <ele>101.08</ele>
        <time>2016-01-16T10:45:00Z</time>
      </trkpt>
      <trkpt lat="44.47768" lon="1.05467">
        <ele>101.08</ele>
        <time>2016-01-16T10:45:01Z</time>
      </trkpt>
      <trkpt lat="44.47766" lon="1.05468">
        <ele>100.6</ele>
        <time>2016-01-16T10:45:02Z</time>
      </trkpt>
      <trkpt lat="44.47741" lon="1.05473">
        <ele>99.15</ele>
        <time>2016-01-16T10:45:15Z</time>
      </trkpt>
      <trkpt lat="44.47739" lon="1.05474">
        <ele>99.15</ele>
        <time>2016-01-16T10:45:16Z</time>
      </trkpt>
      <trkpt lat="44.47737" lon="1.05474">
        <ele>99.15</ele>
        <time>2016-01-16T10:45:17Z</time>
      </trkpt>
      <trkpt lat="44.47735" lon="1.05474">
        <ele>99.15</ele>
        <time>2016-01-16T10:45:18Z</time>
      </trkpt>
      <trkpt lat="44.47733" lon="1.05474">
        <ele>99.15</ele>
        <time>2016-01-16T10:45:19Z</time>
      </trkpt>
      <trkpt lat="44.47728" lon="1.05473">
        <ele>99.15</ele>
        <time>2016-01-16T10:45:22Z</time>
      </trkpt>
      <trkpt lat="44.47699" lon="1.05473">
        <ele>101.08</ele>
        <time>2016-01-16T10:45:37Z</time>
      </trkpt>
      <trkpt lat="44.4768" lon="1.05462">
        <ele>104.92</ele>
        <time>2016-01-16T10:45:50Z</time>
      </trkpt>
      <trkpt lat="44.47677" lon="1.0544">
        <ele>106.84</ele>
        <time>2016-01-16T10:45:59Z</time>
      </trkpt>
      <trkpt lat="44.47678" lon="1.05424">
        <ele>107.81</ele>
        <time>2016-01-16T10:46:06Z</time>
      </trkpt>
      <trkpt lat="44.47682" lon="1.05374">
        <ele>109.73</ele>
        <time>2016-01-16T10:46:23Z</time>
      </trkpt>
      <trkpt lat="44.47696" lon="1.0534">
        <ele>110.21</ele>
        <time>2016-01-16T10:46:37Z</time>
      </trkpt>
      <trkpt lat="44.47711" lon="1.05311">
        <ele>112.13</ele>
        <time>2016-01-16T10:46:51Z</time>
      </trkpt>
      <trkpt lat="44.47726" lon="1.05278">
        <ele>115.5</ele>
        <time>2016-01-16T10:47:06Z</time>
      </trkpt>
      <trkpt lat="44.47738" lon="1.05253">
        <ele>118.86</ele>
        <time>2016-01-16T10:47:18Z</time>
      </trkpt>
      <trkpt lat="44.47755" lon="1.0522">
        <ele>121.74</ele>
        <time>2016-01-16T10:47:33Z</time>
      </trkpt>
      <trkpt lat="44.47771" lon="1.05189">
        <ele>126.07</ele>
        <time>2016-01-16T10:47:48Z</time>
      </trkpt>
      <trkpt lat="44.47786" lon="1.05167">
        <ele>130.4</ele>
        <time>2016-01-16T10:48:01Z</time>
      </trkpt>
      <trkpt lat="44.47803" lon="1.05143">
        <ele>132.32</ele>
        <time>2016-01-16T10:48:15Z</time>
      </trkpt>
      <trkpt lat="44.47809" lon="1.05137">
        <ele>133.28</ele>
        <time>2016-01-16T10:48:20Z</time>
      </trkpt>
      <trkpt lat="44.4781" lon="1.05135">
        <ele>133.28</ele>
        <time>2016-01-16T10:48:21Z</time>
      </trkpt>
      <trkpt lat="44.47811" lon="1.05134">
        <ele>133.76</ele>
        <time>2016-01-16T10:48:22Z</time>
      </trkpt>
      <trkpt lat="44.47812" lon="1.05132">
        <ele>133.76</ele>
        <time>2016-01-16T10:48:23Z</time>
      </trkpt>
      <trkpt lat="44.47812" lon="1.0513">
        <ele>133.76</ele>
        <time>2016-01-16T10:48:24Z</time>
      </trkpt>
      <trkpt lat="44.47812" lon="1.05128">
        <ele>133.76</ele>
        <time>2016-01-16T10:48:25Z</time>
      </trkpt>
      <trkpt lat="44.47813" lon="1.05125">
        <ele>133.76</ele>
        <time>2016-01-16T10:48:26Z</time>
      </trkpt>
      <trkpt lat="44.47818" lon="1.05119">
        <ele>132.32</ele>
        <time>2016-01-16T10:48:37Z</time>
      </trkpt>
      <trkpt lat="44.47819" lon="1.05118">
        <ele>130.4</ele>
        <time>2016-01-16T10:48:52Z</time>
      </trkpt>
      <trkpt lat="44.47821" lon="1.05118">
        <ele>129.92</ele>
        <time>2016-01-16T10:49:10Z</time>
      </trkpt>
      <trkpt lat="44.4782" lon="1.0512">
        <ele>129.92</ele>
        <time>2016-01-16T10:49:42Z</time>
      </trkpt>
      <trkpt lat="44.47822" lon="1.05118">
        <ele>128.95</ele>
        <time>2016-01-16T10:50:02Z</time>
      </trkpt>
      <trkpt lat="44.47822" lon="1.05117">
        <ele>127.51</ele>
        <time>2016-01-16T10:50:24Z</time>
      </trkpt>
      <trkpt lat="44.47821" lon="1.05117">
        <ele>126.55</ele>
        <time>2016-01-16T10:50:42Z</time>
      </trkpt>
      <trkpt lat="44.47821" lon="1.05116">
        <ele>126.55</ele>
        <time>2016-01-16T10:51:03Z</time>
      </trkpt>
      <trkpt lat="44.47821" lon="1.05116">
        <ele>126.07</ele>
        <time>2016-01-16T10:51:23Z</time>
      </trkpt>
      <trkpt lat="44.47821" lon="1.05116">
        <ele>126.07</ele>
        <time>2016-01-16T10:51:51Z</time>
      </trkpt>
      <trkpt lat="44.4782" lon="1.05116">
        <ele>127.03</ele>
        <time>2016-01-16T10:52:17Z</time>
      </trkpt>
      <trkpt lat="44.47819" lon="1.05116">
        <ele>127.03</ele>
        <time>2016-01-16T10:52:18Z</time>
      </trkpt>
      <trkpt lat="44.47798" lon="1.05119">
        <ele>129.92</ele>
        <time>2016-01-16T10:52:32Z</time>
      </trkpt>
      <trkpt lat="44.47797" lon="1.0512">
        <ele>129.92</ele>
        <time>2016-01-16T10:52:33Z</time>
      </trkpt>
      <trkpt lat="44.47796" lon="1.05121">
        <ele>130.4</ele>
        <time>2016-01-16T10:52:34Z</time>
      </trkpt>
      <trkpt lat="44.47795" lon="1.05121">
        <ele>130.4</ele>
        <time>2016-01-16T10:52:35Z</time>
      </trkpt>
      <trkpt lat="44.47789" lon="1.05122">
        <ele>131.84</ele>
        <time>2016-01-16T10:52:39Z</time>
      </trkpt>
      <trkpt lat="44.47788" lon="1.05122">
        <ele>132.32</ele>
        <time>2016-01-16T10:52:40Z</time>
      </trkpt>
      <trkpt lat="44.47787" lon="1.05122">
        <ele>132.32</ele>
        <time>2016-01-16T10:52:41Z</time>
      </trkpt>
      <trkpt lat="44.47774" lon="1.05125">
        <ele>134.72</ele>
        <time>2016-01-16T10:52:51Z</time>
      </trkpt>
      <trkpt lat="44.47767" lon="1.05128">
        <ele>136.64</ele>
        <time>2016-01-16T10:52:58Z</time>
      </trkpt>
      <trkpt lat="44.4775" lon="1.05139">
        <ele>136.16</ele>
        <time>2016-01-16T10:53:13Z</time>
      </trkpt>
      <trkpt lat="44.47732" lon="1.05147">
        <ele>135.68</ele>
        <time>2016-01-16T10:53:23Z</time>
      </trkpt>
      <trkpt lat="44.47711" lon="1.05157">
        <ele>135.68</ele>
        <time>2016-01-16T10:53:36Z</time>
      </trkpt>
      <trkpt lat="44.47699" lon="1.05167">
        <ele>139.05</ele>
        <time>2016-01-16T10:53:47Z</time>
      </trkpt>
      <trkpt lat="44.47693" lon="1.05172">
        <ele>142.89</ele>
        <time>2016-01-16T10:54:17Z</time>
      </trkpt>
      <trkpt lat="44.47691" lon="1.05171">
        <ele>144.34</ele>
        <time>2016-01-16T10:54:47Z</time>
      </trkpt>
      <trkpt lat="44.47693" lon="1.05171">
        <ele>144.82</ele>
        <time>2016-01-16T10:55:03Z</time>
      </trkpt>
      <trkpt lat="44.47695" lon="1.0517">
        <ele>144.82</ele>
        <time>2016-01-16T10:55:04Z</time>
      </trkpt>
      <trkpt lat="44.47696" lon="1.05169">
        <ele>144.82</ele>
        <time>2016-01-16T10:55:05Z</time>
      </trkpt>
      <trkpt lat="44.47699" lon="1.05167">
        <ele>144.82</ele>
        <time>2016-01-16T10:55:06Z</time>
      </trkpt>
      <trkpt lat="44.47701" lon="1.05166">
        <ele>144.82</ele>
        <time>2016-01-16T10:55:07Z</time>
      </trkpt>
      <trkpt lat="44.47704" lon="1.05164">
        <ele>144.34</ele>
        <time>2016-01-16T10:55:08Z</time>
      </trkpt>
      <trkpt lat="44.47707" lon="1.05162">
        <ele>143.85</ele>
        <time>2016-01-16T10:55:09Z</time>
      </trkpt>
      <trkpt lat="44.47732" lon="1.05149">
        <ele>141.93</ele>
        <time>2016-01-16T10:55:19Z</time>
      </trkpt>
      <trkpt lat="44.47756" lon="1.05131">
        <ele>141.45</ele>
        <time>2016-01-16T10:55:30Z</time>
      </trkpt>
      <trkpt lat="44.47756" lon="1.05133">
        <ele>140.97</ele>
        <time>2016-01-16T10:55:43Z</time>
      </trkpt>
      <trkpt lat="44.47757" lon="1.05133">
        <ele>141.45</ele>
        <time>2016-01-16T10:56:00Z</time>
      </trkpt>
      <trkpt lat="44.47757" lon="1.05134">
        <ele>141.93</ele>
        <time>2016-01-16T10:56:06Z</time>
      </trkpt>
      <trkpt lat="44.47756" lon="1.05135">
        <ele>141.93</ele>
        <time>2016-01-16T10:56:07Z</time>
      </trkpt>
      <trkpt lat="44.47755" lon="1.05137">
        <ele>141.45</ele>
        <time>2016-01-16T10:56:08Z</time>
      </trkpt>
      <trkpt lat="44.47754" lon="1.05138">
        <ele>141.45</ele>
        <time>2016-01-16T10:56:09Z</time>
      </trkpt>
      <trkpt lat="44.47752" lon="1.05139">
        <ele>141.45</ele>
        <time>2016-01-16T10:56:10Z</time>
      </trkpt>
      <trkpt lat="44.47727" lon="1.05152">
        <ele>136.64</ele>
        <time>2016-01-16T10:56:24Z</time>
      </trkpt>
      <trkpt lat="44.47702" lon="1.05165">
        <ele>134.24</ele>
        <time>2016-01-16T10:56:38Z</time>
      </trkpt>
      <trkpt lat="44.47688" lon="1.0517">
        <ele>134.24</ele>
        <time>2016-01-16T10:56:47Z</time>
      </trkpt>
      <trkpt lat="44.47685" lon="1.05172">
        <ele>134.24</ele>
        <time>2016-01-16T10:56:50Z</time>
      </trkpt>
      <trkpt lat="44.47679" lon="1.05175">
        <ele>133.76</ele>
        <time>2016-01-16T10:56:55Z</time>
      </trkpt>
      <trkpt lat="44.47678" lon="1.05176">
        <ele>134.24</ele>
        <time>2016-01-16T10:56:56Z</time>
      </trkpt>
      <trkpt lat="44.47676" lon="1.05177">
        <ele>134.24</ele>
        <time>2016-01-16T10:56:57Z</time>
      </trkpt>
      <trkpt lat="44.47675" lon="1.05178">
        <ele>134.24</ele>
        <time>2016-01-16T10:56:58Z</time>
      </trkpt>
      <trkpt lat="44.47673" lon="1.05178">
        <ele>134.72</ele>
        <time>2016-01-16T10:56:59Z</time>
      </trkpt>
      <trkpt lat="44.47671" lon="1.05179">
        <ele>134.72</ele>
        <time>2016-01-16T10:57:01Z</time>
      </trkpt>
      <trkpt lat="44.47669" lon="1.05179">
        <ele>134.72</ele>
        <time>2016-01-16T10:57:02Z</time>
      </trkpt>
      <trkpt lat="44.4765" lon="1.05178">
        <ele>137.13</ele>
        <time>2016-01-16T10:57:15Z</time>
      </trkpt>
      <trkpt lat="44.47632" lon="1.05175">
        <ele>138.57</ele>
        <time>2016-01-16T10:57:27Z</time>
      </trkpt>
      <trkpt lat="44.47613" lon="1.05175">
        <ele>140.01</ele>
        <time>2016-01-16T10:57:41Z</time>
      </trkpt>
      <trkpt lat="44.47606" lon="1.05179">
        <ele>143.37</ele>
        <time>2016-01-16T10:57:47Z</time>
      </trkpt>
      <trkpt lat="44.47605" lon="1.05181">
        <ele>143.85</ele>
        <time>2016-01-16T10:57:48Z</time>
      </trkpt>
      <trkpt lat="44.47603" lon="1.05182">
        <ele>144.34</ele>
        <time>2016-01-16T10:57:49Z</time>
      </trkpt>
      <trkpt lat="44.47596" lon="1.05199">
        <ele>147.7</ele>
        <time>2016-01-16T10:57:59Z</time>
      </trkpt>
      <trkpt lat="44.47596" lon="1.05201">
        <ele>148.18</ele>
        <time>2016-01-16T10:58:00Z</time>
      </trkpt>
      <trkpt lat="44.47595" lon="1.05203">
        <ele>148.66</ele>
        <time>2016-01-16T10:58:01Z</time>
      </trkpt>
      <trkpt lat="44.47594" lon="1.05204">
        <ele>148.66</ele>
        <time>2016-01-16T10:58:02Z</time>
      </trkpt>
      <trkpt lat="44.47593" lon="1.05206">
        <ele>149.14</ele>
        <time>2016-01-16T10:58:03Z</time>
      </trkpt>
      <trkpt lat="44.47592" lon="1.05207">
        <ele>149.14</ele>
        <time>2016-01-16T10:58:04Z</time>
      </trkpt>
      <trkpt lat="44.47591" lon="1.05208">
        <ele>149.14</ele>
        <time>2016-01-16T10:58:05Z</time>
      </trkpt>
      <trkpt lat="44.47591" lon="1.05209">
        <ele>149.14</ele>
        <time>2016-01-16T10:58:06Z</time>
      </trkpt>
      <trkpt lat="44.47589" lon="1.05211">
        <ele>150.1</ele>
        <time>2016-01-16T10:58:17Z</time>
      </trkpt>
      <trkpt lat="44.47588" lon="1.05212">
        <ele>152.51</ele>
        <time>2016-01-16T10:58:35Z</time>
      </trkpt>
      <trkpt lat="44.47588" lon="1.05212">
        <ele>152.51</ele>
        <time>2016-01-16T10:59:00Z</time>
      </trkpt>
      <trkpt lat="44.47589" lon="1.05213">
        <ele>151.54</ele>
        <time>2016-01-16T10:59:25Z</time>
      </trkpt>
      <trkpt lat="44.47586" lon="1.05217">
        <ele>152.99</ele>
        <time>2016-01-16T10:59:38Z</time>
      </trkpt>
      <trkpt lat="44.47573" lon="1.05226">
        <ele>154.43</ele>
        <time>2016-01-16T10:59:51Z</time>
      </trkpt>
      <trkpt lat="44.47557" lon="1.05234">
        <ele>154.91</ele>
        <time>2016-01-16T11:00:03Z</time>
      </trkpt>
      <trkpt lat="44.47556" lon="1.05235">
        <ele>154.91</ele>
        <time>2016-01-16T11:00:04Z</time>
      </trkpt>
      <trkpt lat="44.47554" lon="1.05235">
        <ele>154.91</ele>
        <time>2016-01-16T11:00:05Z</time>
      </trkpt>
      <trkpt lat="44.47553" lon="1.05236">
        <ele>155.39</ele>
        <time>2016-01-16T11:00:06Z</time>
      </trkpt>
      <trkpt lat="44.47552" lon="1.05237">
        <ele>155.39</ele>
        <time>2016-01-16T11:00:07Z</time>
      </trkpt>
      <trkpt lat="44.47549" lon="1.05238">
        <ele>155.39</ele>
        <time>2016-01-16T11:00:09Z</time>
      </trkpt>
      <trkpt lat="44.47548" lon="1.05239">
        <ele>155.39</ele>
        <time>2016-01-16T11:00:10Z</time>
      </trkpt>
      <trkpt lat="44.47546" lon="1.05239">
        <ele>155.39</ele>
        <time>2016-01-16T11:00:11Z</time>
      </trkpt>
      <trkpt lat="44.47532" lon="1.05251">
        <ele>157.31</ele>
        <time>2016-01-16T11:00:24Z</time>
      </trkpt>
      <trkpt lat="44.47531" lon="1.05252">
        <ele>157.31</ele>
        <time>2016-01-16T11:00:25Z</time>
      </trkpt>
      <trkpt lat="44.47529" lon="1.05252">
        <ele>157.79</ele>
        <time>2016-01-16T11:00:26Z</time>
      </trkpt>
      <trkpt lat="44.47515" lon="1.05259">
        <ele>161.64</ele>
        <time>2016-01-16T11:00:39Z</time>
      </trkpt>
      <trkpt lat="44.47512" lon="1.05261">
        <ele>162.12</ele>
        <time>2016-01-16T11:00:41Z</time>
      </trkpt>
      <trkpt lat="44.47508" lon="1.05263">
        <ele>162.6</ele>
        <time>2016-01-16T11:00:44Z</time>
      </trkpt>
      <trkpt lat="44.47496" lon="1.0527">
        <ele>165.96</ele>
        <time>2016-01-16T11:00:54Z</time>
      </trkpt>
      <trkpt lat="44.47491" lon="1.05271">
        <ele>166.93</ele>
        <time>2016-01-16T11:00:57Z</time>
      </trkpt>
      <trkpt lat="44.47483" lon="1.05275">
        <ele>168.37</ele>
        <time>2016-01-16T11:01:04Z</time>
      </trkpt>
      <trkpt lat="44.47478" lon="1.05269">
        <ele>169.81</ele>
        <time>2016-01-16T11:01:11Z</time>
      </trkpt>
      <trkpt lat="44.47479" lon="1.05264">
        <ele>170.77</ele>
        <time>2016-01-16T11:01:15Z</time>
      </trkpt>
      <trkpt lat="44.47483" lon="1.05256">
        <ele>171.73</ele>
        <time>2016-01-16T11:01:22Z</time>
      </trkpt>
      <trkpt lat="44.4749" lon="1.05237">
        <ele>172.21</ele>
        <time>2016-01-16T11:01:36Z</time>
      </trkpt>
      <trkpt lat="44.47496" lon="1.05226">
        <ele>173.17</ele>
        <time>2016-01-16T11:01:48Z</time>
      </trkpt>
      <trkpt lat="44.47495" lon="1.05225">
        <ele>174.14</ele>
        <time>2016-01-16T11:02:11Z</time>
      </trkpt>
      <trkpt lat="44.47494" lon="1.05224">
        <ele>172.21</ele>
        <time>2016-01-16T11:02:38Z</time>
      </trkpt>
      <trkpt lat="44.47494" lon="1.05223">
        <ele>171.25</ele>
        <time>2016-01-16T11:03:02Z</time>
      </trkpt>
      <trkpt lat="44.47495" lon="1.05224">
        <ele>171.25</ele>
        <time>2016-01-16T11:03:30Z</time>
      </trkpt>
      <trkpt lat="44.47495" lon="1.05225">
        <ele>172.21</ele>
        <time>2016-01-16T11:03:47Z</time>
      </trkpt>
      <trkpt lat="44.47495" lon="1.05223">
        <ele>171.73</ele>
        <time>2016-01-16T11:04:15Z</time>
      </trkpt>
      <trkpt lat="44.47496" lon="1.05224">
        <ele>171.25</ele>
        <time>2016-01-16T11:04:43Z</time>
      </trkpt>
      <trkpt lat="44.47495" lon="1.05225">
        <ele>172.21</ele>
        <time>2016-01-16T11:05:11Z</time>
      </trkpt>
      <trkpt lat="44.47496" lon="1.05216">
        <ele>173.17</ele>
        <time>2016-01-16T11:05:31Z</time>
      </trkpt>
      <trkpt lat="44.47508" lon="1.05189">
        <ele>177.5</ele>
        <time>2016-01-16T11:05:43Z</time>
      </trkpt>
      <trkpt lat="44.47511" lon="1.05184">
        <ele>177.5</ele>
        <time>2016-01-16T11:05:46Z</time>
      </trkpt>
      <trkpt lat="44.47512" lon="1.05182">
        <ele>177.5</ele>
        <time>2016-01-16T11:05:47Z</time>
      </trkpt>
      <trkpt lat="44.47526" lon="1.05156">
        <ele>178.46</ele>
        <time>2016-01-16T11:06:01Z</time>
      </trkpt>
      <trkpt lat="44.47537" lon="1.0513">
        <ele>179.9</ele>
        <time>2016-01-16T11:06:17Z</time>
      </trkpt>
      <trkpt lat="44.4754" lon="1.05121">
        <ele>178.94</ele>
        <time>2016-01-16T11:06:22Z</time>
      </trkpt>
      <trkpt lat="44.47541" lon="1.0512">
        <ele>178.46</ele>
        <time>2016-01-16T11:06:23Z</time>
      </trkpt>
      <trkpt lat="44.47541" lon="1.05118">
        <ele>177.98</ele>
        <time>2016-01-16T11:06:24Z</time>
      </trkpt>
      <trkpt lat="44.47542" lon="1.05116">
        <ele>177.5</ele>
        <time>2016-01-16T11:06:25Z</time>
      </trkpt>
      <trkpt lat="44.47543" lon="1.05115">
        <ele>177.5</ele>
        <time>2016-01-16T11:06:26Z</time>
      </trkpt>
      <trkpt lat="44.47545" lon="1.05109">
        <ele>177.5</ele>
        <time>2016-01-16T11:06:30Z</time>
      </trkpt>
      <trkpt lat="44.47552" lon="1.05096">
        <ele>178.94</ele>
        <time>2016-01-16T11:06:41Z</time>
      </trkpt>
      <trkpt lat="44.47562" lon="1.05081">
        <ele>180.87</ele>
        <time>2016-01-16T11:06:56Z</time>
      </trkpt>
      <trkpt lat="44.47563" lon="1.05081">
        <ele>181.35</ele>
        <time>2016-01-16T11:06:57Z</time>
      </trkpt>
      <trkpt lat="44.47564" lon="1.0508">
        <ele>182.31</ele>
        <time>2016-01-16T11:06:58Z</time>
      </trkpt>
      <trkpt lat="44.47568" lon="1.05075">
        <ele>183.27</ele>
        <time>2016-01-16T11:07:02Z</time>
      </trkpt>
      <trkpt lat="44.47573" lon="1.05071">
        <ele>185.19</ele>
        <time>2016-01-16T11:07:07Z</time>
      </trkpt>
      <trkpt lat="44.47574" lon="1.0507">
        <ele>185.67</ele>
        <time>2016-01-16T11:07:08Z</time>
      </trkpt>
      <trkpt lat="44.4758" lon="1.0506">
        <ele>187.11</ele>
        <time>2016-01-16T11:07:17Z</time>
      </trkpt>
      <trkpt lat="44.47589" lon="1.0505">
        <ele>190</ele>
        <time>2016-01-16T11:07:28Z</time>
      </trkpt>
      <trkpt lat="44.4759" lon="1.05048">
        <ele>190</ele>
        <time>2016-01-16T11:07:29Z</time>
      </trkpt>
      <trkpt lat="44.47591" lon="1.05047">
        <ele>190</ele>
        <time>2016-01-16T11:07:30Z</time>
      </trkpt>
      <trkpt lat="44.47597" lon="1.0504">
        <ele>190</ele>
        <time>2016-01-16T11:07:37Z</time>
      </trkpt>
      <trkpt lat="44.47603" lon="1.05032">
        <ele>190.48</ele>
        <time>2016-01-16T11:07:44Z</time>
      </trkpt>
      <trkpt lat="44.47604" lon="1.05031">
        <ele>190.96</ele>
        <time>2016-01-16T11:07:45Z</time>
      </trkpt>
      <trkpt lat="44.47604" lon="1.05029">
        <ele>190.96</ele>
        <time>2016-01-16T11:07:46Z</time>
      </trkpt>
      <trkpt lat="44.47611" lon="1.05012">
        <ele>193.84</ele>
        <time>2016-01-16T11:07:58Z</time>
      </trkpt>
      <trkpt lat="44.47613" lon="1.05008">
        <ele>195.28</ele>
        <time>2016-01-16T11:08:01Z</time>
      </trkpt>
      <trkpt lat="44.4762" lon="1.04982">
        <ele>198.17</ele>
        <time>2016-01-16T11:08:14Z</time>
      </trkpt>
      <trkpt lat="44.4762" lon="1.04962">
        <ele>200.57</ele>
        <time>2016-01-16T11:08:26Z</time>
      </trkpt>
      <trkpt lat="44.47618" lon="1.04959">
        <ele>201.53</ele>
        <time>2016-01-16T11:08:29Z</time>
      </trkpt>
      <trkpt lat="44.47612" lon="1.04956">
        <ele>202.98</ele>
        <time>2016-01-16T11:08:42Z</time>
      </trkpt>
      <trkpt lat="44.47612" lon="1.04959">
        <ele>202.01</ele>
        <time>2016-01-16T11:08:56Z</time>
      </trkpt>
      <trkpt lat="44.47606" lon="1.04962">
        <ele>201.53</ele>
        <time>2016-01-16T11:09:00Z</time>
      </trkpt>
      <trkpt lat="44.47604" lon="1.04963">
        <ele>201.53</ele>
        <time>2016-01-16T11:09:01Z</time>
      </trkpt>
      <trkpt lat="44.47602" lon="1.04965">
        <ele>201.53</ele>
        <time>2016-01-16T11:09:02Z</time>
      </trkpt>
      <trkpt lat="44.47601" lon="1.04966">
        <ele>201.53</ele>
        <time>2016-01-16T11:09:03Z</time>
      </trkpt>
      <trkpt lat="44.4758" lon="1.04978">
        <ele>202.01</ele>
        <time>2016-01-16T11:09:16Z</time>
      </trkpt>
      <trkpt lat="44.47558" lon="1.04987">
        <ele>201.05</ele>
        <time>2016-01-16T11:09:31Z</time>
      </trkpt>
      <trkpt lat="44.47555" lon="1.04987">
        <ele>200.57</ele>
        <time>2016-01-16T11:09:33Z</time>
      </trkpt>
      <trkpt lat="44.47539" lon="1.04996">
        <ele>202.49</ele>
        <time>2016-01-16T11:09:43Z</time>
      </trkpt>
      <trkpt lat="44.47521" lon="1.05008">
        <ele>203.94</ele>
        <time>2016-01-16T11:09:56Z</time>
      </trkpt>
      <trkpt lat="44.47502" lon="1.05024">
        <ele>205.38</ele>
        <time>2016-01-16T11:10:09Z</time>
      </trkpt>
      <trkpt lat="44.47489" lon="1.05032">
        <ele>206.82</ele>
        <time>2016-01-16T11:10:19Z</time>
      </trkpt>
      <trkpt lat="44.47488" lon="1.05032">
        <ele>206.82</ele>
        <time>2016-01-16T11:10:20Z</time>
      </trkpt>
      <trkpt lat="44.47487" lon="1.05032">
        <ele>206.82</ele>
        <time>2016-01-16T11:10:21Z</time>
      </trkpt>
      <trkpt lat="44.47485" lon="1.05032">
        <ele>206.82</ele>
        <time>2016-01-16T11:10:22Z</time>
      </trkpt>
      <trkpt lat="44.47484" lon="1.05033">
        <ele>206.82</ele>
        <time>2016-01-16T11:10:23Z</time>
      </trkpt>
      <trkpt lat="44.47483" lon="1.05033">
        <ele>206.82</ele>
        <time>2016-01-16T11:10:24Z</time>
      </trkpt>
      <trkpt lat="44.47481" lon="1.05033">
        <ele>206.82</ele>
        <time>2016-01-16T11:10:25Z</time>
      </trkpt>
      <trkpt lat="44.4748" lon="1.05034">
        <ele>206.82</ele>
        <time>2016-01-16T11:10:26Z</time>
      </trkpt>
      <trkpt lat="44.47478" lon="1.05034">
        <ele>207.3</ele>
        <time>2016-01-16T11:10:27Z</time>
      </trkpt>
      <trkpt lat="44.47468" lon="1.05038">
        <ele>208.74</ele>
        <time>2016-01-16T11:10:34Z</time>
      </trkpt>
      <trkpt lat="44.47466" lon="1.05038">
        <ele>208.74</ele>
        <time>2016-01-16T11:10:35Z</time>
      </trkpt>
      <trkpt lat="44.47453" lon="1.05043">
        <ele>208.26</ele>
        <time>2016-01-16T11:10:43Z</time>
      </trkpt>
      <trkpt lat="44.47452" lon="1.05044">
        <ele>208.26</ele>
        <time>2016-01-16T11:10:44Z</time>
      </trkpt>
      <trkpt lat="44.47451" lon="1.05044">
        <ele>208.26</ele>
        <time>2016-01-16T11:10:45Z</time>
      </trkpt>
      <trkpt lat="44.47449" lon="1.05045">
        <ele>208.26</ele>
        <time>2016-01-16T11:10:46Z</time>
      </trkpt>
      <trkpt lat="44.47448" lon="1.05046">
        <ele>208.26</ele>
        <time>2016-01-16T11:10:47Z</time>
      </trkpt>
      <trkpt lat="44.47447" lon="1.05046">
        <ele>207.78</ele>
        <time>2016-01-16T11:10:48Z</time>
      </trkpt>
      <trkpt lat="44.47445" lon="1.05046">
        <ele>207.78</ele>
        <time>2016-01-16T11:10:49Z</time>
      </trkpt>
      <trkpt lat="44.47444" lon="1.05046">
        <ele>207.78</ele>
        <time>2016-01-16T11:10:50Z</time>
      </trkpt>
      <trkpt lat="44.47443" lon="1.05047">
        <ele>207.78</ele>
        <time>2016-01-16T11:10:51Z</time>
      </trkpt>
      <trkpt lat="44.47441" lon="1.05048">
        <ele>207.3</ele>
        <time>2016-01-16T11:10:52Z</time>
      </trkpt>
      <trkpt lat="44.4744" lon="1.05049">
        <ele>207.78</ele>
        <time>2016-01-16T11:10:53Z</time>
      </trkpt>
      <trkpt lat="44.47439" lon="1.0505">
        <ele>207.78</ele>
        <time>2016-01-16T11:10:54Z</time>
      </trkpt>
      <trkpt lat="44.47437" lon="1.0505">
        <ele>207.78</ele>
        <time>2016-01-16T11:10:55Z</time>
      </trkpt>
      <trkpt lat="44.47435" lon="1.05051">
        <ele>208.26</ele>
        <time>2016-01-16T11:10:56Z</time>
      </trkpt>
      <trkpt lat="44.47434" lon="1.05052">
        <ele>208.26</ele>
        <time>2016-01-16T11:10:57Z</time>
      </trkpt>
      <trkpt lat="44.47432" lon="1.05053">
        <ele>208.26</ele>
        <time>2016-01-16T11:10:58Z</time>
      </trkpt>
      <trkpt lat="44.4743" lon="1.05054">
        <ele>208.74</ele>
        <time>2016-01-16T11:10:59Z</time>
      </trkpt>
      <trkpt lat="44.47429" lon="1.05055">
        <ele>208.74</ele>
        <time>2016-01-16T11:11:00Z</time>
      </trkpt>
      <trkpt lat="44.47427" lon="1.05056">
        <ele>208.74</ele>
        <time>2016-01-16T11:11:01Z</time>
      </trkpt>
      <trkpt lat="44.47426" lon="1.05057">
        <ele>209.22</ele>
        <time>2016-01-16T11:11:02Z</time>
      </trkpt>
      <trkpt lat="44.47424" lon="1.05058">
        <ele>209.22</ele>
        <time>2016-01-16T11:11:03Z</time>
      </trkpt>
      <trkpt lat="44.47422" lon="1.05059">
        <ele>209.22</ele>
        <time>2016-01-16T11:11:04Z</time>
      </trkpt>
      <trkpt lat="44.47421" lon="1.05059">
        <ele>209.7</ele>
        <time>2016-01-16T11:11:05Z</time>
      </trkpt>
      <trkpt lat="44.47419" lon="1.0506">
        <ele>209.7</ele>
        <time>2016-01-16T11:11:06Z</time>
      </trkpt>
      <trkpt lat="44.47418" lon="1.05061">
        <ele>209.22</ele>
        <time>2016-01-16T11:11:07Z</time>
      </trkpt>
      <trkpt lat="44.47395" lon="1.05072">
        <ele>210.67</ele>
        <time>2016-01-16T11:11:21Z</time>
      </trkpt>
      <trkpt lat="44.47366" lon="1.05087">
        <ele>212.59</ele>
        <time>2016-01-16T11:11:40Z</time>
      </trkpt>
      <trkpt lat="44.47345" lon="1.05096">
        <ele>214.51</ele>
        <time>2016-01-16T11:11:53Z</time>
      </trkpt>
      <trkpt lat="44.47322" lon="1.05107">
        <ele>216.43</ele>
        <time>2016-01-16T11:12:08Z</time>
      </trkpt>
      <trkpt lat="44.47304" lon="1.0513">
        <ele>217.88</ele>
        <time>2016-01-16T11:12:21Z</time>
      </trkpt>
      <trkpt lat="44.47281" lon="1.05143">
        <ele>219.8</ele>
        <time>2016-01-16T11:12:35Z</time>
      </trkpt>
      <trkpt lat="44.47274" lon="1.05143">
        <ele>221.24</ele>
        <time>2016-01-16T11:12:39Z</time>
      </trkpt>
      <trkpt lat="44.47249" lon="1.05136">
        <ele>224.61</ele>
        <time>2016-01-16T11:12:52Z</time>
      </trkpt>
      <trkpt lat="44.47227" lon="1.05124">
        <ele>226.05</ele>
        <time>2016-01-16T11:13:06Z</time>
      </trkpt>
      <trkpt lat="44.4722" lon="1.05118">
        <ele>226.53</ele>
        <time>2016-01-16T11:13:11Z</time>
      </trkpt>
      <trkpt lat="44.47216" lon="1.05113">
        <ele>227.01</ele>
        <time>2016-01-16T11:13:24Z</time>
      </trkpt>
      <trkpt lat="44.47216" lon="1.05111">
        <ele>226.53</ele>
        <time>2016-01-16T11:13:38Z</time>
      </trkpt>
      <trkpt lat="44.47215" lon="1.0511">
        <ele>226.05</ele>
        <time>2016-01-16T11:13:52Z</time>
      </trkpt>
      <trkpt lat="44.47214" lon="1.05109">
        <ele>226.53</ele>
        <time>2016-01-16T11:14:14Z</time>
      </trkpt>
      <trkpt lat="44.47214" lon="1.05109">
        <ele>225.57</ele>
        <time>2016-01-16T11:14:33Z</time>
      </trkpt>
      <trkpt lat="44.47213" lon="1.05108">
        <ele>225.57</ele>
        <time>2016-01-16T11:14:52Z</time>
      </trkpt>
      <trkpt lat="44.47209" lon="1.05104">
        <ele>226.53</ele>
        <time>2016-01-16T11:14:55Z</time>
      </trkpt>
      <trkpt lat="44.47184" lon="1.05078">
        <ele>227.49</ele>
        <time>2016-01-16T11:15:08Z</time>
      </trkpt>
      <trkpt lat="44.47175" lon="1.05072">
        <ele>227.97</ele>
        <time>2016-01-16T11:15:12Z</time>
      </trkpt>
      <trkpt lat="44.47159" lon="1.05057">
        <ele>226.05</ele>
        <time>2016-01-16T11:15:21Z</time>
      </trkpt>
      <trkpt lat="44.47155" lon="1.05051">
        <ele>226.05</ele>
        <time>2016-01-16T11:15:24Z</time>
      </trkpt>
      <trkpt lat="44.47153" lon="1.0505">
        <ele>226.05</ele>
        <time>2016-01-16T11:15:25Z</time>
      </trkpt>
      <trkpt lat="44.47151" lon="1.05049">
        <ele>226.05</ele>
        <time>2016-01-16T11:15:26Z</time>
      </trkpt>
      <trkpt lat="44.47148" lon="1.05048">
        <ele>226.53</ele>
        <time>2016-01-16T11:15:27Z</time>
      </trkpt>
      <trkpt lat="44.47147" lon="1.05047">
        <ele>226.53</ele>
        <time>2016-01-16T11:15:28Z</time>
      </trkpt>
      <trkpt lat="44.47145" lon="1.05046">
        <ele>226.53</ele>
        <time>2016-01-16T11:15:29Z</time>
      </trkpt>
      <trkpt lat="44.47143" lon="1.05046">
        <ele>227.01</ele>
        <time>2016-01-16T11:15:30Z</time>
      </trkpt>
      <trkpt lat="44.47135" lon="1.05039">
        <ele>227.97</ele>
        <time>2016-01-16T11:15:36Z</time>
      </trkpt>
      <trkpt lat="44.47134" lon="1.05038">
        <ele>227.97</ele>
        <time>2016-01-16T11:15:37Z</time>
      </trkpt>
      <trkpt lat="44.47106" lon="1.05015">
        <ele>230.85</ele>
        <time>2016-01-16T11:15:53Z</time>
      </trkpt>
      <trkpt lat="44.47075" lon="1.04987">
        <ele>232.3</ele>
        <time>2016-01-16T11:16:10Z</time>
      </trkpt>
      <trkpt lat="44.47045" lon="1.04962">
        <ele>231.81</ele>
        <time>2016-01-16T11:16:24Z</time>
      </trkpt>
      <trkpt lat="44.47006" lon="1.04931">
        <ele>229.89</ele>
        <time>2016-01-16T11:16:38Z</time>
      </trkpt>
      <trkpt lat="44.46962" lon="1.04895">
        <ele>227.49</ele>
        <time>2016-01-16T11:16:52Z</time>
      </trkpt>
      <trkpt lat="44.46919" lon="1.04854">
        <ele>225.57</ele>
        <time>2016-01-16T11:17:07Z</time>
      </trkpt>
      <trkpt lat="44.46901" lon="1.04808">
        <ele>227.01</ele>
        <time>2016-01-16T11:17:17Z</time>
      </trkpt>
      <trkpt lat="44.46867" lon="1.04733">
        <ele>225.09</ele>
        <time>2016-01-16T11:17:32Z</time>
      </trkpt>
      <trkpt lat="44.46862" lon="1.04724">
        <ele>224.61</ele>
        <time>2016-01-16T11:17:34Z</time>
      </trkpt>
      <trkpt lat="44.46851" lon="1.04716">
        <ele>225.09</ele>
        <time>2016-01-16T11:17:37Z</time>
      </trkpt>
      <trkpt lat="44.46838" lon="1.0471">
        <ele>226.05</ele>
        <time>2016-01-16T11:17:40Z</time>
      </trkpt>
      <trkpt lat="44.46814" lon="1.04696">
        <ele>226.05</ele>
        <time>2016-01-16T11:17:45Z</time>
      </trkpt>
      <trkpt lat="44.46776" lon="1.04678">
        <ele>222.2</ele>
        <time>2016-01-16T11:17:52Z</time>
      </trkpt>
      <trkpt lat="44.46758" lon="1.04661">
        <ele>218.84</ele>
        <time>2016-01-16T11:18:01Z</time>
      </trkpt>
      <trkpt lat="44.46755" lon="1.0466">
        <ele>217.4</ele>
        <time>2016-01-16T11:18:15Z</time>
      </trkpt>
      <trkpt lat="44.46754" lon="1.04661">
        <ele>216.43</ele>
        <time>2016-01-16T11:18:35Z</time>
      </trkpt>
      <trkpt lat="44.46755" lon="1.04658">
        <ele>216.43</ele>
        <time>2016-01-16T11:18:37Z</time>
      </trkpt>
      <trkpt lat="44.46756" lon="1.04654">
        <ele>216.43</ele>
        <time>2016-01-16T11:18:38Z</time>
      </trkpt>
      <trkpt lat="44.46757" lon="1.0465">
        <ele>216.43</ele>
        <time>2016-01-16T11:18:39Z</time>
      </trkpt>
      <trkpt lat="44.46758" lon="1.04646">
        <ele>216.43</ele>
        <time>2016-01-16T11:18:40Z</time>
      </trkpt>
      <trkpt lat="44.4676" lon="1.04642">
        <ele>216.43</ele>
        <time>2016-01-16T11:18:41Z</time>
      </trkpt>
      <trkpt lat="44.46761" lon="1.04638">
        <ele>216.43</ele>
        <time>2016-01-16T11:18:42Z</time>
      </trkpt>
      <trkpt lat="44.46794" lon="1.0456">
        <ele>216.91</ele>
        <time>2016-01-16T11:18:59Z</time>
      </trkpt>
      <trkpt lat="44.46801" lon="1.04539">
        <ele>216.91</ele>
        <time>2016-01-16T11:19:03Z</time>
      </trkpt>
      <trkpt lat="44.46802" lon="1.04534">
        <ele>216.91</ele>
        <time>2016-01-16T11:19:04Z</time>
      </trkpt>
      <trkpt lat="44.46803" lon="1.04528">
        <ele>216.91</ele>
        <time>2016-01-16T11:19:05Z</time>
      </trkpt>
      <trkpt lat="44.46803" lon="1.04511">
        <ele>216.91</ele>
        <time>2016-01-16T11:19:08Z</time>
      </trkpt>
      <trkpt lat="44.46795" lon="1.04431">
        <ele>218.36</ele>
        <time>2016-01-16T11:19:22Z</time>
      </trkpt>
      <trkpt lat="44.46784" lon="1.04342">
        <ele>220.28</ele>
        <time>2016-01-16T11:19:39Z</time>
      </trkpt>
      <trkpt lat="44.46775" lon="1.04276">
        <ele>223.64</ele>
        <time>2016-01-16T11:19:53Z</time>
      </trkpt>
      <trkpt lat="44.46767" lon="1.04219">
        <ele>227.01</ele>
        <time>2016-01-16T11:20:08Z</time>
      </trkpt>
      <trkpt lat="44.46766" lon="1.04216">
        <ele>227.01</ele>
        <time>2016-01-16T11:20:09Z</time>
      </trkpt>
      <trkpt lat="44.46744" lon="1.04201">
        <ele>227.97</ele>
        <time>2016-01-16T11:20:22Z</time>
      </trkpt>
      <trkpt lat="44.46743" lon="1.042">
        <ele>228.45</ele>
        <time>2016-01-16T11:20:34Z</time>
      </trkpt>
      <trkpt lat="44.46741" lon="1.04201">
        <ele>227.01</ele>
        <time>2016-01-16T11:20:54Z</time>
      </trkpt>
      <trkpt lat="44.4674" lon="1.04202">
        <ele>226.53</ele>
        <time>2016-01-16T11:21:16Z</time>
      </trkpt>
      <trkpt lat="44.46731" lon="1.04199">
        <ele>227.01</ele>
        <time>2016-01-16T11:21:22Z</time>
      </trkpt>
      <trkpt lat="44.46698" lon="1.04197">
        <ele>229.41</ele>
        <time>2016-01-16T11:21:33Z</time>
      </trkpt>
      <trkpt lat="44.46658" lon="1.04201">
        <ele>231.33</ele>
        <time>2016-01-16T11:21:45Z</time>
      </trkpt>
      <trkpt lat="44.46614" lon="1.04213">
        <ele>231.81</ele>
        <time>2016-01-16T11:21:57Z</time>
      </trkpt>
      <trkpt lat="44.46596" lon="1.04227">
        <ele>230.37</ele>
        <time>2016-01-16T11:22:02Z</time>
      </trkpt>
      <trkpt lat="44.46577" lon="1.04236">
        <ele>227.97</ele>
        <time>2016-01-16T11:22:06Z</time>
      </trkpt>
      <trkpt lat="44.46502" lon="1.04237">
        <ele>224.61</ele>
        <time>2016-01-16T11:22:21Z</time>
      </trkpt>
      <trkpt lat="44.46479" lon="1.04234">
        <ele>221.24</ele>
        <time>2016-01-16T11:22:29Z</time>
      </trkpt>
      <trkpt lat="44.46476" lon="1.04219">
        <ele>219.8</ele>
        <time>2016-01-16T11:22:33Z</time>
      </trkpt>
      <trkpt lat="44.46487" lon="1.0416">
        <ele>217.88</ele>
        <time>2016-01-16T11:22:47Z</time>
      </trkpt>
      <trkpt lat="44.46499" lon="1.04111">
        <ele>216.43</ele>
        <time>2016-01-16T11:22:59Z</time>
      </trkpt>
      <trkpt lat="44.46512" lon="1.04071">
        <ele>217.88</ele>
        <time>2016-01-16T11:23:09Z</time>
      </trkpt>
      <trkpt lat="44.46522" lon="1.04031">
        <ele>221.24</ele>
        <time>2016-01-16T11:23:20Z</time>
      </trkpt>
      <trkpt lat="44.46521" lon="1.04028">
        <ele>221.72</ele>
        <time>2016-01-16T11:23:21Z</time>
      </trkpt>
      <trkpt lat="44.46519" lon="1.04026">
        <ele>221.72</ele>
        <time>2016-01-16T11:23:22Z</time>
      </trkpt>
      <trkpt lat="44.46517" lon="1.04024">
        <ele>222.2</ele>
        <time>2016-01-16T11:23:23Z</time>
      </trkpt>
      <trkpt lat="44.46514" lon="1.04023">
        <ele>222.2</ele>
        <time>2016-01-16T11:23:24Z</time>
      </trkpt>
      <trkpt lat="44.46511" lon="1.04021">
        <ele>222.2</ele>
        <time>2016-01-16T11:23:25Z</time>
      </trkpt>
      <trkpt lat="44.46492" lon="1.04013">
        <ele>222.2</ele>
        <time>2016-01-16T11:23:30Z</time>
      </trkpt>
      <trkpt lat="44.46432" lon="1.03994">
        <ele>222.2</ele>
        <time>2016-01-16T11:23:43Z</time>
      </trkpt>
      <trkpt lat="44.46388" lon="1.03986">
        <ele>225.09</ele>
        <time>2016-01-16T11:23:54Z</time>
      </trkpt>
      <trkpt lat="44.46375" lon="1.03983">
        <ele>226.53</ele>
        <time>2016-01-16T11:23:57Z</time>
      </trkpt>
      <trkpt lat="44.46342" lon="1.03978">
        <ele>228.45</ele>
        <time>2016-01-16T11:24:04Z</time>
      </trkpt>
      <trkpt lat="44.46326" lon="1.03976">
        <ele>228.93</ele>
        <time>2016-01-16T11:24:07Z</time>
      </trkpt>
      <trkpt lat="44.46321" lon="1.03974">
        <ele>228.93</ele>
        <time>2016-01-16T11:24:08Z</time>
      </trkpt>
      <trkpt lat="44.46316" lon="1.03973">
        <ele>228.93</ele>
        <time>2016-01-16T11:24:09Z</time>
      </trkpt>
      <trkpt lat="44.4628" lon="1.03964">
        <ele>227.49</ele>
        <time>2016-01-16T11:24:16Z</time>
      </trkpt>
      <trkpt lat="44.46264" lon="1.03959">
        <ele>227.01</ele>
        <time>2016-01-16T11:24:19Z</time>
      </trkpt>
      <trkpt lat="44.46212" lon="1.03934">
        <ele>227.01</ele>
        <time>2016-01-16T11:24:28Z</time>
      </trkpt>
      <trkpt lat="44.46206" lon="1.03931">
        <ele>227.01</ele>
        <time>2016-01-16T11:24:29Z</time>
      </trkpt>
      <trkpt lat="44.46199" lon="1.03929">
        <ele>227.01</ele>
        <time>2016-01-16T11:24:30Z</time>
      </trkpt>
      <trkpt lat="44.46182" lon="1.03926">
        <ele>226.53</ele>
        <time>2016-01-16T11:24:33Z</time>
      </trkpt>
      <trkpt lat="44.46171" lon="1.03924">
        <ele>226.53</ele>
        <time>2016-01-16T11:24:35Z</time>
      </trkpt>
      <trkpt lat="44.46166" lon="1.03923">
        <ele>226.05</ele>
        <time>2016-01-16T11:24:36Z</time>
      </trkpt>
      <trkpt lat="44.46161" lon="1.03922">
        <ele>226.05</ele>
        <time>2016-01-16T11:24:37Z</time>
      </trkpt>
      <trkpt lat="44.46157" lon="1.03921">
        <ele>225.57</ele>
        <time>2016-01-16T11:24:38Z</time>
      </trkpt>
      <trkpt lat="44.46152" lon="1.03919">
        <ele>225.57</ele>
        <time>2016-01-16T11:24:39Z</time>
      </trkpt>
      <trkpt lat="44.46103" lon="1.03901">
        <ele>226.53</ele>
        <time>2016-01-16T11:24:49Z</time>
      </trkpt>
      <trkpt lat="44.46061" lon="1.03887">
        <ele>227.01</ele>
        <time>2016-01-16T11:24:57Z</time>
      </trkpt>
      <trkpt lat="44.46052" lon="1.03884">
        <ele>227.49</ele>
        <time>2016-01-16T11:24:59Z</time>
      </trkpt>
      <trkpt lat="44.46021" lon="1.03868">
        <ele>226.53</ele>
        <time>2016-01-16T11:25:05Z</time>
      </trkpt>
      <trkpt lat="44.45998" lon="1.03841">
        <ele>223.16</ele>
        <time>2016-01-16T11:25:15Z</time>
      </trkpt>
      <trkpt lat="44.45982" lon="1.03802">
        <ele>222.2</ele>
        <time>2016-01-16T11:25:26Z</time>
      </trkpt>
      <trkpt lat="44.45973" lon="1.03775">
        <ele>220.28</ele>
        <time>2016-01-16T11:25:37Z</time>
      </trkpt>
      <trkpt lat="44.45972" lon="1.03772">
        <ele>214.99</ele>
        <time>2016-01-16T11:25:54Z</time>
      </trkpt>
      <trkpt lat="44.45971" lon="1.03771">
        <ele>212.59</ele>
        <time>2016-01-16T11:26:17Z</time>
      </trkpt>
      <trkpt lat="44.4597" lon="1.03769">
        <ele>213.55</ele>
        <time>2016-01-16T11:26:30Z</time>
      </trkpt>
      <trkpt lat="44.4597" lon="1.03769">
        <ele>214.03</ele>
        <time>2016-01-16T11:26:53Z</time>
      </trkpt>
      <trkpt lat="44.4597" lon="1.03769">
        <ele>213.55</ele>
        <time>2016-01-16T11:27:13Z</time>
      </trkpt>
      <trkpt lat="44.4597" lon="1.0377">
        <ele>212.59</ele>
        <time>2016-01-16T11:27:30Z</time>
      </trkpt>
      <trkpt lat="44.45969" lon="1.03771">
        <ele>212.59</ele>
        <time>2016-01-16T11:27:51Z</time>
      </trkpt>
      <trkpt lat="44.45969" lon="1.03771">
        <ele>212.59</ele>
        <time>2016-01-16T11:27:53Z</time>
      </trkpt>
      <trkpt lat="44.45963" lon="1.03768">
        <ele>212.59</ele>
        <time>2016-01-16T11:27:58Z</time>
      </trkpt>
      <trkpt lat="44.45941" lon="1.03753">
        <ele>209.7</ele>
        <time>2016-01-16T11:28:08Z</time>
      </trkpt>
      <trkpt lat="44.45926" lon="1.03734">
        <ele>206.82</ele>
        <time>2016-01-16T11:28:15Z</time>
      </trkpt>
      <trkpt lat="44.45917" lon="1.03737">
        <ele>202.49</ele>
        <time>2016-01-16T11:28:21Z</time>
      </trkpt>
      <trkpt lat="44.45909" lon="1.03762">
        <ele>198.17</ele>
        <time>2016-01-16T11:28:27Z</time>
      </trkpt>
      <trkpt lat="44.45899" lon="1.03742">
        <ele>194.8</ele>
        <time>2016-01-16T11:28:35Z</time>
      </trkpt>
      <trkpt lat="44.45891" lon="1.03686">
        <ele>189.04</ele>
        <time>2016-01-16T11:28:45Z</time>
      </trkpt>
      <trkpt lat="44.4588" lon="1.03636">
        <ele>182.79</ele>
        <time>2016-01-16T11:28:56Z</time>
      </trkpt>
      <trkpt lat="44.45879" lon="1.03629">
        <ele>181.83</ele>
        <time>2016-01-16T11:28:58Z</time>
      </trkpt>
      <trkpt lat="44.45868" lon="1.03638">
        <ele>177.5</ele>
        <time>2016-01-16T11:29:06Z</time>
      </trkpt>
      <trkpt lat="44.45867" lon="1.03642">
        <ele>176.54</ele>
        <time>2016-01-16T11:29:07Z</time>
      </trkpt>
      <trkpt lat="44.45852" lon="1.03674">
        <ele>171.25</ele>
        <time>2016-01-16T11:29:16Z</time>
      </trkpt>
      <trkpt lat="44.45831" lon="1.03719">
        <ele>164.52</ele>
        <time>2016-01-16T11:29:26Z</time>
      </trkpt>
      <trkpt lat="44.45827" lon="1.03725">
        <ele>163.08</ele>
        <time>2016-01-16T11:29:28Z</time>
      </trkpt>
      <trkpt lat="44.45813" lon="1.03724">
        <ele>161.64</ele>
        <time>2016-01-16T11:29:33Z</time>
      </trkpt>
      <trkpt lat="44.45784" lon="1.03721">
        <ele>162.6</ele>
        <time>2016-01-16T11:29:41Z</time>
      </trkpt>
      <trkpt lat="44.45778" lon="1.03715">
        <ele>163.56</ele>
        <time>2016-01-16T11:29:45Z</time>
      </trkpt>
      <trkpt lat="44.45772" lon="1.03713">
        <ele>165</ele>
        <time>2016-01-16T11:29:57Z</time>
      </trkpt>
      <trkpt lat="44.45773" lon="1.03712">
        <ele>165</ele>
        <time>2016-01-16T11:30:01Z</time>
      </trkpt>
      <trkpt lat="44.45772" lon="1.03707">
        <ele>165.48</ele>
        <time>2016-01-16T11:30:04Z</time>
      </trkpt>
      <trkpt lat="44.45772" lon="1.03704">
        <ele>165.48</ele>
        <time>2016-01-16T11:30:05Z</time>
      </trkpt>
      <trkpt lat="44.45773" lon="1.03701">
        <ele>165.48</ele>
        <time>2016-01-16T11:30:06Z</time>
      </trkpt>
      <trkpt lat="44.45773" lon="1.03698">
        <ele>165.48</ele>
        <time>2016-01-16T11:30:07Z</time>
      </trkpt>
      <trkpt lat="44.45774" lon="1.03694">
        <ele>165</ele>
        <time>2016-01-16T11:30:08Z</time>
      </trkpt>
      <trkpt lat="44.45783" lon="1.03634">
        <ele>164.04</ele>
        <time>2016-01-16T11:30:20Z</time>
      </trkpt>
      <trkpt lat="44.458" lon="1.03535">
        <ele>164.52</ele>
        <time>2016-01-16T11:30:36Z</time>
      </trkpt>
      <trkpt lat="44.45818" lon="1.03431">
        <ele>163.56</ele>
        <time>2016-01-16T11:30:52Z</time>
      </trkpt>
      <trkpt lat="44.45841" lon="1.03312">
        <ele>163.56</ele>
        <time>2016-01-16T11:31:10Z</time>
      </trkpt>
      <trkpt lat="44.45858" lon="1.03217">
        <ele>165</ele>
        <time>2016-01-16T11:31:25Z</time>
      </trkpt>
      <trkpt lat="44.45862" lon="1.03199">
        <ele>165</ele>
        <time>2016-01-16T11:31:28Z</time>
      </trkpt>
      <trkpt lat="44.45863" lon="1.03193">
        <ele>165</ele>
        <time>2016-01-16T11:31:29Z</time>
      </trkpt>
      <trkpt lat="44.45865" lon="1.0318">
        <ele>165.48</ele>
        <time>2016-01-16T11:31:31Z</time>
      </trkpt>
      <trkpt lat="44.45876" lon="1.03129">
        <ele>166.45</ele>
        <time>2016-01-16T11:31:40Z</time>
      </trkpt>
      <trkpt lat="44.45881" lon="1.03096">
        <ele>167.41</ele>
        <time>2016-01-16T11:31:46Z</time>
      </trkpt>
      <trkpt lat="44.45888" lon="1.03052">
        <ele>169.33</ele>
        <time>2016-01-16T11:31:56Z</time>
      </trkpt>
      <trkpt lat="44.45891" lon="1.03032">
        <ele>168.37</ele>
        <time>2016-01-16T11:32:07Z</time>
      </trkpt>
      <trkpt lat="44.45891" lon="1.03033">
        <ele>168.37</ele>
        <time>2016-01-16T11:32:20Z</time>
      </trkpt>
      <trkpt lat="44.4589" lon="1.03031">
        <ele>167.89</ele>
        <time>2016-01-16T11:32:21Z</time>
      </trkpt>
      <trkpt lat="44.45889" lon="1.03028">
        <ele>167.41</ele>
        <time>2016-01-16T11:32:22Z</time>
      </trkpt>
      <trkpt lat="44.45889" lon="1.03024">
        <ele>166.93</ele>
        <time>2016-01-16T11:32:23Z</time>
      </trkpt>
      <trkpt lat="44.45889" lon="1.03019">
        <ele>166.45</ele>
        <time>2016-01-16T11:32:24Z</time>
      </trkpt>
      <trkpt lat="44.45889" lon="1.03015">
        <ele>165.96</ele>
        <time>2016-01-16T11:32:25Z</time>
      </trkpt>
      <trkpt lat="44.45893" lon="1.02944">
        <ele>163.56</ele>
        <time>2016-01-16T11:32:38Z</time>
      </trkpt>
      <trkpt lat="44.4589" lon="1.02849">
        <ele>162.6</ele>
        <time>2016-01-16T11:32:55Z</time>
      </trkpt>
      <trkpt lat="44.45873" lon="1.02779">
        <ele>163.56</ele>
        <time>2016-01-16T11:33:10Z</time>
      </trkpt>
      <trkpt lat="44.45856" lon="1.02736">
        <ele>163.56</ele>
        <time>2016-01-16T11:33:22Z</time>
      </trkpt>
      <trkpt lat="44.45852" lon="1.02718">
        <ele>162.12</ele>
        <time>2016-01-16T11:33:27Z</time>
      </trkpt>
      <trkpt lat="44.45842" lon="1.02696">
        <ele>162.12</ele>
        <time>2016-01-16T11:33:32Z</time>
      </trkpt>
      <trkpt lat="44.45834" lon="1.02669">
        <ele>162.12</ele>
        <time>2016-01-16T11:33:37Z</time>
      </trkpt>
      <trkpt lat="44.45833" lon="1.02651">
        <ele>163.08</ele>
        <time>2016-01-16T11:33:40Z</time>
      </trkpt>
      <trkpt lat="44.45833" lon="1.02593">
        <ele>162.12</ele>
        <time>2016-01-16T11:33:49Z</time>
      </trkpt>
      <trkpt lat="44.45832" lon="1.02569">
        <ele>161.64</ele>
        <time>2016-01-16T11:33:53Z</time>
      </trkpt>
      <trkpt lat="44.45827" lon="1.02544">
        <ele>162.6</ele>
        <time>2016-01-16T11:33:57Z</time>
      </trkpt>
      <trkpt lat="44.45823" lon="1.02523">
        <ele>162.6</ele>
        <time>2016-01-16T11:34:01Z</time>
      </trkpt>
      <trkpt lat="44.45799" lon="1.02462">
        <ele>163.08</ele>
        <time>2016-01-16T11:34:13Z</time>
      </trkpt>
      <trkpt lat="44.45791" lon="1.02448">
        <ele>163.08</ele>
        <time>2016-01-16T11:34:16Z</time>
      </trkpt>
      <trkpt lat="44.45788" lon="1.02442">
        <ele>163.08</ele>
        <time>2016-01-16T11:34:17Z</time>
      </trkpt>
      <trkpt lat="44.45785" lon="1.02431">
        <ele>163.08</ele>
        <time>2016-01-16T11:34:19Z</time>
      </trkpt>
      <trkpt lat="44.45784" lon="1.02425">
        <ele>163.56</ele>
        <time>2016-01-16T11:34:20Z</time>
      </trkpt>
      <trkpt lat="44.45783" lon="1.02419">
        <ele>163.56</ele>
        <time>2016-01-16T11:34:21Z</time>
      </trkpt>
      <trkpt lat="44.45782" lon="1.02413">
        <ele>163.08</ele>
        <time>2016-01-16T11:34:22Z</time>
      </trkpt>
      <trkpt lat="44.45781" lon="1.02406">
        <ele>163.08</ele>
        <time>2016-01-16T11:34:23Z</time>
      </trkpt>
      <trkpt lat="44.45778" lon="1.02388">
        <ele>163.08</ele>
        <time>2016-01-16T11:34:26Z</time>
      </trkpt>
      <trkpt lat="44.45775" lon="1.02363">
        <ele>162.6</ele>
        <time>2016-01-16T11:34:30Z</time>
      </trkpt>
      <trkpt lat="44.45774" lon="1.02357">
        <ele>163.08</ele>
        <time>2016-01-16T11:34:31Z</time>
      </trkpt>
      <trkpt lat="44.45773" lon="1.02351">
        <ele>163.08</ele>
        <time>2016-01-16T11:34:32Z</time>
      </trkpt>
      <trkpt lat="44.45772" lon="1.02346">
        <ele>163.08</ele>
        <time>2016-01-16T11:34:33Z</time>
      </trkpt>
      <trkpt lat="44.45771" lon="1.0234">
        <ele>163.08</ele>
        <time>2016-01-16T11:34:34Z</time>
      </trkpt>
      <trkpt lat="44.45771" lon="1.02334">
        <ele>163.08</ele>
        <time>2016-01-16T11:34:35Z</time>
      </trkpt>
      <trkpt lat="44.4577" lon="1.02329">
        <ele>163.08</ele>
        <time>2016-01-16T11:34:36Z</time>
      </trkpt>
      <trkpt lat="44.45769" lon="1.02324">
        <ele>163.56</ele>
        <time>2016-01-16T11:34:37Z</time>
      </trkpt>
      <trkpt lat="44.45768" lon="1.02319">
        <ele>163.56</ele>
        <time>2016-01-16T11:34:38Z</time>
      </trkpt>
      <trkpt lat="44.45766" lon="1.02314">
        <ele>163.56</ele>
        <time>2016-01-16T11:34:39Z</time>
      </trkpt>
      <trkpt lat="44.45765" lon="1.02309">
        <ele>163.56</ele>
        <time>2016-01-16T11:34:40Z</time>
      </trkpt>
      <trkpt lat="44.45763" lon="1.02304">
        <ele>163.56</ele>
        <time>2016-01-16T11:34:41Z</time>
      </trkpt>
      <trkpt lat="44.45761" lon="1.02299">
        <ele>163.56</ele>
        <time>2016-01-16T11:34:42Z</time>
      </trkpt>
      <trkpt lat="44.45756" lon="1.02291">
        <ele>163.08</ele>
        <time>2016-01-16T11:34:44Z</time>
      </trkpt>
      <trkpt lat="44.45738" lon="1.02288">
        <ele>162.6</ele>
        <time>2016-01-16T11:34:49Z</time>
      </trkpt>
      <trkpt lat="44.45711" lon="1.02275">
        <ele>165.48</ele>
        <time>2016-01-16T11:34:59Z</time>
      </trkpt>
      <trkpt lat="44.45701" lon="1.02265">
        <ele>165.96</ele>
        <time>2016-01-16T11:35:04Z</time>
      </trkpt>
      <trkpt lat="44.45673" lon="1.02255">
        <ele>166.93</ele>
        <time>2016-01-16T11:35:17Z</time>
      </trkpt>
      <trkpt lat="44.45666" lon="1.02254">
        <ele>167.41</ele>
        <time>2016-01-16T11:35:20Z</time>
      </trkpt>
      <trkpt lat="44.45654" lon="1.0224">
        <ele>167.41</ele>
        <time>2016-01-16T11:35:29Z</time>
      </trkpt>
      <trkpt lat="44.45651" lon="1.02238">
        <ele>166.93</ele>
        <time>2016-01-16T11:35:31Z</time>
      </trkpt>
      <trkpt lat="44.45647" lon="1.02229">
        <ele>166.93</ele>
        <time>2016-01-16T11:35:36Z</time>
      </trkpt>
      <trkpt lat="44.45631" lon="1.02213">
        <ele>162.12</ele>
        <time>2016-01-16T11:35:44Z</time>
      </trkpt>
      <trkpt lat="44.45613" lon="1.02195">
        <ele>159.24</ele>
        <time>2016-01-16T11:35:51Z</time>
      </trkpt>
      <trkpt lat="44.45596" lon="1.02161">
        <ele>158.75</ele>
        <time>2016-01-16T11:36:00Z</time>
      </trkpt>
      <trkpt lat="44.45573" lon="1.02137">
        <ele>161.16</ele>
        <time>2016-01-16T11:36:07Z</time>
      </trkpt>
      <trkpt lat="44.45537" lon="1.02152">
        <ele>159.72</ele>
        <time>2016-01-16T11:36:21Z</time>
      </trkpt>
      <trkpt lat="44.45533" lon="1.02154">
        <ele>161.16</ele>
        <time>2016-01-16T11:36:42Z</time>
      </trkpt>
      <trkpt lat="44.45531" lon="1.02155">
        <ele>158.75</ele>
        <time>2016-01-16T11:36:59Z</time>
      </trkpt>
      <trkpt lat="44.4553" lon="1.02157">
        <ele>159.24</ele>
        <time>2016-01-16T11:37:09Z</time>
      </trkpt>
      <trkpt lat="44.45516" lon="1.02164">
        <ele>159.24</ele>
        <time>2016-01-16T11:37:25Z</time>
      </trkpt>
      <trkpt lat="44.45492" lon="1.0218">
        <ele>160.68</ele>
        <time>2016-01-16T11:37:36Z</time>
      </trkpt>
      <trkpt lat="44.45473" lon="1.02193">
        <ele>160.68</ele>
        <time>2016-01-16T11:37:48Z</time>
      </trkpt>
      <trkpt lat="44.45474" lon="1.02194">
        <ele>161.64</ele>
        <time>2016-01-16T11:38:05Z</time>
      </trkpt>
      <trkpt lat="44.45473" lon="1.02194">
        <ele>160.68</ele>
        <time>2016-01-16T11:38:20Z</time>
      </trkpt>
      <trkpt lat="44.45472" lon="1.02193">
        <ele>156.83</ele>
        <time>2016-01-16T11:38:53Z</time>
      </trkpt>
      <trkpt lat="44.45471" lon="1.02193">
        <ele>157.31</ele>
        <time>2016-01-16T11:38:56Z</time>
      </trkpt>
      <trkpt lat="44.45457" lon="1.02203">
        <ele>157.31</ele>
        <time>2016-01-16T11:39:06Z</time>
      </trkpt>
      <trkpt lat="44.45428" lon="1.02226">
        <ele>158.27</ele>
        <time>2016-01-16T11:39:20Z</time>
      </trkpt>
      <trkpt lat="44.45396" lon="1.02257">
        <ele>159.24</ele>
        <time>2016-01-16T11:39:34Z</time>
      </trkpt>
      <trkpt lat="44.45379" lon="1.02275">
        <ele>159.72</ele>
        <time>2016-01-16T11:39:42Z</time>
      </trkpt>
      <trkpt lat="44.45365" lon="1.02289">
        <ele>159.72</ele>
        <time>2016-01-16T11:39:51Z</time>
      </trkpt>
      <trkpt lat="44.4534" lon="1.02305">
        <ele>161.16</ele>
        <time>2016-01-16T11:40:03Z</time>
      </trkpt>
      <trkpt lat="44.4531" lon="1.02318">
        <ele>162.12</ele>
        <time>2016-01-16T11:40:15Z</time>
      </trkpt>
      <trkpt lat="44.45287" lon="1.02332">
        <ele>162.6</ele>
        <time>2016-01-16T11:40:26Z</time>
      </trkpt>
      <trkpt lat="44.45256" lon="1.02347">
        <ele>164.04</ele>
        <time>2016-01-16T11:40:41Z</time>
      </trkpt>
      <trkpt lat="44.45227" lon="1.02355">
        <ele>163.56</ele>
        <time>2016-01-16T11:40:56Z</time>
      </trkpt>
      <trkpt lat="44.452" lon="1.02364">
        <ele>164.04</ele>
        <time>2016-01-16T11:41:10Z</time>
      </trkpt>
      <trkpt lat="44.45167" lon="1.02379">
        <ele>163.08</ele>
        <time>2016-01-16T11:41:27Z</time>
      </trkpt>
      <trkpt lat="44.45147" lon="1.02399">
        <ele>164.52</ele>
        <time>2016-01-16T11:41:40Z</time>
      </trkpt>
      <trkpt lat="44.45129" lon="1.02426">
        <ele>166.45</ele>
        <time>2016-01-16T11:41:54Z</time>
      </trkpt>
      <trkpt lat="44.45113" lon="1.02451">
        <ele>166.45</ele>
        <time>2016-01-16T11:42:08Z</time>
      </trkpt>
      <trkpt lat="44.45099" lon="1.02439">
        <ele>165.48</ele>
        <time>2016-01-16T11:42:19Z</time>
      </trkpt>
      <trkpt lat="44.45078" lon="1.0241">
        <ele>166.45</ele>
        <time>2016-01-16T11:42:33Z</time>
      </trkpt>
      <trkpt lat="44.45059" lon="1.02393">
        <ele>170.29</ele>
        <time>2016-01-16T11:42:45Z</time>
      </trkpt>
      <trkpt lat="44.45053" lon="1.02391">
        <ele>170.77</ele>
        <time>2016-01-16T11:42:50Z</time>
      </trkpt>
      <trkpt lat="44.45045" lon="1.02385">
        <ele>170.29</ele>
        <time>2016-01-16T11:43:05Z</time>
      </trkpt>
      <trkpt lat="44.45045" lon="1.02386">
        <ele>170.29</ele>
        <time>2016-01-16T11:43:28Z</time>
      </trkpt>
      <trkpt lat="44.4504" lon="1.02378">
        <ele>170.77</ele>
        <time>2016-01-16T11:43:48Z</time>
      </trkpt>
      <trkpt lat="44.45017" lon="1.0234">
        <ele>169.33</ele>
        <time>2016-01-16T11:44:01Z</time>
      </trkpt>
      <trkpt lat="44.44996" lon="1.02315">
        <ele>169.33</ele>
        <time>2016-01-16T11:44:12Z</time>
      </trkpt>
      <trkpt lat="44.44969" lon="1.02282">
        <ele>170.29</ele>
        <time>2016-01-16T11:44:27Z</time>
      </trkpt>
      <trkpt lat="44.4495" lon="1.0225">
        <ele>173.17</ele>
        <time>2016-01-16T11:44:38Z</time>
      </trkpt>
      <trkpt lat="44.44942" lon="1.02237">
        <ele>175.1</ele>
        <time>2016-01-16T11:44:51Z</time>
      </trkpt>
      <trkpt lat="44.44942" lon="1.02238">
        <ele>176.54</ele>
        <time>2016-01-16T11:45:00Z</time>
      </trkpt>
      <trkpt lat="44.4493" lon="1.02196">
        <ele>176.06</ele>
        <time>2016-01-16T11:45:13Z</time>
      </trkpt>
      <trkpt lat="44.449" lon="1.02174">
        <ele>176.06</ele>
        <time>2016-01-16T11:45:26Z</time>
      </trkpt>
      <trkpt lat="44.44865" lon="1.02163">
        <ele>174.62</ele>
        <time>2016-01-16T11:45:40Z</time>
      </trkpt>
      <trkpt lat="44.44828" lon="1.02156">
        <ele>173.66</ele>
        <time>2016-01-16T11:45:55Z</time>
      </trkpt>
      <trkpt lat="44.44805" lon="1.02155">
        <ele>172.69</ele>
        <time>2016-01-16T11:46:10Z</time>
      </trkpt>
      <trkpt lat="44.44789" lon="1.02156">
        <ele>173.17</ele>
        <time>2016-01-16T11:46:27Z</time>
      </trkpt>
      <trkpt lat="44.44787" lon="1.02156">
        <ele>172.69</ele>
        <time>2016-01-16T11:46:38Z</time>
      </trkpt>
      <trkpt lat="44.44786" lon="1.02156">
        <ele>172.69</ele>
        <time>2016-01-16T11:46:55Z</time>
      </trkpt>
      <trkpt lat="44.44785" lon="1.02152">
        <ele>172.69</ele>
        <time>2016-01-16T11:47:21Z</time>
      </trkpt>
      <trkpt lat="44.44772" lon="1.02152">
        <ele>173.17</ele>
        <time>2016-01-16T11:47:33Z</time>
      </trkpt>
      <trkpt lat="44.44747" lon="1.02151">
        <ele>172.69</ele>
        <time>2016-01-16T11:47:46Z</time>
      </trkpt>
      <trkpt lat="44.44735" lon="1.02147">
        <ele>173.17</ele>
        <time>2016-01-16T11:47:52Z</time>
      </trkpt>
      <trkpt lat="44.44713" lon="1.02136">
        <ele>174.14</ele>
        <time>2016-01-16T11:48:05Z</time>
      </trkpt>
      <trkpt lat="44.44692" lon="1.02123">
        <ele>174.62</ele>
        <time>2016-01-16T11:48:17Z</time>
      </trkpt>
      <trkpt lat="44.44664" lon="1.02118">
        <ele>173.66</ele>
        <time>2016-01-16T11:48:30Z</time>
      </trkpt>
      <trkpt lat="44.44638" lon="1.0212">
        <ele>175.58</ele>
        <time>2016-01-16T11:48:43Z</time>
      </trkpt>
      <trkpt lat="44.4461" lon="1.02123">
        <ele>177.02</ele>
        <time>2016-01-16T11:48:59Z</time>
      </trkpt>
      <trkpt lat="44.44586" lon="1.0212">
        <ele>175.58</ele>
        <time>2016-01-16T11:49:12Z</time>
      </trkpt>
      <trkpt lat="44.44562" lon="1.0211">
        <ele>177.5</ele>
        <time>2016-01-16T11:49:26Z</time>
      </trkpt>
      <trkpt lat="44.44558" lon="1.02107">
        <ele>177.98</ele>
        <time>2016-01-16T11:49:29Z</time>
      </trkpt>
      <trkpt lat="44.44543" lon="1.02102">
        <ele>179.42</ele>
        <time>2016-01-16T11:49:38Z</time>
      </trkpt>
      <trkpt lat="44.44521" lon="1.02095">
        <ele>178.94</ele>
        <time>2016-01-16T11:49:51Z</time>
      </trkpt>
      <trkpt lat="44.44517" lon="1.02091">
        <ele>178.46</ele>
        <time>2016-01-16T11:49:54Z</time>
      </trkpt>
      <trkpt lat="44.44513" lon="1.02084">
        <ele>178.94</ele>
        <time>2016-01-16T11:49:58Z</time>
      </trkpt>
      <trkpt lat="44.44509" lon="1.02073">
        <ele>180.87</ele>
        <time>2016-01-16T11:50:04Z</time>
      </trkpt>
      <trkpt lat="44.44509" lon="1.02066">
        <ele>182.79</ele>
        <time>2016-01-16T11:50:08Z</time>
      </trkpt>
      <trkpt lat="44.44509" lon="1.02056">
        <ele>184.71</ele>
        <time>2016-01-16T11:50:13Z</time>
      </trkpt>
      <trkpt lat="44.44509" lon="1.02047">
        <ele>184.23</ele>
        <time>2016-01-16T11:50:17Z</time>
      </trkpt>
      <trkpt lat="44.4451" lon="1.02044">
        <ele>184.23</ele>
        <time>2016-01-16T11:50:19Z</time>
      </trkpt>
      <trkpt lat="44.44504" lon="1.02026">
        <ele>184.23</ele>
        <time>2016-01-16T11:50:31Z</time>
      </trkpt>
      <trkpt lat="44.44501" lon="1.0202">
        <ele>184.23</ele>
        <time>2016-01-16T11:50:34Z</time>
      </trkpt>
      <trkpt lat="44.44492" lon="1.0201">
        <ele>186.15</ele>
        <time>2016-01-16T11:50:41Z</time>
      </trkpt>
      <trkpt lat="44.44477" lon="1.01991">
        <ele>189.52</ele>
        <time>2016-01-16T11:50:55Z</time>
      </trkpt>
      <trkpt lat="44.44468" lon="1.01972">
        <ele>190</ele>
        <time>2016-01-16T11:51:08Z</time>
      </trkpt>
      <trkpt lat="44.4446" lon="1.0196">
        <ele>189.04</ele>
        <time>2016-01-16T11:51:19Z</time>
      </trkpt>
      <trkpt lat="44.44452" lon="1.01948">
        <ele>190.96</ele>
        <time>2016-01-16T11:51:30Z</time>
      </trkpt>
      <trkpt lat="44.44436" lon="1.01933">
        <ele>194.32</ele>
        <time>2016-01-16T11:51:45Z</time>
      </trkpt>
      <trkpt lat="44.44425" lon="1.01922">
        <ele>192.88</ele>
        <time>2016-01-16T11:51:59Z</time>
      </trkpt>
      <trkpt lat="44.44424" lon="1.01921">
        <ele>192.88</ele>
        <time>2016-01-16T11:52:19Z</time>
      </trkpt>
      <trkpt lat="44.44423" lon="1.01919">
        <ele>191.92</ele>
        <time>2016-01-16T11:52:36Z</time>
      </trkpt>
      <trkpt lat="44.4442" lon="1.01919">
        <ele>194.8</ele>
        <time>2016-01-16T11:52:58Z</time>
      </trkpt>
      <trkpt lat="44.44419" lon="1.01917">
        <ele>195.28</ele>
        <time>2016-01-16T11:53:29Z</time>
      </trkpt>
      <trkpt lat="44.44419" lon="1.01918">
        <ele>196.25</ele>
        <time>2016-01-16T11:53:51Z</time>
      </trkpt>
      <trkpt lat="44.4442" lon="1.01919">
        <ele>196.73</ele>
        <time>2016-01-16T11:54:15Z</time>
      </trkpt>
      <trkpt lat="44.4442" lon="1.01918">
        <ele>196.73</ele>
        <time>2016-01-16T11:54:40Z</time>
      </trkpt>
      <trkpt lat="44.44423" lon="1.01922">
        <ele>196.25</ele>
        <time>2016-01-16T11:54:54Z</time>
      </trkpt>
      <trkpt lat="44.44446" lon="1.01942">
        <ele>197.21</ele>
        <time>2016-01-16T11:55:08Z</time>
      </trkpt>
      <trkpt lat="44.44454" lon="1.0195">
        <ele>195.77</ele>
        <time>2016-01-16T11:55:18Z</time>
      </trkpt>
      <trkpt lat="44.44455" lon="1.01951">
        <ele>194.32</ele>
        <time>2016-01-16T11:55:38Z</time>
      </trkpt>
      <trkpt lat="44.44456" lon="1.01951">
        <ele>193.36</ele>
        <time>2016-01-16T11:56:07Z</time>
      </trkpt>
      <trkpt lat="44.44454" lon="1.0195">
        <ele>193.36</ele>
        <time>2016-01-16T11:56:12Z</time>
      </trkpt>
      <trkpt lat="44.44452" lon="1.01949">
        <ele>193.36</ele>
        <time>2016-01-16T11:56:14Z</time>
      </trkpt>
      <trkpt lat="44.44449" lon="1.01943">
        <ele>193.36</ele>
        <time>2016-01-16T11:56:18Z</time>
      </trkpt>
      <trkpt lat="44.44429" lon="1.01927">
        <ele>194.32</ele>
        <time>2016-01-16T11:56:34Z</time>
      </trkpt>
      <trkpt lat="44.44415" lon="1.01904">
        <ele>193.84</ele>
        <time>2016-01-16T11:56:45Z</time>
      </trkpt>
      <trkpt lat="44.44405" lon="1.01889">
        <ele>194.32</ele>
        <time>2016-01-16T11:56:52Z</time>
      </trkpt>
      <trkpt lat="44.4438" lon="1.01874">
        <ele>192.88</ele>
        <time>2016-01-16T11:57:07Z</time>
      </trkpt>
      <trkpt lat="44.44377" lon="1.01874">
        <ele>193.36</ele>
        <time>2016-01-16T11:57:10Z</time>
      </trkpt>
      <trkpt lat="44.44365" lon="1.01883">
        <ele>195.28</ele>
        <time>2016-01-16T11:57:23Z</time>
      </trkpt>
      <trkpt lat="44.44363" lon="1.01885">
        <ele>195.28</ele>
        <time>2016-01-16T11:57:25Z</time>
      </trkpt>
      <trkpt lat="44.44353" lon="1.01894">
        <ele>197.21</ele>
        <time>2016-01-16T11:57:36Z</time>
      </trkpt>
      <trkpt lat="44.44341" lon="1.01903">
        <ele>200.57</ele>
        <time>2016-01-16T11:57:46Z</time>
      </trkpt>
      <trkpt lat="44.44329" lon="1.01909">
        <ele>201.53</ele>
        <time>2016-01-16T11:57:57Z</time>
      </trkpt>
      <trkpt lat="44.44328" lon="1.0191">
        <ele>202.01</ele>
        <time>2016-01-16T11:57:58Z</time>
      </trkpt>
      <trkpt lat="44.44319" lon="1.01929">
        <ele>207.3</ele>
        <time>2016-01-16T11:58:12Z</time>
      </trkpt>
      <trkpt lat="44.44311" lon="1.01949">
        <ele>210.19</ele>
        <time>2016-01-16T11:58:24Z</time>
      </trkpt>
      <trkpt lat="44.44307" lon="1.01952">
        <ele>208.74</ele>
        <time>2016-01-16T11:58:38Z</time>
      </trkpt>
      <trkpt lat="44.44307" lon="1.01952">
        <ele>209.7</ele>
        <time>2016-01-16T11:58:59Z</time>
      </trkpt>
      <trkpt lat="44.44307" lon="1.01953">
        <ele>209.22</ele>
        <time>2016-01-16T11:59:24Z</time>
      </trkpt>
      <trkpt lat="44.44308" lon="1.01952">
        <ele>208.74</ele>
        <time>2016-01-16T11:59:54Z</time>
      </trkpt>
      <trkpt lat="44.44308" lon="1.01953">
        <ele>209.7</ele>
        <time>2016-01-16T12:00:15Z</time>
      </trkpt>
      <trkpt lat="44.44297" lon="1.01955">
        <ele>207.3</ele>
        <time>2016-01-16T12:00:34Z</time>
      </trkpt>
      <trkpt lat="44.44294" lon="1.01955">
        <ele>206.82</ele>
        <time>2016-01-16T12:00:42Z</time>
      </trkpt>
      <trkpt lat="44.4428" lon="1.01955">
        <ele>205.86</ele>
        <time>2016-01-16T12:00:53Z</time>
      </trkpt>
      <trkpt lat="44.44277" lon="1.01954">
        <ele>205.86</ele>
        <time>2016-01-16T12:00:55Z</time>
      </trkpt>
      <trkpt lat="44.44275" lon="1.01954">
        <ele>205.86</ele>
        <time>2016-01-16T12:00:57Z</time>
      </trkpt>
      <trkpt lat="44.44255" lon="1.0195">
        <ele>207.3</ele>
        <time>2016-01-16T12:01:11Z</time>
      </trkpt>
      <trkpt lat="44.44243" lon="1.01942">
        <ele>207.78</ele>
        <time>2016-01-16T12:01:19Z</time>
      </trkpt>
      <trkpt lat="44.44239" lon="1.0193">
        <ele>207.3</ele>
        <time>2016-01-16T12:01:26Z</time>
      </trkpt>
      <trkpt lat="44.44237" lon="1.01917">
        <ele>206.34</ele>
        <time>2016-01-16T12:01:32Z</time>
      </trkpt>
      <trkpt lat="44.44226" lon="1.01879">
        <ele>207.3</ele>
        <time>2016-01-16T12:01:46Z</time>
      </trkpt>
      <trkpt lat="44.44202" lon="1.01837">
        <ele>206.34</ele>
        <time>2016-01-16T12:01:58Z</time>
      </trkpt>
      <trkpt lat="44.442" lon="1.01832">
        <ele>206.34</ele>
        <time>2016-01-16T12:01:59Z</time>
      </trkpt>
      <trkpt lat="44.44198" lon="1.01827">
        <ele>205.86</ele>
        <time>2016-01-16T12:02:00Z</time>
      </trkpt>
      <trkpt lat="44.44194" lon="1.01814">
        <ele>204.9</ele>
        <time>2016-01-16T12:02:02Z</time>
      </trkpt>
      <trkpt lat="44.44191" lon="1.01793">
        <ele>204.42</ele>
        <time>2016-01-16T12:02:05Z</time>
      </trkpt>
      <trkpt lat="44.4419" lon="1.01742">
        <ele>205.38</ele>
        <time>2016-01-16T12:02:16Z</time>
      </trkpt>
      <trkpt lat="44.44189" lon="1.01691">
        <ele>206.82</ele>
        <time>2016-01-16T12:02:31Z</time>
      </trkpt>
      <trkpt lat="44.44186" lon="1.01643">
        <ele>208.74</ele>
        <time>2016-01-16T12:02:45Z</time>
      </trkpt>
      <trkpt lat="44.44176" lon="1.016">
        <ele>210.67</ele>
        <time>2016-01-16T12:03:00Z</time>
      </trkpt>
      <trkpt lat="44.44172" lon="1.01586">
        <ele>211.15</ele>
        <time>2016-01-16T12:03:05Z</time>
      </trkpt>
      <trkpt lat="44.4417" lon="1.01585">
        <ele>211.15</ele>
        <time>2016-01-16T12:03:06Z</time>
      </trkpt>
      <trkpt lat="44.4416" lon="1.01577">
        <ele>211.63</ele>
        <time>2016-01-16T12:03:13Z</time>
      </trkpt>
      <trkpt lat="44.44138" lon="1.01595">
        <ele>213.07</ele>
        <time>2016-01-16T12:03:27Z</time>
      </trkpt>
      <trkpt lat="44.44118" lon="1.01613">
        <ele>215.47</ele>
        <time>2016-01-16T12:03:39Z</time>
      </trkpt>
      <trkpt lat="44.44101" lon="1.0163">
        <ele>216.43</ele>
        <time>2016-01-16T12:03:48Z</time>
      </trkpt>
      <trkpt lat="44.441" lon="1.01632">
        <ele>216.43</ele>
        <time>2016-01-16T12:03:49Z</time>
      </trkpt>
      <trkpt lat="44.44098" lon="1.01634">
        <ele>216.43</ele>
        <time>2016-01-16T12:03:50Z</time>
      </trkpt>
      <trkpt lat="44.44096" lon="1.01635">
        <ele>216.43</ele>
        <time>2016-01-16T12:03:51Z</time>
      </trkpt>
      <trkpt lat="44.44094" lon="1.01637">
        <ele>216.91</ele>
        <time>2016-01-16T12:03:52Z</time>
      </trkpt>
      <trkpt lat="44.44093" lon="1.01639">
        <ele>216.91</ele>
        <time>2016-01-16T12:03:53Z</time>
      </trkpt>
      <trkpt lat="44.44072" lon="1.01666">
        <ele>217.4</ele>
        <time>2016-01-16T12:04:08Z</time>
      </trkpt>
      <trkpt lat="44.44057" lon="1.01695">
        <ele>218.36</ele>
        <time>2016-01-16T12:04:20Z</time>
      </trkpt>
      <trkpt lat="44.44041" lon="1.01726">
        <ele>218.84</ele>
        <time>2016-01-16T12:04:31Z</time>
      </trkpt>
      <trkpt lat="44.44014" lon="1.01765">
        <ele>221.24</ele>
        <time>2016-01-16T12:04:44Z</time>
      </trkpt>
      <trkpt lat="44.43982" lon="1.01802">
        <ele>220.76</ele>
        <time>2016-01-16T12:04:57Z</time>
      </trkpt>
      <trkpt lat="44.43951" lon="1.01844">
        <ele>220.28</ele>
        <time>2016-01-16T12:05:10Z</time>
      </trkpt>
      <trkpt lat="44.43915" lon="1.01895">
        <ele>221.24</ele>
        <time>2016-01-16T12:05:25Z</time>
      </trkpt>
      <trkpt lat="44.43884" lon="1.01931">
        <ele>221.24</ele>
        <time>2016-01-16T12:05:37Z</time>
      </trkpt>
      <trkpt lat="44.43842" lon="1.01971">
        <ele>220.76</ele>
        <time>2016-01-16T12:05:50Z</time>
      </trkpt>
      <trkpt lat="44.43797" lon="1.02022">
        <ele>221.72</ele>
        <time>2016-01-16T12:06:05Z</time>
      </trkpt>
      <trkpt lat="44.43773" lon="1.0206">
        <ele>221.72</ele>
        <time>2016-01-16T12:06:16Z</time>
      </trkpt>
      <trkpt lat="44.43731" lon="1.02118">
        <ele>222.2</ele>
        <time>2016-01-16T12:06:33Z</time>
      </trkpt>
      <trkpt lat="44.43685" lon="1.02145">
        <ele>221.72</ele>
        <time>2016-01-16T12:06:46Z</time>
      </trkpt>
      <trkpt lat="44.43602" lon="1.02171">
        <ele>216.91</ele>
        <time>2016-01-16T12:06:59Z</time>
      </trkpt>
      <trkpt lat="44.43518" lon="1.02195">
        <ele>214.99</ele>
        <time>2016-01-16T12:07:12Z</time>
      </trkpt>
      <trkpt lat="44.435" lon="1.02193">
        <ele>215.47</ele>
        <time>2016-01-16T12:07:16Z</time>
      </trkpt>
      <trkpt lat="44.43496" lon="1.02192">
        <ele>215.95</ele>
        <time>2016-01-16T12:07:17Z</time>
      </trkpt>
      <trkpt lat="44.43427" lon="1.02174">
        <ele>219.8</ele>
        <time>2016-01-16T12:07:34Z</time>
      </trkpt>
      <trkpt lat="44.43394" lon="1.02172">
        <ele>217.88</ele>
        <time>2016-01-16T12:07:41Z</time>
      </trkpt>
      <trkpt lat="44.43389" lon="1.02172">
        <ele>217.4</ele>
        <time>2016-01-16T12:07:42Z</time>
      </trkpt>
      <trkpt lat="44.43312" lon="1.02167">
        <ele>212.59</ele>
        <time>2016-01-16T12:07:55Z</time>
      </trkpt>
      <trkpt lat="44.43227" lon="1.02175">
        <ele>209.7</ele>
        <time>2016-01-16T12:08:09Z</time>
      </trkpt>
      <trkpt lat="44.4322" lon="1.02174">
        <ele>209.22</ele>
        <time>2016-01-16T12:08:12Z</time>
      </trkpt>
      <trkpt lat="44.4322" lon="1.02173">
        <ele>209.7</ele>
        <time>2016-01-16T12:08:24Z</time>
      </trkpt>
      <trkpt lat="44.4322" lon="1.02173">
        <ele>210.19</ele>
        <time>2016-01-16T12:08:47Z</time>
      </trkpt>
      <trkpt lat="44.43219" lon="1.02173">
        <ele>210.67</ele>
        <time>2016-01-16T12:09:14Z</time>
      </trkpt>
      <trkpt lat="44.4322" lon="1.02173">
        <ele>210.67</ele>
        <time>2016-01-16T12:09:31Z</time>
      </trkpt>
      <trkpt lat="44.4322" lon="1.02172">
        <ele>210.67</ele>
        <time>2016-01-16T12:09:44Z</time>
      </trkpt>
      <trkpt lat="44.4322" lon="1.02172">
        <ele>210.19</ele>
        <time>2016-01-16T12:10:08Z</time>
      </trkpt>
      <trkpt lat="44.43219" lon="1.02172">
        <ele>209.7</ele>
        <time>2016-01-16T12:10:22Z</time>
      </trkpt>
      <trkpt lat="44.43219" lon="1.0217">
        <ele>209.7</ele>
        <time>2016-01-16T12:10:23Z</time>
      </trkpt>
      <trkpt lat="44.43192" lon="1.02143">
        <ele>208.74</ele>
        <time>2016-01-16T12:10:34Z</time>
      </trkpt>
      <trkpt lat="44.4319" lon="1.02138">
        <ele>208.74</ele>
        <time>2016-01-16T12:10:35Z</time>
      </trkpt>
      <trkpt lat="44.43185" lon="1.02115">
        <ele>206.82</ele>
        <time>2016-01-16T12:10:39Z</time>
      </trkpt>
      <trkpt lat="44.43175" lon="1.02045">
        <ele>205.86</ele>
        <time>2016-01-16T12:10:53Z</time>
      </trkpt>
      <trkpt lat="44.43173" lon="1.02015">
        <ele>206.34</ele>
        <time>2016-01-16T12:11:06Z</time>
      </trkpt>
      <trkpt lat="44.43174" lon="1.01991">
        <ele>206.34</ele>
        <time>2016-01-16T12:11:19Z</time>
      </trkpt>
      <trkpt lat="44.43174" lon="1.01984">
        <ele>207.3</ele>
        <time>2016-01-16T12:11:24Z</time>
      </trkpt>
      <trkpt lat="44.4317" lon="1.0197">
        <ele>207.78</ele>
        <time>2016-01-16T12:11:32Z</time>
      </trkpt>
      <trkpt lat="44.43153" lon="1.01951">
        <ele>209.7</ele>
        <time>2016-01-16T12:11:47Z</time>
      </trkpt>
      <trkpt lat="44.43138" lon="1.01934">
        <ele>211.15</ele>
        <time>2016-01-16T12:12:00Z</time>
      </trkpt>
      <trkpt lat="44.43125" lon="1.01918">
        <ele>212.11</ele>
        <time>2016-01-16T12:12:12Z</time>
      </trkpt>
      <trkpt lat="44.431" lon="1.01889">
        <ele>211.63</ele>
        <time>2016-01-16T12:12:27Z</time>
      </trkpt>
      <trkpt lat="44.43098" lon="1.01888">
        <ele>211.63</ele>
        <time>2016-01-16T12:12:28Z</time>
      </trkpt>
      <trkpt lat="44.43097" lon="1.01886">
        <ele>211.63</ele>
        <time>2016-01-16T12:12:29Z</time>
      </trkpt>
      <trkpt lat="44.43095" lon="1.01884">
        <ele>211.63</ele>
        <time>2016-01-16T12:12:30Z</time>
      </trkpt>
      <trkpt lat="44.43076" lon="1.0186">
        <ele>212.11</ele>
        <time>2016-01-16T12:12:44Z</time>
      </trkpt>
      <trkpt lat="44.43065" lon="1.01847">
        <ele>211.63</ele>
        <time>2016-01-16T12:12:52Z</time>
      </trkpt>
      <trkpt lat="44.43064" lon="1.01845">
        <ele>211.63</ele>
        <time>2016-01-16T12:12:53Z</time>
      </trkpt>
      <trkpt lat="44.43039" lon="1.01813">
        <ele>211.63</ele>
        <time>2016-01-16T12:13:10Z</time>
      </trkpt>
      <trkpt lat="44.43016" lon="1.01784">
        <ele>213.07</ele>
        <time>2016-01-16T12:13:26Z</time>
      </trkpt>
      <trkpt lat="44.43015" lon="1.01782">
        <ele>213.55</ele>
        <time>2016-01-16T12:13:27Z</time>
      </trkpt>
      <trkpt lat="44.43015" lon="1.0178">
        <ele>213.55</ele>
        <time>2016-01-16T12:13:28Z</time>
      </trkpt>
      <trkpt lat="44.43014" lon="1.01778">
        <ele>213.07</ele>
        <time>2016-01-16T12:13:29Z</time>
      </trkpt>
      <trkpt lat="44.42999" lon="1.01743">
        <ele>212.11</ele>
        <time>2016-01-16T12:13:44Z</time>
      </trkpt>
      <trkpt lat="44.42982" lon="1.01712">
        <ele>213.55</ele>
        <time>2016-01-16T12:13:59Z</time>
      </trkpt>
      <trkpt lat="44.42976" lon="1.01701">
        <ele>214.51</ele>
        <time>2016-01-16T12:14:04Z</time>
      </trkpt>
      <trkpt lat="44.42975" lon="1.01699">
        <ele>214.99</ele>
        <time>2016-01-16T12:14:05Z</time>
      </trkpt>
      <trkpt lat="44.42961" lon="1.01674">
        <ele>216.43</ele>
        <time>2016-01-16T12:14:18Z</time>
      </trkpt>
      <trkpt lat="44.4296" lon="1.01673">
        <ele>216.43</ele>
        <time>2016-01-16T12:14:19Z</time>
      </trkpt>
      <trkpt lat="44.42958" lon="1.01672">
        <ele>216.91</ele>
        <time>2016-01-16T12:14:20Z</time>
      </trkpt>
      <trkpt lat="44.42958" lon="1.0167">
        <ele>216.91</ele>
        <time>2016-01-16T12:14:21Z</time>
      </trkpt>
      <trkpt lat="44.42958" lon="1.01668">
        <ele>217.4</ele>
        <time>2016-01-16T12:14:22Z</time>
      </trkpt>
      <trkpt lat="44.42957" lon="1.01666">
        <ele>217.4</ele>
        <time>2016-01-16T12:14:23Z</time>
      </trkpt>
      <trkpt lat="44.42956" lon="1.01665">
        <ele>217.88</ele>
        <time>2016-01-16T12:14:24Z</time>
      </trkpt>
      <trkpt lat="44.42955" lon="1.01664">
        <ele>217.88</ele>
        <time>2016-01-16T12:14:25Z</time>
      </trkpt>
      <trkpt lat="44.42954" lon="1.01663">
        <ele>218.36</ele>
        <time>2016-01-16T12:14:26Z</time>
      </trkpt>
      <trkpt lat="44.42953" lon="1.01661">
        <ele>218.36</ele>
        <time>2016-01-16T12:14:27Z</time>
      </trkpt>
      <trkpt lat="44.42952" lon="1.01659">
        <ele>218.36</ele>
        <time>2016-01-16T12:14:28Z</time>
      </trkpt>
      <trkpt lat="44.42951" lon="1.01657">
        <ele>218.36</ele>
        <time>2016-01-16T12:14:29Z</time>
      </trkpt>
      <trkpt lat="44.4295" lon="1.01655">
        <ele>218.84</ele>
        <time>2016-01-16T12:14:30Z</time>
      </trkpt>
      <trkpt lat="44.42949" lon="1.01653">
        <ele>218.84</ele>
        <time>2016-01-16T12:14:31Z</time>
      </trkpt>
      <trkpt lat="44.42947" lon="1.01651">
        <ele>218.84</ele>
        <time>2016-01-16T12:14:32Z</time>
      </trkpt>
      <trkpt lat="44.42933" lon="1.01633">
        <ele>221.24</ele>
        <time>2016-01-16T12:14:46Z</time>
      </trkpt>
      <trkpt lat="44.42932" lon="1.01631">
        <ele>221.24</ele>
        <time>2016-01-16T12:14:47Z</time>
      </trkpt>
      <trkpt lat="44.42932" lon="1.0163">
        <ele>221.24</ele>
        <time>2016-01-16T12:14:48Z</time>
      </trkpt>
      <trkpt lat="44.42931" lon="1.01629">
        <ele>221.24</ele>
        <time>2016-01-16T12:14:49Z</time>
      </trkpt>
      <trkpt lat="44.4293" lon="1.01627">
        <ele>221.72</ele>
        <time>2016-01-16T12:14:50Z</time>
      </trkpt>
      <trkpt lat="44.42929" lon="1.01626">
        <ele>221.72</ele>
        <time>2016-01-16T12:14:51Z</time>
      </trkpt>
      <trkpt lat="44.42928" lon="1.01626">
        <ele>221.72</ele>
        <time>2016-01-16T12:14:52Z</time>
      </trkpt>
      <trkpt lat="44.42927" lon="1.01626">
        <ele>221.72</ele>
        <time>2016-01-16T12:14:53Z</time>
      </trkpt>
      <trkpt lat="44.42925" lon="1.01626">
        <ele>221.72</ele>
        <time>2016-01-16T12:14:54Z</time>
      </trkpt>
      <trkpt lat="44.42924" lon="1.01624">
        <ele>221.72</ele>
        <time>2016-01-16T12:14:55Z</time>
      </trkpt>
      <trkpt lat="44.42923" lon="1.01623">
        <ele>221.72</ele>
        <time>2016-01-16T12:14:56Z</time>
      </trkpt>
      <trkpt lat="44.42921" lon="1.01622">
        <ele>221.72</ele>
        <time>2016-01-16T12:14:57Z</time>
      </trkpt>
      <trkpt lat="44.4292" lon="1.01621">
        <ele>221.24</ele>
        <time>2016-01-16T12:14:58Z</time>
      </trkpt>
      <trkpt lat="44.42919" lon="1.01621">
        <ele>221.24</ele>
        <time>2016-01-16T12:14:59Z</time>
      </trkpt>
      <trkpt lat="44.42917" lon="1.01619">
        <ele>221.24</ele>
        <time>2016-01-16T12:15:00Z</time>
      </trkpt>
      <trkpt lat="44.42917" lon="1.01618">
        <ele>220.76</ele>
        <time>2016-01-16T12:15:01Z</time>
      </trkpt>
      <trkpt lat="44.42916" lon="1.01616">
        <ele>220.76</ele>
        <time>2016-01-16T12:15:02Z</time>
      </trkpt>
      <trkpt lat="44.42915" lon="1.01614">
        <ele>220.76</ele>
        <time>2016-01-16T12:15:03Z</time>
      </trkpt>
      <trkpt lat="44.42913" lon="1.01611">
        <ele>220.76</ele>
        <time>2016-01-16T12:15:07Z</time>
      </trkpt>
      <trkpt lat="44.42912" lon="1.01607">
        <ele>221.24</ele>
        <time>2016-01-16T12:15:11Z</time>
      </trkpt>
      <trkpt lat="44.42908" lon="1.01586">
        <ele>222.68</ele>
        <time>2016-01-16T12:15:25Z</time>
      </trkpt>
      <trkpt lat="44.42907" lon="1.01564">
        <ele>223.64</ele>
        <time>2016-01-16T12:15:36Z</time>
      </trkpt>
      <trkpt lat="44.42914" lon="1.01532">
        <ele>226.05</ele>
        <time>2016-01-16T12:15:50Z</time>
      </trkpt>
      <trkpt lat="44.42916" lon="1.01526">
        <ele>226.53</ele>
        <time>2016-01-16T12:15:53Z</time>
      </trkpt>
      <trkpt lat="44.42917" lon="1.01524">
        <ele>226.53</ele>
        <time>2016-01-16T12:15:54Z</time>
      </trkpt>
      <trkpt lat="44.42918" lon="1.01522">
        <ele>226.53</ele>
        <time>2016-01-16T12:15:55Z</time>
      </trkpt>
      <trkpt lat="44.42921" lon="1.01496">
        <ele>226.53</ele>
        <time>2016-01-16T12:16:10Z</time>
      </trkpt>
      <trkpt lat="44.42921" lon="1.01495">
        <ele>226.05</ele>
        <time>2016-01-16T12:16:20Z</time>
      </trkpt>
      <trkpt lat="44.42922" lon="1.01492">
        <ele>225.57</ele>
        <time>2016-01-16T12:16:45Z</time>
      </trkpt>
      <trkpt lat="44.42922" lon="1.01492">
        <ele>224.61</ele>
        <time>2016-01-16T12:17:06Z</time>
      </trkpt>
      <trkpt lat="44.42922" lon="1.01492">
        <ele>225.09</ele>
        <time>2016-01-16T12:17:33Z</time>
      </trkpt>
      <trkpt lat="44.42923" lon="1.01491">
        <ele>224.61</ele>
        <time>2016-01-16T12:17:59Z</time>
      </trkpt>
      <trkpt lat="44.42923" lon="1.01492">
        <ele>224.61</ele>
        <time>2016-01-16T12:18:29Z</time>
      </trkpt>
      <trkpt lat="44.42923" lon="1.01491">
        <ele>223.64</ele>
        <time>2016-01-16T12:19:06Z</time>
      </trkpt>
      <trkpt lat="44.42923" lon="1.01491">
        <ele>223.16</ele>
        <time>2016-01-16T12:19:25Z</time>
      </trkpt>
      <trkpt lat="44.42923" lon="1.01492">
        <ele>223.16</ele>
        <time>2016-01-16T12:19:47Z</time>
      </trkpt>
      <trkpt lat="44.42922" lon="1.01492">
        <ele>223.16</ele>
        <time>2016-01-16T12:20:06Z</time>
      </trkpt>
      <trkpt lat="44.42922" lon="1.01493">
        <ele>223.16</ele>
        <time>2016-01-16T12:20:33Z</time>
      </trkpt>
      <trkpt lat="44.42923" lon="1.01494">
        <ele>223.64</ele>
        <time>2016-01-16T12:20:53Z</time>
      </trkpt>
      <trkpt lat="44.42923" lon="1.01495">
        <ele>224.61</ele>
        <time>2016-01-16T12:21:25Z</time>
      </trkpt>
      <trkpt lat="44.42922" lon="1.01495">
        <ele>225.09</ele>
        <time>2016-01-16T12:21:57Z</time>
      </trkpt>
      <trkpt lat="44.42921" lon="1.01494">
        <ele>224.61</ele>
        <time>2016-01-16T12:22:26Z</time>
      </trkpt>
      <trkpt lat="44.42922" lon="1.01495">
        <ele>224.61</ele>
        <time>2016-01-16T12:22:50Z</time>
      </trkpt>
      <trkpt lat="44.42923" lon="1.01494">
        <ele>225.57</ele>
        <time>2016-01-16T12:23:20Z</time>
      </trkpt>
      <trkpt lat="44.42923" lon="1.01494">
        <ele>226.05</ele>
        <time>2016-01-16T12:23:53Z</time>
      </trkpt>
      <trkpt lat="44.42922" lon="1.01493">
        <ele>225.09</ele>
        <time>2016-01-16T12:24:27Z</time>
      </trkpt>
      <trkpt lat="44.42922" lon="1.01492">
        <ele>222.68</ele>
        <time>2016-01-16T12:25:08Z</time>
      </trkpt>
      <trkpt lat="44.42922" lon="1.01492">
        <ele>224.61</ele>
        <time>2016-01-16T12:25:53Z</time>
      </trkpt>
      <trkpt lat="44.42922" lon="1.01492">
        <ele>225.09</ele>
        <time>2016-01-16T12:26:20Z</time>
      </trkpt>
      <trkpt lat="44.42922" lon="1.01491">
        <ele>224.61</ele>
        <time>2016-01-16T12:26:47Z</time>
      </trkpt>
      <trkpt lat="44.42922" lon="1.01491">
        <ele>225.09</ele>
        <time>2016-01-16T12:27:19Z</time>
      </trkpt>
      <trkpt lat="44.42923" lon="1.0149">
        <ele>224.61</ele>
        <time>2016-01-16T12:27:43Z</time>
      </trkpt>
      <trkpt lat="44.42924" lon="1.0149">
        <ele>224.61</ele>
        <time>2016-01-16T12:28:16Z</time>
      </trkpt>
      <trkpt lat="44.42923" lon="1.0149">
        <ele>225.57</ele>
        <time>2016-01-16T12:28:39Z</time>
      </trkpt>
      <trkpt lat="44.42923" lon="1.01489">
        <ele>225.09</ele>
        <time>2016-01-16T12:29:14Z</time>
      </trkpt>
      <trkpt lat="44.42923" lon="1.01488">
        <ele>224.61</ele>
        <time>2016-01-16T12:29:39Z</time>
      </trkpt>
      <trkpt lat="44.42924" lon="1.01488">
        <ele>225.57</ele>
        <time>2016-01-16T12:30:06Z</time>
      </trkpt>
      <trkpt lat="44.42924" lon="1.01488">
        <ele>225.09</ele>
        <time>2016-01-16T12:30:33Z</time>
      </trkpt>
      <trkpt lat="44.42923" lon="1.01489">
        <ele>225.09</ele>
        <time>2016-01-16T12:31:01Z</time>
      </trkpt>
      <trkpt lat="44.42922" lon="1.01489">
        <ele>225.57</ele>
        <time>2016-01-16T12:31:30Z</time>
      </trkpt>
      <trkpt lat="44.42923" lon="1.01489">
        <ele>225.57</ele>
        <time>2016-01-16T12:32:02Z</time>
      </trkpt>
      <trkpt lat="44.42924" lon="1.01488">
        <ele>225.09</ele>
        <time>2016-01-16T12:32:25Z</time>
      </trkpt>
      <trkpt lat="44.42924" lon="1.01488">
        <ele>224.61</ele>
        <time>2016-01-16T12:32:53Z</time>
      </trkpt>
      <trkpt lat="44.42924" lon="1.01488">
        <ele>225.09</ele>
        <time>2016-01-16T12:33:15Z</time>
      </trkpt>
      <trkpt lat="44.42924" lon="1.01489">
        <ele>225.09</ele>
        <time>2016-01-16T12:33:43Z</time>
      </trkpt>
      <trkpt lat="44.42924" lon="1.0149">
        <ele>224.61</ele>
        <time>2016-01-16T12:34:14Z</time>
      </trkpt>
      <trkpt lat="44.42924" lon="1.01491">
        <ele>224.61</ele>
        <time>2016-01-16T12:34:43Z</time>
      </trkpt>
      <trkpt lat="44.42925" lon="1.01491">
        <ele>225.09</ele>
        <time>2016-01-16T12:35:05Z</time>
      </trkpt>
      <trkpt lat="44.42924" lon="1.0149">
        <ele>223.64</ele>
        <time>2016-01-16T12:35:33Z</time>
      </trkpt>
      <trkpt lat="44.42924" lon="1.01488">
        <ele>223.16</ele>
        <time>2016-01-16T12:36:04Z</time>
      </trkpt>
      <trkpt lat="44.42924" lon="1.01488">
        <ele>222.68</ele>
        <time>2016-01-16T12:36:37Z</time>
      </trkpt>
      <trkpt lat="44.42924" lon="1.01488">
        <ele>223.64</ele>
        <time>2016-01-16T12:36:58Z</time>
      </trkpt>
      <trkpt lat="44.42925" lon="1.01488">
        <ele>223.64</ele>
        <time>2016-01-16T12:37:22Z</time>
      </trkpt>
      <trkpt lat="44.42925" lon="1.01488">
        <ele>222.68</ele>
        <time>2016-01-16T12:37:49Z</time>
      </trkpt>
      <trkpt lat="44.42924" lon="1.01487">
        <ele>221.72</ele>
        <time>2016-01-16T12:38:15Z</time>
      </trkpt>
      <trkpt lat="44.42924" lon="1.01488">
        <ele>222.2</ele>
        <time>2016-01-16T12:38:45Z</time>
      </trkpt>
      <trkpt lat="44.42924" lon="1.01489">
        <ele>222.68</ele>
        <time>2016-01-16T12:39:03Z</time>
      </trkpt>
      <trkpt lat="44.42923" lon="1.0149">
        <ele>223.16</ele>
        <time>2016-01-16T12:39:29Z</time>
      </trkpt>
      <trkpt lat="44.42923" lon="1.01492">
        <ele>223.64</ele>
        <time>2016-01-16T12:40:00Z</time>
      </trkpt>
      <trkpt lat="44.42923" lon="1.01492">
        <ele>224.61</ele>
        <time>2016-01-16T12:40:24Z</time>
      </trkpt>
      <trkpt lat="44.42922" lon="1.01494">
        <ele>226.05</ele>
        <time>2016-01-16T12:40:48Z</time>
      </trkpt>
      <trkpt lat="44.42921" lon="1.01494">
        <ele>226.05</ele>
        <time>2016-01-16T12:41:14Z</time>
      </trkpt>
      <trkpt lat="44.42921" lon="1.01494">
        <ele>227.01</ele>
        <time>2016-01-16T12:41:41Z</time>
      </trkpt>
      <trkpt lat="44.42922" lon="1.01495">
        <ele>227.01</ele>
        <time>2016-01-16T12:42:13Z</time>
      </trkpt>
      <trkpt lat="44.42921" lon="1.01495">
        <ele>227.49</ele>
        <time>2016-01-16T12:42:31Z</time>
      </trkpt>
      <trkpt lat="44.42922" lon="1.01494">
        <ele>227.01</ele>
        <time>2016-01-16T12:42:59Z</time>
      </trkpt>
      <trkpt lat="44.42922" lon="1.01494">
        <ele>227.01</ele>
        <time>2016-01-16T12:43:20Z</time>
      </trkpt>
      <trkpt lat="44.42922" lon="1.01496">
        <ele>226.05</ele>
        <time>2016-01-16T12:43:49Z</time>
      </trkpt>
      <trkpt lat="44.42922" lon="1.01497">
        <ele>226.53</ele>
        <time>2016-01-16T12:44:13Z</time>
      </trkpt>
      <trkpt lat="44.42921" lon="1.01497">
        <ele>227.01</ele>
        <time>2016-01-16T12:44:35Z</time>
      </trkpt>
      <trkpt lat="44.42921" lon="1.01496">
        <ele>227.49</ele>
        <time>2016-01-16T12:45:03Z</time>
      </trkpt>
      <trkpt lat="44.42921" lon="1.01497">
        <ele>227.97</ele>
        <time>2016-01-16T12:45:30Z</time>
      </trkpt>
      <trkpt lat="44.4292" lon="1.01498">
        <ele>227.97</ele>
        <time>2016-01-16T12:46:00Z</time>
      </trkpt>
      <trkpt lat="44.4292" lon="1.01498">
        <ele>227.97</ele>
        <time>2016-01-16T12:46:22Z</time>
      </trkpt>
      <trkpt lat="44.4292" lon="1.01497">
        <ele>227.49</ele>
        <time>2016-01-16T12:46:43Z</time>
      </trkpt>
      <trkpt lat="44.4292" lon="1.01497">
        <ele>227.49</ele>
        <time>2016-01-16T12:47:04Z</time>
      </trkpt>
      <trkpt lat="44.42921" lon="1.01497">
        <ele>227.49</ele>
        <time>2016-01-16T12:47:22Z</time>
      </trkpt>
      <trkpt lat="44.42921" lon="1.01497">
        <ele>227.49</ele>
        <time>2016-01-16T12:47:49Z</time>
      </trkpt>
      <trkpt lat="44.4292" lon="1.01496">
        <ele>227.49</ele>
        <time>2016-01-16T12:48:18Z</time>
      </trkpt>
      <trkpt lat="44.42921" lon="1.01498">
        <ele>227.49</ele>
        <time>2016-01-16T12:48:47Z</time>
      </trkpt>
      <trkpt lat="44.42921" lon="1.01496">
        <ele>226.05</ele>
        <time>2016-01-16T12:49:13Z</time>
      </trkpt>
      <trkpt lat="44.42922" lon="1.01495">
        <ele>226.05</ele>
        <time>2016-01-16T12:49:36Z</time>
      </trkpt>
      <trkpt lat="44.42923" lon="1.01496">
        <ele>226.05</ele>
        <time>2016-01-16T12:50:05Z</time>
      </trkpt>
      <trkpt lat="44.42922" lon="1.01495">
        <ele>226.53</ele>
        <time>2016-01-16T12:50:31Z</time>
      </trkpt>
      <trkpt lat="44.42922" lon="1.01494">
        <ele>227.49</ele>
        <time>2016-01-16T12:51:04Z</time>
      </trkpt>
      <trkpt lat="44.42921" lon="1.01494">
        <ele>227.49</ele>
        <time>2016-01-16T12:51:29Z</time>
      </trkpt>
      <trkpt lat="44.42921" lon="1.01495">
        <ele>227.49</ele>
        <time>2016-01-16T12:51:57Z</time>
      </trkpt>
      <trkpt lat="44.42922" lon="1.01494">
        <ele>227.97</ele>
        <time>2016-01-16T12:52:29Z</time>
      </trkpt>
      <trkpt lat="44.42923" lon="1.01494">
        <ele>227.49</ele>
        <time>2016-01-16T12:52:49Z</time>
      </trkpt>
      <trkpt lat="44.42923" lon="1.01493">
        <ele>227.97</ele>
        <time>2016-01-16T12:53:14Z</time>
      </trkpt>
      <trkpt lat="44.42923" lon="1.01493">
        <ele>227.97</ele>
        <time>2016-01-16T12:53:33Z</time>
      </trkpt>
      <trkpt lat="44.42923" lon="1.01494">
        <ele>228.45</ele>
        <time>2016-01-16T12:53:53Z</time>
      </trkpt>
      <trkpt lat="44.42923" lon="1.01493">
        <ele>228.93</ele>
        <time>2016-01-16T12:54:40Z</time>
      </trkpt>
      <trkpt lat="44.42924" lon="1.01493">
        <ele>229.41</ele>
        <time>2016-01-16T12:55:04Z</time>
      </trkpt>
      <trkpt lat="44.42924" lon="1.01494">
        <ele>229.41</ele>
        <time>2016-01-16T12:55:22Z</time>
      </trkpt>
      <trkpt lat="44.42924" lon="1.01493">
        <ele>229.89</ele>
        <time>2016-01-16T12:55:40Z</time>
      </trkpt>
      <trkpt lat="44.42924" lon="1.01494">
        <ele>229.89</ele>
        <time>2016-01-16T12:56:02Z</time>
      </trkpt>
      <trkpt lat="44.42924" lon="1.01495">
        <ele>230.85</ele>
        <time>2016-01-16T12:56:19Z</time>
      </trkpt>
      <trkpt lat="44.42923" lon="1.01496">
        <ele>230.37</ele>
        <time>2016-01-16T12:56:40Z</time>
      </trkpt>
      <trkpt lat="44.42924" lon="1.01496">
        <ele>230.85</ele>
        <time>2016-01-16T12:56:57Z</time>
      </trkpt>
      <trkpt lat="44.42924" lon="1.01496">
        <ele>231.33</ele>
        <time>2016-01-16T12:57:21Z</time>
      </trkpt>
      <trkpt lat="44.42924" lon="1.01497">
        <ele>230.85</ele>
        <time>2016-01-16T12:57:40Z</time>
      </trkpt>
      <trkpt lat="44.42922" lon="1.01497">
        <ele>230.37</ele>
        <time>2016-01-16T12:58:07Z</time>
      </trkpt>
      <trkpt lat="44.42922" lon="1.01498">
        <ele>230.37</ele>
        <time>2016-01-16T12:58:34Z</time>
      </trkpt>
      <trkpt lat="44.42922" lon="1.01498">
        <ele>229.89</ele>
        <time>2016-01-16T12:58:55Z</time>
      </trkpt>
      <trkpt lat="44.42926" lon="1.01499">
        <ele>231.33</ele>
        <time>2016-01-16T12:59:08Z</time>
      </trkpt>
      <trkpt lat="44.42929" lon="1.01498">
        <ele>231.33</ele>
        <time>2016-01-16T12:59:13Z</time>
      </trkpt>
      <trkpt lat="44.4293" lon="1.01498">
        <ele>231.81</ele>
        <time>2016-01-16T12:59:14Z</time>
      </trkpt>
      <trkpt lat="44.42932" lon="1.015">
        <ele>232.3</ele>
        <time>2016-01-16T12:59:17Z</time>
      </trkpt>
      <trkpt lat="44.42933" lon="1.01501">
        <ele>232.78</ele>
        <time>2016-01-16T12:59:18Z</time>
      </trkpt>
      <trkpt lat="44.42932" lon="1.01503">
        <ele>232.78</ele>
        <time>2016-01-16T12:59:19Z</time>
      </trkpt>
      <trkpt lat="44.42931" lon="1.01504">
        <ele>232.78</ele>
        <time>2016-01-16T12:59:20Z</time>
      </trkpt>
      <trkpt lat="44.4293" lon="1.01505">
        <ele>232.78</ele>
        <time>2016-01-16T12:59:21Z</time>
      </trkpt>
      <trkpt lat="44.42929" lon="1.01506">
        <ele>232.3</ele>
        <time>2016-01-16T12:59:22Z</time>
      </trkpt>
      <trkpt lat="44.42927" lon="1.0151">
        <ele>231.33</ele>
        <time>2016-01-16T12:59:26Z</time>
      </trkpt>
      <trkpt lat="44.42928" lon="1.01511">
        <ele>230.85</ele>
        <time>2016-01-16T12:59:27Z</time>
      </trkpt>
      <trkpt lat="44.42929" lon="1.01513">
        <ele>231.33</ele>
        <time>2016-01-16T12:59:29Z</time>
      </trkpt>
      <trkpt lat="44.42928" lon="1.01514">
        <ele>231.33</ele>
        <time>2016-01-16T12:59:30Z</time>
      </trkpt>
      <trkpt lat="44.42927" lon="1.01513">
        <ele>230.85</ele>
        <time>2016-01-16T12:59:31Z</time>
      </trkpt>
      <trkpt lat="44.42927" lon="1.01512">
        <ele>230.85</ele>
        <time>2016-01-16T12:59:32Z</time>
      </trkpt>
      <trkpt lat="44.42927" lon="1.01509">
        <ele>230.85</ele>
        <time>2016-01-16T12:59:34Z</time>
      </trkpt>
      <trkpt lat="44.42928" lon="1.01508">
        <ele>229.89</ele>
        <time>2016-01-16T12:59:36Z</time>
      </trkpt>
      <trkpt lat="44.42929" lon="1.01508">
        <ele>229.41</ele>
        <time>2016-01-16T12:59:37Z</time>
      </trkpt>
      <trkpt lat="44.4293" lon="1.01508">
        <ele>229.41</ele>
        <time>2016-01-16T12:59:38Z</time>
      </trkpt>
      <trkpt lat="44.42931" lon="1.01508">
        <ele>229.89</ele>
        <time>2016-01-16T12:59:39Z</time>
      </trkpt>
      <trkpt lat="44.42932" lon="1.01509">
        <ele>229.89</ele>
        <time>2016-01-16T12:59:40Z</time>
      </trkpt>
      <trkpt lat="44.42932" lon="1.01511">
        <ele>229.89</ele>
        <time>2016-01-16T12:59:41Z</time>
      </trkpt>
      <trkpt lat="44.42931" lon="1.01516">
        <ele>229.89</ele>
        <time>2016-01-16T12:59:47Z</time>
      </trkpt>
      <trkpt lat="44.42927" lon="1.0151">
        <ele>230.37</ele>
        <time>2016-01-16T12:59:55Z</time>
      </trkpt>
      <trkpt lat="44.42928" lon="1.01508">
        <ele>230.37</ele>
        <time>2016-01-16T12:59:56Z</time>
      </trkpt>
      <trkpt lat="44.42928" lon="1.01507">
        <ele>230.37</ele>
        <time>2016-01-16T12:59:57Z</time>
      </trkpt>
      <trkpt lat="44.42928" lon="1.01506">
        <ele>230.37</ele>
        <time>2016-01-16T12:59:58Z</time>
      </trkpt>
      <trkpt lat="44.42929" lon="1.01504">
        <ele>228.93</ele>
        <time>2016-01-16T13:00:08Z</time>
      </trkpt>
      <trkpt lat="44.42932" lon="1.01503">
        <ele>229.89</ele>
        <time>2016-01-16T13:00:11Z</time>
      </trkpt>
      <trkpt lat="44.42933" lon="1.01504">
        <ele>229.89</ele>
        <time>2016-01-16T13:00:12Z</time>
      </trkpt>
      <trkpt lat="44.42933" lon="1.01505">
        <ele>229.89</ele>
        <time>2016-01-16T13:00:13Z</time>
      </trkpt>
      <trkpt lat="44.42932" lon="1.01506">
        <ele>230.37</ele>
        <time>2016-01-16T13:00:14Z</time>
      </trkpt>
      <trkpt lat="44.42922" lon="1.01522">
        <ele>229.89</ele>
        <time>2016-01-16T13:00:27Z</time>
      </trkpt>
      <trkpt lat="44.42918" lon="1.0153">
        <ele>231.33</ele>
        <time>2016-01-16T13:00:40Z</time>
      </trkpt>
      <trkpt lat="44.42917" lon="1.0153">
        <ele>231.33</ele>
        <time>2016-01-16T13:00:43Z</time>
      </trkpt>
      <trkpt lat="44.42916" lon="1.01529">
        <ele>231.33</ele>
        <time>2016-01-16T13:00:44Z</time>
      </trkpt>
      <trkpt lat="44.42921" lon="1.01519">
        <ele>229.89</ele>
        <time>2016-01-16T13:00:51Z</time>
      </trkpt>
      <trkpt lat="44.42926" lon="1.01504">
        <ele>227.01</ele>
        <time>2016-01-16T13:01:05Z</time>
      </trkpt>
      <trkpt lat="44.42928" lon="1.01504">
        <ele>227.01</ele>
        <time>2016-01-16T13:01:08Z</time>
      </trkpt>
      <trkpt lat="44.42932" lon="1.01501">
        <ele>227.49</ele>
        <time>2016-01-16T13:01:13Z</time>
      </trkpt>
      <trkpt lat="44.4293" lon="1.01497">
        <ele>227.49</ele>
        <time>2016-01-16T13:01:17Z</time>
      </trkpt>
      <trkpt lat="44.4293" lon="1.01489">
        <ele>226.05</ele>
        <time>2016-01-16T13:01:24Z</time>
      </trkpt>
      <trkpt lat="44.42936" lon="1.01485">
        <ele>226.53</ele>
        <time>2016-01-16T13:01:30Z</time>
      </trkpt>
      <trkpt lat="44.42939" lon="1.01486">
        <ele>227.49</ele>
        <time>2016-01-16T13:01:38Z</time>
      </trkpt>
      <trkpt lat="44.42935" lon="1.01487">
        <ele>227.49</ele>
        <time>2016-01-16T13:01:41Z</time>
      </trkpt>
      <trkpt lat="44.42929" lon="1.015">
        <ele>227.97</ele>
        <time>2016-01-16T13:01:56Z</time>
      </trkpt>
      <trkpt lat="44.42929" lon="1.015">
        <ele>227.49</ele>
        <time>2016-01-16T13:02:11Z</time>
      </trkpt>
      <trkpt lat="44.42929" lon="1.01501">
        <ele>227.01</ele>
        <time>2016-01-16T13:02:33Z</time>
      </trkpt>
      <trkpt lat="44.42929" lon="1.01502">
        <ele>227.49</ele>
        <time>2016-01-16T13:02:51Z</time>
      </trkpt>
      <trkpt lat="44.4293" lon="1.01503">
        <ele>227.01</ele>
        <time>2016-01-16T13:03:07Z</time>
      </trkpt>
      <trkpt lat="44.4293" lon="1.01503">
        <ele>227.49</ele>
        <time>2016-01-16T13:03:28Z</time>
      </trkpt>
      <trkpt lat="44.4293" lon="1.01504">
        <ele>227.49</ele>
        <time>2016-01-16T13:03:46Z</time>
      </trkpt>
      <trkpt lat="44.42931" lon="1.01505">
        <ele>227.01</ele>
        <time>2016-01-16T13:04:14Z</time>
      </trkpt>
      <trkpt lat="44.42931" lon="1.01505">
        <ele>227.01</ele>
        <time>2016-01-16T13:04:38Z</time>
      </trkpt>
      <trkpt lat="44.4293" lon="1.01505">
        <ele>227.01</ele>
        <time>2016-01-16T13:04:57Z</time>
      </trkpt>
      <trkpt lat="44.4293" lon="1.01505">
        <ele>227.01</ele>
        <time>2016-01-16T13:05:14Z</time>
      </trkpt>
      <trkpt lat="44.4293" lon="1.01505">
        <ele>226.53</ele>
        <time>2016-01-16T13:05:34Z</time>
      </trkpt>
      <trkpt lat="44.42928" lon="1.01509">
        <ele>227.97</ele>
        <time>2016-01-16T13:05:47Z</time>
      </trkpt>
      <trkpt lat="44.42925" lon="1.01517">
        <ele>228.45</ele>
        <time>2016-01-16T13:05:59Z</time>
      </trkpt>
      <trkpt lat="44.42925" lon="1.01518">
        <ele>227.49</ele>
        <time>2016-01-16T13:06:20Z</time>
      </trkpt>
      <trkpt lat="44.42923" lon="1.01519">
        <ele>227.01</ele>
        <time>2016-01-16T13:06:32Z</time>
      </trkpt>
      <trkpt lat="44.42919" lon="1.01518">
        <ele>227.49</ele>
        <time>2016-01-16T13:06:43Z</time>
      </trkpt>
      <trkpt lat="44.42918" lon="1.01519">
        <ele>226.53</ele>
        <time>2016-01-16T13:07:00Z</time>
      </trkpt>
      <trkpt lat="44.42918" lon="1.0152">
        <ele>225.57</ele>
        <time>2016-01-16T13:07:17Z</time>
      </trkpt>
      <trkpt lat="44.42918" lon="1.0152">
        <ele>224.61</ele>
        <time>2016-01-16T13:07:34Z</time>
      </trkpt>
      <trkpt lat="44.42917" lon="1.0152">
        <ele>224.12</ele>
        <time>2016-01-16T13:07:53Z</time>
      </trkpt>
      <trkpt lat="44.42917" lon="1.0152">
        <ele>224.12</ele>
        <time>2016-01-16T13:08:11Z</time>
      </trkpt>
      <trkpt lat="44.42918" lon="1.01521">
        <ele>224.61</ele>
        <time>2016-01-16T13:08:43Z</time>
      </trkpt>
      <trkpt lat="44.42916" lon="1.01526">
        <ele>225.57</ele>
        <time>2016-01-16T13:08:47Z</time>
      </trkpt>
      <trkpt lat="44.42906" lon="1.01559">
        <ele>227.01</ele>
        <time>2016-01-16T13:08:59Z</time>
      </trkpt>
      <trkpt lat="44.4291" lon="1.01604">
        <ele>224.61</ele>
        <time>2016-01-16T13:09:10Z</time>
      </trkpt>
      <trkpt lat="44.42914" lon="1.01614">
        <ele>223.64</ele>
        <time>2016-01-16T13:09:12Z</time>
      </trkpt>
      <trkpt lat="44.42917" lon="1.01619">
        <ele>223.16</ele>
        <time>2016-01-16T13:09:13Z</time>
      </trkpt>
      <trkpt lat="44.4292" lon="1.01623">
        <ele>222.68</ele>
        <time>2016-01-16T13:09:14Z</time>
      </trkpt>
      <trkpt lat="44.42923" lon="1.01626">
        <ele>222.68</ele>
        <time>2016-01-16T13:09:15Z</time>
      </trkpt>
      <trkpt lat="44.42927" lon="1.0163">
        <ele>222.2</ele>
        <time>2016-01-16T13:09:16Z</time>
      </trkpt>
      <trkpt lat="44.42936" lon="1.01637">
        <ele>221.24</ele>
        <time>2016-01-16T13:09:18Z</time>
      </trkpt>
      <trkpt lat="44.42941" lon="1.01643">
        <ele>220.76</ele>
        <time>2016-01-16T13:09:19Z</time>
      </trkpt>
      <trkpt lat="44.42998" lon="1.01739">
        <ele>214.51</ele>
        <time>2016-01-16T13:09:31Z</time>
      </trkpt>
      <trkpt lat="44.43008" lon="1.0176">
        <ele>214.51</ele>
        <time>2016-01-16T13:09:34Z</time>
      </trkpt>
      <trkpt lat="44.43011" lon="1.01767">
        <ele>214.03</ele>
        <time>2016-01-16T13:09:35Z</time>
      </trkpt>
      <trkpt lat="44.43012" lon="1.01774">
        <ele>214.03</ele>
        <time>2016-01-16T13:09:36Z</time>
      </trkpt>
      <trkpt lat="44.43012" lon="1.01781">
        <ele>214.03</ele>
        <time>2016-01-16T13:09:37Z</time>
      </trkpt>
      <trkpt lat="44.43009" lon="1.01789">
        <ele>214.03</ele>
        <time>2016-01-16T13:09:38Z</time>
      </trkpt>
      <trkpt lat="44.43007" lon="1.01796">
        <ele>213.55</ele>
        <time>2016-01-16T13:09:39Z</time>
      </trkpt>
      <trkpt lat="44.43005" lon="1.01803">
        <ele>213.55</ele>
        <time>2016-01-16T13:09:40Z</time>
      </trkpt>
      <trkpt lat="44.42969" lon="1.01917">
        <ele>210.67</ele>
        <time>2016-01-16T13:09:55Z</time>
      </trkpt>
      <trkpt lat="44.42938" lon="1.02019">
        <ele>211.15</ele>
        <time>2016-01-16T13:10:11Z</time>
      </trkpt>
      <trkpt lat="44.42917" lon="1.02089">
        <ele>213.07</ele>
        <time>2016-01-16T13:10:26Z</time>
      </trkpt>
      <trkpt lat="44.4292" lon="1.02144">
        <ele>215.95</ele>
        <time>2016-01-16T13:10:39Z</time>
      </trkpt>
      <trkpt lat="44.42928" lon="1.02214">
        <ele>219.32</ele>
        <time>2016-01-16T13:10:54Z</time>
      </trkpt>
      <trkpt lat="44.42912" lon="1.02279">
        <ele>221.24</ele>
        <time>2016-01-16T13:11:10Z</time>
      </trkpt>
      <trkpt lat="44.42883" lon="1.02336">
        <ele>224.61</ele>
        <time>2016-01-16T13:11:25Z</time>
      </trkpt>
      <trkpt lat="44.42847" lon="1.02402">
        <ele>227.49</ele>
        <time>2016-01-16T13:11:43Z</time>
      </trkpt>
      <trkpt lat="44.42827" lon="1.02459">
        <ele>230.37</ele>
        <time>2016-01-16T13:11:57Z</time>
      </trkpt>
      <trkpt lat="44.42815" lon="1.02529">
        <ele>231.81</ele>
        <time>2016-01-16T13:12:12Z</time>
      </trkpt>
      <trkpt lat="44.42817" lon="1.02607">
        <ele>232.78</ele>
        <time>2016-01-16T13:12:28Z</time>
      </trkpt>
      <trkpt lat="44.42826" lon="1.02701">
        <ele>234.7</ele>
        <time>2016-01-16T13:12:47Z</time>
      </trkpt>
      <trkpt lat="44.42824" lon="1.02784">
        <ele>236.14</ele>
        <time>2016-01-16T13:13:04Z</time>
      </trkpt>
      <trkpt lat="44.42801" lon="1.02847">
        <ele>236.62</ele>
        <time>2016-01-16T13:13:17Z</time>
      </trkpt>
      <trkpt lat="44.42757" lon="1.0293">
        <ele>234.7</ele>
        <time>2016-01-16T13:13:34Z</time>
      </trkpt>
      <trkpt lat="44.42741" lon="1.02961">
        <ele>234.22</ele>
        <time>2016-01-16T13:13:40Z</time>
      </trkpt>
      <trkpt lat="44.42689" lon="1.03056">
        <ele>233.74</ele>
        <time>2016-01-16T13:13:57Z</time>
      </trkpt>
      <trkpt lat="44.42647" lon="1.03133">
        <ele>234.22</ele>
        <time>2016-01-16T13:14:11Z</time>
      </trkpt>
      <trkpt lat="44.42644" lon="1.03139">
        <ele>234.22</ele>
        <time>2016-01-16T13:14:12Z</time>
      </trkpt>
      <trkpt lat="44.42597" lon="1.03226">
        <ele>234.7</ele>
        <time>2016-01-16T13:14:30Z</time>
      </trkpt>
      <trkpt lat="44.42557" lon="1.03304">
        <ele>236.14</ele>
        <time>2016-01-16T13:14:47Z</time>
      </trkpt>
      <trkpt lat="44.42506" lon="1.03397">
        <ele>237.58</ele>
        <time>2016-01-16T13:15:06Z</time>
      </trkpt>
      <trkpt lat="44.42473" lon="1.03461">
        <ele>238.54</ele>
        <time>2016-01-16T13:15:20Z</time>
      </trkpt>
      <trkpt lat="44.42471" lon="1.03466">
        <ele>238.54</ele>
        <time>2016-01-16T13:15:21Z</time>
      </trkpt>
      <trkpt lat="44.42424" lon="1.03553">
        <ele>237.58</ele>
        <time>2016-01-16T13:15:37Z</time>
      </trkpt>
      <trkpt lat="44.42411" lon="1.03567">
        <ele>237.1</ele>
        <time>2016-01-16T13:15:40Z</time>
      </trkpt>
      <trkpt lat="44.42406" lon="1.03571">
        <ele>237.1</ele>
        <time>2016-01-16T13:15:41Z</time>
      </trkpt>
      <trkpt lat="44.42401" lon="1.03574">
        <ele>237.1</ele>
        <time>2016-01-16T13:15:42Z</time>
      </trkpt>
      <trkpt lat="44.42396" lon="1.03577">
        <ele>236.62</ele>
        <time>2016-01-16T13:15:43Z</time>
      </trkpt>
      <trkpt lat="44.42391" lon="1.03579">
        <ele>236.62</ele>
        <time>2016-01-16T13:15:44Z</time>
      </trkpt>
      <trkpt lat="44.42386" lon="1.0358">
        <ele>236.62</ele>
        <time>2016-01-16T13:15:45Z</time>
      </trkpt>
      <trkpt lat="44.42382" lon="1.03582">
        <ele>236.14</ele>
        <time>2016-01-16T13:15:46Z</time>
      </trkpt>
      <trkpt lat="44.42377" lon="1.03582">
        <ele>236.14</ele>
        <time>2016-01-16T13:15:47Z</time>
      </trkpt>
      <trkpt lat="44.42372" lon="1.03582">
        <ele>236.62</ele>
        <time>2016-01-16T13:15:48Z</time>
      </trkpt>
      <trkpt lat="44.42312" lon="1.0358">
        <ele>234.7</ele>
        <time>2016-01-16T13:16:00Z</time>
      </trkpt>
      <trkpt lat="44.42263" lon="1.0358">
        <ele>235.66</ele>
        <time>2016-01-16T13:16:10Z</time>
      </trkpt>
      <trkpt lat="44.42259" lon="1.03579">
        <ele>235.66</ele>
        <time>2016-01-16T13:16:11Z</time>
      </trkpt>
      <trkpt lat="44.42184" lon="1.03606">
        <ele>238.54</ele>
        <time>2016-01-16T13:16:28Z</time>
      </trkpt>
      <trkpt lat="44.42158" lon="1.03634">
        <ele>239.02</ele>
        <time>2016-01-16T13:16:35Z</time>
      </trkpt>
      <trkpt lat="44.42133" lon="1.03668">
        <ele>239.99</ele>
        <time>2016-01-16T13:16:43Z</time>
      </trkpt>
      <trkpt lat="44.4213" lon="1.03673">
        <ele>239.51</ele>
        <time>2016-01-16T13:16:44Z</time>
      </trkpt>
      <trkpt lat="44.42119" lon="1.03685">
        <ele>238.06</ele>
        <time>2016-01-16T13:16:48Z</time>
      </trkpt>
      <trkpt lat="44.42117" lon="1.03685">
        <ele>238.06</ele>
        <time>2016-01-16T13:16:49Z</time>
      </trkpt>
      <trkpt lat="44.42112" lon="1.03687">
        <ele>238.06</ele>
        <time>2016-01-16T13:16:57Z</time>
      </trkpt>
      <trkpt lat="44.42112" lon="1.03688">
        <ele>239.02</ele>
        <time>2016-01-16T13:17:24Z</time>
      </trkpt>
      <trkpt lat="44.42112" lon="1.0369">
        <ele>238.06</ele>
        <time>2016-01-16T13:17:52Z</time>
      </trkpt>
      <trkpt lat="44.4211" lon="1.03691">
        <ele>238.06</ele>
        <time>2016-01-16T13:18:13Z</time>
      </trkpt>
      <trkpt lat="44.4211" lon="1.03691">
        <ele>238.06</ele>
        <time>2016-01-16T13:18:16Z</time>
      </trkpt>
      <trkpt lat="44.42109" lon="1.03692">
        <ele>238.06</ele>
        <time>2016-01-16T13:18:17Z</time>
      </trkpt>
      <trkpt lat="44.42108" lon="1.03693">
        <ele>238.06</ele>
        <time>2016-01-16T13:18:18Z</time>
      </trkpt>
      <trkpt lat="44.42107" lon="1.03695">
        <ele>238.06</ele>
        <time>2016-01-16T13:18:19Z</time>
      </trkpt>
      <trkpt lat="44.42105" lon="1.03697">
        <ele>238.06</ele>
        <time>2016-01-16T13:18:20Z</time>
      </trkpt>
      <trkpt lat="44.42103" lon="1.037">
        <ele>238.54</ele>
        <time>2016-01-16T13:18:21Z</time>
      </trkpt>
      <trkpt lat="44.42075" lon="1.03732">
        <ele>240.47</ele>
        <time>2016-01-16T13:18:31Z</time>
      </trkpt>
      <trkpt lat="44.42049" lon="1.03763">
        <ele>243.35</ele>
        <time>2016-01-16T13:18:38Z</time>
      </trkpt>
      <trkpt lat="44.42046" lon="1.03768">
        <ele>243.83</ele>
        <time>2016-01-16T13:18:39Z</time>
      </trkpt>
      <trkpt lat="44.42042" lon="1.03773">
        <ele>243.83</ele>
        <time>2016-01-16T13:18:40Z</time>
      </trkpt>
      <trkpt lat="44.42017" lon="1.03808">
        <ele>243.35</ele>
        <time>2016-01-16T13:18:47Z</time>
      </trkpt>
      <trkpt lat="44.41982" lon="1.03841">
        <ele>242.39</ele>
        <time>2016-01-16T13:18:58Z</time>
      </trkpt>
      <trkpt lat="44.41956" lon="1.03833">
        <ele>241.43</ele>
        <time>2016-01-16T13:19:07Z</time>
      </trkpt>
      <trkpt lat="44.41938" lon="1.03812">
        <ele>239.02</ele>
        <time>2016-01-16T13:19:17Z</time>
      </trkpt>
      <trkpt lat="44.41923" lon="1.03795">
        <ele>237.1</ele>
        <time>2016-01-16T13:19:27Z</time>
      </trkpt>
      <trkpt lat="44.41906" lon="1.0378">
        <ele>236.14</ele>
        <time>2016-01-16T13:19:31Z</time>
      </trkpt>
      <trkpt lat="44.4189" lon="1.03745">
        <ele>235.18</ele>
        <time>2016-01-16T13:19:37Z</time>
      </trkpt>
      <trkpt lat="44.41884" lon="1.03732">
        <ele>234.22</ele>
        <time>2016-01-16T13:19:39Z</time>
      </trkpt>
      <trkpt lat="44.41856" lon="1.03707">
        <ele>230.37</ele>
        <time>2016-01-16T13:19:45Z</time>
      </trkpt>
      <trkpt lat="44.41839" lon="1.03687">
        <ele>228.45</ele>
        <time>2016-01-16T13:19:49Z</time>
      </trkpt>
      <trkpt lat="44.41818" lon="1.03645">
        <ele>225.09</ele>
        <time>2016-01-16T13:19:56Z</time>
      </trkpt>
      <trkpt lat="44.41806" lon="1.03611">
        <ele>222.2</ele>
        <time>2016-01-16T13:20:01Z</time>
      </trkpt>
      <trkpt lat="44.41796" lon="1.03594">
        <ele>220.28</ele>
        <time>2016-01-16T13:20:04Z</time>
      </trkpt>
      <trkpt lat="44.41761" lon="1.03576">
        <ele>216.43</ele>
        <time>2016-01-16T13:20:11Z</time>
      </trkpt>
      <trkpt lat="44.41749" lon="1.03573">
        <ele>215.95</ele>
        <time>2016-01-16T13:20:13Z</time>
      </trkpt>
      <trkpt lat="44.41707" lon="1.03554">
        <ele>215.95</ele>
        <time>2016-01-16T13:20:20Z</time>
      </trkpt>
      <trkpt lat="44.41685" lon="1.03536">
        <ele>215.95</ele>
        <time>2016-01-16T13:20:24Z</time>
      </trkpt>
      <trkpt lat="44.41675" lon="1.0353">
        <ele>215.95</ele>
        <time>2016-01-16T13:20:26Z</time>
      </trkpt>
      <trkpt lat="44.41655" lon="1.03526">
        <ele>216.43</ele>
        <time>2016-01-16T13:20:30Z</time>
      </trkpt>
      <trkpt lat="44.41596" lon="1.03517">
        <ele>214.51</ele>
        <time>2016-01-16T13:20:38Z</time>
      </trkpt>
      <trkpt lat="44.41569" lon="1.03504">
        <ele>211.63</ele>
        <time>2016-01-16T13:20:42Z</time>
      </trkpt>
      <trkpt lat="44.41556" lon="1.03466">
        <ele>208.26</ele>
        <time>2016-01-16T13:20:48Z</time>
      </trkpt>
      <trkpt lat="44.41531" lon="1.03444">
        <ele>203.46</ele>
        <time>2016-01-16T13:20:56Z</time>
      </trkpt>
      <trkpt lat="44.415" lon="1.03401">
        <ele>200.57</ele>
        <time>2016-01-16T13:21:08Z</time>
      </trkpt>
      <trkpt lat="44.41474" lon="1.03382">
        <ele>200.09</ele>
        <time>2016-01-16T13:21:15Z</time>
      </trkpt>
      <trkpt lat="44.41436" lon="1.03373">
        <ele>199.13</ele>
        <time>2016-01-16T13:21:24Z</time>
      </trkpt>
      <trkpt lat="44.41398" lon="1.0339">
        <ele>197.69</ele>
        <time>2016-01-16T13:21:34Z</time>
      </trkpt>
      <trkpt lat="44.41391" lon="1.03395">
        <ele>197.69</ele>
        <time>2016-01-16T13:21:36Z</time>
      </trkpt>
      <trkpt lat="44.41364" lon="1.03438">
        <ele>198.65</ele>
        <time>2016-01-16T13:21:47Z</time>
      </trkpt>
      <trkpt lat="44.41354" lon="1.03447">
        <ele>199.61</ele>
        <time>2016-01-16T13:21:50Z</time>
      </trkpt>
      <trkpt lat="44.41321" lon="1.03448">
        <ele>202.49</ele>
        <time>2016-01-16T13:21:59Z</time>
      </trkpt>
      <trkpt lat="44.41296" lon="1.0341">
        <ele>196.73</ele>
        <time>2016-01-16T13:22:09Z</time>
      </trkpt>
      <trkpt lat="44.41293" lon="1.03353">
        <ele>186.63</ele>
        <time>2016-01-16T13:22:20Z</time>
      </trkpt>
      <trkpt lat="44.41299" lon="1.03313">
        <ele>182.31</ele>
        <time>2016-01-16T13:22:28Z</time>
      </trkpt>
      <trkpt lat="44.41298" lon="1.03309">
        <ele>181.83</ele>
        <time>2016-01-16T13:22:29Z</time>
      </trkpt>
      <trkpt lat="44.41292" lon="1.03285">
        <ele>179.9</ele>
        <time>2016-01-16T13:22:34Z</time>
      </trkpt>
      <trkpt lat="44.4126" lon="1.03244">
        <ele>177.98</ele>
        <time>2016-01-16T13:22:45Z</time>
      </trkpt>
      <trkpt lat="44.41235" lon="1.03243">
        <ele>179.42</ele>
        <time>2016-01-16T13:22:53Z</time>
      </trkpt>
      <trkpt lat="44.41227" lon="1.03224">
        <ele>179.9</ele>
        <time>2016-01-16T13:23:00Z</time>
      </trkpt>
      <trkpt lat="44.412" lon="1.03208">
        <ele>182.31</ele>
        <time>2016-01-16T13:23:10Z</time>
      </trkpt>
      <trkpt lat="44.41199" lon="1.03204">
        <ele>181.83</ele>
        <time>2016-01-16T13:23:13Z</time>
      </trkpt>
      <trkpt lat="44.41171" lon="1.03192">
        <ele>179.42</ele>
        <time>2016-01-16T13:23:28Z</time>
      </trkpt>
      <trkpt lat="44.41145" lon="1.03179">
        <ele>179.9</ele>
        <time>2016-01-16T13:23:39Z</time>
      </trkpt>
      <trkpt lat="44.41136" lon="1.03157">
        <ele>176.54</ele>
        <time>2016-01-16T13:23:48Z</time>
      </trkpt>
      <trkpt lat="44.41144" lon="1.03139">
        <ele>174.14</ele>
        <time>2016-01-16T13:23:57Z</time>
      </trkpt>
      <trkpt lat="44.4115" lon="1.03131">
        <ele>173.17</ele>
        <time>2016-01-16T13:24:10Z</time>
      </trkpt>
      <trkpt lat="44.41152" lon="1.03129">
        <ele>173.17</ele>
        <time>2016-01-16T13:24:12Z</time>
      </trkpt>
      <trkpt lat="44.41171" lon="1.03114">
        <ele>175.58</ele>
        <time>2016-01-16T13:24:22Z</time>
      </trkpt>
      <trkpt lat="44.41178" lon="1.03109">
        <ele>175.58</ele>
        <time>2016-01-16T13:24:30Z</time>
      </trkpt>
      <trkpt lat="44.41187" lon="1.031">
        <ele>174.14</ele>
        <time>2016-01-16T13:24:43Z</time>
      </trkpt>
      <trkpt lat="44.41189" lon="1.03098">
        <ele>170.29</ele>
        <time>2016-01-16T13:25:09Z</time>
      </trkpt>
      <trkpt lat="44.41195" lon="1.03092">
        <ele>171.25</ele>
        <time>2016-01-16T13:25:14Z</time>
      </trkpt>
      <trkpt lat="44.41211" lon="1.03073">
        <ele>176.06</ele>
        <time>2016-01-16T13:25:22Z</time>
      </trkpt>
      <trkpt lat="44.41242" lon="1.03044">
        <ele>178.94</ele>
        <time>2016-01-16T13:25:35Z</time>
      </trkpt>
      <trkpt lat="44.41259" lon="1.03028">
        <ele>178.94</ele>
        <time>2016-01-16T13:25:43Z</time>
      </trkpt>
      <trkpt lat="44.41285" lon="1.02993">
        <ele>180.87</ele>
        <time>2016-01-16T13:25:55Z</time>
      </trkpt>
      <trkpt lat="44.41308" lon="1.0296">
        <ele>178.46</ele>
        <time>2016-01-16T13:26:06Z</time>
      </trkpt>
      <trkpt lat="44.41311" lon="1.02956">
        <ele>177.5</ele>
        <time>2016-01-16T13:26:08Z</time>
      </trkpt>
      <trkpt lat="44.4132" lon="1.02906">
        <ele>175.58</ele>
        <time>2016-01-16T13:26:20Z</time>
      </trkpt>
      <trkpt lat="44.41314" lon="1.02894">
        <ele>174.14</ele>
        <time>2016-01-16T13:26:25Z</time>
      </trkpt>
      <trkpt lat="44.41313" lon="1.02889">
        <ele>174.14</ele>
        <time>2016-01-16T13:26:27Z</time>
      </trkpt>
      <trkpt lat="44.41289" lon="1.02878">
        <ele>173.17</ele>
        <time>2016-01-16T13:26:36Z</time>
      </trkpt>
      <trkpt lat="44.41286" lon="1.02876">
        <ele>173.17</ele>
        <time>2016-01-16T13:26:37Z</time>
      </trkpt>
      <trkpt lat="44.41275" lon="1.02872">
        <ele>173.17</ele>
        <time>2016-01-16T13:26:41Z</time>
      </trkpt>
      <trkpt lat="44.41249" lon="1.02873">
        <ele>173.66</ele>
        <time>2016-01-16T13:26:47Z</time>
      </trkpt>
      <trkpt lat="44.4124" lon="1.02866">
        <ele>175.1</ele>
        <time>2016-01-16T13:26:50Z</time>
      </trkpt>
      <trkpt lat="44.4123" lon="1.02864">
        <ele>175.1</ele>
        <time>2016-01-16T13:26:53Z</time>
      </trkpt>
      <trkpt lat="44.41203" lon="1.02842">
        <ele>178.94</ele>
        <time>2016-01-16T13:27:01Z</time>
      </trkpt>
      <trkpt lat="44.41194" lon="1.02833">
        <ele>179.9</ele>
        <time>2016-01-16T13:27:05Z</time>
      </trkpt>
      <trkpt lat="44.41207" lon="1.02735">
        <ele>175.1</ele>
        <time>2016-01-16T13:27:14Z</time>
      </trkpt>
      <trkpt lat="44.41184" lon="1.02706">
        <ele>171.25</ele>
        <time>2016-01-16T13:27:24Z</time>
      </trkpt>
      <trkpt lat="44.41198" lon="1.02648">
        <ele>168.85</ele>
        <time>2016-01-16T13:27:37Z</time>
      </trkpt>
      <trkpt lat="44.4122" lon="1.02592">
        <ele>166.93</ele>
        <time>2016-01-16T13:27:49Z</time>
      </trkpt>
      <trkpt lat="44.41225" lon="1.02535">
        <ele>164.04</ele>
        <time>2016-01-16T13:28:00Z</time>
      </trkpt>
      <trkpt lat="44.41208" lon="1.02464">
        <ele>163.08</ele>
        <time>2016-01-16T13:28:12Z</time>
      </trkpt>
      <trkpt lat="44.41187" lon="1.02425">
        <ele>164.04</ele>
        <time>2016-01-16T13:28:21Z</time>
      </trkpt>
      <trkpt lat="44.41183" lon="1.02367">
        <ele>167.41</ele>
        <time>2016-01-16T13:28:33Z</time>
      </trkpt>
      <trkpt lat="44.41181" lon="1.02352">
        <ele>168.37</ele>
        <time>2016-01-16T13:28:37Z</time>
      </trkpt>
      <trkpt lat="44.41174" lon="1.0234">
        <ele>169.81</ele>
        <time>2016-01-16T13:28:41Z</time>
      </trkpt>
      <trkpt lat="44.41167" lon="1.02332">
        <ele>171.73</ele>
        <time>2016-01-16T13:28:46Z</time>
      </trkpt>
      <trkpt lat="44.4116" lon="1.0231">
        <ele>173.17</ele>
        <time>2016-01-16T13:28:58Z</time>
      </trkpt>
      <trkpt lat="44.41155" lon="1.02304">
        <ele>174.62</ele>
        <time>2016-01-16T13:29:13Z</time>
      </trkpt>
      <trkpt lat="44.41154" lon="1.02297">
        <ele>174.62</ele>
        <time>2016-01-16T13:29:23Z</time>
      </trkpt>
      <trkpt lat="44.41154" lon="1.02292">
        <ele>173.66</ele>
        <time>2016-01-16T13:29:37Z</time>
      </trkpt>
      <trkpt lat="44.41157" lon="1.02292">
        <ele>171.73</ele>
        <time>2016-01-16T13:30:01Z</time>
      </trkpt>
      <trkpt lat="44.41157" lon="1.02292">
        <ele>172.21</ele>
        <time>2016-01-16T13:30:29Z</time>
      </trkpt>
      <trkpt lat="44.41159" lon="1.0229">
        <ele>173.17</ele>
        <time>2016-01-16T13:30:43Z</time>
      </trkpt>
      <trkpt lat="44.4116" lon="1.02289">
        <ele>173.66</ele>
        <time>2016-01-16T13:31:10Z</time>
      </trkpt>
      <trkpt lat="44.4116" lon="1.02288">
        <ele>173.17</ele>
        <time>2016-01-16T13:31:37Z</time>
      </trkpt>
      <trkpt lat="44.4116" lon="1.02288">
        <ele>173.66</ele>
        <time>2016-01-16T13:32:07Z</time>
      </trkpt>
      <trkpt lat="44.4116" lon="1.02287">
        <ele>172.21</ele>
        <time>2016-01-16T13:32:27Z</time>
      </trkpt>
      <trkpt lat="44.41158" lon="1.02286">
        <ele>172.21</ele>
        <time>2016-01-16T13:32:51Z</time>
      </trkpt>
      <trkpt lat="44.41165" lon="1.02273">
        <ele>168.85</ele>
        <time>2016-01-16T13:33:02Z</time>
      </trkpt>
      <trkpt lat="44.41165" lon="1.02268">
        <ele>166.93</ele>
        <time>2016-01-16T13:33:05Z</time>
      </trkpt>
      <trkpt lat="44.41165" lon="1.02265">
        <ele>165.48</ele>
        <time>2016-01-16T13:33:07Z</time>
      </trkpt>
      <trkpt lat="44.41175" lon="1.02243">
        <ele>164.52</ele>
        <time>2016-01-16T13:33:20Z</time>
      </trkpt>
      <trkpt lat="44.41178" lon="1.02239">
        <ele>165</ele>
        <time>2016-01-16T13:33:48Z</time>
      </trkpt>
      <trkpt lat="44.4119" lon="1.02211">
        <ele>165</ele>
        <time>2016-01-16T13:33:58Z</time>
      </trkpt>
      <trkpt lat="44.41215" lon="1.02175">
        <ele>164.04</ele>
        <time>2016-01-16T13:34:10Z</time>
      </trkpt>
      <trkpt lat="44.41246" lon="1.02148">
        <ele>165</ele>
        <time>2016-01-16T13:34:19Z</time>
      </trkpt>
      <trkpt lat="44.4128" lon="1.02123">
        <ele>163.08</ele>
        <time>2016-01-16T13:34:30Z</time>
      </trkpt>
      <trkpt lat="44.41291" lon="1.02114">
        <ele>160.68</ele>
        <time>2016-01-16T13:34:34Z</time>
      </trkpt>
      <trkpt lat="44.41313" lon="1.02077">
        <ele>161.64</ele>
        <time>2016-01-16T13:34:44Z</time>
      </trkpt>
      <trkpt lat="44.4134" lon="1.02035">
        <ele>162.6</ele>
        <time>2016-01-16T13:34:54Z</time>
      </trkpt>
      <trkpt lat="44.41356" lon="1.0199">
        <ele>163.08</ele>
        <time>2016-01-16T13:35:05Z</time>
      </trkpt>
      <trkpt lat="44.41361" lon="1.01971">
        <ele>164.04</ele>
        <time>2016-01-16T13:35:11Z</time>
      </trkpt>
      <trkpt lat="44.41369" lon="1.01948">
        <ele>165.96</ele>
        <time>2016-01-16T13:35:19Z</time>
      </trkpt>
      <trkpt lat="44.41364" lon="1.01937">
        <ele>167.89</ele>
        <time>2016-01-16T13:35:25Z</time>
      </trkpt>
      <trkpt lat="44.41342" lon="1.01919">
        <ele>175.1</ele>
        <time>2016-01-16T13:35:38Z</time>
      </trkpt>
      <trkpt lat="44.41314" lon="1.0191">
        <ele>180.87</ele>
        <time>2016-01-16T13:35:51Z</time>
      </trkpt>
      <trkpt lat="44.41273" lon="1.01904">
        <ele>180.38</ele>
        <time>2016-01-16T13:36:09Z</time>
      </trkpt>
      <trkpt lat="44.41244" lon="1.0189">
        <ele>183.75</ele>
        <time>2016-01-16T13:36:21Z</time>
      </trkpt>
      <trkpt lat="44.41216" lon="1.01879">
        <ele>185.67</ele>
        <time>2016-01-16T13:36:33Z</time>
      </trkpt>
      <trkpt lat="44.41195" lon="1.01859">
        <ele>188.56</ele>
        <time>2016-01-16T13:36:43Z</time>
      </trkpt>
      <trkpt lat="44.41161" lon="1.01845">
        <ele>190.48</ele>
        <time>2016-01-16T13:36:57Z</time>
      </trkpt>
      <trkpt lat="44.4113" lon="1.01815">
        <ele>188.08</ele>
        <time>2016-01-16T13:37:08Z</time>
      </trkpt>
      <trkpt lat="44.41124" lon="1.01807">
        <ele>187.11</ele>
        <time>2016-01-16T13:37:10Z</time>
      </trkpt>
      <trkpt lat="44.41103" lon="1.01786">
        <ele>185.19</ele>
        <time>2016-01-16T13:37:15Z</time>
      </trkpt>
      <trkpt lat="44.41062" lon="1.01765">
        <ele>182.31</ele>
        <time>2016-01-16T13:37:23Z</time>
      </trkpt>
      <trkpt lat="44.41042" lon="1.0176">
        <ele>180.87</ele>
        <time>2016-01-16T13:37:27Z</time>
      </trkpt>
      <trkpt lat="44.41024" lon="1.01752">
        <ele>179.9</ele>
        <time>2016-01-16T13:37:30Z</time>
      </trkpt>
      <trkpt lat="44.41019" lon="1.01748">
        <ele>179.9</ele>
        <time>2016-01-16T13:37:31Z</time>
      </trkpt>
      <trkpt lat="44.40981" lon="1.01715">
        <ele>180.38</ele>
        <time>2016-01-16T13:37:42Z</time>
      </trkpt>
      <trkpt lat="44.40946" lon="1.01691">
        <ele>179.9</ele>
        <time>2016-01-16T13:37:55Z</time>
      </trkpt>
      <trkpt lat="44.40938" lon="1.01688">
        <ele>177.98</ele>
        <time>2016-01-16T13:38:06Z</time>
      </trkpt>
      <trkpt lat="44.40937" lon="1.01688">
        <ele>176.06</ele>
        <time>2016-01-16T13:38:24Z</time>
      </trkpt>
      <trkpt lat="44.40936" lon="1.01688">
        <ele>174.14</ele>
        <time>2016-01-16T13:38:44Z</time>
      </trkpt>
      <trkpt lat="44.40936" lon="1.01687">
        <ele>173.17</ele>
        <time>2016-01-16T13:38:59Z</time>
      </trkpt>
      <trkpt lat="44.40936" lon="1.01687">
        <ele>173.17</ele>
        <time>2016-01-16T13:39:15Z</time>
      </trkpt>
      <trkpt lat="44.40936" lon="1.01686">
        <ele>173.17</ele>
        <time>2016-01-16T13:39:30Z</time>
      </trkpt>
      <trkpt lat="44.40936" lon="1.01685">
        <ele>174.62</ele>
        <time>2016-01-16T13:39:44Z</time>
      </trkpt>
      <trkpt lat="44.40914" lon="1.01675">
        <ele>172.69</ele>
        <time>2016-01-16T13:39:54Z</time>
      </trkpt>
      <trkpt lat="44.40893" lon="1.01658">
        <ele>170.77</ele>
        <time>2016-01-16T13:40:00Z</time>
      </trkpt>
      <trkpt lat="44.40889" lon="1.01655">
        <ele>170.29</ele>
        <time>2016-01-16T13:40:01Z</time>
      </trkpt>
      <trkpt lat="44.40885" lon="1.01651">
        <ele>169.81</ele>
        <time>2016-01-16T13:40:02Z</time>
      </trkpt>
      <trkpt lat="44.40861" lon="1.01619">
        <ele>169.81</ele>
        <time>2016-01-16T13:40:09Z</time>
      </trkpt>
      <trkpt lat="44.40857" lon="1.01615">
        <ele>169.81</ele>
        <time>2016-01-16T13:40:10Z</time>
      </trkpt>
      <trkpt lat="44.40853" lon="1.0161">
        <ele>169.81</ele>
        <time>2016-01-16T13:40:11Z</time>
      </trkpt>
      <trkpt lat="44.40843" lon="1.01593">
        <ele>170.29</ele>
        <time>2016-01-16T13:40:14Z</time>
      </trkpt>
      <trkpt lat="44.40839" lon="1.01587">
        <ele>170.29</ele>
        <time>2016-01-16T13:40:15Z</time>
      </trkpt>
      <trkpt lat="44.40818" lon="1.0155">
        <ele>170.29</ele>
        <time>2016-01-16T13:40:21Z</time>
      </trkpt>
      <trkpt lat="44.40803" lon="1.01513">
        <ele>167.89</ele>
        <time>2016-01-16T13:40:26Z</time>
      </trkpt>
      <trkpt lat="44.408" lon="1.01505">
        <ele>167.41</ele>
        <time>2016-01-16T13:40:27Z</time>
      </trkpt>
      <trkpt lat="44.40792" lon="1.01485">
        <ele>165.48</ele>
        <time>2016-01-16T13:40:30Z</time>
      </trkpt>
      <trkpt lat="44.4079" lon="1.01477">
        <ele>164.52</ele>
        <time>2016-01-16T13:40:31Z</time>
      </trkpt>
      <trkpt lat="44.40788" lon="1.0147">
        <ele>163.56</ele>
        <time>2016-01-16T13:40:32Z</time>
      </trkpt>
      <trkpt lat="44.40781" lon="1.01435">
        <ele>159.72</ele>
        <time>2016-01-16T13:40:37Z</time>
      </trkpt>
      <trkpt lat="44.40776" lon="1.01394">
        <ele>155.39</ele>
        <time>2016-01-16T13:40:42Z</time>
      </trkpt>
      <trkpt lat="44.40762" lon="1.01295">
        <ele>151.06</ele>
        <time>2016-01-16T13:40:56Z</time>
      </trkpt>
      <trkpt lat="44.40745" lon="1.01216">
        <ele>150.1</ele>
        <time>2016-01-16T13:41:10Z</time>
      </trkpt>
      <trkpt lat="44.40724" lon="1.01152">
        <ele>150.58</ele>
        <time>2016-01-16T13:41:23Z</time>
      </trkpt>
      <trkpt lat="44.40706" lon="1.01095">
        <ele>152.51</ele>
        <time>2016-01-16T13:41:36Z</time>
      </trkpt>
      <trkpt lat="44.40683" lon="1.01029">
        <ele>153.47</ele>
        <time>2016-01-16T13:41:50Z</time>
      </trkpt>
      <trkpt lat="44.40681" lon="1.00983">
        <ele>153.47</ele>
        <time>2016-01-16T13:41:59Z</time>
      </trkpt>
      <trkpt lat="44.40688" lon="1.00934">
        <ele>152.51</ele>
        <time>2016-01-16T13:42:07Z</time>
      </trkpt>
      <trkpt lat="44.4069" lon="1.00913">
        <ele>152.51</ele>
        <time>2016-01-16T13:42:10Z</time>
      </trkpt>
      <trkpt lat="44.40689" lon="1.009">
        <ele>152.99</ele>
        <time>2016-01-16T13:42:12Z</time>
      </trkpt>
      <trkpt lat="44.40684" lon="1.00857">
        <ele>153.47</ele>
        <time>2016-01-16T13:42:23Z</time>
      </trkpt>
      <trkpt lat="44.40682" lon="1.00857">
        <ele>156.83</ele>
        <time>2016-01-16T13:42:44Z</time>
      </trkpt>
      <trkpt lat="44.40682" lon="1.00856">
        <ele>157.79</ele>
        <time>2016-01-16T13:43:04Z</time>
      </trkpt>
      <trkpt lat="44.40682" lon="1.00856">
        <ele>157.79</ele>
        <time>2016-01-16T13:43:26Z</time>
      </trkpt>
      <trkpt lat="44.40675" lon="1.00824">
        <ele>155.87</ele>
        <time>2016-01-16T13:43:35Z</time>
      </trkpt>
      <trkpt lat="44.40678" lon="1.00784">
        <ele>153.47</ele>
        <time>2016-01-16T13:43:43Z</time>
      </trkpt>
      <trkpt lat="44.4068" lon="1.00778">
        <ele>152.99</ele>
        <time>2016-01-16T13:43:44Z</time>
      </trkpt>
      <trkpt lat="44.40684" lon="1.00768">
        <ele>152.03</ele>
        <time>2016-01-16T13:43:46Z</time>
      </trkpt>
      <trkpt lat="44.40687" lon="1.00761">
        <ele>151.54</ele>
        <time>2016-01-16T13:43:47Z</time>
      </trkpt>
      <trkpt lat="44.4069" lon="1.00754">
        <ele>151.06</ele>
        <time>2016-01-16T13:43:48Z</time>
      </trkpt>
      <trkpt lat="44.40693" lon="1.00747">
        <ele>151.06</ele>
        <time>2016-01-16T13:43:49Z</time>
      </trkpt>
      <trkpt lat="44.40697" lon="1.00739">
        <ele>150.58</ele>
        <time>2016-01-16T13:43:50Z</time>
      </trkpt>
      <trkpt lat="44.40699" lon="1.00731">
        <ele>150.1</ele>
        <time>2016-01-16T13:43:51Z</time>
      </trkpt>
      <trkpt lat="44.40701" lon="1.00724">
        <ele>150.1</ele>
        <time>2016-01-16T13:43:52Z</time>
      </trkpt>
      <trkpt lat="44.40701" lon="1.00718">
        <ele>150.1</ele>
        <time>2016-01-16T13:43:53Z</time>
      </trkpt>
      <trkpt lat="44.40698" lon="1.00712">
        <ele>150.1</ele>
        <time>2016-01-16T13:43:54Z</time>
      </trkpt>
      <trkpt lat="44.40695" lon="1.00708">
        <ele>149.62</ele>
        <time>2016-01-16T13:43:55Z</time>
      </trkpt>
      <trkpt lat="44.40681" lon="1.00677">
        <ele>147.7</ele>
        <time>2016-01-16T13:44:00Z</time>
      </trkpt>
      <trkpt lat="44.40678" lon="1.00663">
        <ele>147.7</ele>
        <time>2016-01-16T13:44:02Z</time>
      </trkpt>
      <trkpt lat="44.40677" lon="1.00598">
        <ele>148.66</ele>
        <time>2016-01-16T13:44:13Z</time>
      </trkpt>
      <trkpt lat="44.40676" lon="1.00535">
        <ele>150.58</ele>
        <time>2016-01-16T13:44:25Z</time>
      </trkpt>
      <trkpt lat="44.40673" lon="1.00452">
        <ele>150.1</ele>
        <time>2016-01-16T13:44:39Z</time>
      </trkpt>
      <trkpt lat="44.40672" lon="1.00446">
        <ele>150.1</ele>
        <time>2016-01-16T13:44:40Z</time>
      </trkpt>
      <trkpt lat="44.4067" lon="1.0044">
        <ele>150.1</ele>
        <time>2016-01-16T13:44:41Z</time>
      </trkpt>
      <trkpt lat="44.40667" lon="1.00435">
        <ele>150.1</ele>
        <time>2016-01-16T13:44:42Z</time>
      </trkpt>
      <trkpt lat="44.40665" lon="1.0043">
        <ele>150.1</ele>
        <time>2016-01-16T13:44:43Z</time>
      </trkpt>
      <trkpt lat="44.40662" lon="1.00425">
        <ele>150.1</ele>
        <time>2016-01-16T13:44:44Z</time>
      </trkpt>
      <trkpt lat="44.40628" lon="1.00346">
        <ele>150.58</ele>
        <time>2016-01-16T13:44:58Z</time>
      </trkpt>
      <trkpt lat="44.40597" lon="1.00279">
        <ele>153.47</ele>
        <time>2016-01-16T13:45:11Z</time>
      </trkpt>
      <trkpt lat="44.40571" lon="1.00243">
        <ele>154.91</ele>
        <time>2016-01-16T13:45:22Z</time>
      </trkpt>
      <trkpt lat="44.40552" lon="1.00211">
        <ele>153.95</ele>
        <time>2016-01-16T13:45:28Z</time>
      </trkpt>
      <trkpt lat="44.40548" lon="1.00205">
        <ele>153.95</ele>
        <time>2016-01-16T13:45:29Z</time>
      </trkpt>
      <trkpt lat="44.40544" lon="1.002">
        <ele>153.95</ele>
        <time>2016-01-16T13:45:30Z</time>
      </trkpt>
      <trkpt lat="44.40539" lon="1.00196">
        <ele>153.95</ele>
        <time>2016-01-16T13:45:31Z</time>
      </trkpt>
      <trkpt lat="44.40535" lon="1.00192">
        <ele>153.47</ele>
        <time>2016-01-16T13:45:32Z</time>
      </trkpt>
      <trkpt lat="44.40512" lon="1.00175">
        <ele>153.47</ele>
        <time>2016-01-16T13:45:37Z</time>
      </trkpt>
      <trkpt lat="44.40472" lon="1.00152">
        <ele>155.39</ele>
        <time>2016-01-16T13:45:46Z</time>
      </trkpt>
      <trkpt lat="44.40408" lon="1.00121">
        <ele>160.68</ele>
        <time>2016-01-16T13:46:02Z</time>
      </trkpt>
      <trkpt lat="44.40352" lon="1.00082">
        <ele>164.52</ele>
        <time>2016-01-16T13:46:18Z</time>
      </trkpt>
      <trkpt lat="44.4033" lon="1.00058">
        <ele>166.93</ele>
        <time>2016-01-16T13:46:28Z</time>
      </trkpt>
      <trkpt lat="44.40327" lon="1.00057">
        <ele>166.93</ele>
        <time>2016-01-16T13:46:29Z</time>
      </trkpt>
      <trkpt lat="44.40324" lon="1.00056">
        <ele>167.41</ele>
        <time>2016-01-16T13:46:30Z</time>
      </trkpt>
      <trkpt lat="44.40322" lon="1.00055">
        <ele>167.41</ele>
        <time>2016-01-16T13:46:31Z</time>
      </trkpt>
      <trkpt lat="44.4032" lon="1.00053">
        <ele>167.41</ele>
        <time>2016-01-16T13:46:32Z</time>
      </trkpt>
      <trkpt lat="44.40318" lon="1.00049">
        <ele>167.41</ele>
        <time>2016-01-16T13:46:33Z</time>
      </trkpt>
      <trkpt lat="44.40315" lon="1.00047">
        <ele>167.41</ele>
        <time>2016-01-16T13:46:34Z</time>
      </trkpt>
      <trkpt lat="44.40312" lon="1.00044">
        <ele>167.41</ele>
        <time>2016-01-16T13:46:35Z</time>
      </trkpt>
      <trkpt lat="44.4031" lon="1.00042">
        <ele>167.41</ele>
        <time>2016-01-16T13:46:36Z</time>
      </trkpt>
      <trkpt lat="44.40307" lon="1.0004">
        <ele>167.41</ele>
        <time>2016-01-16T13:46:37Z</time>
      </trkpt>
      <trkpt lat="44.40304" lon="1.00038">
        <ele>167.41</ele>
        <time>2016-01-16T13:46:38Z</time>
      </trkpt>
      <trkpt lat="44.40261" lon="1.00001">
        <ele>165.96</ele>
        <time>2016-01-16T13:46:53Z</time>
      </trkpt>
      <trkpt lat="44.4023" lon="0.99966">
        <ele>166.93</ele>
        <time>2016-01-16T13:47:06Z</time>
      </trkpt>
      <trkpt lat="44.40224" lon="0.9996">
        <ele>166.45</ele>
        <time>2016-01-16T13:47:09Z</time>
      </trkpt>
      <trkpt lat="44.40222" lon="0.99957">
        <ele>166.93</ele>
        <time>2016-01-16T13:47:10Z</time>
      </trkpt>
      <trkpt lat="44.40207" lon="0.99922">
        <ele>166.45</ele>
        <time>2016-01-16T13:47:21Z</time>
      </trkpt>
      <trkpt lat="44.40204" lon="0.99917">
        <ele>166.93</ele>
        <time>2016-01-16T13:47:23Z</time>
      </trkpt>
      <trkpt lat="44.40201" lon="0.99914">
        <ele>166.45</ele>
        <time>2016-01-16T13:47:33Z</time>
      </trkpt>
      <trkpt lat="44.40201" lon="0.99914">
        <ele>165.48</ele>
        <time>2016-01-16T13:47:54Z</time>
      </trkpt>
      <trkpt lat="44.40201" lon="0.99914">
        <ele>165.48</ele>
        <time>2016-01-16T13:48:20Z</time>
      </trkpt>
      <trkpt lat="44.402" lon="0.99914">
        <ele>165</ele>
        <time>2016-01-16T13:48:35Z</time>
      </trkpt>
      <trkpt lat="44.40199" lon="0.99913">
        <ele>164.52</ele>
        <time>2016-01-16T13:48:36Z</time>
      </trkpt>
      <trkpt lat="44.40198" lon="0.99912">
        <ele>164.52</ele>
        <time>2016-01-16T13:48:37Z</time>
      </trkpt>
      <trkpt lat="44.40195" lon="0.99911">
        <ele>165</ele>
        <time>2016-01-16T13:48:38Z</time>
      </trkpt>
      <trkpt lat="44.40193" lon="0.99911">
        <ele>165</ele>
        <time>2016-01-16T13:48:39Z</time>
      </trkpt>
      <trkpt lat="44.40191" lon="0.9991">
        <ele>165</ele>
        <time>2016-01-16T13:48:40Z</time>
      </trkpt>
      <trkpt lat="44.4019" lon="0.99909">
        <ele>165.48</ele>
        <time>2016-01-16T13:48:41Z</time>
      </trkpt>
      <trkpt lat="44.40189" lon="0.99909">
        <ele>165.48</ele>
        <time>2016-01-16T13:48:42Z</time>
      </trkpt>
      <trkpt lat="44.40188" lon="0.99908">
        <ele>165.48</ele>
        <time>2016-01-16T13:48:43Z</time>
      </trkpt>
      <trkpt lat="44.40183" lon="0.99903">
        <ele>165.48</ele>
        <time>2016-01-16T13:48:56Z</time>
      </trkpt>
      <trkpt lat="44.40182" lon="0.999">
        <ele>165.48</ele>
        <time>2016-01-16T13:48:57Z</time>
      </trkpt>
      <trkpt lat="44.40181" lon="0.99897">
        <ele>165.96</ele>
        <time>2016-01-16T13:48:58Z</time>
      </trkpt>
      <trkpt lat="44.4018" lon="0.99893">
        <ele>165.96</ele>
        <time>2016-01-16T13:48:59Z</time>
      </trkpt>
      <trkpt lat="44.40179" lon="0.99889">
        <ele>166.45</ele>
        <time>2016-01-16T13:49:00Z</time>
      </trkpt>
      <trkpt lat="44.40178" lon="0.99886">
        <ele>166.45</ele>
        <time>2016-01-16T13:49:01Z</time>
      </trkpt>
      <trkpt lat="44.40177" lon="0.99882">
        <ele>166.45</ele>
        <time>2016-01-16T13:49:02Z</time>
      </trkpt>
      <trkpt lat="44.40162" lon="0.99831">
        <ele>167.41</ele>
        <time>2016-01-16T13:49:14Z</time>
      </trkpt>
      <trkpt lat="44.40151" lon="0.99771">
        <ele>169.33</ele>
        <time>2016-01-16T13:49:28Z</time>
      </trkpt>
      <trkpt lat="44.40163" lon="0.99741">
        <ele>168.85</ele>
        <time>2016-01-16T13:49:35Z</time>
      </trkpt>
      <trkpt lat="44.40164" lon="0.99735">
        <ele>168.37</ele>
        <time>2016-01-16T13:49:36Z</time>
      </trkpt>
      <trkpt lat="44.40165" lon="0.99729">
        <ele>168.37</ele>
        <time>2016-01-16T13:49:37Z</time>
      </trkpt>
      <trkpt lat="44.40165" lon="0.99723">
        <ele>167.89</ele>
        <time>2016-01-16T13:49:38Z</time>
      </trkpt>
      <trkpt lat="44.40164" lon="0.99717">
        <ele>167.89</ele>
        <time>2016-01-16T13:49:39Z</time>
      </trkpt>
      <trkpt lat="44.40163" lon="0.99711">
        <ele>167.89</ele>
        <time>2016-01-16T13:49:40Z</time>
      </trkpt>
      <trkpt lat="44.40161" lon="0.99706">
        <ele>167.89</ele>
        <time>2016-01-16T13:49:41Z</time>
      </trkpt>
      <trkpt lat="44.40158" lon="0.99702">
        <ele>168.37</ele>
        <time>2016-01-16T13:49:42Z</time>
      </trkpt>
      <trkpt lat="44.40156" lon="0.99698">
        <ele>168.37</ele>
        <time>2016-01-16T13:49:43Z</time>
      </trkpt>
      <trkpt lat="44.40152" lon="0.99696">
        <ele>168.37</ele>
        <time>2016-01-16T13:49:44Z</time>
      </trkpt>
      <trkpt lat="44.40149" lon="0.99694">
        <ele>168.85</ele>
        <time>2016-01-16T13:49:45Z</time>
      </trkpt>
      <trkpt lat="44.40145" lon="0.99692">
        <ele>168.85</ele>
        <time>2016-01-16T13:49:46Z</time>
      </trkpt>
      <trkpt lat="44.40142" lon="0.99689">
        <ele>169.33</ele>
        <time>2016-01-16T13:49:47Z</time>
      </trkpt>
      <trkpt lat="44.40139" lon="0.99686">
        <ele>169.33</ele>
        <time>2016-01-16T13:49:48Z</time>
      </trkpt>
      <trkpt lat="44.40137" lon="0.99682">
        <ele>169.33</ele>
        <time>2016-01-16T13:49:49Z</time>
      </trkpt>
      <trkpt lat="44.40131" lon="0.99633">
        <ele>169.33</ele>
        <time>2016-01-16T13:49:59Z</time>
      </trkpt>
      <trkpt lat="44.40141" lon="0.99565">
        <ele>171.25</ele>
        <time>2016-01-16T13:50:13Z</time>
      </trkpt>
      <trkpt lat="44.40183" lon="0.9948">
        <ele>174.14</ele>
        <time>2016-01-16T13:50:31Z</time>
      </trkpt>
      <trkpt lat="44.40226" lon="0.99385">
        <ele>170.77</ele>
        <time>2016-01-16T13:50:46Z</time>
      </trkpt>
      <trkpt lat="44.4023" lon="0.99369">
        <ele>169.81</ele>
        <time>2016-01-16T13:50:48Z</time>
      </trkpt>
      <trkpt lat="44.4023" lon="0.99361">
        <ele>169.81</ele>
        <time>2016-01-16T13:50:49Z</time>
      </trkpt>
      <trkpt lat="44.40229" lon="0.99318">
        <ele>167.41</ele>
        <time>2016-01-16T13:50:54Z</time>
      </trkpt>
      <trkpt lat="44.40227" lon="0.9931">
        <ele>167.41</ele>
        <time>2016-01-16T13:50:55Z</time>
      </trkpt>
      <trkpt lat="44.40222" lon="0.99294">
        <ele>166.45</ele>
        <time>2016-01-16T13:50:57Z</time>
      </trkpt>
      <trkpt lat="44.40219" lon="0.99286">
        <ele>165.96</ele>
        <time>2016-01-16T13:50:58Z</time>
      </trkpt>
      <trkpt lat="44.40215" lon="0.99278">
        <ele>165.96</ele>
        <time>2016-01-16T13:50:59Z</time>
      </trkpt>
      <trkpt lat="44.40211" lon="0.99271">
        <ele>165.48</ele>
        <time>2016-01-16T13:51:00Z</time>
      </trkpt>
      <trkpt lat="44.40207" lon="0.99264">
        <ele>165</ele>
        <time>2016-01-16T13:51:01Z</time>
      </trkpt>
      <trkpt lat="44.40202" lon="0.99258">
        <ele>164.52</ele>
        <time>2016-01-16T13:51:02Z</time>
      </trkpt>
      <trkpt lat="44.40197" lon="0.99252">
        <ele>164.04</ele>
        <time>2016-01-16T13:51:03Z</time>
      </trkpt>
      <trkpt lat="44.40192" lon="0.99247">
        <ele>163.56</ele>
        <time>2016-01-16T13:51:04Z</time>
      </trkpt>
      <trkpt lat="44.40186" lon="0.99242">
        <ele>163.56</ele>
        <time>2016-01-16T13:51:05Z</time>
      </trkpt>
      <trkpt lat="44.40125" lon="0.99197">
        <ele>159.72</ele>
        <time>2016-01-16T13:51:15Z</time>
      </trkpt>
      <trkpt lat="44.40121" lon="0.99191">
        <ele>159.24</ele>
        <time>2016-01-16T13:51:16Z</time>
      </trkpt>
      <trkpt lat="44.40118" lon="0.99183">
        <ele>158.75</ele>
        <time>2016-01-16T13:51:17Z</time>
      </trkpt>
      <trkpt lat="44.40116" lon="0.99176">
        <ele>158.75</ele>
        <time>2016-01-16T13:51:18Z</time>
      </trkpt>
      <trkpt lat="44.40115" lon="0.99168">
        <ele>158.27</ele>
        <time>2016-01-16T13:51:19Z</time>
      </trkpt>
      <trkpt lat="44.40115" lon="0.9916">
        <ele>157.79</ele>
        <time>2016-01-16T13:51:20Z</time>
      </trkpt>
      <trkpt lat="44.40115" lon="0.99153">
        <ele>157.79</ele>
        <time>2016-01-16T13:51:21Z</time>
      </trkpt>
      <trkpt lat="44.40116" lon="0.99146">
        <ele>157.31</ele>
        <time>2016-01-16T13:51:22Z</time>
      </trkpt>
      <trkpt lat="44.40114" lon="0.99139">
        <ele>157.31</ele>
        <time>2016-01-16T13:51:23Z</time>
      </trkpt>
      <trkpt lat="44.40106" lon="0.9913">
        <ele>157.31</ele>
        <time>2016-01-16T13:51:25Z</time>
      </trkpt>
      <trkpt lat="44.40093" lon="0.99121">
        <ele>157.79</ele>
        <time>2016-01-16T13:51:28Z</time>
      </trkpt>
      <trkpt lat="44.40089" lon="0.99117">
        <ele>158.27</ele>
        <time>2016-01-16T13:51:29Z</time>
      </trkpt>
      <trkpt lat="44.40087" lon="0.99111">
        <ele>158.27</ele>
        <time>2016-01-16T13:51:30Z</time>
      </trkpt>
      <trkpt lat="44.40086" lon="0.99105">
        <ele>158.27</ele>
        <time>2016-01-16T13:51:31Z</time>
      </trkpt>
      <trkpt lat="44.40087" lon="0.99099">
        <ele>158.75</ele>
        <time>2016-01-16T13:51:32Z</time>
      </trkpt>
      <trkpt lat="44.40087" lon="0.99092">
        <ele>158.75</ele>
        <time>2016-01-16T13:51:33Z</time>
      </trkpt>
      <trkpt lat="44.40115" lon="0.98984">
        <ele>161.64</ele>
        <time>2016-01-16T13:51:51Z</time>
      </trkpt>
      <trkpt lat="44.40136" lon="0.98909">
        <ele>160.68</ele>
        <time>2016-01-16T13:52:03Z</time>
      </trkpt>
      <trkpt lat="44.40138" lon="0.98903">
        <ele>160.68</ele>
        <time>2016-01-16T13:52:04Z</time>
      </trkpt>
      <trkpt lat="44.40155" lon="0.98828">
        <ele>160.2</ele>
        <time>2016-01-16T13:52:15Z</time>
      </trkpt>
      <trkpt lat="44.40189" lon="0.98715">
        <ele>159.72</ele>
        <time>2016-01-16T13:52:32Z</time>
      </trkpt>
      <trkpt lat="44.40221" lon="0.98596">
        <ele>159.72</ele>
        <time>2016-01-16T13:52:50Z</time>
      </trkpt>
      <trkpt lat="44.40233" lon="0.98514">
        <ele>161.16</ele>
        <time>2016-01-16T13:53:04Z</time>
      </trkpt>
      <trkpt lat="44.40234" lon="0.98508">
        <ele>161.16</ele>
        <time>2016-01-16T13:53:05Z</time>
      </trkpt>
      <trkpt lat="44.40236" lon="0.98496">
        <ele>160.68</ele>
        <time>2016-01-16T13:53:07Z</time>
      </trkpt>
      <trkpt lat="44.40241" lon="0.98389">
        <ele>158.27</ele>
        <time>2016-01-16T13:53:21Z</time>
      </trkpt>
      <trkpt lat="44.40248" lon="0.98257">
        <ele>158.75</ele>
        <time>2016-01-16T13:53:40Z</time>
      </trkpt>
      <trkpt lat="44.4026" lon="0.98151">
        <ele>161.64</ele>
        <time>2016-01-16T13:53:57Z</time>
      </trkpt>
      <trkpt lat="44.40268" lon="0.98044">
        <ele>163.56</ele>
        <time>2016-01-16T13:54:15Z</time>
      </trkpt>
      <trkpt lat="44.40271" lon="0.97994">
        <ele>162.6</ele>
        <time>2016-01-16T13:54:22Z</time>
      </trkpt>
      <trkpt lat="44.40271" lon="0.97987">
        <ele>162.6</ele>
        <time>2016-01-16T13:54:23Z</time>
      </trkpt>
      <trkpt lat="44.40275" lon="0.97936">
        <ele>162.12</ele>
        <time>2016-01-16T13:54:30Z</time>
      </trkpt>
      <trkpt lat="44.40282" lon="0.97904">
        <ele>163.08</ele>
        <time>2016-01-16T13:54:35Z</time>
      </trkpt>
      <trkpt lat="44.40284" lon="0.97898">
        <ele>163.08</ele>
        <time>2016-01-16T13:54:36Z</time>
      </trkpt>
      <trkpt lat="44.40286" lon="0.97892">
        <ele>163.08</ele>
        <time>2016-01-16T13:54:37Z</time>
      </trkpt>
      <trkpt lat="44.40314" lon="0.97835">
        <ele>163.56</ele>
        <time>2016-01-16T13:54:47Z</time>
      </trkpt>
      <trkpt lat="44.40322" lon="0.9781">
        <ele>164.52</ele>
        <time>2016-01-16T13:54:51Z</time>
      </trkpt>
      <trkpt lat="44.40323" lon="0.97803">
        <ele>164.52</ele>
        <time>2016-01-16T13:54:52Z</time>
      </trkpt>
      <trkpt lat="44.40339" lon="0.977">
        <ele>160.2</ele>
        <time>2016-01-16T13:55:05Z</time>
      </trkpt>
      <trkpt lat="44.40343" lon="0.97681">
        <ele>159.24</ele>
        <time>2016-01-16T13:55:07Z</time>
      </trkpt>
      <trkpt lat="44.40344" lon="0.97671">
        <ele>159.24</ele>
        <time>2016-01-16T13:55:08Z</time>
      </trkpt>
      <trkpt lat="44.40344" lon="0.9766">
        <ele>158.27</ele>
        <time>2016-01-16T13:55:09Z</time>
      </trkpt>
      <trkpt lat="44.40343" lon="0.97649">
        <ele>157.79</ele>
        <time>2016-01-16T13:55:10Z</time>
      </trkpt>
      <trkpt lat="44.40342" lon="0.97638">
        <ele>156.83</ele>
        <time>2016-01-16T13:55:11Z</time>
      </trkpt>
      <trkpt lat="44.4034" lon="0.97626">
        <ele>156.35</ele>
        <time>2016-01-16T13:55:12Z</time>
      </trkpt>
      <trkpt lat="44.40316" lon="0.97489">
        <ele>147.7</ele>
        <time>2016-01-16T13:55:22Z</time>
      </trkpt>
      <trkpt lat="44.403" lon="0.97385">
        <ele>140.97</ele>
        <time>2016-01-16T13:55:31Z</time>
      </trkpt>
      <trkpt lat="44.403" lon="0.97371">
        <ele>140.01</ele>
        <time>2016-01-16T13:55:34Z</time>
      </trkpt>
      <trkpt lat="44.40302" lon="0.97367">
        <ele>140.01</ele>
        <time>2016-01-16T13:55:35Z</time>
      </trkpt>
      <trkpt lat="44.40304" lon="0.97365">
        <ele>140.01</ele>
        <time>2016-01-16T13:55:36Z</time>
      </trkpt>
      <trkpt lat="44.40306" lon="0.97365">
        <ele>140.01</ele>
        <time>2016-01-16T13:55:37Z</time>
      </trkpt>
      <trkpt lat="44.40308" lon="0.97364">
        <ele>140.01</ele>
        <time>2016-01-16T13:55:38Z</time>
      </trkpt>
      <trkpt lat="44.4031" lon="0.97364">
        <ele>139.53</ele>
        <time>2016-01-16T13:55:39Z</time>
      </trkpt>
      <trkpt lat="44.40339" lon="0.97356">
        <ele>138.09</ele>
        <time>2016-01-16T13:55:54Z</time>
      </trkpt>
      <trkpt lat="44.40363" lon="0.9735">
        <ele>139.05</ele>
        <time>2016-01-16T13:56:07Z</time>
      </trkpt>
      <trkpt lat="44.40364" lon="0.97351">
        <ele>138.57</ele>
        <time>2016-01-16T13:56:19Z</time>
      </trkpt>
      <trkpt lat="44.40369" lon="0.9735">
        <ele>138.57</ele>
        <time>2016-01-16T13:56:37Z</time>
      </trkpt>
      <trkpt lat="44.40381" lon="0.97343">
        <ele>137.61</ele>
        <time>2016-01-16T13:56:44Z</time>
      </trkpt>
      <trkpt lat="44.40382" lon="0.9734">
        <ele>137.61</ele>
        <time>2016-01-16T13:56:45Z</time>
      </trkpt>
      <trkpt lat="44.40384" lon="0.97336">
        <ele>137.13</ele>
        <time>2016-01-16T13:56:46Z</time>
      </trkpt>
      <trkpt lat="44.40423" lon="0.9727">
        <ele>132.8</ele>
        <time>2016-01-16T13:56:56Z</time>
      </trkpt>
      <trkpt lat="44.4046" lon="0.97203">
        <ele>127.99</ele>
        <time>2016-01-16T13:57:04Z</time>
      </trkpt>
      <trkpt lat="44.40481" lon="0.9715">
        <ele>125.59</ele>
        <time>2016-01-16T13:57:11Z</time>
      </trkpt>
      <trkpt lat="44.40482" lon="0.97143">
        <ele>125.11</ele>
        <time>2016-01-16T13:57:12Z</time>
      </trkpt>
      <trkpt lat="44.40481" lon="0.97136">
        <ele>124.63</ele>
        <time>2016-01-16T13:57:13Z</time>
      </trkpt>
      <trkpt lat="44.40479" lon="0.97122">
        <ele>124.15</ele>
        <time>2016-01-16T13:57:15Z</time>
      </trkpt>
      <trkpt lat="44.40476" lon="0.97087">
        <ele>123.67</ele>
        <time>2016-01-16T13:57:20Z</time>
      </trkpt>
      <trkpt lat="44.40505" lon="0.97042">
        <ele>119.34</ele>
        <time>2016-01-16T13:57:28Z</time>
      </trkpt>
      <trkpt lat="44.40511" lon="0.97021">
        <ele>119.34</ele>
        <time>2016-01-16T13:57:32Z</time>
      </trkpt>
      <trkpt lat="44.40508" lon="0.96968">
        <ele>120.78</ele>
        <time>2016-01-16T13:57:43Z</time>
      </trkpt>
      <trkpt lat="44.40516" lon="0.96923">
        <ele>124.15</ele>
        <time>2016-01-16T13:57:55Z</time>
      </trkpt>
      <trkpt lat="44.40525" lon="0.96876">
        <ele>127.03</ele>
        <time>2016-01-16T13:58:09Z</time>
      </trkpt>
      <trkpt lat="44.40535" lon="0.96836">
        <ele>128.95</ele>
        <time>2016-01-16T13:58:22Z</time>
      </trkpt>
      <trkpt lat="44.40541" lon="0.96802">
        <ele>134.72</ele>
        <time>2016-01-16T13:58:35Z</time>
      </trkpt>
      <trkpt lat="44.40546" lon="0.96768">
        <ele>139.53</ele>
        <time>2016-01-16T13:58:49Z</time>
      </trkpt>
      <trkpt lat="44.40546" lon="0.96755">
        <ele>140.01</ele>
        <time>2016-01-16T13:58:54Z</time>
      </trkpt>
      <trkpt lat="44.40546" lon="0.96734">
        <ele>140.97</ele>
        <time>2016-01-16T13:59:02Z</time>
      </trkpt>
      <trkpt lat="44.40546" lon="0.96717">
        <ele>141.45</ele>
        <time>2016-01-16T13:59:08Z</time>
      </trkpt>
      <trkpt lat="44.40546" lon="0.96695">
        <ele>143.37</ele>
        <time>2016-01-16T13:59:16Z</time>
      </trkpt>
      <trkpt lat="44.40547" lon="0.96676">
        <ele>145.3</ele>
        <time>2016-01-16T13:59:23Z</time>
      </trkpt>
      <trkpt lat="44.40546" lon="0.96658">
        <ele>146.74</ele>
        <time>2016-01-16T13:59:29Z</time>
      </trkpt>
      <trkpt lat="44.40552" lon="0.9661">
        <ele>145.3</ele>
        <time>2016-01-16T13:59:44Z</time>
      </trkpt>
      <trkpt lat="44.40569" lon="0.96567">
        <ele>144.34</ele>
        <time>2016-01-16T13:59:56Z</time>
      </trkpt>
      <trkpt lat="44.40592" lon="0.96509">
        <ele>140.49</ele>
        <time>2016-01-16T14:00:10Z</time>
      </trkpt>
      <trkpt lat="44.40594" lon="0.96502">
        <ele>139.05</ele>
        <time>2016-01-16T14:00:19Z</time>
      </trkpt>
      <trkpt lat="44.40594" lon="0.96501">
        <ele>139.05</ele>
        <time>2016-01-16T14:00:39Z</time>
      </trkpt>
      <trkpt lat="44.40594" lon="0.96501">
        <ele>139.05</ele>
        <time>2016-01-16T14:01:02Z</time>
      </trkpt>
      <trkpt lat="44.40594" lon="0.96498">
        <ele>139.53</ele>
        <time>2016-01-16T14:01:23Z</time>
      </trkpt>
      <trkpt lat="44.40594" lon="0.96498">
        <ele>139.53</ele>
        <time>2016-01-16T14:01:46Z</time>
      </trkpt>
      <trkpt lat="44.40594" lon="0.96498">
        <ele>139.53</ele>
        <time>2016-01-16T14:02:10Z</time>
      </trkpt>
      <trkpt lat="44.40594" lon="0.96498">
        <ele>140.01</ele>
        <time>2016-01-16T14:02:38Z</time>
      </trkpt>
      <trkpt lat="44.40593" lon="0.96499">
        <ele>139.05</ele>
        <time>2016-01-16T14:02:59Z</time>
      </trkpt>
      <trkpt lat="44.40593" lon="0.96499">
        <ele>140.01</ele>
        <time>2016-01-16T14:03:22Z</time>
      </trkpt>
      <trkpt lat="44.40594" lon="0.96498">
        <ele>140.01</ele>
        <time>2016-01-16T14:03:46Z</time>
      </trkpt>
      <trkpt lat="44.40595" lon="0.96498">
        <ele>140.49</ele>
        <time>2016-01-16T14:04:04Z</time>
      </trkpt>
      <trkpt lat="44.40594" lon="0.965">
        <ele>140.49</ele>
        <time>2016-01-16T14:04:24Z</time>
      </trkpt>
      <trkpt lat="44.40594" lon="0.96498">
        <ele>140.97</ele>
        <time>2016-01-16T14:04:47Z</time>
      </trkpt>
      <trkpt lat="44.40594" lon="0.96495">
        <ele>140.49</ele>
        <time>2016-01-16T14:04:48Z</time>
      </trkpt>
      <trkpt lat="44.40595" lon="0.96493">
        <ele>140.49</ele>
        <time>2016-01-16T14:04:49Z</time>
      </trkpt>
      <trkpt lat="44.40596" lon="0.96491">
        <ele>140.49</ele>
        <time>2016-01-16T14:04:50Z</time>
      </trkpt>
      <trkpt lat="44.40597" lon="0.9649">
        <ele>140.49</ele>
        <time>2016-01-16T14:04:51Z</time>
      </trkpt>
      <trkpt lat="44.40598" lon="0.96489">
        <ele>140.49</ele>
        <time>2016-01-16T14:04:52Z</time>
      </trkpt>
      <trkpt lat="44.40598" lon="0.96488">
        <ele>140.49</ele>
        <time>2016-01-16T14:04:53Z</time>
      </trkpt>
      <trkpt lat="44.40599" lon="0.96486">
        <ele>140.49</ele>
        <time>2016-01-16T14:04:54Z</time>
      </trkpt>
      <trkpt lat="44.40599" lon="0.96485">
        <ele>140.49</ele>
        <time>2016-01-16T14:04:55Z</time>
      </trkpt>
      <trkpt lat="44.40599" lon="0.96483">
        <ele>140.49</ele>
        <time>2016-01-16T14:04:56Z</time>
      </trkpt>
      <trkpt lat="44.406" lon="0.96481">
        <ele>140.49</ele>
        <time>2016-01-16T14:04:57Z</time>
      </trkpt>
      <trkpt lat="44.40601" lon="0.96479">
        <ele>140.49</ele>
        <time>2016-01-16T14:04:58Z</time>
      </trkpt>
      <trkpt lat="44.40602" lon="0.96477">
        <ele>140.49</ele>
        <time>2016-01-16T14:04:59Z</time>
      </trkpt>
      <trkpt lat="44.40603" lon="0.96474">
        <ele>140.49</ele>
        <time>2016-01-16T14:05:00Z</time>
      </trkpt>
      <trkpt lat="44.40613" lon="0.96428">
        <ele>141.93</ele>
        <time>2016-01-16T14:05:14Z</time>
      </trkpt>
      <trkpt lat="44.40623" lon="0.96365">
        <ele>144.82</ele>
        <time>2016-01-16T14:05:30Z</time>
      </trkpt>
      <trkpt lat="44.40627" lon="0.96308">
        <ele>146.74</ele>
        <time>2016-01-16T14:05:44Z</time>
      </trkpt>
      <trkpt lat="44.4063" lon="0.96238">
        <ele>146.26</ele>
        <time>2016-01-16T14:05:58Z</time>
      </trkpt>
      <trkpt lat="44.40639" lon="0.96138">
        <ele>144.34</ele>
        <time>2016-01-16T14:06:14Z</time>
      </trkpt>
      <trkpt lat="44.40643" lon="0.96085">
        <ele>143.85</ele>
        <time>2016-01-16T14:06:22Z</time>
      </trkpt>
      <trkpt lat="44.40643" lon="0.96078">
        <ele>143.85</ele>
        <time>2016-01-16T14:06:23Z</time>
      </trkpt>
      <trkpt lat="44.40643" lon="0.96072">
        <ele>143.37</ele>
        <time>2016-01-16T14:06:24Z</time>
      </trkpt>
      <trkpt lat="44.4066" lon="0.95979">
        <ele>145.78</ele>
        <time>2016-01-16T14:06:40Z</time>
      </trkpt>
      <trkpt lat="44.40672" lon="0.95948">
        <ele>145.3</ele>
        <time>2016-01-16T14:06:46Z</time>
      </trkpt>
      <trkpt lat="44.40696" lon="0.95843">
        <ele>143.85</ele>
        <time>2016-01-16T14:07:02Z</time>
      </trkpt>
      <trkpt lat="44.40731" lon="0.95763">
        <ele>144.82</ele>
        <time>2016-01-16T14:07:17Z</time>
      </trkpt>
      <trkpt lat="44.40764" lon="0.95695">
        <ele>146.74</ele>
        <time>2016-01-16T14:07:32Z</time>
      </trkpt>
      <trkpt lat="44.40782" lon="0.95656">
        <ele>148.66</ele>
        <time>2016-01-16T14:07:44Z</time>
      </trkpt>
      <trkpt lat="44.40798" lon="0.95638">
        <ele>150.58</ele>
        <time>2016-01-16T14:07:58Z</time>
      </trkpt>
      <trkpt lat="44.40798" lon="0.95637">
        <ele>150.58</ele>
        <time>2016-01-16T14:08:12Z</time>
      </trkpt>
      <trkpt lat="44.40798" lon="0.95635">
        <ele>151.54</ele>
        <time>2016-01-16T14:08:37Z</time>
      </trkpt>
      <trkpt lat="44.40801" lon="0.95633">
        <ele>151.54</ele>
        <time>2016-01-16T14:08:52Z</time>
      </trkpt>
      <trkpt lat="44.40819" lon="0.9561">
        <ele>153.95</ele>
        <time>2016-01-16T14:09:05Z</time>
      </trkpt>
      <trkpt lat="44.40839" lon="0.95584">
        <ele>156.83</ele>
        <time>2016-01-16T14:09:19Z</time>
      </trkpt>
      <trkpt lat="44.40868" lon="0.95549">
        <ele>159.72</ele>
        <time>2016-01-16T14:09:38Z</time>
      </trkpt>
      <trkpt lat="44.40882" lon="0.95539">
        <ele>160.68</ele>
        <time>2016-01-16T14:09:48Z</time>
      </trkpt>
      <trkpt lat="44.40895" lon="0.95525">
        <ele>161.64</ele>
        <time>2016-01-16T14:09:58Z</time>
      </trkpt>
      <trkpt lat="44.40916" lon="0.95503">
        <ele>161.64</ele>
        <time>2016-01-16T14:10:12Z</time>
      </trkpt>
      <trkpt lat="44.40936" lon="0.95484">
        <ele>160.2</ele>
        <time>2016-01-16T14:10:28Z</time>
      </trkpt>
      <trkpt lat="44.40947" lon="0.95479">
        <ele>159.72</ele>
        <time>2016-01-16T14:10:38Z</time>
      </trkpt>
      <trkpt lat="44.40982" lon="0.95465">
        <ele>159.24</ele>
        <time>2016-01-16T14:10:51Z</time>
      </trkpt>
      <trkpt lat="44.41022" lon="0.95461">
        <ele>159.72</ele>
        <time>2016-01-16T14:11:03Z</time>
      </trkpt>
      <trkpt lat="44.41059" lon="0.95449">
        <ele>160.68</ele>
        <time>2016-01-16T14:11:15Z</time>
      </trkpt>
      <trkpt lat="44.41097" lon="0.95432">
        <ele>160.2</ele>
        <time>2016-01-16T14:11:29Z</time>
      </trkpt>
      <trkpt lat="44.41127" lon="0.9542">
        <ele>161.16</ele>
        <time>2016-01-16T14:11:41Z</time>
      </trkpt>
      <trkpt lat="44.41151" lon="0.95403">
        <ele>162.6</ele>
        <time>2016-01-16T14:11:50Z</time>
      </trkpt>
      <trkpt lat="44.41177" lon="0.95367">
        <ele>162.6</ele>
        <time>2016-01-16T14:12:02Z</time>
      </trkpt>
      <trkpt lat="44.4121" lon="0.95322">
        <ele>159.24</ele>
        <time>2016-01-16T14:12:16Z</time>
      </trkpt>
      <trkpt lat="44.41238" lon="0.95284">
        <ele>154.91</ele>
        <time>2016-01-16T14:12:23Z</time>
      </trkpt>
      <trkpt lat="44.41276" lon="0.95204">
        <ele>152.99</ele>
        <time>2016-01-16T14:12:37Z</time>
      </trkpt>
      <trkpt lat="44.41299" lon="0.9514">
        <ele>152.03</ele>
        <time>2016-01-16T14:12:50Z</time>
      </trkpt>
      <trkpt lat="44.41318" lon="0.95101">
        <ele>150.1</ele>
        <time>2016-01-16T14:12:57Z</time>
      </trkpt>
      <trkpt lat="44.41346" lon="0.95061">
        <ele>147.7</ele>
        <time>2016-01-16T14:13:05Z</time>
      </trkpt>
      <trkpt lat="44.4138" lon="0.95026">
        <ele>145.3</ele>
        <time>2016-01-16T14:13:13Z</time>
      </trkpt>
      <trkpt lat="44.41409" lon="0.94991">
        <ele>144.34</ele>
        <time>2016-01-16T14:13:20Z</time>
      </trkpt>
      <trkpt lat="44.41424" lon="0.94968">
        <ele>144.82</ele>
        <time>2016-01-16T14:13:24Z</time>
      </trkpt>
      <trkpt lat="44.41437" lon="0.94942">
        <ele>144.82</ele>
        <time>2016-01-16T14:13:28Z</time>
      </trkpt>
      <trkpt lat="44.41442" lon="0.94927">
        <ele>144.34</ele>
        <time>2016-01-16T14:13:30Z</time>
      </trkpt>
      <trkpt lat="44.41481" lon="0.94828">
        <ele>143.37</ele>
        <time>2016-01-16T14:13:44Z</time>
      </trkpt>
      <trkpt lat="44.41487" lon="0.94817">
        <ele>142.89</ele>
        <time>2016-01-16T14:13:47Z</time>
      </trkpt>
      <trkpt lat="44.4149" lon="0.94808">
        <ele>140.49</ele>
        <time>2016-01-16T14:13:57Z</time>
      </trkpt>
      <trkpt lat="44.41489" lon="0.94807">
        <ele>141.45</ele>
        <time>2016-01-16T14:14:14Z</time>
      </trkpt>
      <trkpt lat="44.41488" lon="0.94805">
        <ele>142.41</ele>
        <time>2016-01-16T14:14:44Z</time>
      </trkpt>
      <trkpt lat="44.41488" lon="0.94805">
        <ele>142.41</ele>
        <time>2016-01-16T14:15:09Z</time>
      </trkpt>
      <trkpt lat="44.41487" lon="0.94804">
        <ele>142.89</ele>
        <time>2016-01-16T14:15:22Z</time>
      </trkpt>
      <trkpt lat="44.41491" lon="0.94794">
        <ele>142.41</ele>
        <time>2016-01-16T14:15:26Z</time>
      </trkpt>
      <trkpt lat="44.41515" lon="0.94737">
        <ele>142.89</ele>
        <time>2016-01-16T14:15:40Z</time>
      </trkpt>
      <trkpt lat="44.41541" lon="0.94676">
        <ele>141.93</ele>
        <time>2016-01-16T14:15:54Z</time>
      </trkpt>
      <trkpt lat="44.41552" lon="0.94647">
        <ele>142.41</ele>
        <time>2016-01-16T14:16:04Z</time>
      </trkpt>
      <trkpt lat="44.41563" lon="0.94596">
        <ele>138.57</ele>
        <time>2016-01-16T14:16:14Z</time>
      </trkpt>
      <trkpt lat="44.41573" lon="0.9456">
        <ele>136.64</ele>
        <time>2016-01-16T14:16:20Z</time>
      </trkpt>
      <trkpt lat="44.41582" lon="0.94523">
        <ele>135.2</ele>
        <time>2016-01-16T14:16:26Z</time>
      </trkpt>
      <trkpt lat="44.41606" lon="0.94441">
        <ele>133.28</ele>
        <time>2016-01-16T14:16:40Z</time>
      </trkpt>
      <trkpt lat="44.41651" lon="0.94339">
        <ele>126.55</ele>
        <time>2016-01-16T14:16:56Z</time>
      </trkpt>
      <trkpt lat="44.41711" lon="0.94233">
        <ele>115.98</ele>
        <time>2016-01-16T14:17:12Z</time>
      </trkpt>
      <trkpt lat="44.41725" lon="0.94203">
        <ele>115.01</ele>
        <time>2016-01-16T14:17:17Z</time>
      </trkpt>
      <trkpt lat="44.41754" lon="0.94147">
        <ele>115.5</ele>
        <time>2016-01-16T14:17:30Z</time>
      </trkpt>
      <trkpt lat="44.41783" lon="0.9409">
        <ele>117.42</ele>
        <time>2016-01-16T14:17:45Z</time>
      </trkpt>
      <trkpt lat="44.41801" lon="0.94057">
        <ele>119.34</ele>
        <time>2016-01-16T14:17:57Z</time>
      </trkpt>
      <trkpt lat="44.41818" lon="0.94024">
        <ele>123.19</ele>
        <time>2016-01-16T14:18:11Z</time>
      </trkpt>
      <trkpt lat="44.41838" lon="0.9399">
        <ele>126.55</ele>
        <time>2016-01-16T14:18:26Z</time>
      </trkpt>
      <trkpt lat="44.41855" lon="0.93967">
        <ele>127.99</ele>
        <time>2016-01-16T14:18:36Z</time>
      </trkpt>
      <trkpt lat="44.41866" lon="0.93934">
        <ele>128.47</ele>
        <time>2016-01-16T14:18:47Z</time>
      </trkpt>
      <trkpt lat="44.4187" lon="0.9392">
        <ele>126.55</ele>
        <time>2016-01-16T14:18:51Z</time>
      </trkpt>
      <trkpt lat="44.41885" lon="0.93874">
        <ele>122.22</ele>
        <time>2016-01-16T14:19:01Z</time>
      </trkpt>
      <trkpt lat="44.41901" lon="0.93811">
        <ele>118.86</ele>
        <time>2016-01-16T14:19:13Z</time>
      </trkpt>
      <trkpt lat="44.41911" lon="0.93759">
        <ele>118.86</ele>
        <time>2016-01-16T14:19:23Z</time>
      </trkpt>
      <trkpt lat="44.41921" lon="0.93685">
        <ele>118.86</ele>
        <time>2016-01-16T14:19:36Z</time>
      </trkpt>
      <trkpt lat="44.41921" lon="0.93652">
        <ele>117.9</ele>
        <time>2016-01-16T14:19:41Z</time>
      </trkpt>
      <trkpt lat="44.41928" lon="0.93595">
        <ele>116.94</ele>
        <time>2016-01-16T14:19:50Z</time>
      </trkpt>
      <trkpt lat="44.4194" lon="0.93561">
        <ele>116.94</ele>
        <time>2016-01-16T14:19:56Z</time>
      </trkpt>
      <trkpt lat="44.41957" lon="0.93529">
        <ele>116.46</ele>
        <time>2016-01-16T14:20:02Z</time>
      </trkpt>
      <trkpt lat="44.41969" lon="0.93507">
        <ele>116.94</ele>
        <time>2016-01-16T14:20:06Z</time>
      </trkpt>
      <trkpt lat="44.41981" lon="0.93487">
        <ele>116.94</ele>
        <time>2016-01-16T14:20:10Z</time>
      </trkpt>
      <trkpt lat="44.42014" lon="0.93425">
        <ele>115.01</ele>
        <time>2016-01-16T14:20:21Z</time>
      </trkpt>
      <trkpt lat="44.42028" lon="0.93395">
        <ele>117.9</ele>
        <time>2016-01-16T14:20:31Z</time>
      </trkpt>
      <trkpt lat="44.42051" lon="0.93347">
        <ele>117.42</ele>
        <time>2016-01-16T14:20:44Z</time>
      </trkpt>
      <trkpt lat="44.42072" lon="0.93296">
        <ele>117.42</ele>
        <time>2016-01-16T14:20:58Z</time>
      </trkpt>
      <trkpt lat="44.42095" lon="0.93247">
        <ele>119.82</ele>
        <time>2016-01-16T14:21:12Z</time>
      </trkpt>
      <trkpt lat="44.42118" lon="0.93209">
        <ele>120.3</ele>
        <time>2016-01-16T14:21:24Z</time>
      </trkpt>
      <trkpt lat="44.42153" lon="0.93168">
        <ele>123.67</ele>
        <time>2016-01-16T14:21:38Z</time>
      </trkpt>
      <trkpt lat="44.42184" lon="0.9313">
        <ele>125.59</ele>
        <time>2016-01-16T14:21:51Z</time>
      </trkpt>
      <trkpt lat="44.42219" lon="0.93101">
        <ele>125.59</ele>
        <time>2016-01-16T14:22:04Z</time>
      </trkpt>
      <trkpt lat="44.42253" lon="0.93075">
        <ele>125.59</ele>
        <time>2016-01-16T14:22:16Z</time>
      </trkpt>
      <trkpt lat="44.42277" lon="0.93044">
        <ele>127.03</ele>
        <time>2016-01-16T14:22:26Z</time>
      </trkpt>
      <trkpt lat="44.42298" lon="0.93001">
        <ele>127.51</ele>
        <time>2016-01-16T14:22:38Z</time>
      </trkpt>
      <trkpt lat="44.42312" lon="0.92972">
        <ele>127.99</ele>
        <time>2016-01-16T14:22:51Z</time>
      </trkpt>
      <trkpt lat="44.42319" lon="0.92962">
        <ele>128.47</ele>
        <time>2016-01-16T14:23:03Z</time>
      </trkpt>
      <trkpt lat="44.42319" lon="0.9296">
        <ele>128.47</ele>
        <time>2016-01-16T14:23:16Z</time>
      </trkpt>
      <trkpt lat="44.4232" lon="0.9296">
        <ele>127.99</ele>
        <time>2016-01-16T14:23:35Z</time>
      </trkpt>
      <trkpt lat="44.4232" lon="0.92959">
        <ele>127.99</ele>
        <time>2016-01-16T14:23:55Z</time>
      </trkpt>
      <trkpt lat="44.4232" lon="0.92958">
        <ele>127.03</ele>
        <time>2016-01-16T14:24:19Z</time>
      </trkpt>
      <trkpt lat="44.42322" lon="0.92958">
        <ele>127.51</ele>
        <time>2016-01-16T14:24:47Z</time>
      </trkpt>
      <trkpt lat="44.42322" lon="0.92959">
        <ele>127.99</ele>
        <time>2016-01-16T14:25:09Z</time>
      </trkpt>
      <trkpt lat="44.42321" lon="0.92959">
        <ele>127.51</ele>
        <time>2016-01-16T14:25:25Z</time>
      </trkpt>
      <trkpt lat="44.42322" lon="0.92959">
        <ele>127.03</ele>
        <time>2016-01-16T14:25:45Z</time>
      </trkpt>
      <trkpt lat="44.42321" lon="0.92959">
        <ele>127.51</ele>
        <time>2016-01-16T14:26:06Z</time>
      </trkpt>
      <trkpt lat="44.42321" lon="0.92958">
        <ele>127.03</ele>
        <time>2016-01-16T14:26:30Z</time>
      </trkpt>
      <trkpt lat="44.4232" lon="0.92959">
        <ele>129.43</ele>
        <time>2016-01-16T14:26:54Z</time>
      </trkpt>
      <trkpt lat="44.4232" lon="0.92959">
        <ele>129.92</ele>
        <time>2016-01-16T14:27:03Z</time>
      </trkpt>
      <trkpt lat="44.4234" lon="0.92937">
        <ele>131.84</ele>
        <time>2016-01-16T14:27:14Z</time>
      </trkpt>
      <trkpt lat="44.42358" lon="0.92925">
        <ele>131.84</ele>
        <time>2016-01-16T14:27:21Z</time>
      </trkpt>
      <trkpt lat="44.42382" lon="0.92903">
        <ele>132.32</ele>
        <time>2016-01-16T14:27:31Z</time>
      </trkpt>
      <trkpt lat="44.42412" lon="0.92865">
        <ele>130.88</ele>
        <time>2016-01-16T14:27:42Z</time>
      </trkpt>
      <trkpt lat="44.4244" lon="0.92829">
        <ele>130.88</ele>
        <time>2016-01-16T14:27:51Z</time>
      </trkpt>
      <trkpt lat="44.42449" lon="0.92814">
        <ele>130.4</ele>
        <time>2016-01-16T14:27:54Z</time>
      </trkpt>
      <trkpt lat="44.42459" lon="0.92791">
        <ele>128.95</ele>
        <time>2016-01-16T14:27:58Z</time>
      </trkpt>
      <trkpt lat="44.42486" lon="0.9273">
        <ele>121.26</ele>
        <time>2016-01-16T14:28:10Z</time>
      </trkpt>
      <trkpt lat="44.42524" lon="0.92636">
        <ele>115.98</ele>
        <time>2016-01-16T14:28:30Z</time>
      </trkpt>
      <trkpt lat="44.42533" lon="0.92616">
        <ele>115.98</ele>
        <time>2016-01-16T14:28:38Z</time>
      </trkpt>
      <trkpt lat="44.42542" lon="0.92619">
        <ele>115.98</ele>
        <time>2016-01-16T14:28:44Z</time>
      </trkpt>
      <trkpt lat="44.42572" lon="0.92619">
        <ele>115.01</ele>
        <time>2016-01-16T14:28:57Z</time>
      </trkpt>
      <trkpt lat="44.4261" lon="0.9262">
        <ele>113.57</ele>
        <time>2016-01-16T14:29:09Z</time>
      </trkpt>
      <trkpt lat="44.42625" lon="0.92614">
        <ele>113.09</ele>
        <time>2016-01-16T14:29:14Z</time>
      </trkpt>
      <trkpt lat="44.42627" lon="0.92611">
        <ele>113.09</ele>
        <time>2016-01-16T14:29:15Z</time>
      </trkpt>
      <trkpt lat="44.42628" lon="0.92607">
        <ele>112.61</ele>
        <time>2016-01-16T14:29:16Z</time>
      </trkpt>
      <trkpt lat="44.4263" lon="0.92603">
        <ele>112.61</ele>
        <time>2016-01-16T14:29:17Z</time>
      </trkpt>
      <trkpt lat="44.42631" lon="0.92598">
        <ele>112.61</ele>
        <time>2016-01-16T14:29:18Z</time>
      </trkpt>
      <trkpt lat="44.42633" lon="0.92594">
        <ele>112.61</ele>
        <time>2016-01-16T14:29:19Z</time>
      </trkpt>
      <trkpt lat="44.42653" lon="0.92532">
        <ele>110.69</ele>
        <time>2016-01-16T14:29:33Z</time>
      </trkpt>
      <trkpt lat="44.42674" lon="0.92464">
        <ele>109.25</ele>
        <time>2016-01-16T14:29:47Z</time>
      </trkpt>
      <trkpt lat="44.42679" lon="0.9239">
        <ele>108.77</ele>
        <time>2016-01-16T14:30:00Z</time>
      </trkpt>
      <trkpt lat="44.4268" lon="0.92378">
        <ele>108.29</ele>
        <time>2016-01-16T14:30:02Z</time>
      </trkpt>
      <trkpt lat="44.42681" lon="0.92372">
        <ele>108.29</ele>
        <time>2016-01-16T14:30:03Z</time>
      </trkpt>
      <trkpt lat="44.4269" lon="0.92319">
        <ele>106.36</ele>
        <time>2016-01-16T14:30:11Z</time>
      </trkpt>
      <trkpt lat="44.42696" lon="0.923">
        <ele>105.88</ele>
        <time>2016-01-16T14:30:14Z</time>
      </trkpt>
      <trkpt lat="44.42699" lon="0.92294">
        <ele>105.88</ele>
        <time>2016-01-16T14:30:15Z</time>
      </trkpt>
      <trkpt lat="44.4271" lon="0.9227">
        <ele>104.92</ele>
        <time>2016-01-16T14:30:19Z</time>
      </trkpt>
      <trkpt lat="44.42714" lon="0.92257">
        <ele>104.44</ele>
        <time>2016-01-16T14:30:21Z</time>
      </trkpt>
      <trkpt lat="44.42726" lon="0.92206">
        <ele>103.96</ele>
        <time>2016-01-16T14:30:29Z</time>
      </trkpt>
      <trkpt lat="44.42745" lon="0.92165">
        <ele>103.48</ele>
        <time>2016-01-16T14:30:37Z</time>
      </trkpt>
      <trkpt lat="44.42786" lon="0.92075">
        <ele>103.96</ele>
        <time>2016-01-16T14:30:55Z</time>
      </trkpt>
      <trkpt lat="44.42812" lon="0.9202">
        <ele>103.96</ele>
        <time>2016-01-16T14:31:06Z</time>
      </trkpt>
      <trkpt lat="44.42821" lon="0.92008">
        <ele>104.44</ele>
        <time>2016-01-16T14:31:09Z</time>
      </trkpt>
      <trkpt lat="44.42824" lon="0.92005">
        <ele>104.44</ele>
        <time>2016-01-16T14:31:10Z</time>
      </trkpt>
      <trkpt lat="44.4288" lon="0.91958">
        <ele>106.36</ele>
        <time>2016-01-16T14:31:26Z</time>
      </trkpt>
      <trkpt lat="44.42942" lon="0.91903">
        <ele>107.32</ele>
        <time>2016-01-16T14:31:44Z</time>
      </trkpt>
      <trkpt lat="44.4296" lon="0.91887">
        <ele>107.81</ele>
        <time>2016-01-16T14:31:49Z</time>
      </trkpt>
      <trkpt lat="44.43022" lon="0.91843">
        <ele>109.25</ele>
        <time>2016-01-16T14:32:07Z</time>
      </trkpt>
      <trkpt lat="44.43087" lon="0.91808">
        <ele>110.69</ele>
        <time>2016-01-16T14:32:26Z</time>
      </trkpt>
      <trkpt lat="44.43134" lon="0.91762">
        <ele>109.73</ele>
        <time>2016-01-16T14:32:40Z</time>
      </trkpt>
      <trkpt lat="44.43142" lon="0.91756">
        <ele>109.25</ele>
        <time>2016-01-16T14:32:42Z</time>
      </trkpt>
      <trkpt lat="44.43145" lon="0.91753">
        <ele>109.25</ele>
        <time>2016-01-16T14:32:43Z</time>
      </trkpt>
      <trkpt lat="44.43202" lon="0.91729">
        <ele>109.25</ele>
        <time>2016-01-16T14:32:57Z</time>
      </trkpt>
      <trkpt lat="44.43253" lon="0.9169">
        <ele>111.17</ele>
        <time>2016-01-16T14:33:13Z</time>
      </trkpt>
      <trkpt lat="44.43288" lon="0.91664">
        <ele>111.17</ele>
        <time>2016-01-16T14:33:24Z</time>
      </trkpt>
      <trkpt lat="44.43293" lon="0.91662">
        <ele>110.69</ele>
        <time>2016-01-16T14:33:25Z</time>
      </trkpt>
      <trkpt lat="44.4336" lon="0.91634">
        <ele>106.84</ele>
        <time>2016-01-16T14:33:37Z</time>
      </trkpt>
      <trkpt lat="44.43421" lon="0.91597">
        <ele>104.44</ele>
        <time>2016-01-16T14:33:50Z</time>
      </trkpt>
      <trkpt lat="44.4347" lon="0.91554">
        <ele>104.92</ele>
        <time>2016-01-16T14:34:03Z</time>
      </trkpt>
      <trkpt lat="44.43473" lon="0.91555">
        <ele>105.4</ele>
        <time>2016-01-16T14:34:04Z</time>
      </trkpt>
      <trkpt lat="44.43476" lon="0.91557">
        <ele>105.88</ele>
        <time>2016-01-16T14:34:05Z</time>
      </trkpt>
      <trkpt lat="44.43477" lon="0.9156">
        <ele>106.36</ele>
        <time>2016-01-16T14:34:06Z</time>
      </trkpt>
      <trkpt lat="44.43479" lon="0.91564">
        <ele>106.36</ele>
        <time>2016-01-16T14:34:07Z</time>
      </trkpt>
      <trkpt lat="44.43492" lon="0.91616">
        <ele>107.32</ele>
        <time>2016-01-16T14:34:23Z</time>
      </trkpt>
      <trkpt lat="44.43512" lon="0.91681">
        <ele>109.25</ele>
        <time>2016-01-16T14:34:41Z</time>
      </trkpt>
      <trkpt lat="44.43543" lon="0.91748">
        <ele>112.13</ele>
        <time>2016-01-16T14:35:01Z</time>
      </trkpt>
      <trkpt lat="44.43566" lon="0.91794">
        <ele>114.53</ele>
        <time>2016-01-16T14:35:15Z</time>
      </trkpt>
      <trkpt lat="44.43589" lon="0.91837">
        <ele>117.42</ele>
        <time>2016-01-16T14:35:29Z</time>
      </trkpt>
      <trkpt lat="44.43599" lon="0.91854">
        <ele>119.34</ele>
        <time>2016-01-16T14:35:35Z</time>
      </trkpt>
      <trkpt lat="44.43601" lon="0.91856">
        <ele>119.34</ele>
        <time>2016-01-16T14:35:36Z</time>
      </trkpt>
      <trkpt lat="44.43603" lon="0.91859">
        <ele>119.34</ele>
        <time>2016-01-16T14:35:37Z</time>
      </trkpt>
      <trkpt lat="44.43605" lon="0.91861">
        <ele>119.34</ele>
        <time>2016-01-16T14:35:38Z</time>
      </trkpt>
      <trkpt lat="44.43607" lon="0.91864">
        <ele>119.34</ele>
        <time>2016-01-16T14:35:39Z</time>
      </trkpt>
      <trkpt lat="44.43609" lon="0.91867">
        <ele>119.82</ele>
        <time>2016-01-16T14:35:40Z</time>
      </trkpt>
      <trkpt lat="44.43611" lon="0.91871">
        <ele>119.82</ele>
        <time>2016-01-16T14:35:41Z</time>
      </trkpt>
      <trkpt lat="44.43643" lon="0.91924">
        <ele>116.94</ele>
        <time>2016-01-16T14:35:53Z</time>
      </trkpt>
      <trkpt lat="44.43656" lon="0.91948">
        <ele>115.98</ele>
        <time>2016-01-16T14:35:57Z</time>
      </trkpt>
      <trkpt lat="44.43659" lon="0.91953">
        <ele>115.98</ele>
        <time>2016-01-16T14:35:58Z</time>
      </trkpt>
      <trkpt lat="44.43662" lon="0.91957">
        <ele>115.98</ele>
        <time>2016-01-16T14:35:59Z</time>
      </trkpt>
      <trkpt lat="44.43668" lon="0.91965">
        <ele>115.98</ele>
        <time>2016-01-16T14:36:01Z</time>
      </trkpt>
      <trkpt lat="44.43672" lon="0.91969">
        <ele>115.98</ele>
        <time>2016-01-16T14:36:02Z</time>
      </trkpt>
      <trkpt lat="44.43675" lon="0.91972">
        <ele>115.98</ele>
        <time>2016-01-16T14:36:03Z</time>
      </trkpt>
      <trkpt lat="44.43701" lon="0.92003">
        <ele>119.34</ele>
        <time>2016-01-16T14:36:15Z</time>
      </trkpt>
      <trkpt lat="44.4373" lon="0.92033">
        <ele>123.67</ele>
        <time>2016-01-16T14:36:27Z</time>
      </trkpt>
      <trkpt lat="44.43769" lon="0.92065">
        <ele>127.03</ele>
        <time>2016-01-16T14:36:40Z</time>
      </trkpt>
      <trkpt lat="44.43817" lon="0.92102">
        <ele>127.99</ele>
        <time>2016-01-16T14:36:57Z</time>
      </trkpt>
      <trkpt lat="44.43852" lon="0.92148">
        <ele>125.59</ele>
        <time>2016-01-16T14:37:11Z</time>
      </trkpt>
      <trkpt lat="44.43858" lon="0.9216">
        <ele>124.63</ele>
        <time>2016-01-16T14:37:21Z</time>
      </trkpt>
      <trkpt lat="44.43858" lon="0.9216">
        <ele>124.63</ele>
        <time>2016-01-16T14:37:36Z</time>
      </trkpt>
      <trkpt lat="44.43857" lon="0.9216">
        <ele>125.11</ele>
        <time>2016-01-16T14:37:55Z</time>
      </trkpt>
      <trkpt lat="44.43857" lon="0.9216">
        <ele>125.11</ele>
        <time>2016-01-16T14:38:21Z</time>
      </trkpt>
      <trkpt lat="44.43857" lon="0.9216">
        <ele>124.63</ele>
        <time>2016-01-16T14:38:44Z</time>
      </trkpt>
      <trkpt lat="44.43858" lon="0.92158">
        <ele>124.63</ele>
        <time>2016-01-16T14:39:06Z</time>
      </trkpt>
      <trkpt lat="44.43859" lon="0.92162">
        <ele>124.63</ele>
        <time>2016-01-16T14:39:18Z</time>
      </trkpt>
      <trkpt lat="44.43859" lon="0.92162">
        <ele>124.15</ele>
        <time>2016-01-16T14:39:36Z</time>
      </trkpt>
      <trkpt lat="44.43859" lon="0.92164">
        <ele>124.63</ele>
        <time>2016-01-16T14:39:56Z</time>
      </trkpt>
      <trkpt lat="44.4386" lon="0.92164">
        <ele>125.11</ele>
        <time>2016-01-16T14:40:14Z</time>
      </trkpt>
      <trkpt lat="44.4386" lon="0.92164">
        <ele>125.11</ele>
        <time>2016-01-16T14:40:33Z</time>
      </trkpt>
      <trkpt lat="44.43859" lon="0.92163">
        <ele>125.59</ele>
        <time>2016-01-16T14:40:52Z</time>
      </trkpt>
      <trkpt lat="44.43859" lon="0.92161">
        <ele>125.59</ele>
        <time>2016-01-16T14:41:18Z</time>
      </trkpt>
      <trkpt lat="44.43861" lon="0.92163">
        <ele>126.07</ele>
        <time>2016-01-16T14:41:42Z</time>
      </trkpt>
      <trkpt lat="44.43862" lon="0.92164">
        <ele>126.55</ele>
        <time>2016-01-16T14:41:43Z</time>
      </trkpt>
      <trkpt lat="44.43863" lon="0.92165">
        <ele>126.55</ele>
        <time>2016-01-16T14:41:44Z</time>
      </trkpt>
      <trkpt lat="44.43876" lon="0.92202">
        <ele>125.11</ele>
        <time>2016-01-16T14:41:55Z</time>
      </trkpt>
      <trkpt lat="44.43899" lon="0.92284">
        <ele>122.22</ele>
        <time>2016-01-16T14:42:10Z</time>
      </trkpt>
      <trkpt lat="44.43922" lon="0.9237">
        <ele>115.01</ele>
        <time>2016-01-16T14:42:21Z</time>
      </trkpt>
      <trkpt lat="44.43925" lon="0.92396">
        <ele>112.61</ele>
        <time>2016-01-16T14:42:26Z</time>
      </trkpt>
      <trkpt lat="44.43922" lon="0.92399">
        <ele>112.61</ele>
        <time>2016-01-16T14:42:27Z</time>
      </trkpt>
      <trkpt lat="44.43919" lon="0.92401">
        <ele>112.61</ele>
        <time>2016-01-16T14:42:28Z</time>
      </trkpt>
      <trkpt lat="44.43916" lon="0.92403">
        <ele>113.09</ele>
        <time>2016-01-16T14:42:29Z</time>
      </trkpt>
      <trkpt lat="44.43913" lon="0.92405">
        <ele>113.09</ele>
        <time>2016-01-16T14:42:30Z</time>
      </trkpt>
      <trkpt lat="44.43908" lon="0.9241">
        <ele>113.09</ele>
        <time>2016-01-16T14:42:32Z</time>
      </trkpt>
      <trkpt lat="44.43908" lon="0.92415">
        <ele>113.57</ele>
        <time>2016-01-16T14:42:33Z</time>
      </trkpt>
      <trkpt lat="44.43909" lon="0.9242">
        <ele>113.57</ele>
        <time>2016-01-16T14:42:34Z</time>
      </trkpt>
      <trkpt lat="44.43911" lon="0.92424">
        <ele>113.09</ele>
        <time>2016-01-16T14:42:35Z</time>
      </trkpt>
      <trkpt lat="44.43913" lon="0.92429">
        <ele>113.09</ele>
        <time>2016-01-16T14:42:36Z</time>
      </trkpt>
      <trkpt lat="44.43916" lon="0.92434">
        <ele>113.09</ele>
        <time>2016-01-16T14:42:37Z</time>
      </trkpt>
      <trkpt lat="44.43933" lon="0.92465">
        <ele>111.65</ele>
        <time>2016-01-16T14:42:42Z</time>
      </trkpt>
      <trkpt lat="44.43936" lon="0.92472">
        <ele>111.65</ele>
        <time>2016-01-16T14:42:43Z</time>
      </trkpt>
      <trkpt lat="44.43937" lon="0.9248">
        <ele>111.65</ele>
        <time>2016-01-16T14:42:44Z</time>
      </trkpt>
      <trkpt lat="44.43956" lon="0.92593">
        <ele>110.21</ele>
        <time>2016-01-16T14:42:59Z</time>
      </trkpt>
      <trkpt lat="44.43996" lon="0.92686">
        <ele>112.61</ele>
        <time>2016-01-16T14:43:15Z</time>
      </trkpt>
      <trkpt lat="44.44011" lon="0.92721">
        <ele>112.61</ele>
        <time>2016-01-16T14:43:22Z</time>
      </trkpt>
      <trkpt lat="44.44011" lon="0.92728">
        <ele>112.61</ele>
        <time>2016-01-16T14:43:23Z</time>
      </trkpt>
      <trkpt lat="44.44011" lon="0.92734">
        <ele>112.13</ele>
        <time>2016-01-16T14:43:24Z</time>
      </trkpt>
      <trkpt lat="44.44011" lon="0.9274">
        <ele>112.13</ele>
        <time>2016-01-16T14:43:25Z</time>
      </trkpt>
      <trkpt lat="44.44009" lon="0.92746">
        <ele>111.65</ele>
        <time>2016-01-16T14:43:26Z</time>
      </trkpt>
      <trkpt lat="44.44008" lon="0.92752">
        <ele>111.65</ele>
        <time>2016-01-16T14:43:27Z</time>
      </trkpt>
      <trkpt lat="44.44007" lon="0.92757">
        <ele>111.65</ele>
        <time>2016-01-16T14:43:28Z</time>
      </trkpt>
      <trkpt lat="44.44007" lon="0.92763">
        <ele>111.17</ele>
        <time>2016-01-16T14:43:29Z</time>
      </trkpt>
      <trkpt lat="44.44009" lon="0.92768">
        <ele>111.17</ele>
        <time>2016-01-16T14:43:30Z</time>
      </trkpt>
      <trkpt lat="44.44011" lon="0.92773">
        <ele>111.17</ele>
        <time>2016-01-16T14:43:31Z</time>
      </trkpt>
      <trkpt lat="44.44011" lon="0.92779">
        <ele>111.17</ele>
        <time>2016-01-16T14:43:32Z</time>
      </trkpt>
      <trkpt lat="44.44011" lon="0.92784">
        <ele>111.17</ele>
        <time>2016-01-16T14:43:33Z</time>
      </trkpt>
      <trkpt lat="44.4401" lon="0.9279">
        <ele>111.17</ele>
        <time>2016-01-16T14:43:34Z</time>
      </trkpt>
      <trkpt lat="44.44009" lon="0.92796">
        <ele>111.17</ele>
        <time>2016-01-16T14:43:35Z</time>
      </trkpt>
      <trkpt lat="44.44001" lon="0.9283">
        <ele>108.77</ele>
        <time>2016-01-16T14:43:40Z</time>
      </trkpt>
      <trkpt lat="44.44004" lon="0.92853">
        <ele>106.36</ele>
        <time>2016-01-16T14:43:45Z</time>
      </trkpt>
      <trkpt lat="44.44032" lon="0.92846">
        <ele>102.52</ele>
        <time>2016-01-16T14:43:51Z</time>
      </trkpt>
      <trkpt lat="44.44051" lon="0.92864">
        <ele>100.6</ele>
        <time>2016-01-16T14:43:56Z</time>
      </trkpt>
      <trkpt lat="44.441" lon="0.92943">
        <ele>95.79</ele>
        <time>2016-01-16T14:44:12Z</time>
      </trkpt>
      <trkpt lat="44.44119" lon="0.9301">
        <ele>92.9</ele>
        <time>2016-01-16T14:44:26Z</time>
      </trkpt>
      <trkpt lat="44.44121" lon="0.93022">
        <ele>92.42</ele>
        <time>2016-01-16T14:44:28Z</time>
      </trkpt>
      <trkpt lat="44.44147" lon="0.93117">
        <ele>87.14</ele>
        <time>2016-01-16T14:44:41Z</time>
      </trkpt>
      <trkpt lat="44.44154" lon="0.93153">
        <ele>86.18</ele>
        <time>2016-01-16T14:44:46Z</time>
      </trkpt>
      <trkpt lat="44.44163" lon="0.93194">
        <ele>86.66</ele>
        <time>2016-01-16T14:44:55Z</time>
      </trkpt>
      <trkpt lat="44.44162" lon="0.93223">
        <ele>88.58</ele>
        <time>2016-01-16T14:45:03Z</time>
      </trkpt>
      <trkpt lat="44.44159" lon="0.93259">
        <ele>92.9</ele>
        <time>2016-01-16T14:45:18Z</time>
      </trkpt>
      <trkpt lat="44.44159" lon="0.93276">
        <ele>96.27</ele>
        <time>2016-01-16T14:45:27Z</time>
      </trkpt>
      <trkpt lat="44.44166" lon="0.93299">
        <ele>100.11</ele>
        <time>2016-01-16T14:45:41Z</time>
      </trkpt>
      <trkpt lat="44.44168" lon="0.93306">
        <ele>101.56</ele>
        <time>2016-01-16T14:45:45Z</time>
      </trkpt>
      <trkpt lat="44.44176" lon="0.93318">
        <ele>104.44</ele>
        <time>2016-01-16T14:45:55Z</time>
      </trkpt>
      <trkpt lat="44.44178" lon="0.93323">
        <ele>104.44</ele>
        <time>2016-01-16T14:45:59Z</time>
      </trkpt>
      <trkpt lat="44.44182" lon="0.93327">
        <ele>104.44</ele>
        <time>2016-01-16T14:46:03Z</time>
      </trkpt>
      <trkpt lat="44.44187" lon="0.93331">
        <ele>104.44</ele>
        <time>2016-01-16T14:46:08Z</time>
      </trkpt>
      <trkpt lat="44.44206" lon="0.93351">
        <ele>105.88</ele>
        <time>2016-01-16T14:46:25Z</time>
      </trkpt>
      <trkpt lat="44.4421" lon="0.93358">
        <ele>106.84</ele>
        <time>2016-01-16T14:46:31Z</time>
      </trkpt>
      <trkpt lat="44.4421" lon="0.93371">
        <ele>110.21</ele>
        <time>2016-01-16T14:46:42Z</time>
      </trkpt>
      <trkpt lat="44.4421" lon="0.93371">
        <ele>111.17</ele>
        <time>2016-01-16T14:46:56Z</time>
      </trkpt>
      <trkpt lat="44.4421" lon="0.93372">
        <ele>110.69</ele>
        <time>2016-01-16T14:47:19Z</time>
      </trkpt>
      <trkpt lat="44.4421" lon="0.93372">
        <ele>110.21</ele>
        <time>2016-01-16T14:47:41Z</time>
      </trkpt>
      <trkpt lat="44.44209" lon="0.93371">
        <ele>111.65</ele>
        <time>2016-01-16T14:48:04Z</time>
      </trkpt>
      <trkpt lat="44.4421" lon="0.93372">
        <ele>111.65</ele>
        <time>2016-01-16T14:48:25Z</time>
      </trkpt>
      <trkpt lat="44.44209" lon="0.9337">
        <ele>112.13</ele>
        <time>2016-01-16T14:48:52Z</time>
      </trkpt>
      <trkpt lat="44.44191" lon="0.93377">
        <ele>115.01</ele>
        <time>2016-01-16T14:49:06Z</time>
      </trkpt>
      <trkpt lat="44.44167" lon="0.93398">
        <ele>114.53</ele>
        <time>2016-01-16T14:49:21Z</time>
      </trkpt>
      <trkpt lat="44.44149" lon="0.93442">
        <ele>116.46</ele>
        <time>2016-01-16T14:49:35Z</time>
      </trkpt>
      <trkpt lat="44.44134" lon="0.93484">
        <ele>118.38</ele>
        <time>2016-01-16T14:49:49Z</time>
      </trkpt>
      <trkpt lat="44.44136" lon="0.93516">
        <ele>117.9</ele>
        <time>2016-01-16T14:50:02Z</time>
      </trkpt>
      <trkpt lat="44.44136" lon="0.93516">
        <ele>117.9</ele>
        <time>2016-01-16T14:50:17Z</time>
      </trkpt>
      <trkpt lat="44.44135" lon="0.93517">
        <ele>117.42</ele>
        <time>2016-01-16T14:50:33Z</time>
      </trkpt>
      <trkpt lat="44.44137" lon="0.9352">
        <ele>116.94</ele>
        <time>2016-01-16T14:50:39Z</time>
      </trkpt>
      <trkpt lat="44.44138" lon="0.93521">
        <ele>116.94</ele>
        <time>2016-01-16T14:50:40Z</time>
      </trkpt>
      <trkpt lat="44.4414" lon="0.93522">
        <ele>116.94</ele>
        <time>2016-01-16T14:50:41Z</time>
      </trkpt>
      <trkpt lat="44.44141" lon="0.93522">
        <ele>116.94</ele>
        <time>2016-01-16T14:50:42Z</time>
      </trkpt>
      <trkpt lat="44.44142" lon="0.93523">
        <ele>116.94</ele>
        <time>2016-01-16T14:50:43Z</time>
      </trkpt>
      <trkpt lat="44.44143" lon="0.93525">
        <ele>117.42</ele>
        <time>2016-01-16T14:50:44Z</time>
      </trkpt>
      <trkpt lat="44.44144" lon="0.93527">
        <ele>116.94</ele>
        <time>2016-01-16T14:50:45Z</time>
      </trkpt>
      <trkpt lat="44.44144" lon="0.93529">
        <ele>117.42</ele>
        <time>2016-01-16T14:50:46Z</time>
      </trkpt>
      <trkpt lat="44.44164" lon="0.93577">
        <ele>116.46</ele>
        <time>2016-01-16T14:51:01Z</time>
      </trkpt>
      <trkpt lat="44.44164" lon="0.9364">
        <ele>117.42</ele>
        <time>2016-01-16T14:51:15Z</time>
      </trkpt>
      <trkpt lat="44.44149" lon="0.9372">
        <ele>119.82</ele>
        <time>2016-01-16T14:51:33Z</time>
      </trkpt>
      <trkpt lat="44.4413" lon="0.93823">
        <ele>120.78</ele>
        <time>2016-01-16T14:51:54Z</time>
      </trkpt>
      <trkpt lat="44.44115" lon="0.93907">
        <ele>120.78</ele>
        <time>2016-01-16T14:52:10Z</time>
      </trkpt>
      <trkpt lat="44.44098" lon="0.93952">
        <ele>120.78</ele>
        <time>2016-01-16T14:52:21Z</time>
      </trkpt>
      <trkpt lat="44.44067" lon="0.94014">
        <ele>121.26</ele>
        <time>2016-01-16T14:52:36Z</time>
      </trkpt>
      <trkpt lat="44.44027" lon="0.94088">
        <ele>123.19</ele>
        <time>2016-01-16T14:52:53Z</time>
      </trkpt>
      <trkpt lat="44.44011" lon="0.94121">
        <ele>124.15</ele>
        <time>2016-01-16T14:53:00Z</time>
      </trkpt>
      <trkpt lat="44.44" lon="0.94139">
        <ele>124.15</ele>
        <time>2016-01-16T14:53:04Z</time>
      </trkpt>
      <trkpt lat="44.43966" lon="0.9418">
        <ele>125.59</ele>
        <time>2016-01-16T14:53:16Z</time>
      </trkpt>
      <trkpt lat="44.4396" lon="0.94188">
        <ele>127.03</ele>
        <time>2016-01-16T14:53:28Z</time>
      </trkpt>
      <trkpt lat="44.43961" lon="0.94189">
        <ele>127.03</ele>
        <time>2016-01-16T14:53:39Z</time>
      </trkpt>
      <trkpt lat="44.43967" lon="0.9418">
        <ele>128.47</ele>
        <time>2016-01-16T14:53:45Z</time>
      </trkpt>
      <trkpt lat="44.43991" lon="0.94149">
        <ele>129.92</ele>
        <time>2016-01-16T14:53:57Z</time>
      </trkpt>
      <trkpt lat="44.4402" lon="0.94098">
        <ele>129.92</ele>
        <time>2016-01-16T14:54:09Z</time>
      </trkpt>
      <trkpt lat="44.44032" lon="0.94074">
        <ele>128.95</ele>
        <time>2016-01-16T14:54:14Z</time>
      </trkpt>
      <trkpt lat="44.44066" lon="0.94014">
        <ele>126.07</ele>
        <time>2016-01-16T14:54:28Z</time>
      </trkpt>
      <trkpt lat="44.44068" lon="0.94009">
        <ele>126.07</ele>
        <time>2016-01-16T14:54:30Z</time>
      </trkpt>
      <trkpt lat="44.44082" lon="0.9398">
        <ele>125.11</ele>
        <time>2016-01-16T14:54:41Z</time>
      </trkpt>
      <trkpt lat="44.44083" lon="0.93977">
        <ele>124.63</ele>
        <time>2016-01-16T14:54:43Z</time>
      </trkpt>
      <trkpt lat="44.44101" lon="0.93943">
        <ele>123.19</ele>
        <time>2016-01-16T14:54:57Z</time>
      </trkpt>
      <trkpt lat="44.44114" lon="0.93907">
        <ele>122.22</ele>
        <time>2016-01-16T14:55:09Z</time>
      </trkpt>
      <trkpt lat="44.44122" lon="0.93866">
        <ele>122.22</ele>
        <time>2016-01-16T14:55:22Z</time>
      </trkpt>
      <trkpt lat="44.44127" lon="0.93844">
        <ele>122.22</ele>
        <time>2016-01-16T14:55:29Z</time>
      </trkpt>
      <trkpt lat="44.44129" lon="0.93842">
        <ele>122.22</ele>
        <time>2016-01-16T14:55:30Z</time>
      </trkpt>
      <trkpt lat="44.4413" lon="0.9384">
        <ele>122.22</ele>
        <time>2016-01-16T14:55:31Z</time>
      </trkpt>
      <trkpt lat="44.44136" lon="0.93788">
        <ele>122.71</ele>
        <time>2016-01-16T14:55:45Z</time>
      </trkpt>
      <trkpt lat="44.44149" lon="0.93719">
        <ele>121.26</ele>
        <time>2016-01-16T14:56:01Z</time>
      </trkpt>
      <trkpt lat="44.44161" lon="0.93651">
        <ele>118.86</ele>
        <time>2016-01-16T14:56:16Z</time>
      </trkpt>
      <trkpt lat="44.44163" lon="0.93579">
        <ele>117.42</ele>
        <time>2016-01-16T14:56:31Z</time>
      </trkpt>
      <trkpt lat="44.44147" lon="0.93542">
        <ele>116.94</ele>
        <time>2016-01-16T14:56:42Z</time>
      </trkpt>
      <trkpt lat="44.44138" lon="0.93525">
        <ele>116.94</ele>
        <time>2016-01-16T14:56:52Z</time>
      </trkpt>
      <trkpt lat="44.44138" lon="0.93523">
        <ele>117.42</ele>
        <time>2016-01-16T14:57:07Z</time>
      </trkpt>
      <trkpt lat="44.4414" lon="0.93521">
        <ele>118.38</ele>
        <time>2016-01-16T14:57:12Z</time>
      </trkpt>
      <trkpt lat="44.44141" lon="0.93521">
        <ele>118.38</ele>
        <time>2016-01-16T14:57:13Z</time>
      </trkpt>
      <trkpt lat="44.44142" lon="0.93521">
        <ele>118.38</ele>
        <time>2016-01-16T14:57:14Z</time>
      </trkpt>
      <trkpt lat="44.44144" lon="0.93523">
        <ele>118.38</ele>
        <time>2016-01-16T14:57:15Z</time>
      </trkpt>
      <trkpt lat="44.44145" lon="0.93525">
        <ele>118.38</ele>
        <time>2016-01-16T14:57:16Z</time>
      </trkpt>
      <trkpt lat="44.44145" lon="0.93527">
        <ele>118.38</ele>
        <time>2016-01-16T14:57:17Z</time>
      </trkpt>
      <trkpt lat="44.44165" lon="0.93579">
        <ele>116.94</ele>
        <time>2016-01-16T14:57:31Z</time>
      </trkpt>
      <trkpt lat="44.44164" lon="0.93649">
        <ele>116.94</ele>
        <time>2016-01-16T14:57:45Z</time>
      </trkpt>
      <trkpt lat="44.44152" lon="0.9371">
        <ele>118.86</ele>
        <time>2016-01-16T14:57:58Z</time>
      </trkpt>
      <trkpt lat="44.44135" lon="0.93795">
        <ele>120.3</ele>
        <time>2016-01-16T14:58:15Z</time>
      </trkpt>
      <trkpt lat="44.44121" lon="0.93876">
        <ele>121.26</ele>
        <time>2016-01-16T14:58:30Z</time>
      </trkpt>
      <trkpt lat="44.44112" lon="0.9393">
        <ele>121.26</ele>
        <time>2016-01-16T14:58:41Z</time>
      </trkpt>
      <trkpt lat="44.44108" lon="0.9394">
        <ele>121.26</ele>
        <time>2016-01-16T14:58:45Z</time>
      </trkpt>
      <trkpt lat="44.44107" lon="0.93942">
        <ele>121.26</ele>
        <time>2016-01-16T14:58:46Z</time>
      </trkpt>
      <trkpt lat="44.44105" lon="0.93944">
        <ele>121.26</ele>
        <time>2016-01-16T14:58:47Z</time>
      </trkpt>
      <trkpt lat="44.44104" lon="0.93945">
        <ele>121.26</ele>
        <time>2016-01-16T14:58:48Z</time>
      </trkpt>
      <trkpt lat="44.44102" lon="0.93947">
        <ele>121.26</ele>
        <time>2016-01-16T14:58:49Z</time>
      </trkpt>
      <trkpt lat="44.44101" lon="0.93949">
        <ele>121.26</ele>
        <time>2016-01-16T14:58:50Z</time>
      </trkpt>
      <trkpt lat="44.44088" lon="0.93974">
        <ele>120.78</ele>
        <time>2016-01-16T14:59:04Z</time>
      </trkpt>
      <trkpt lat="44.44083" lon="0.93986">
        <ele>121.26</ele>
        <time>2016-01-16T14:59:16Z</time>
      </trkpt>
      <trkpt lat="44.44082" lon="0.93991">
        <ele>121.74</ele>
        <time>2016-01-16T14:59:29Z</time>
      </trkpt>
      <trkpt lat="44.44074" lon="0.94006">
        <ele>122.71</ele>
        <time>2016-01-16T14:59:42Z</time>
      </trkpt>
      <trkpt lat="44.44073" lon="0.94008">
        <ele>122.71</ele>
        <time>2016-01-16T14:59:43Z</time>
      </trkpt>
      <trkpt lat="44.44072" lon="0.9401">
        <ele>123.19</ele>
        <time>2016-01-16T14:59:44Z</time>
      </trkpt>
      <trkpt lat="44.44069" lon="0.94017">
        <ele>122.71</ele>
        <time>2016-01-16T14:59:54Z</time>
      </trkpt>
      <trkpt lat="44.44055" lon="0.94044">
        <ele>123.19</ele>
        <time>2016-01-16T15:00:06Z</time>
      </trkpt>
      <trkpt lat="44.44051" lon="0.9405">
        <ele>123.19</ele>
        <time>2016-01-16T15:00:08Z</time>
      </trkpt>
      <trkpt lat="44.44046" lon="0.94058">
        <ele>124.15</ele>
        <time>2016-01-16T15:00:11Z</time>
      </trkpt>
      <trkpt lat="44.44022" lon="0.94109">
        <ele>127.03</ele>
        <time>2016-01-16T15:00:26Z</time>
      </trkpt>
      <trkpt lat="44.44003" lon="0.94144">
        <ele>131.36</ele>
        <time>2016-01-16T15:00:37Z</time>
      </trkpt>
      <trkpt lat="44.43975" lon="0.94177">
        <ele>135.2</ele>
        <time>2016-01-16T15:00:50Z</time>
      </trkpt>
      <trkpt lat="44.43959" lon="0.94193">
        <ele>131.36</ele>
        <time>2016-01-16T15:01:03Z</time>
      </trkpt>
      <trkpt lat="44.43939" lon="0.94222">
        <ele>130.4</ele>
        <time>2016-01-16T15:01:14Z</time>
      </trkpt>
      <trkpt lat="44.43917" lon="0.94266">
        <ele>132.32</ele>
        <time>2016-01-16T15:01:28Z</time>
      </trkpt>
      <trkpt lat="44.43916" lon="0.94268">
        <ele>132.32</ele>
        <time>2016-01-16T15:01:29Z</time>
      </trkpt>
      <trkpt lat="44.43912" lon="0.94273">
        <ele>130.4</ele>
        <time>2016-01-16T15:01:40Z</time>
      </trkpt>
      <trkpt lat="44.4391" lon="0.94277">
        <ele>129.92</ele>
        <time>2016-01-16T15:01:52Z</time>
      </trkpt>
      <trkpt lat="44.43889" lon="0.94321">
        <ele>129.43</ele>
        <time>2016-01-16T15:02:05Z</time>
      </trkpt>
      <trkpt lat="44.4386" lon="0.94375">
        <ele>127.99</ele>
        <time>2016-01-16T15:02:18Z</time>
      </trkpt>
      <trkpt lat="44.43857" lon="0.94394">
        <ele>127.03</ele>
        <time>2016-01-16T15:02:21Z</time>
      </trkpt>
      <trkpt lat="44.43851" lon="0.94449">
        <ele>125.11</ele>
        <time>2016-01-16T15:02:29Z</time>
      </trkpt>
      <trkpt lat="44.43849" lon="0.94455">
        <ele>125.11</ele>
        <time>2016-01-16T15:02:30Z</time>
      </trkpt>
      <trkpt lat="44.43848" lon="0.94461">
        <ele>125.11</ele>
        <time>2016-01-16T15:02:31Z</time>
      </trkpt>
      <trkpt lat="44.43813" lon="0.94531">
        <ele>125.11</ele>
        <time>2016-01-16T15:02:45Z</time>
      </trkpt>
      <trkpt lat="44.43773" lon="0.94575">
        <ele>128.47</ele>
        <time>2016-01-16T15:02:59Z</time>
      </trkpt>
      <trkpt lat="44.43742" lon="0.94598">
        <ele>127.51</ele>
        <time>2016-01-16T15:03:09Z</time>
      </trkpt>
      <trkpt lat="44.43749" lon="0.94634">
        <ele>128.95</ele>
        <time>2016-01-16T15:03:20Z</time>
      </trkpt>
      <trkpt lat="44.43766" lon="0.94699">
        <ele>126.07</ele>
        <time>2016-01-16T15:03:36Z</time>
      </trkpt>
      <trkpt lat="44.43772" lon="0.94712">
        <ele>125.59</ele>
        <time>2016-01-16T15:03:39Z</time>
      </trkpt>
      <trkpt lat="44.43784" lon="0.94757">
        <ele>125.59</ele>
        <time>2016-01-16T15:03:48Z</time>
      </trkpt>
      <trkpt lat="44.43786" lon="0.94777">
        <ele>125.59</ele>
        <time>2016-01-16T15:03:52Z</time>
      </trkpt>
      <trkpt lat="44.43787" lon="0.94807">
        <ele>123.67</ele>
        <time>2016-01-16T15:03:58Z</time>
      </trkpt>
      <trkpt lat="44.43789" lon="0.94829">
        <ele>123.19</ele>
        <time>2016-01-16T15:04:02Z</time>
      </trkpt>
      <trkpt lat="44.4379" lon="0.94841">
        <ele>122.71</ele>
        <time>2016-01-16T15:04:04Z</time>
      </trkpt>
      <trkpt lat="44.43791" lon="0.94855">
        <ele>122.22</ele>
        <time>2016-01-16T15:04:06Z</time>
      </trkpt>
      <trkpt lat="44.43797" lon="0.94884">
        <ele>121.74</ele>
        <time>2016-01-16T15:04:10Z</time>
      </trkpt>
      <trkpt lat="44.43801" lon="0.94901">
        <ele>120.78</ele>
        <time>2016-01-16T15:04:13Z</time>
      </trkpt>
      <trkpt lat="44.43805" lon="0.94912">
        <ele>119.34</ele>
        <time>2016-01-16T15:04:15Z</time>
      </trkpt>
      <trkpt lat="44.43823" lon="0.94945">
        <ele>115.5</ele>
        <time>2016-01-16T15:04:22Z</time>
      </trkpt>
      <trkpt lat="44.43827" lon="0.9495">
        <ele>114.53</ele>
        <time>2016-01-16T15:04:25Z</time>
      </trkpt>
      <trkpt lat="44.43836" lon="0.94973">
        <ele>112.13</ele>
        <time>2016-01-16T15:04:31Z</time>
      </trkpt>
      <trkpt lat="44.4388" lon="0.9502">
        <ele>103.96</ele>
        <time>2016-01-16T15:04:42Z</time>
      </trkpt>
      <trkpt lat="44.43887" lon="0.95042">
        <ele>107.81</ele>
        <time>2016-01-16T15:04:49Z</time>
      </trkpt>
      <trkpt lat="44.43884" lon="0.9506">
        <ele>107.32</ele>
        <time>2016-01-16T15:04:55Z</time>
      </trkpt>
      <trkpt lat="44.43868" lon="0.95088">
        <ele>106.84</ele>
        <time>2016-01-16T15:05:08Z</time>
      </trkpt>
      <trkpt lat="44.43861" lon="0.95095">
        <ele>107.81</ele>
        <time>2016-01-16T15:05:15Z</time>
      </trkpt>
      <trkpt lat="44.43862" lon="0.95103">
        <ele>106.84</ele>
        <time>2016-01-16T15:05:19Z</time>
      </trkpt>
      <trkpt lat="44.43861" lon="0.95121">
        <ele>105.4</ele>
        <time>2016-01-16T15:05:26Z</time>
      </trkpt>
      <trkpt lat="44.43863" lon="0.95139">
        <ele>106.36</ele>
        <time>2016-01-16T15:05:36Z</time>
      </trkpt>
      <trkpt lat="44.43865" lon="0.95158">
        <ele>108.29</ele>
        <time>2016-01-16T15:05:49Z</time>
      </trkpt>
      <trkpt lat="44.43867" lon="0.9518">
        <ele>110.69</ele>
        <time>2016-01-16T15:05:58Z</time>
      </trkpt>
      <trkpt lat="44.43868" lon="0.95198">
        <ele>113.09</ele>
        <time>2016-01-16T15:06:04Z</time>
      </trkpt>
      <trkpt lat="44.4387" lon="0.95238">
        <ele>118.38</ele>
        <time>2016-01-16T15:06:15Z</time>
      </trkpt>
      <trkpt lat="44.43877" lon="0.9526">
        <ele>124.15</ele>
        <time>2016-01-16T15:06:21Z</time>
      </trkpt>
      <trkpt lat="44.43871" lon="0.95291">
        <ele>129.92</ele>
        <time>2016-01-16T15:06:32Z</time>
      </trkpt>
      <trkpt lat="44.43866" lon="0.95305">
        <ele>129.92</ele>
        <time>2016-01-16T15:06:36Z</time>
      </trkpt>
      <trkpt lat="44.43855" lon="0.95336">
        <ele>136.16</ele>
        <time>2016-01-16T15:06:48Z</time>
      </trkpt>
      <trkpt lat="44.43852" lon="0.95367">
        <ele>140.01</ele>
        <time>2016-01-16T15:06:59Z</time>
      </trkpt>
      <trkpt lat="44.43853" lon="0.95376">
        <ele>140.01</ele>
        <time>2016-01-16T15:07:03Z</time>
      </trkpt>
      <trkpt lat="44.43855" lon="0.95386">
        <ele>139.53</ele>
        <time>2016-01-16T15:07:07Z</time>
      </trkpt>
      <trkpt lat="44.43856" lon="0.95395">
        <ele>139.53</ele>
        <time>2016-01-16T15:07:11Z</time>
      </trkpt>
      <trkpt lat="44.43859" lon="0.95437">
        <ele>138.09</ele>
        <time>2016-01-16T15:07:26Z</time>
      </trkpt>
      <trkpt lat="44.43856" lon="0.95449">
        <ele>132.32</ele>
        <time>2016-01-16T15:07:30Z</time>
      </trkpt>
      <trkpt lat="44.43851" lon="0.95461">
        <ele>130.88</ele>
        <time>2016-01-16T15:07:36Z</time>
      </trkpt>
      <trkpt lat="44.43831" lon="0.95504">
        <ele>125.59</ele>
        <time>2016-01-16T15:07:54Z</time>
      </trkpt>
      <trkpt lat="44.43813" lon="0.95548">
        <ele>122.22</ele>
        <time>2016-01-16T15:08:12Z</time>
      </trkpt>
      <trkpt lat="44.43795" lon="0.95589">
        <ele>120.3</ele>
        <time>2016-01-16T15:08:29Z</time>
      </trkpt>
      <trkpt lat="44.43792" lon="0.95593">
        <ele>120.3</ele>
        <time>2016-01-16T15:08:32Z</time>
      </trkpt>
      <trkpt lat="44.43773" lon="0.95625">
        <ele>122.22</ele>
        <time>2016-01-16T15:08:46Z</time>
      </trkpt>
      <trkpt lat="44.43748" lon="0.95668">
        <ele>125.11</ele>
        <time>2016-01-16T15:09:02Z</time>
      </trkpt>
      <trkpt lat="44.43732" lon="0.95701">
        <ele>126.07</ele>
        <time>2016-01-16T15:09:15Z</time>
      </trkpt>
      <trkpt lat="44.43731" lon="0.9571">
        <ele>126.55</ele>
        <time>2016-01-16T15:09:18Z</time>
      </trkpt>
      <trkpt lat="44.43735" lon="0.95714">
        <ele>124.63</ele>
        <time>2016-01-16T15:09:28Z</time>
      </trkpt>
      <trkpt lat="44.43735" lon="0.95713">
        <ele>123.19</ele>
        <time>2016-01-16T15:09:44Z</time>
      </trkpt>
      <trkpt lat="44.43735" lon="0.95713">
        <ele>123.67</ele>
        <time>2016-01-16T15:10:02Z</time>
      </trkpt>
      <trkpt lat="44.43735" lon="0.95714">
        <ele>122.71</ele>
        <time>2016-01-16T15:10:21Z</time>
      </trkpt>
      <trkpt lat="44.43734" lon="0.95712">
        <ele>120.3</ele>
        <time>2016-01-16T15:10:45Z</time>
      </trkpt>
      <trkpt lat="44.43734" lon="0.95713">
        <ele>119.82</ele>
        <time>2016-01-16T15:11:02Z</time>
      </trkpt>
      <trkpt lat="44.4374" lon="0.95712">
        <ele>119.82</ele>
        <time>2016-01-16T15:11:26Z</time>
      </trkpt>
      <trkpt lat="44.43781" lon="0.95716">
        <ele>117.9</ele>
        <time>2016-01-16T15:11:40Z</time>
      </trkpt>
      <trkpt lat="44.43832" lon="0.95715">
        <ele>114.05</ele>
        <time>2016-01-16T15:11:53Z</time>
      </trkpt>
      <trkpt lat="44.43868" lon="0.95709">
        <ele>111.17</ele>
        <time>2016-01-16T15:12:01Z</time>
      </trkpt>
      <trkpt lat="44.43926" lon="0.95697">
        <ele>111.65</ele>
        <time>2016-01-16T15:12:17Z</time>
      </trkpt>
      <trkpt lat="44.43965" lon="0.95675">
        <ele>118.86</ele>
        <time>2016-01-16T15:12:30Z</time>
      </trkpt>
      <trkpt lat="44.43996" lon="0.95666">
        <ele>121.74</ele>
        <time>2016-01-16T15:12:40Z</time>
      </trkpt>
      <trkpt lat="44.44021" lon="0.95642">
        <ele>123.67</ele>
        <time>2016-01-16T15:12:53Z</time>
      </trkpt>
      <trkpt lat="44.44039" lon="0.95618">
        <ele>122.71</ele>
        <time>2016-01-16T15:13:05Z</time>
      </trkpt>
      <trkpt lat="44.44069" lon="0.95585">
        <ele>123.67</ele>
        <time>2016-01-16T15:13:22Z</time>
      </trkpt>
      <trkpt lat="44.44105" lon="0.9555">
        <ele>123.67</ele>
        <time>2016-01-16T15:13:38Z</time>
      </trkpt>
      <trkpt lat="44.44137" lon="0.95522">
        <ele>121.74</ele>
        <time>2016-01-16T15:13:49Z</time>
      </trkpt>
      <trkpt lat="44.44147" lon="0.95512">
        <ele>121.26</ele>
        <time>2016-01-16T15:13:52Z</time>
      </trkpt>
      <trkpt lat="44.44198" lon="0.95468">
        <ele>119.82</ele>
        <time>2016-01-16T15:14:08Z</time>
      </trkpt>
      <trkpt lat="44.44228" lon="0.95444">
        <ele>122.22</ele>
        <time>2016-01-16T15:14:20Z</time>
      </trkpt>
      <trkpt lat="44.44261" lon="0.95412">
        <ele>122.71</ele>
        <time>2016-01-16T15:14:32Z</time>
      </trkpt>
      <trkpt lat="44.44296" lon="0.95385">
        <ele>124.15</ele>
        <time>2016-01-16T15:14:45Z</time>
      </trkpt>
      <trkpt lat="44.44299" lon="0.95385">
        <ele>124.15</ele>
        <time>2016-01-16T15:14:46Z</time>
      </trkpt>
      <trkpt lat="44.443" lon="0.95384">
        <ele>124.15</ele>
        <time>2016-01-16T15:14:47Z</time>
      </trkpt>
      <trkpt lat="44.44306" lon="0.95384">
        <ele>123.67</ele>
        <time>2016-01-16T15:14:51Z</time>
      </trkpt>
      <trkpt lat="44.44308" lon="0.95385">
        <ele>123.67</ele>
        <time>2016-01-16T15:14:52Z</time>
      </trkpt>
      <trkpt lat="44.44309" lon="0.95386">
        <ele>123.67</ele>
        <time>2016-01-16T15:14:53Z</time>
      </trkpt>
      <trkpt lat="44.44309" lon="0.95388">
        <ele>123.19</ele>
        <time>2016-01-16T15:15:03Z</time>
      </trkpt>
      <trkpt lat="44.44309" lon="0.95389">
        <ele>123.19</ele>
        <time>2016-01-16T15:15:25Z</time>
      </trkpt>
      <trkpt lat="44.4431" lon="0.9539">
        <ele>123.19</ele>
        <time>2016-01-16T15:15:44Z</time>
      </trkpt>
      <trkpt lat="44.4431" lon="0.9539">
        <ele>123.67</ele>
        <time>2016-01-16T15:16:15Z</time>
      </trkpt>
      <trkpt lat="44.4431" lon="0.95391">
        <ele>123.19</ele>
        <time>2016-01-16T15:16:37Z</time>
      </trkpt>
      <trkpt lat="44.44321" lon="0.95415">
        <ele>122.71</ele>
        <time>2016-01-16T15:16:47Z</time>
      </trkpt>
      <trkpt lat="44.44342" lon="0.95467">
        <ele>123.19</ele>
        <time>2016-01-16T15:17:02Z</time>
      </trkpt>
      <trkpt lat="44.44368" lon="0.95535">
        <ele>124.63</ele>
        <time>2016-01-16T15:17:21Z</time>
      </trkpt>
      <trkpt lat="44.44395" lon="0.95604">
        <ele>126.07</ele>
        <time>2016-01-16T15:17:38Z</time>
      </trkpt>
      <trkpt lat="44.44416" lon="0.9566">
        <ele>128.47</ele>
        <time>2016-01-16T15:17:52Z</time>
      </trkpt>
      <trkpt lat="44.44431" lon="0.95695">
        <ele>130.4</ele>
        <time>2016-01-16T15:18:02Z</time>
      </trkpt>
      <trkpt lat="44.44438" lon="0.9569">
        <ele>131.36</ele>
        <time>2016-01-16T15:18:05Z</time>
      </trkpt>
      <trkpt lat="44.44482" lon="0.95641">
        <ele>131.84</ele>
        <time>2016-01-16T15:18:22Z</time>
      </trkpt>
      <trkpt lat="44.44518" lon="0.95605">
        <ele>132.32</ele>
        <time>2016-01-16T15:18:35Z</time>
      </trkpt>
      <trkpt lat="44.44557" lon="0.95582">
        <ele>134.24</ele>
        <time>2016-01-16T15:18:49Z</time>
      </trkpt>
      <trkpt lat="44.44591" lon="0.95576">
        <ele>140.97</ele>
        <time>2016-01-16T15:19:01Z</time>
      </trkpt>
      <trkpt lat="44.44647" lon="0.95583">
        <ele>140.01</ele>
        <time>2016-01-16T15:19:18Z</time>
      </trkpt>
      <trkpt lat="44.44705" lon="0.95592">
        <ele>137.13</ele>
        <time>2016-01-16T15:19:36Z</time>
      </trkpt>
      <trkpt lat="44.44757" lon="0.95597">
        <ele>137.61</ele>
        <time>2016-01-16T15:19:52Z</time>
      </trkpt>
      <trkpt lat="44.44811" lon="0.95604">
        <ele>137.61</ele>
        <time>2016-01-16T15:20:09Z</time>
      </trkpt>
      <trkpt lat="44.44868" lon="0.95634">
        <ele>138.09</ele>
        <time>2016-01-16T15:20:26Z</time>
      </trkpt>
      <trkpt lat="44.44904" lon="0.95643">
        <ele>136.64</ele>
        <time>2016-01-16T15:20:36Z</time>
      </trkpt>
      <trkpt lat="44.44907" lon="0.95639">
        <ele>136.64</ele>
        <time>2016-01-16T15:20:37Z</time>
      </trkpt>
      <trkpt lat="44.4491" lon="0.95635">
        <ele>136.64</ele>
        <time>2016-01-16T15:20:38Z</time>
      </trkpt>
      <trkpt lat="44.44913" lon="0.9563">
        <ele>136.16</ele>
        <time>2016-01-16T15:20:39Z</time>
      </trkpt>
      <trkpt lat="44.44916" lon="0.95626">
        <ele>135.68</ele>
        <time>2016-01-16T15:20:40Z</time>
      </trkpt>
      <trkpt lat="44.44921" lon="0.95622">
        <ele>135.68</ele>
        <time>2016-01-16T15:20:41Z</time>
      </trkpt>
      <trkpt lat="44.44925" lon="0.95619">
        <ele>135.2</ele>
        <time>2016-01-16T15:20:42Z</time>
      </trkpt>
      <trkpt lat="44.44993" lon="0.95579">
        <ele>132.32</ele>
        <time>2016-01-16T15:20:54Z</time>
      </trkpt>
      <trkpt lat="44.45045" lon="0.95534">
        <ele>131.36</ele>
        <time>2016-01-16T15:21:05Z</time>
      </trkpt>
      <trkpt lat="44.45063" lon="0.95515">
        <ele>131.84</ele>
        <time>2016-01-16T15:21:15Z</time>
      </trkpt>
      <trkpt lat="44.45063" lon="0.95514">
        <ele>130.4</ele>
        <time>2016-01-16T15:21:35Z</time>
      </trkpt>
      <trkpt lat="44.45063" lon="0.95514">
        <ele>129.92</ele>
        <time>2016-01-16T15:21:57Z</time>
      </trkpt>
      <trkpt lat="44.45064" lon="0.95513">
        <ele>129.92</ele>
        <time>2016-01-16T15:22:24Z</time>
      </trkpt>
      <trkpt lat="44.45064" lon="0.95514">
        <ele>129.43</ele>
        <time>2016-01-16T15:22:47Z</time>
      </trkpt>
      <trkpt lat="44.45063" lon="0.95514">
        <ele>129.92</ele>
        <time>2016-01-16T15:23:12Z</time>
      </trkpt>
      <trkpt lat="44.45064" lon="0.95514">
        <ele>129.43</ele>
        <time>2016-01-16T15:23:40Z</time>
      </trkpt>
      <trkpt lat="44.45064" lon="0.95514">
        <ele>129.43</ele>
        <time>2016-01-16T15:23:44Z</time>
      </trkpt>
      <trkpt lat="44.45064" lon="0.95512">
        <ele>129.92</ele>
        <time>2016-01-16T15:23:45Z</time>
      </trkpt>
      <trkpt lat="44.45063" lon="0.95509">
        <ele>129.92</ele>
        <time>2016-01-16T15:23:46Z</time>
      </trkpt>
      <trkpt lat="44.45042" lon="0.95464">
        <ele>129.43</ele>
        <time>2016-01-16T15:23:57Z</time>
      </trkpt>
      <trkpt lat="44.45012" lon="0.95404">
        <ele>128.47</ele>
        <time>2016-01-16T15:24:10Z</time>
      </trkpt>
      <trkpt lat="44.45034" lon="0.95376">
        <ele>127.03</ele>
        <time>2016-01-16T15:24:18Z</time>
      </trkpt>
      <trkpt lat="44.45076" lon="0.95321">
        <ele>127.03</ele>
        <time>2016-01-16T15:24:32Z</time>
      </trkpt>
      <trkpt lat="44.45122" lon="0.95263">
        <ele>127.99</ele>
        <time>2016-01-16T15:24:45Z</time>
      </trkpt>
      <trkpt lat="44.4513" lon="0.95253">
        <ele>128.47</ele>
        <time>2016-01-16T15:24:47Z</time>
      </trkpt>
      <trkpt lat="44.4516" lon="0.95212">
        <ele>130.4</ele>
        <time>2016-01-16T15:25:00Z</time>
      </trkpt>
      <trkpt lat="44.45175" lon="0.95165">
        <ele>131.36</ele>
        <time>2016-01-16T15:25:12Z</time>
      </trkpt>
      <trkpt lat="44.45176" lon="0.95152">
        <ele>131.84</ele>
        <time>2016-01-16T15:25:15Z</time>
      </trkpt>
      <trkpt lat="44.45179" lon="0.95131">
        <ele>133.76</ele>
        <time>2016-01-16T15:25:21Z</time>
      </trkpt>
      <trkpt lat="44.45187" lon="0.95076">
        <ele>142.41</ele>
        <time>2016-01-16T15:25:34Z</time>
      </trkpt>
      <trkpt lat="44.45197" lon="0.95028">
        <ele>144.82</ele>
        <time>2016-01-16T15:25:44Z</time>
      </trkpt>
      <trkpt lat="44.45214" lon="0.94995">
        <ele>144.34</ele>
        <time>2016-01-16T15:25:54Z</time>
      </trkpt>
      <trkpt lat="44.45229" lon="0.94975">
        <ele>140.97</ele>
        <time>2016-01-16T15:26:02Z</time>
      </trkpt>
      <trkpt lat="44.45242" lon="0.94964">
        <ele>140.97</ele>
        <time>2016-01-16T15:26:07Z</time>
      </trkpt>
      <trkpt lat="44.45249" lon="0.94963">
        <ele>140.97</ele>
        <time>2016-01-16T15:26:11Z</time>
      </trkpt>
      <trkpt lat="44.45293" lon="0.94948">
        <ele>141.93</ele>
        <time>2016-01-16T15:26:22Z</time>
      </trkpt>
      <trkpt lat="44.45298" lon="0.94947">
        <ele>141.93</ele>
        <time>2016-01-16T15:26:23Z</time>
      </trkpt>
      <trkpt lat="44.45314" lon="0.94943">
        <ele>142.41</ele>
        <time>2016-01-16T15:26:26Z</time>
      </trkpt>
      <trkpt lat="44.45344" lon="0.94927">
        <ele>142.41</ele>
        <time>2016-01-16T15:26:33Z</time>
      </trkpt>
      <trkpt lat="44.45356" lon="0.94921">
        <ele>140.01</ele>
        <time>2016-01-16T15:26:37Z</time>
      </trkpt>
      <trkpt lat="44.45384" lon="0.949">
        <ele>138.09</ele>
        <time>2016-01-16T15:26:45Z</time>
      </trkpt>
      <trkpt lat="44.45407" lon="0.949">
        <ele>137.13</ele>
        <time>2016-01-16T15:26:50Z</time>
      </trkpt>
      <trkpt lat="44.4544" lon="0.94897">
        <ele>132.8</ele>
        <time>2016-01-16T15:26:57Z</time>
      </trkpt>
      <trkpt lat="44.45474" lon="0.94893">
        <ele>123.19</ele>
        <time>2016-01-16T15:27:06Z</time>
      </trkpt>
      <trkpt lat="44.45508" lon="0.94887">
        <ele>122.22</ele>
        <time>2016-01-16T15:27:16Z</time>
      </trkpt>
      <trkpt lat="44.45548" lon="0.94878">
        <ele>124.15</ele>
        <time>2016-01-16T15:27:26Z</time>
      </trkpt>
      <trkpt lat="44.45603" lon="0.94839">
        <ele>120.3</ele>
        <time>2016-01-16T15:27:41Z</time>
      </trkpt>
      <trkpt lat="44.45626" lon="0.94815">
        <ele>119.34</ele>
        <time>2016-01-16T15:27:48Z</time>
      </trkpt>
      <trkpt lat="44.45629" lon="0.94811">
        <ele>118.86</ele>
        <time>2016-01-16T15:27:49Z</time>
      </trkpt>
      <trkpt lat="44.45663" lon="0.9478">
        <ele>117.42</ele>
        <time>2016-01-16T15:27:56Z</time>
      </trkpt>
      <trkpt lat="44.45668" lon="0.94777">
        <ele>116.94</ele>
        <time>2016-01-16T15:27:57Z</time>
      </trkpt>
      <trkpt lat="44.45673" lon="0.94774">
        <ele>116.94</ele>
        <time>2016-01-16T15:27:58Z</time>
      </trkpt>
      <trkpt lat="44.45677" lon="0.94773">
        <ele>116.94</ele>
        <time>2016-01-16T15:27:59Z</time>
      </trkpt>
      <trkpt lat="44.45682" lon="0.94772">
        <ele>116.46</ele>
        <time>2016-01-16T15:28:00Z</time>
      </trkpt>
      <trkpt lat="44.45717" lon="0.94774">
        <ele>116.46</ele>
        <time>2016-01-16T15:28:07Z</time>
      </trkpt>
      <trkpt lat="44.45721" lon="0.94774">
        <ele>116.94</ele>
        <time>2016-01-16T15:28:08Z</time>
      </trkpt>
      <trkpt lat="44.45726" lon="0.94774">
        <ele>116.94</ele>
        <time>2016-01-16T15:28:09Z</time>
      </trkpt>
      <trkpt lat="44.4573" lon="0.94773">
        <ele>116.94</ele>
        <time>2016-01-16T15:28:10Z</time>
      </trkpt>
      <trkpt lat="44.45734" lon="0.94773">
        <ele>117.42</ele>
        <time>2016-01-16T15:28:11Z</time>
      </trkpt>
      <trkpt lat="44.45793" lon="0.94756">
        <ele>116.94</ele>
        <time>2016-01-16T15:28:25Z</time>
      </trkpt>
      <trkpt lat="44.45825" lon="0.9475">
        <ele>115.01</ele>
        <time>2016-01-16T15:28:32Z</time>
      </trkpt>
      <trkpt lat="44.45829" lon="0.9475">
        <ele>114.53</ele>
        <time>2016-01-16T15:28:33Z</time>
      </trkpt>
      <trkpt lat="44.45834" lon="0.94751">
        <ele>114.53</ele>
        <time>2016-01-16T15:28:34Z</time>
      </trkpt>
      <trkpt lat="44.45839" lon="0.94751">
        <ele>114.05</ele>
        <time>2016-01-16T15:28:35Z</time>
      </trkpt>
      <trkpt lat="44.45843" lon="0.94752">
        <ele>113.57</ele>
        <time>2016-01-16T15:28:36Z</time>
      </trkpt>
      <trkpt lat="44.45848" lon="0.94754">
        <ele>112.61</ele>
        <time>2016-01-16T15:28:37Z</time>
      </trkpt>
      <trkpt lat="44.45897" lon="0.94767">
        <ele>109.73</ele>
        <time>2016-01-16T15:28:47Z</time>
      </trkpt>
      <trkpt lat="44.45902" lon="0.94768">
        <ele>109.25</ele>
        <time>2016-01-16T15:28:48Z</time>
      </trkpt>
      <trkpt lat="44.45986" lon="0.94767">
        <ele>106.84</ele>
        <time>2016-01-16T15:29:06Z</time>
      </trkpt>
      <trkpt lat="44.46047" lon="0.94768">
        <ele>104.92</ele>
        <time>2016-01-16T15:29:21Z</time>
      </trkpt>
      <trkpt lat="44.46098" lon="0.94781">
        <ele>101.56</ele>
        <time>2016-01-16T15:29:34Z</time>
      </trkpt>
      <trkpt lat="44.46151" lon="0.94794">
        <ele>100.11</ele>
        <time>2016-01-16T15:29:45Z</time>
      </trkpt>
      <trkpt lat="44.46191" lon="0.94792">
        <ele>98.19</ele>
        <time>2016-01-16T15:29:56Z</time>
      </trkpt>
      <trkpt lat="44.46191" lon="0.9479">
        <ele>97.23</ele>
        <time>2016-01-16T15:30:07Z</time>
      </trkpt>
      <trkpt lat="44.4619" lon="0.9479">
        <ele>96.75</ele>
        <time>2016-01-16T15:30:28Z</time>
      </trkpt>
      <trkpt lat="44.46191" lon="0.94786">
        <ele>96.27</ele>
        <time>2016-01-16T15:30:45Z</time>
      </trkpt>
      <trkpt lat="44.46191" lon="0.94785">
        <ele>96.27</ele>
        <time>2016-01-16T15:30:46Z</time>
      </trkpt>
      <trkpt lat="44.46192" lon="0.94783">
        <ele>96.27</ele>
        <time>2016-01-16T15:30:47Z</time>
      </trkpt>
      <trkpt lat="44.46191" lon="0.9478">
        <ele>96.75</ele>
        <time>2016-01-16T15:30:50Z</time>
      </trkpt>
      <trkpt lat="44.46192" lon="0.94776">
        <ele>96.75</ele>
        <time>2016-01-16T15:30:54Z</time>
      </trkpt>
      <trkpt lat="44.46193" lon="0.94774">
        <ele>96.75</ele>
        <time>2016-01-16T15:30:55Z</time>
      </trkpt>
      <trkpt lat="44.46193" lon="0.94772">
        <ele>97.23</ele>
        <time>2016-01-16T15:30:56Z</time>
      </trkpt>
      <trkpt lat="44.46199" lon="0.94752">
        <ele>100.11</ele>
        <time>2016-01-16T15:31:05Z</time>
      </trkpt>
      <trkpt lat="44.46206" lon="0.94744">
        <ele>101.56</ele>
        <time>2016-01-16T15:31:10Z</time>
      </trkpt>
      <trkpt lat="44.46212" lon="0.94729">
        <ele>103</ele>
        <time>2016-01-16T15:31:18Z</time>
      </trkpt>
      <trkpt lat="44.46223" lon="0.94719">
        <ele>103.96</ele>
        <time>2016-01-16T15:31:24Z</time>
      </trkpt>
      <trkpt lat="44.4623" lon="0.94708">
        <ele>104.92</ele>
        <time>2016-01-16T15:31:28Z</time>
      </trkpt>
      <trkpt lat="44.46244" lon="0.94696">
        <ele>104.92</ele>
        <time>2016-01-16T15:31:35Z</time>
      </trkpt>
      <trkpt lat="44.46267" lon="0.94658">
        <ele>103</ele>
        <time>2016-01-16T15:31:45Z</time>
      </trkpt>
      <trkpt lat="44.46278" lon="0.94634">
        <ele>101.08</ele>
        <time>2016-01-16T15:31:49Z</time>
      </trkpt>
      <trkpt lat="44.46294" lon="0.94596">
        <ele>95.31</ele>
        <time>2016-01-16T15:31:59Z</time>
      </trkpt>
      <trkpt lat="44.46295" lon="0.94595">
        <ele>92.42</ele>
        <time>2016-01-16T15:32:13Z</time>
      </trkpt>
      <trkpt lat="44.46295" lon="0.94595">
        <ele>91.46</ele>
        <time>2016-01-16T15:32:17Z</time>
      </trkpt>
      <trkpt lat="44.46274" lon="0.9456">
        <ele>87.62</ele>
        <time>2016-01-16T15:32:29Z</time>
      </trkpt>
      <trkpt lat="44.4624" lon="0.94514">
        <ele>85.69</ele>
        <time>2016-01-16T15:32:43Z</time>
      </trkpt>
      <trkpt lat="44.46198" lon="0.94456">
        <ele>84.25</ele>
        <time>2016-01-16T15:32:59Z</time>
      </trkpt>
      <trkpt lat="44.46202" lon="0.94434">
        <ele>84.25</ele>
        <time>2016-01-16T15:33:03Z</time>
      </trkpt>
      <trkpt lat="44.46229" lon="0.94358">
        <ele>80.89</ele>
        <time>2016-01-16T15:33:19Z</time>
      </trkpt>
      <trkpt lat="44.46253" lon="0.94331">
        <ele>80.41</ele>
        <time>2016-01-16T15:33:29Z</time>
      </trkpt>
      <trkpt lat="44.4629" lon="0.94291">
        <ele>80.41</ele>
        <time>2016-01-16T15:33:43Z</time>
      </trkpt>
      <trkpt lat="44.46332" lon="0.94246">
        <ele>79.93</ele>
        <time>2016-01-16T15:33:59Z</time>
      </trkpt>
      <trkpt lat="44.46364" lon="0.94213">
        <ele>81.37</ele>
        <time>2016-01-16T15:34:09Z</time>
      </trkpt>
      <trkpt lat="44.46367" lon="0.9421">
        <ele>81.37</ele>
        <time>2016-01-16T15:34:10Z</time>
      </trkpt>
      <trkpt lat="44.46392" lon="0.94182">
        <ele>81.85</ele>
        <time>2016-01-16T15:34:18Z</time>
      </trkpt>
      <trkpt lat="44.46422" lon="0.94149">
        <ele>81.37</ele>
        <time>2016-01-16T15:34:27Z</time>
      </trkpt>
      <trkpt lat="44.46435" lon="0.94135">
        <ele>81.37</ele>
        <time>2016-01-16T15:34:31Z</time>
      </trkpt>
      <trkpt lat="44.46497" lon="0.94066">
        <ele>80.41</ele>
        <time>2016-01-16T15:34:50Z</time>
      </trkpt>
      <trkpt lat="44.46516" lon="0.9405">
        <ele>80.41</ele>
        <time>2016-01-16T15:34:55Z</time>
      </trkpt>
      <trkpt lat="44.46586" lon="0.94019">
        <ele>79.93</ele>
        <time>2016-01-16T15:35:12Z</time>
      </trkpt>
      <trkpt lat="44.46636" lon="0.94003">
        <ele>79.93</ele>
        <time>2016-01-16T15:35:26Z</time>
      </trkpt>
      <trkpt lat="44.46687" lon="0.9402">
        <ele>79.93</ele>
        <time>2016-01-16T15:35:39Z</time>
      </trkpt>
      <trkpt lat="44.46728" lon="0.94026">
        <ele>79.93</ele>
        <time>2016-01-16T15:35:49Z</time>
      </trkpt>
      <trkpt lat="44.46731" lon="0.94022">
        <ele>79.93</ele>
        <time>2016-01-16T15:35:50Z</time>
      </trkpt>
      <trkpt lat="44.46733" lon="0.94017">
        <ele>79.93</ele>
        <time>2016-01-16T15:35:51Z</time>
      </trkpt>
      <trkpt lat="44.46734" lon="0.94012">
        <ele>79.45</ele>
        <time>2016-01-16T15:35:52Z</time>
      </trkpt>
      <trkpt lat="44.46735" lon="0.94007">
        <ele>79.45</ele>
        <time>2016-01-16T15:35:53Z</time>
      </trkpt>
      <trkpt lat="44.46737" lon="0.94002">
        <ele>79.45</ele>
        <time>2016-01-16T15:35:54Z</time>
      </trkpt>
      <trkpt lat="44.46755" lon="0.93949">
        <ele>79.45</ele>
        <time>2016-01-16T15:36:04Z</time>
      </trkpt>
      <trkpt lat="44.46757" lon="0.93943">
        <ele>79.45</ele>
        <time>2016-01-16T15:36:05Z</time>
      </trkpt>
      <trkpt lat="44.46759" lon="0.93938">
        <ele>79.45</ele>
        <time>2016-01-16T15:36:06Z</time>
      </trkpt>
      <trkpt lat="44.46761" lon="0.93933">
        <ele>79.45</ele>
        <time>2016-01-16T15:36:07Z</time>
      </trkpt>
      <trkpt lat="44.46763" lon="0.93927">
        <ele>79.45</ele>
        <time>2016-01-16T15:36:08Z</time>
      </trkpt>
      <trkpt lat="44.46765" lon="0.93922">
        <ele>79.45</ele>
        <time>2016-01-16T15:36:09Z</time>
      </trkpt>
      <trkpt lat="44.46794" lon="0.93833">
        <ele>76.56</ele>
        <time>2016-01-16T15:36:26Z</time>
      </trkpt>
      <trkpt lat="44.46796" lon="0.93827">
        <ele>76.56</ele>
        <time>2016-01-16T15:36:27Z</time>
      </trkpt>
      <trkpt lat="44.46824" lon="0.93744">
        <ele>75.6</ele>
        <time>2016-01-16T15:36:42Z</time>
      </trkpt>
      <trkpt lat="44.46857" lon="0.93653">
        <ele>75.12</ele>
        <time>2016-01-16T15:36:58Z</time>
      </trkpt>
      <trkpt lat="44.46868" lon="0.93635">
        <ele>76.08</ele>
        <time>2016-01-16T15:37:08Z</time>
      </trkpt>
      <trkpt lat="44.46868" lon="0.93634">
        <ele>75.6</ele>
        <time>2016-01-16T15:37:24Z</time>
      </trkpt>
      <trkpt lat="44.46868" lon="0.93633">
        <ele>75.6</ele>
        <time>2016-01-16T15:37:28Z</time>
      </trkpt>
      <trkpt lat="44.46869" lon="0.93632">
        <ele>75.6</ele>
        <time>2016-01-16T15:37:29Z</time>
      </trkpt>
      <trkpt lat="44.46871" lon="0.93631">
        <ele>75.6</ele>
        <time>2016-01-16T15:37:30Z</time>
      </trkpt>
      <trkpt lat="44.46874" lon="0.93632">
        <ele>75.6</ele>
        <time>2016-01-16T15:37:31Z</time>
      </trkpt>
      <trkpt lat="44.46877" lon="0.93632">
        <ele>75.6</ele>
        <time>2016-01-16T15:37:32Z</time>
      </trkpt>
      <trkpt lat="44.4688" lon="0.93633">
        <ele>76.08</ele>
        <time>2016-01-16T15:37:33Z</time>
      </trkpt>
      <trkpt lat="44.46883" lon="0.93633">
        <ele>76.08</ele>
        <time>2016-01-16T15:37:34Z</time>
      </trkpt>
      <trkpt lat="44.46886" lon="0.93632">
        <ele>76.08</ele>
        <time>2016-01-16T15:37:35Z</time>
      </trkpt>
      <trkpt lat="44.46888" lon="0.93629">
        <ele>76.08</ele>
        <time>2016-01-16T15:37:36Z</time>
      </trkpt>
      <trkpt lat="44.46891" lon="0.93621">
        <ele>75.6</ele>
        <time>2016-01-16T15:37:38Z</time>
      </trkpt>
      <trkpt lat="44.46902" lon="0.93586">
        <ele>74.16</ele>
        <time>2016-01-16T15:37:44Z</time>
      </trkpt>
      <trkpt lat="44.46905" lon="0.93583">
        <ele>74.64</ele>
        <time>2016-01-16T15:37:45Z</time>
      </trkpt>
      <trkpt lat="44.4691" lon="0.93582">
        <ele>74.64</ele>
        <time>2016-01-16T15:37:46Z</time>
      </trkpt>
      <trkpt lat="44.46915" lon="0.93583">
        <ele>75.12</ele>
        <time>2016-01-16T15:37:47Z</time>
      </trkpt>
      <trkpt lat="44.46919" lon="0.93584">
        <ele>75.12</ele>
        <time>2016-01-16T15:37:48Z</time>
      </trkpt>
      <trkpt lat="44.46933" lon="0.93589">
        <ele>74.64</ele>
        <time>2016-01-16T15:37:51Z</time>
      </trkpt>
      <trkpt lat="44.46943" lon="0.93593">
        <ele>74.16</ele>
        <time>2016-01-16T15:37:53Z</time>
      </trkpt>
      <trkpt lat="44.46953" lon="0.93595">
        <ele>74.16</ele>
        <time>2016-01-16T15:37:55Z</time>
      </trkpt>
      <trkpt lat="44.46958" lon="0.93595">
        <ele>74.16</ele>
        <time>2016-01-16T15:37:56Z</time>
      </trkpt>
      <trkpt lat="44.46963" lon="0.93594">
        <ele>74.16</ele>
        <time>2016-01-16T15:37:57Z</time>
      </trkpt>
      <trkpt lat="44.46967" lon="0.93592">
        <ele>73.68</ele>
        <time>2016-01-16T15:37:58Z</time>
      </trkpt>
      <trkpt lat="44.46972" lon="0.9359">
        <ele>73.68</ele>
        <time>2016-01-16T15:37:59Z</time>
      </trkpt>
      <trkpt lat="44.46977" lon="0.93587">
        <ele>73.2</ele>
        <time>2016-01-16T15:38:00Z</time>
      </trkpt>
      <trkpt lat="44.47039" lon="0.93529">
        <ele>73.68</ele>
        <time>2016-01-16T15:38:15Z</time>
      </trkpt>
      <trkpt lat="44.4709" lon="0.93481">
        <ele>74.64</ele>
        <time>2016-01-16T15:38:30Z</time>
      </trkpt>
      <trkpt lat="44.47095" lon="0.93476">
        <ele>74.64</ele>
        <time>2016-01-16T15:38:33Z</time>
      </trkpt>
      <trkpt lat="44.47098" lon="0.93474">
        <ele>71.76</ele>
        <time>2016-01-16T15:38:47Z</time>
      </trkpt>
      <trkpt lat="44.47099" lon="0.93476">
        <ele>70.31</ele>
        <time>2016-01-16T15:38:54Z</time>
      </trkpt>
      <trkpt lat="44.471" lon="0.93478">
        <ele>70.31</ele>
        <time>2016-01-16T15:38:55Z</time>
      </trkpt>
      <trkpt lat="44.47102" lon="0.9348">
        <ele>70.31</ele>
        <time>2016-01-16T15:38:56Z</time>
      </trkpt>
      <trkpt lat="44.47104" lon="0.93483">
        <ele>69.83</ele>
        <time>2016-01-16T15:38:57Z</time>
      </trkpt>
      <trkpt lat="44.47107" lon="0.93486">
        <ele>69.83</ele>
        <time>2016-01-16T15:38:58Z</time>
      </trkpt>
      <trkpt lat="44.47109" lon="0.93488">
        <ele>69.83</ele>
        <time>2016-01-16T15:38:59Z</time>
      </trkpt>
      <trkpt lat="44.47112" lon="0.9349">
        <ele>69.35</ele>
        <time>2016-01-16T15:39:00Z</time>
      </trkpt>
      <trkpt lat="44.47115" lon="0.9349">
        <ele>69.35</ele>
        <time>2016-01-16T15:39:01Z</time>
      </trkpt>
      <trkpt lat="44.47117" lon="0.9349">
        <ele>69.83</ele>
        <time>2016-01-16T15:39:02Z</time>
      </trkpt>
      <trkpt lat="44.47165" lon="0.93471">
        <ele>70.79</ele>
        <time>2016-01-16T15:39:16Z</time>
      </trkpt>
      <trkpt lat="44.47205" lon="0.93451">
        <ele>71.76</ele>
        <time>2016-01-16T15:39:29Z</time>
      </trkpt>
      <trkpt lat="44.4721" lon="0.9344">
        <ele>71.76</ele>
        <time>2016-01-16T15:39:33Z</time>
      </trkpt>
      <trkpt lat="44.4721" lon="0.93438">
        <ele>71.27</ele>
        <time>2016-01-16T15:39:34Z</time>
      </trkpt>
      <trkpt lat="44.4721" lon="0.93435">
        <ele>71.27</ele>
        <time>2016-01-16T15:39:35Z</time>
      </trkpt>
      <trkpt lat="44.47209" lon="0.93433">
        <ele>71.27</ele>
        <time>2016-01-16T15:39:36Z</time>
      </trkpt>
      <trkpt lat="44.47208" lon="0.9343">
        <ele>70.79</ele>
        <time>2016-01-16T15:39:37Z</time>
      </trkpt>
      <trkpt lat="44.47207" lon="0.93427">
        <ele>69.83</ele>
        <time>2016-01-16T15:39:47Z</time>
      </trkpt>
    </trkseg>
  </trk>
</gpx>